<?xml version="1.0" encoding="UTF-8" standalone="no" ?>
<gpx xmlns="http://www.topografix.com/GPX/1/1" xmlns:xsi="http://www.w3.org/2001/XMLSchema-instance" xsi:schemaLocation="http://www.topografix.com/GPX/1/1 http://www.topografix.com/GPX/1/1/gpx.xsd" version="1.1" creator="VisuGPX - https://www.visugpx.com">
  <metadata>
    <name>Autour de St Laurent</name>
    <desc><![CDATA[Circuit très roulant autour de saint Laurent, passant par Soucieu, Orliénas, Taluyers et Mornant]]></desc>
  </metadata>
  <trk>
    <name><![CDATA[St Laurent - orlienas - taluyer - mornant - 22km]]></name>
    <trkseg>
      <trkpt lat="45.64075" lon="4.66849">
        <ele>435</ele>
        <time>2017-02-18T08:12:43Z</time>
      </trkpt>
      <trkpt lat="45.64079" lon="4.66852">
        <ele>435</ele>
        <time>2017-02-18T08:12:52Z</time>
      </trkpt>
      <trkpt lat="45.64084" lon="4.66854">
        <ele>435</ele>
        <time>2017-02-18T08:12:56Z</time>
      </trkpt>
      <trkpt lat="45.64088" lon="4.66856">
        <ele>436</ele>
        <time>2017-02-18T08:12:59Z</time>
      </trkpt>
      <trkpt lat="45.64093" lon="4.66856">
        <ele>437</ele>
        <time>2017-02-18T08:13:02Z</time>
      </trkpt>
      <trkpt lat="45.64098" lon="4.66857">
        <ele>438</ele>
        <time>2017-02-18T08:13:05Z</time>
      </trkpt>
      <trkpt lat="45.64103" lon="4.66856">
        <ele>439</ele>
        <time>2017-02-18T08:13:09Z</time>
      </trkpt>
      <trkpt lat="45.64108" lon="4.66856">
        <ele>440</ele>
        <time>2017-02-18T08:13:13Z</time>
      </trkpt>
      <trkpt lat="45.64113" lon="4.66855">
        <ele>441</ele>
        <time>2017-02-18T08:13:17Z</time>
      </trkpt>
      <trkpt lat="45.64118" lon="4.66856">
        <ele>442</ele>
        <time>2017-02-18T08:13:20Z</time>
      </trkpt>
      <trkpt lat="45.64124" lon="4.66856">
        <ele>443</ele>
        <time>2017-02-18T08:13:23Z</time>
      </trkpt>
      <trkpt lat="45.64129" lon="4.66855">
        <ele>443</ele>
        <time>2017-02-18T08:13:26Z</time>
      </trkpt>
      <trkpt lat="45.64134" lon="4.66855">
        <ele>444</ele>
        <time>2017-02-18T08:13:30Z</time>
      </trkpt>
      <trkpt lat="45.6414" lon="4.66854">
        <ele>445</ele>
        <time>2017-02-18T08:13:33Z</time>
      </trkpt>
      <trkpt lat="45.64147" lon="4.66853">
        <ele>445</ele>
        <time>2017-02-18T08:13:36Z</time>
      </trkpt>
      <trkpt lat="45.64153" lon="4.66851">
        <ele>446</ele>
        <time>2017-02-18T08:13:39Z</time>
      </trkpt>
      <trkpt lat="45.6416" lon="4.66849">
        <ele>447</ele>
        <time>2017-02-18T08:13:42Z</time>
      </trkpt>
      <trkpt lat="45.64165" lon="4.66848">
        <ele>447</ele>
        <time>2017-02-18T08:13:44Z</time>
      </trkpt>
      <trkpt lat="45.64172" lon="4.66847">
        <ele>447</ele>
        <time>2017-02-18T08:13:47Z</time>
      </trkpt>
      <trkpt lat="45.64178" lon="4.66846">
        <ele>447</ele>
        <time>2017-02-18T08:13:50Z</time>
      </trkpt>
      <trkpt lat="45.64183" lon="4.66845">
        <ele>447</ele>
        <time>2017-02-18T08:13:52Z</time>
      </trkpt>
      <trkpt lat="45.64189" lon="4.66844">
        <ele>447</ele>
        <time>2017-02-18T08:13:55Z</time>
      </trkpt>
      <trkpt lat="45.64194" lon="4.66844">
        <ele>447</ele>
        <time>2017-02-18T08:13:57Z</time>
      </trkpt>
      <trkpt lat="45.64201" lon="4.66843">
        <ele>447</ele>
        <time>2017-02-18T08:14:00Z</time>
      </trkpt>
      <trkpt lat="45.64206" lon="4.66844">
        <ele>448</ele>
        <time>2017-02-18T08:14:02Z</time>
      </trkpt>
      <trkpt lat="45.6421" lon="4.66845">
        <ele>448</ele>
        <time>2017-02-18T08:14:04Z</time>
      </trkpt>
      <trkpt lat="45.64217" lon="4.66846">
        <ele>448</ele>
        <time>2017-02-18T08:14:07Z</time>
      </trkpt>
      <trkpt lat="45.64222" lon="4.66848">
        <ele>449</ele>
        <time>2017-02-18T08:14:09Z</time>
      </trkpt>
      <trkpt lat="45.64226" lon="4.66851">
        <ele>450</ele>
        <time>2017-02-18T08:14:11Z</time>
      </trkpt>
      <trkpt lat="45.6423" lon="4.66853">
        <ele>450</ele>
        <time>2017-02-18T08:14:13Z</time>
      </trkpt>
      <trkpt lat="45.64235" lon="4.66856">
        <ele>451</ele>
        <time>2017-02-18T08:14:15Z</time>
      </trkpt>
      <trkpt lat="45.64239" lon="4.66858">
        <ele>451</ele>
        <time>2017-02-18T08:14:17Z</time>
      </trkpt>
      <trkpt lat="45.64245" lon="4.66863">
        <ele>451</ele>
        <time>2017-02-18T08:14:20Z</time>
      </trkpt>
      <trkpt lat="45.64249" lon="4.66866">
        <ele>450</ele>
        <time>2017-02-18T08:14:22Z</time>
      </trkpt>
      <trkpt lat="45.64253" lon="4.66869">
        <ele>449</ele>
        <time>2017-02-18T08:14:24Z</time>
      </trkpt>
      <trkpt lat="45.64257" lon="4.66873">
        <ele>449</ele>
        <time>2017-02-18T08:14:26Z</time>
      </trkpt>
      <trkpt lat="45.64261" lon="4.66878">
        <ele>448</ele>
        <time>2017-02-18T08:14:28Z</time>
      </trkpt>
      <trkpt lat="45.64265" lon="4.66883">
        <ele>447</ele>
        <time>2017-02-18T08:14:30Z</time>
      </trkpt>
      <trkpt lat="45.64269" lon="4.66887">
        <ele>446</ele>
        <time>2017-02-18T08:14:32Z</time>
      </trkpt>
      <trkpt lat="45.64274" lon="4.66891">
        <ele>446</ele>
        <time>2017-02-18T08:14:34Z</time>
      </trkpt>
      <trkpt lat="45.64277" lon="4.66896">
        <ele>446</ele>
        <time>2017-02-18T08:14:36Z</time>
      </trkpt>
      <trkpt lat="45.6428" lon="4.66901">
        <ele>446</ele>
        <time>2017-02-18T08:14:38Z</time>
      </trkpt>
      <trkpt lat="45.64283" lon="4.66907">
        <ele>446</ele>
        <time>2017-02-18T08:14:40Z</time>
      </trkpt>
      <trkpt lat="45.64287" lon="4.66912">
        <ele>447</ele>
        <time>2017-02-18T08:14:42Z</time>
      </trkpt>
      <trkpt lat="45.64291" lon="4.66918">
        <ele>447</ele>
        <time>2017-02-18T08:14:44Z</time>
      </trkpt>
      <trkpt lat="45.64294" lon="4.66924">
        <ele>447</ele>
        <time>2017-02-18T08:14:46Z</time>
      </trkpt>
      <trkpt lat="45.64297" lon="4.6693">
        <ele>447</ele>
        <time>2017-02-18T08:14:48Z</time>
      </trkpt>
      <trkpt lat="45.643" lon="4.66935">
        <ele>448</ele>
        <time>2017-02-18T08:14:50Z</time>
      </trkpt>
      <trkpt lat="45.64303" lon="4.66941">
        <ele>448</ele>
        <time>2017-02-18T08:14:52Z</time>
      </trkpt>
      <trkpt lat="45.64306" lon="4.66946">
        <ele>448</ele>
        <time>2017-02-18T08:14:54Z</time>
      </trkpt>
      <trkpt lat="45.64311" lon="4.66952">
        <ele>448</ele>
        <time>2017-02-18T08:14:57Z</time>
      </trkpt>
      <trkpt lat="45.64314" lon="4.66959">
        <ele>447</ele>
        <time>2017-02-18T08:15:00Z</time>
      </trkpt>
      <trkpt lat="45.64317" lon="4.66966">
        <ele>447</ele>
        <time>2017-02-18T08:15:03Z</time>
      </trkpt>
      <trkpt lat="45.6432" lon="4.66972">
        <ele>447</ele>
        <time>2017-02-18T08:15:06Z</time>
      </trkpt>
      <trkpt lat="45.64323" lon="4.66977">
        <ele>447</ele>
        <time>2017-02-18T08:15:09Z</time>
      </trkpt>
      <trkpt lat="45.64327" lon="4.66984">
        <ele>448</ele>
        <time>2017-02-18T08:15:12Z</time>
      </trkpt>
      <trkpt lat="45.64329" lon="4.66989">
        <ele>449</ele>
        <time>2017-02-18T08:15:16Z</time>
      </trkpt>
      <trkpt lat="45.64332" lon="4.66995">
        <ele>449</ele>
        <time>2017-02-18T08:15:20Z</time>
      </trkpt>
      <trkpt lat="45.64337" lon="4.66998">
        <ele>450</ele>
        <time>2017-02-18T08:15:24Z</time>
      </trkpt>
      <trkpt lat="45.64343" lon="4.66998">
        <ele>450</ele>
        <time>2017-02-18T08:15:28Z</time>
      </trkpt>
      <trkpt lat="45.64348" lon="4.66996">
        <ele>451</ele>
        <time>2017-02-18T08:15:33Z</time>
      </trkpt>
      <trkpt lat="45.64352" lon="4.66992">
        <ele>452</ele>
        <time>2017-02-18T08:15:37Z</time>
      </trkpt>
      <trkpt lat="45.64357" lon="4.6699">
        <ele>453</ele>
        <time>2017-02-18T08:15:41Z</time>
      </trkpt>
      <trkpt lat="45.64362" lon="4.66988">
        <ele>454</ele>
        <time>2017-02-18T08:15:45Z</time>
      </trkpt>
      <trkpt lat="45.64367" lon="4.66987">
        <ele>456</ele>
        <time>2017-02-18T08:15:49Z</time>
      </trkpt>
      <trkpt lat="45.64372" lon="4.66986">
        <ele>457</ele>
        <time>2017-02-18T08:15:53Z</time>
      </trkpt>
      <trkpt lat="45.64377" lon="4.66984">
        <ele>458</ele>
        <time>2017-02-18T08:15:57Z</time>
      </trkpt>
      <trkpt lat="45.64383" lon="4.66985">
        <ele>459</ele>
        <time>2017-02-18T08:16:01Z</time>
      </trkpt>
      <trkpt lat="45.64398" lon="4.66975">
        <ele>460</ele>
        <time>2017-02-18T08:16:14Z</time>
      </trkpt>
      <trkpt lat="45.64398" lon="4.66969">
        <ele>461</ele>
        <time>2017-02-18T08:16:15Z</time>
      </trkpt>
      <trkpt lat="45.64398" lon="4.66961">
        <ele>461</ele>
        <time>2017-02-18T08:16:17Z</time>
      </trkpt>
      <trkpt lat="45.644" lon="4.66952">
        <ele>462</ele>
        <time>2017-02-18T08:16:20Z</time>
      </trkpt>
      <trkpt lat="45.64402" lon="4.66945">
        <ele>463</ele>
        <time>2017-02-18T08:16:22Z</time>
      </trkpt>
      <trkpt lat="45.64404" lon="4.66938">
        <ele>464</ele>
        <time>2017-02-18T08:16:24Z</time>
      </trkpt>
      <trkpt lat="45.64406" lon="4.66933">
        <ele>464</ele>
        <time>2017-02-18T08:16:26Z</time>
      </trkpt>
      <trkpt lat="45.64409" lon="4.66926">
        <ele>465</ele>
        <time>2017-02-18T08:16:28Z</time>
      </trkpt>
      <trkpt lat="45.64413" lon="4.66918">
        <ele>466</ele>
        <time>2017-02-18T08:16:30Z</time>
      </trkpt>
      <trkpt lat="45.64417" lon="4.6691">
        <ele>467</ele>
        <time>2017-02-18T08:16:32Z</time>
      </trkpt>
      <trkpt lat="45.64421" lon="4.66902">
        <ele>468</ele>
        <time>2017-02-18T08:16:34Z</time>
      </trkpt>
      <trkpt lat="45.64425" lon="4.66895">
        <ele>468</ele>
        <time>2017-02-18T08:16:36Z</time>
      </trkpt>
      <trkpt lat="45.6443" lon="4.66886">
        <ele>469</ele>
        <time>2017-02-18T08:16:38Z</time>
      </trkpt>
      <trkpt lat="45.64434" lon="4.66879">
        <ele>469</ele>
        <time>2017-02-18T08:16:40Z</time>
      </trkpt>
      <trkpt lat="45.64439" lon="4.66873">
        <ele>469</ele>
        <time>2017-02-18T08:16:42Z</time>
      </trkpt>
      <trkpt lat="45.64444" lon="4.66866">
        <ele>468</ele>
        <time>2017-02-18T08:16:44Z</time>
      </trkpt>
      <trkpt lat="45.64449" lon="4.6686">
        <ele>468</ele>
        <time>2017-02-18T08:16:46Z</time>
      </trkpt>
      <trkpt lat="45.64454" lon="4.66854">
        <ele>468</ele>
        <time>2017-02-18T08:16:48Z</time>
      </trkpt>
      <trkpt lat="45.64459" lon="4.66848">
        <ele>467</ele>
        <time>2017-02-18T08:16:50Z</time>
      </trkpt>
      <trkpt lat="45.64464" lon="4.66843">
        <ele>467</ele>
        <time>2017-02-18T08:16:52Z</time>
      </trkpt>
      <trkpt lat="45.64469" lon="4.66836">
        <ele>467</ele>
        <time>2017-02-18T08:16:54Z</time>
      </trkpt>
      <trkpt lat="45.64475" lon="4.6683">
        <ele>467</ele>
        <time>2017-02-18T08:16:56Z</time>
      </trkpt>
      <trkpt lat="45.64479" lon="4.66824">
        <ele>468</ele>
        <time>2017-02-18T08:16:58Z</time>
      </trkpt>
      <trkpt lat="45.64484" lon="4.66818">
        <ele>468</ele>
        <time>2017-02-18T08:17:00Z</time>
      </trkpt>
      <trkpt lat="45.64489" lon="4.66812">
        <ele>468</ele>
        <time>2017-02-18T08:17:02Z</time>
      </trkpt>
      <trkpt lat="45.64494" lon="4.66806">
        <ele>469</ele>
        <time>2017-02-18T08:17:04Z</time>
      </trkpt>
      <trkpt lat="45.64499" lon="4.668">
        <ele>469</ele>
        <time>2017-02-18T08:17:06Z</time>
      </trkpt>
      <trkpt lat="45.64503" lon="4.66794">
        <ele>470</ele>
        <time>2017-02-18T08:17:08Z</time>
      </trkpt>
      <trkpt lat="45.64507" lon="4.66787">
        <ele>470</ele>
        <time>2017-02-18T08:17:10Z</time>
      </trkpt>
      <trkpt lat="45.64512" lon="4.6678">
        <ele>471</ele>
        <time>2017-02-18T08:17:12Z</time>
      </trkpt>
      <trkpt lat="45.64515" lon="4.66773">
        <ele>471</ele>
        <time>2017-02-18T08:17:14Z</time>
      </trkpt>
      <trkpt lat="45.64519" lon="4.66766">
        <ele>471</ele>
        <time>2017-02-18T08:17:16Z</time>
      </trkpt>
      <trkpt lat="45.64523" lon="4.66758">
        <ele>472</ele>
        <time>2017-02-18T08:17:18Z</time>
      </trkpt>
      <trkpt lat="45.64526" lon="4.66751">
        <ele>472</ele>
        <time>2017-02-18T08:17:20Z</time>
      </trkpt>
      <trkpt lat="45.64529" lon="4.66744">
        <ele>472</ele>
        <time>2017-02-18T08:17:22Z</time>
      </trkpt>
      <trkpt lat="45.64532" lon="4.66738">
        <ele>472</ele>
        <time>2017-02-18T08:17:24Z</time>
      </trkpt>
      <trkpt lat="45.64536" lon="4.66731">
        <ele>472</ele>
        <time>2017-02-18T08:17:26Z</time>
      </trkpt>
      <trkpt lat="45.64538" lon="4.66725">
        <ele>472</ele>
        <time>2017-02-18T08:17:28Z</time>
      </trkpt>
      <trkpt lat="45.64541" lon="4.6672">
        <ele>472</ele>
        <time>2017-02-18T08:17:30Z</time>
      </trkpt>
      <trkpt lat="45.64545" lon="4.66712">
        <ele>472</ele>
        <time>2017-02-18T08:17:33Z</time>
      </trkpt>
      <trkpt lat="45.6455" lon="4.66708">
        <ele>473</ele>
        <time>2017-02-18T08:17:36Z</time>
      </trkpt>
      <trkpt lat="45.64555" lon="4.66711">
        <ele>473</ele>
        <time>2017-02-18T08:17:38Z</time>
      </trkpt>
      <trkpt lat="45.64557" lon="4.66717">
        <ele>473</ele>
        <time>2017-02-18T08:17:40Z</time>
      </trkpt>
      <trkpt lat="45.64559" lon="4.66722">
        <ele>472</ele>
        <time>2017-02-18T08:17:42Z</time>
      </trkpt>
      <trkpt lat="45.64562" lon="4.66731">
        <ele>472</ele>
        <time>2017-02-18T08:17:45Z</time>
      </trkpt>
      <trkpt lat="45.64564" lon="4.66739">
        <ele>472</ele>
        <time>2017-02-18T08:17:48Z</time>
      </trkpt>
      <trkpt lat="45.64567" lon="4.66746">
        <ele>473</ele>
        <time>2017-02-18T08:17:51Z</time>
      </trkpt>
      <trkpt lat="45.64569" lon="4.66754">
        <ele>473</ele>
        <time>2017-02-18T08:17:54Z</time>
      </trkpt>
      <trkpt lat="45.64572" lon="4.66762">
        <ele>474</ele>
        <time>2017-02-18T08:17:57Z</time>
      </trkpt>
      <trkpt lat="45.64574" lon="4.6677">
        <ele>474</ele>
        <time>2017-02-18T08:18:00Z</time>
      </trkpt>
      <trkpt lat="45.64579" lon="4.66776">
        <ele>475</ele>
        <time>2017-02-18T08:18:03Z</time>
      </trkpt>
      <trkpt lat="45.64584" lon="4.66783">
        <ele>476</ele>
        <time>2017-02-18T08:18:06Z</time>
      </trkpt>
      <trkpt lat="45.64588" lon="4.66791">
        <ele>476</ele>
        <time>2017-02-18T08:18:09Z</time>
      </trkpt>
      <trkpt lat="45.64591" lon="4.66795">
        <ele>477</ele>
        <time>2017-02-18T08:18:11Z</time>
      </trkpt>
      <trkpt lat="45.64594" lon="4.668">
        <ele>477</ele>
        <time>2017-02-18T08:18:13Z</time>
      </trkpt>
      <trkpt lat="45.64597" lon="4.66808">
        <ele>478</ele>
        <time>2017-02-18T08:18:16Z</time>
      </trkpt>
      <trkpt lat="45.64599" lon="4.66814">
        <ele>478</ele>
        <time>2017-02-18T08:18:18Z</time>
      </trkpt>
      <trkpt lat="45.64602" lon="4.66823">
        <ele>478</ele>
        <time>2017-02-18T08:18:21Z</time>
      </trkpt>
      <trkpt lat="45.64603" lon="4.66829">
        <ele>478</ele>
        <time>2017-02-18T08:18:23Z</time>
      </trkpt>
      <trkpt lat="45.64605" lon="4.66838">
        <ele>478</ele>
        <time>2017-02-18T08:18:26Z</time>
      </trkpt>
      <trkpt lat="45.64607" lon="4.66847">
        <ele>478</ele>
        <time>2017-02-18T08:18:29Z</time>
      </trkpt>
      <trkpt lat="45.64609" lon="4.66856">
        <ele>478</ele>
        <time>2017-02-18T08:18:32Z</time>
      </trkpt>
      <trkpt lat="45.64611" lon="4.66864">
        <ele>479</ele>
        <time>2017-02-18T08:18:35Z</time>
      </trkpt>
      <trkpt lat="45.64612" lon="4.66872">
        <ele>479</ele>
        <time>2017-02-18T08:18:38Z</time>
      </trkpt>
      <trkpt lat="45.64615" lon="4.6688">
        <ele>479</ele>
        <time>2017-02-18T08:18:41Z</time>
      </trkpt>
      <trkpt lat="45.64618" lon="4.66887">
        <ele>479</ele>
        <time>2017-02-18T08:18:44Z</time>
      </trkpt>
      <trkpt lat="45.64622" lon="4.66894">
        <ele>479</ele>
        <time>2017-02-18T08:18:47Z</time>
      </trkpt>
      <trkpt lat="45.64626" lon="4.669">
        <ele>479</ele>
        <time>2017-02-18T08:18:50Z</time>
      </trkpt>
      <trkpt lat="45.64629" lon="4.66907">
        <ele>480</ele>
        <time>2017-02-18T08:18:53Z</time>
      </trkpt>
      <trkpt lat="45.64632" lon="4.66914">
        <ele>480</ele>
        <time>2017-02-18T08:18:56Z</time>
      </trkpt>
      <trkpt lat="45.64635" lon="4.66921">
        <ele>481</ele>
        <time>2017-02-18T08:18:59Z</time>
      </trkpt>
      <trkpt lat="45.64638" lon="4.66927">
        <ele>482</ele>
        <time>2017-02-18T08:19:02Z</time>
      </trkpt>
      <trkpt lat="45.6464" lon="4.66934">
        <ele>482</ele>
        <time>2017-02-18T08:19:05Z</time>
      </trkpt>
      <trkpt lat="45.64644" lon="4.66941">
        <ele>483</ele>
        <time>2017-02-18T08:19:08Z</time>
      </trkpt>
      <trkpt lat="45.64647" lon="4.66948">
        <ele>483</ele>
        <time>2017-02-18T08:19:11Z</time>
      </trkpt>
      <trkpt lat="45.6465" lon="4.66956">
        <ele>484</ele>
        <time>2017-02-18T08:19:14Z</time>
      </trkpt>
      <trkpt lat="45.64654" lon="4.66963">
        <ele>484</ele>
        <time>2017-02-18T08:19:17Z</time>
      </trkpt>
      <trkpt lat="45.64657" lon="4.6697">
        <ele>484</ele>
        <time>2017-02-18T08:19:20Z</time>
      </trkpt>
      <trkpt lat="45.64661" lon="4.66978">
        <ele>484</ele>
        <time>2017-02-18T08:19:23Z</time>
      </trkpt>
      <trkpt lat="45.64665" lon="4.66984">
        <ele>484</ele>
        <time>2017-02-18T08:19:26Z</time>
      </trkpt>
      <trkpt lat="45.6467" lon="4.66991">
        <ele>484</ele>
        <time>2017-02-18T08:19:29Z</time>
      </trkpt>
      <trkpt lat="45.64673" lon="4.66995">
        <ele>484</ele>
        <time>2017-02-18T08:19:31Z</time>
      </trkpt>
      <trkpt lat="45.64677" lon="4.67002">
        <ele>485</ele>
        <time>2017-02-18T08:19:34Z</time>
      </trkpt>
      <trkpt lat="45.64681" lon="4.67006">
        <ele>485</ele>
        <time>2017-02-18T08:19:36Z</time>
      </trkpt>
      <trkpt lat="45.64685" lon="4.6701">
        <ele>486</ele>
        <time>2017-02-18T08:19:38Z</time>
      </trkpt>
      <trkpt lat="45.6469" lon="4.67016">
        <ele>486</ele>
        <time>2017-02-18T08:19:41Z</time>
      </trkpt>
      <trkpt lat="45.64695" lon="4.67022">
        <ele>487</ele>
        <time>2017-02-18T08:19:44Z</time>
      </trkpt>
      <trkpt lat="45.64699" lon="4.67027">
        <ele>488</ele>
        <time>2017-02-18T08:19:47Z</time>
      </trkpt>
      <trkpt lat="45.64703" lon="4.67034">
        <ele>489</ele>
        <time>2017-02-18T08:19:50Z</time>
      </trkpt>
      <trkpt lat="45.64704" lon="4.67042">
        <ele>490</ele>
        <time>2017-02-18T08:19:53Z</time>
      </trkpt>
      <trkpt lat="45.64705" lon="4.6705">
        <ele>490</ele>
        <time>2017-02-18T08:19:56Z</time>
      </trkpt>
      <trkpt lat="45.64709" lon="4.67056">
        <ele>490</ele>
        <time>2017-02-18T08:19:59Z</time>
      </trkpt>
      <trkpt lat="45.64714" lon="4.67061">
        <ele>490</ele>
        <time>2017-02-18T08:20:02Z</time>
      </trkpt>
      <trkpt lat="45.64718" lon="4.67065">
        <ele>490</ele>
        <time>2017-02-18T08:20:04Z</time>
      </trkpt>
      <trkpt lat="45.64722" lon="4.6707">
        <ele>490</ele>
        <time>2017-02-18T08:20:06Z</time>
      </trkpt>
      <trkpt lat="45.64726" lon="4.67074">
        <ele>490</ele>
        <time>2017-02-18T08:20:08Z</time>
      </trkpt>
      <trkpt lat="45.64729" lon="4.67078">
        <ele>491</ele>
        <time>2017-02-18T08:20:10Z</time>
      </trkpt>
      <trkpt lat="45.64734" lon="4.67085">
        <ele>492</ele>
        <time>2017-02-18T08:20:13Z</time>
      </trkpt>
      <trkpt lat="45.64739" lon="4.6709">
        <ele>492</ele>
        <time>2017-02-18T08:20:15Z</time>
      </trkpt>
      <trkpt lat="45.64743" lon="4.67096">
        <ele>493</ele>
        <time>2017-02-18T08:20:17Z</time>
      </trkpt>
      <trkpt lat="45.64748" lon="4.67102">
        <ele>493</ele>
        <time>2017-02-18T08:20:19Z</time>
      </trkpt>
      <trkpt lat="45.64753" lon="4.67107">
        <ele>492</ele>
        <time>2017-02-18T08:20:21Z</time>
      </trkpt>
      <trkpt lat="45.64759" lon="4.67112">
        <ele>492</ele>
        <time>2017-02-18T08:20:23Z</time>
      </trkpt>
      <trkpt lat="45.64763" lon="4.67118">
        <ele>492</ele>
        <time>2017-02-18T08:20:25Z</time>
      </trkpt>
      <trkpt lat="45.64768" lon="4.67124">
        <ele>491</ele>
        <time>2017-02-18T08:20:27Z</time>
      </trkpt>
      <trkpt lat="45.64772" lon="4.6713">
        <ele>490</ele>
        <time>2017-02-18T08:20:29Z</time>
      </trkpt>
      <trkpt lat="45.64776" lon="4.67138">
        <ele>489</ele>
        <time>2017-02-18T08:20:31Z</time>
      </trkpt>
      <trkpt lat="45.6478" lon="4.67147">
        <ele>488</ele>
        <time>2017-02-18T08:20:33Z</time>
      </trkpt>
      <trkpt lat="45.64784" lon="4.67156">
        <ele>487</ele>
        <time>2017-02-18T08:20:35Z</time>
      </trkpt>
      <trkpt lat="45.64787" lon="4.67165">
        <ele>487</ele>
        <time>2017-02-18T08:20:37Z</time>
      </trkpt>
      <trkpt lat="45.64789" lon="4.67175">
        <ele>486</ele>
        <time>2017-02-18T08:20:39Z</time>
      </trkpt>
      <trkpt lat="45.64792" lon="4.67186">
        <ele>486</ele>
        <time>2017-02-18T08:20:41Z</time>
      </trkpt>
      <trkpt lat="45.64795" lon="4.67196">
        <ele>485</ele>
        <time>2017-02-18T08:20:43Z</time>
      </trkpt>
      <trkpt lat="45.64798" lon="4.67207">
        <ele>485</ele>
        <time>2017-02-18T08:20:45Z</time>
      </trkpt>
      <trkpt lat="45.648" lon="4.67218">
        <ele>485</ele>
        <time>2017-02-18T08:20:47Z</time>
      </trkpt>
      <trkpt lat="45.64802" lon="4.67228">
        <ele>485</ele>
        <time>2017-02-18T08:20:49Z</time>
      </trkpt>
      <trkpt lat="45.64803" lon="4.67235">
        <ele>485</ele>
        <time>2017-02-18T08:20:50Z</time>
      </trkpt>
      <trkpt lat="45.64805" lon="4.67247">
        <ele>484</ele>
        <time>2017-02-18T08:20:52Z</time>
      </trkpt>
      <trkpt lat="45.64805" lon="4.67253">
        <ele>484</ele>
        <time>2017-02-18T08:20:53Z</time>
      </trkpt>
      <trkpt lat="45.64806" lon="4.6726">
        <ele>484</ele>
        <time>2017-02-18T08:20:54Z</time>
      </trkpt>
      <trkpt lat="45.64807" lon="4.67268">
        <ele>483</ele>
        <time>2017-02-18T08:20:55Z</time>
      </trkpt>
      <trkpt lat="45.64808" lon="4.67281">
        <ele>483</ele>
        <time>2017-02-18T08:20:57Z</time>
      </trkpt>
      <trkpt lat="45.64809" lon="4.67287">
        <ele>483</ele>
        <time>2017-02-18T08:20:58Z</time>
      </trkpt>
      <trkpt lat="45.64811" lon="4.67294">
        <ele>484</ele>
        <time>2017-02-18T08:20:59Z</time>
      </trkpt>
      <trkpt lat="45.64812" lon="4.67306">
        <ele>484</ele>
        <time>2017-02-18T08:21:01Z</time>
      </trkpt>
      <trkpt lat="45.64813" lon="4.67313">
        <ele>484</ele>
        <time>2017-02-18T08:21:02Z</time>
      </trkpt>
      <trkpt lat="45.64866" lon="4.67429">
        <ele>481</ele>
        <time>2017-02-18T08:21:22Z</time>
      </trkpt>
      <trkpt lat="45.64871" lon="4.67431">
        <ele>479</ele>
        <time>2017-02-18T08:21:23Z</time>
      </trkpt>
      <trkpt lat="45.64878" lon="4.67435">
        <ele>477</ele>
        <time>2017-02-18T08:21:25Z</time>
      </trkpt>
      <trkpt lat="45.64887" lon="4.67438">
        <ele>475</ele>
        <time>2017-02-18T08:21:27Z</time>
      </trkpt>
      <trkpt lat="45.64892" lon="4.67439">
        <ele>473</ele>
        <time>2017-02-18T08:21:28Z</time>
      </trkpt>
      <trkpt lat="45.64901" lon="4.6744">
        <ele>473</ele>
        <time>2017-02-18T08:21:30Z</time>
      </trkpt>
      <trkpt lat="45.64906" lon="4.67442">
        <ele>472</ele>
        <time>2017-02-18T08:21:31Z</time>
      </trkpt>
      <trkpt lat="45.6491" lon="4.67442">
        <ele>472</ele>
        <time>2017-02-18T08:21:32Z</time>
      </trkpt>
      <trkpt lat="45.64915" lon="4.67443">
        <ele>471</ele>
        <time>2017-02-18T08:21:33Z</time>
      </trkpt>
      <trkpt lat="45.64923" lon="4.67446">
        <ele>471</ele>
        <time>2017-02-18T08:21:35Z</time>
      </trkpt>
      <trkpt lat="45.64929" lon="4.67449">
        <ele>470</ele>
        <time>2017-02-18T08:21:36Z</time>
      </trkpt>
      <trkpt lat="45.64937" lon="4.67455">
        <ele>470</ele>
        <time>2017-02-18T08:21:38Z</time>
      </trkpt>
      <trkpt lat="45.64942" lon="4.67459">
        <ele>469</ele>
        <time>2017-02-18T08:21:39Z</time>
      </trkpt>
      <trkpt lat="45.64946" lon="4.67462">
        <ele>469</ele>
        <time>2017-02-18T08:21:40Z</time>
      </trkpt>
      <trkpt lat="45.64951" lon="4.67466">
        <ele>468</ele>
        <time>2017-02-18T08:21:41Z</time>
      </trkpt>
      <trkpt lat="45.64956" lon="4.6747">
        <ele>468</ele>
        <time>2017-02-18T08:21:42Z</time>
      </trkpt>
      <trkpt lat="45.64961" lon="4.67474">
        <ele>468</ele>
        <time>2017-02-18T08:21:43Z</time>
      </trkpt>
      <trkpt lat="45.64968" lon="4.67482">
        <ele>467</ele>
        <time>2017-02-18T08:21:45Z</time>
      </trkpt>
      <trkpt lat="45.64972" lon="4.67486">
        <ele>467</ele>
        <time>2017-02-18T08:21:46Z</time>
      </trkpt>
      <trkpt lat="45.64975" lon="4.6749">
        <ele>467</ele>
        <time>2017-02-18T08:21:47Z</time>
      </trkpt>
      <trkpt lat="45.64979" lon="4.67497">
        <ele>467</ele>
        <time>2017-02-18T08:21:48Z</time>
      </trkpt>
      <trkpt lat="45.64984" lon="4.67502">
        <ele>466</ele>
        <time>2017-02-18T08:21:49Z</time>
      </trkpt>
      <trkpt lat="45.64989" lon="4.6751">
        <ele>465</ele>
        <time>2017-02-18T08:21:50Z</time>
      </trkpt>
      <trkpt lat="45.64994" lon="4.67518">
        <ele>464</ele>
        <time>2017-02-18T08:21:51Z</time>
      </trkpt>
      <trkpt lat="45.64999" lon="4.67525">
        <ele>463</ele>
        <time>2017-02-18T08:21:52Z</time>
      </trkpt>
      <trkpt lat="45.65005" lon="4.67532">
        <ele>462</ele>
        <time>2017-02-18T08:21:53Z</time>
      </trkpt>
      <trkpt lat="45.65011" lon="4.67541">
        <ele>461</ele>
        <time>2017-02-18T08:21:54Z</time>
      </trkpt>
      <trkpt lat="45.65017" lon="4.67549">
        <ele>461</ele>
        <time>2017-02-18T08:21:55Z</time>
      </trkpt>
      <trkpt lat="45.65025" lon="4.67557">
        <ele>461</ele>
        <time>2017-02-18T08:21:56Z</time>
      </trkpt>
      <trkpt lat="45.65032" lon="4.67567">
        <ele>462</ele>
        <time>2017-02-18T08:21:57Z</time>
      </trkpt>
      <trkpt lat="45.65041" lon="4.67576">
        <ele>463</ele>
        <time>2017-02-18T08:21:58Z</time>
      </trkpt>
      <trkpt lat="45.65049" lon="4.67585">
        <ele>465</ele>
        <time>2017-02-18T08:21:59Z</time>
      </trkpt>
      <trkpt lat="45.65059" lon="4.67594">
        <ele>464</ele>
        <time>2017-02-18T08:22:00Z</time>
      </trkpt>
      <trkpt lat="45.6507" lon="4.67602">
        <ele>462</ele>
        <time>2017-02-18T08:22:01Z</time>
      </trkpt>
      <trkpt lat="45.6508" lon="4.67609">
        <ele>460</ele>
        <time>2017-02-18T08:22:02Z</time>
      </trkpt>
      <trkpt lat="45.65091" lon="4.67615">
        <ele>458</ele>
        <time>2017-02-18T08:22:03Z</time>
      </trkpt>
      <trkpt lat="45.65102" lon="4.67623">
        <ele>456</ele>
        <time>2017-02-18T08:22:04Z</time>
      </trkpt>
      <trkpt lat="45.65112" lon="4.6763">
        <ele>456</ele>
        <time>2017-02-18T08:22:05Z</time>
      </trkpt>
      <trkpt lat="45.65123" lon="4.67638">
        <ele>455</ele>
        <time>2017-02-18T08:22:06Z</time>
      </trkpt>
      <trkpt lat="45.65134" lon="4.67645">
        <ele>454</ele>
        <time>2017-02-18T08:22:07Z</time>
      </trkpt>
      <trkpt lat="45.65148" lon="4.6765">
        <ele>454</ele>
        <time>2017-02-18T08:22:08Z</time>
      </trkpt>
      <trkpt lat="45.65158" lon="4.67659">
        <ele>453</ele>
        <time>2017-02-18T08:22:09Z</time>
      </trkpt>
      <trkpt lat="45.65166" lon="4.67669">
        <ele>452</ele>
        <time>2017-02-18T08:22:10Z</time>
      </trkpt>
      <trkpt lat="45.65176" lon="4.67677">
        <ele>450</ele>
        <time>2017-02-18T08:22:11Z</time>
      </trkpt>
      <trkpt lat="45.65186" lon="4.67683">
        <ele>448</ele>
        <time>2017-02-18T08:22:12Z</time>
      </trkpt>
      <trkpt lat="45.65194" lon="4.67686">
        <ele>446</ele>
        <time>2017-02-18T08:22:13Z</time>
      </trkpt>
      <trkpt lat="45.65204" lon="4.67691">
        <ele>443</ele>
        <time>2017-02-18T08:22:14Z</time>
      </trkpt>
      <trkpt lat="45.65213" lon="4.67696">
        <ele>442</ele>
        <time>2017-02-18T08:22:15Z</time>
      </trkpt>
      <trkpt lat="45.65217" lon="4.67699">
        <ele>441</ele>
        <time>2017-02-18T08:22:16Z</time>
      </trkpt>
      <trkpt lat="45.65227" lon="4.677">
        <ele>441</ele>
        <time>2017-02-18T08:22:17Z</time>
      </trkpt>
      <trkpt lat="45.65234" lon="4.67703">
        <ele>440</ele>
        <time>2017-02-18T08:22:18Z</time>
      </trkpt>
      <trkpt lat="45.65243" lon="4.67705">
        <ele>440</ele>
        <time>2017-02-18T08:22:19Z</time>
      </trkpt>
      <trkpt lat="45.6525" lon="4.67711">
        <ele>439</ele>
        <time>2017-02-18T08:22:20Z</time>
      </trkpt>
      <trkpt lat="45.65258" lon="4.67713">
        <ele>438</ele>
        <time>2017-02-18T08:22:21Z</time>
      </trkpt>
      <trkpt lat="45.65265" lon="4.67717">
        <ele>437</ele>
        <time>2017-02-18T08:22:22Z</time>
      </trkpt>
      <trkpt lat="45.65271" lon="4.67722">
        <ele>437</ele>
        <time>2017-02-18T08:22:23Z</time>
      </trkpt>
      <trkpt lat="45.65277" lon="4.67727">
        <ele>436</ele>
        <time>2017-02-18T08:22:24Z</time>
      </trkpt>
      <trkpt lat="45.65282" lon="4.67733">
        <ele>435</ele>
        <time>2017-02-18T08:22:25Z</time>
      </trkpt>
      <trkpt lat="45.65287" lon="4.67739">
        <ele>435</ele>
        <time>2017-02-18T08:22:26Z</time>
      </trkpt>
      <trkpt lat="45.65291" lon="4.67745">
        <ele>435</ele>
        <time>2017-02-18T08:22:27Z</time>
      </trkpt>
      <trkpt lat="45.65299" lon="4.67746">
        <ele>434</ele>
        <time>2017-02-18T08:22:28Z</time>
      </trkpt>
      <trkpt lat="45.65303" lon="4.67751">
        <ele>434</ele>
        <time>2017-02-18T08:22:29Z</time>
      </trkpt>
      <trkpt lat="45.65307" lon="4.67757">
        <ele>433</ele>
        <time>2017-02-18T08:22:30Z</time>
      </trkpt>
      <trkpt lat="45.65311" lon="4.67762">
        <ele>432</ele>
        <time>2017-02-18T08:22:31Z</time>
      </trkpt>
      <trkpt lat="45.65315" lon="4.67768">
        <ele>431</ele>
        <time>2017-02-18T08:22:32Z</time>
      </trkpt>
      <trkpt lat="45.65319" lon="4.67773">
        <ele>430</ele>
        <time>2017-02-18T08:22:33Z</time>
      </trkpt>
      <trkpt lat="45.65323" lon="4.67778">
        <ele>429</ele>
        <time>2017-02-18T08:22:34Z</time>
      </trkpt>
      <trkpt lat="45.65326" lon="4.67783">
        <ele>429</ele>
        <time>2017-02-18T08:22:35Z</time>
      </trkpt>
      <trkpt lat="45.65332" lon="4.67794">
        <ele>428</ele>
        <time>2017-02-18T08:22:37Z</time>
      </trkpt>
      <trkpt lat="45.65334" lon="4.678">
        <ele>428</ele>
        <time>2017-02-18T08:22:38Z</time>
      </trkpt>
      <trkpt lat="45.65337" lon="4.67809">
        <ele>429</ele>
        <time>2017-02-18T08:22:40Z</time>
      </trkpt>
      <trkpt lat="45.6534" lon="4.67819">
        <ele>429</ele>
        <time>2017-02-18T08:22:42Z</time>
      </trkpt>
      <trkpt lat="45.65343" lon="4.6783">
        <ele>429</ele>
        <time>2017-02-18T08:22:44Z</time>
      </trkpt>
      <trkpt lat="45.65345" lon="4.67841">
        <ele>430</ele>
        <time>2017-02-18T08:22:46Z</time>
      </trkpt>
      <trkpt lat="45.65348" lon="4.67853">
        <ele>430</ele>
        <time>2017-02-18T08:22:48Z</time>
      </trkpt>
      <trkpt lat="45.6535" lon="4.67859">
        <ele>430</ele>
        <time>2017-02-18T08:22:49Z</time>
      </trkpt>
      <trkpt lat="45.65351" lon="4.6787">
        <ele>434</ele>
        <time>2017-02-18T08:22:51Z</time>
      </trkpt>
      <trkpt lat="45.65353" lon="4.67879">
        <ele>440</ele>
        <time>2017-02-18T08:22:53Z</time>
      </trkpt>
      <trkpt lat="45.65355" lon="4.6789">
        <ele>444</ele>
        <time>2017-02-18T08:22:55Z</time>
      </trkpt>
      <trkpt lat="45.65357" lon="4.67902">
        <ele>449</ele>
        <time>2017-02-18T08:22:57Z</time>
      </trkpt>
      <trkpt lat="45.65361" lon="4.67911">
        <ele>454</ele>
        <time>2017-02-18T08:22:59Z</time>
      </trkpt>
      <trkpt lat="45.65367" lon="4.6792">
        <ele>454</ele>
        <time>2017-02-18T08:23:01Z</time>
      </trkpt>
      <trkpt lat="45.65373" lon="4.67928">
        <ele>453</ele>
        <time>2017-02-18T08:23:03Z</time>
      </trkpt>
      <trkpt lat="45.65378" lon="4.67937">
        <ele>453</ele>
        <time>2017-02-18T08:23:05Z</time>
      </trkpt>
      <trkpt lat="45.65382" lon="4.67946">
        <ele>451</ele>
        <time>2017-02-18T08:23:07Z</time>
      </trkpt>
      <trkpt lat="45.65387" lon="4.67955">
        <ele>450</ele>
        <time>2017-02-18T08:23:09Z</time>
      </trkpt>
      <trkpt lat="45.65392" lon="4.67963">
        <ele>449</ele>
        <time>2017-02-18T08:23:11Z</time>
      </trkpt>
      <trkpt lat="45.65396" lon="4.67972">
        <ele>449</ele>
        <time>2017-02-18T08:23:13Z</time>
      </trkpt>
      <trkpt lat="45.65401" lon="4.6798">
        <ele>448</ele>
        <time>2017-02-18T08:23:15Z</time>
      </trkpt>
      <trkpt lat="45.65407" lon="4.67985">
        <ele>448</ele>
        <time>2017-02-18T08:23:17Z</time>
      </trkpt>
      <trkpt lat="45.65414" lon="4.67989">
        <ele>449</ele>
        <time>2017-02-18T08:23:19Z</time>
      </trkpt>
      <trkpt lat="45.65421" lon="4.67993">
        <ele>449</ele>
        <time>2017-02-18T08:23:21Z</time>
      </trkpt>
      <trkpt lat="45.65428" lon="4.67997">
        <ele>449</ele>
        <time>2017-02-18T08:23:23Z</time>
      </trkpt>
      <trkpt lat="45.65435" lon="4.68">
        <ele>449</ele>
        <time>2017-02-18T08:23:25Z</time>
      </trkpt>
      <trkpt lat="45.65443" lon="4.68004">
        <ele>447</ele>
        <time>2017-02-18T08:23:27Z</time>
      </trkpt>
      <trkpt lat="45.6545" lon="4.68008">
        <ele>443</ele>
        <time>2017-02-18T08:23:29Z</time>
      </trkpt>
      <trkpt lat="45.65457" lon="4.68011">
        <ele>440</ele>
        <time>2017-02-18T08:23:31Z</time>
      </trkpt>
      <trkpt lat="45.65464" lon="4.68015">
        <ele>437</ele>
        <time>2017-02-18T08:23:33Z</time>
      </trkpt>
      <trkpt lat="45.6547" lon="4.68018">
        <ele>434</ele>
        <time>2017-02-18T08:23:35Z</time>
      </trkpt>
      <trkpt lat="45.65476" lon="4.68022">
        <ele>432</ele>
        <time>2017-02-18T08:23:37Z</time>
      </trkpt>
      <trkpt lat="45.65482" lon="4.68028">
        <ele>432</ele>
        <time>2017-02-18T08:23:39Z</time>
      </trkpt>
      <trkpt lat="45.65488" lon="4.68033">
        <ele>431</ele>
        <time>2017-02-18T08:23:41Z</time>
      </trkpt>
      <trkpt lat="45.65494" lon="4.68037">
        <ele>431</ele>
        <time>2017-02-18T08:23:43Z</time>
      </trkpt>
      <trkpt lat="45.65501" lon="4.68043">
        <ele>430</ele>
        <time>2017-02-18T08:23:45Z</time>
      </trkpt>
      <trkpt lat="45.65507" lon="4.68048">
        <ele>430</ele>
        <time>2017-02-18T08:23:47Z</time>
      </trkpt>
      <trkpt lat="45.65514" lon="4.68053">
        <ele>429</ele>
        <time>2017-02-18T08:23:49Z</time>
      </trkpt>
      <trkpt lat="45.6552" lon="4.68058">
        <ele>429</ele>
        <time>2017-02-18T08:23:51Z</time>
      </trkpt>
      <trkpt lat="45.65527" lon="4.68061">
        <ele>428</ele>
        <time>2017-02-18T08:23:53Z</time>
      </trkpt>
      <trkpt lat="45.65533" lon="4.68064">
        <ele>427</ele>
        <time>2017-02-18T08:23:55Z</time>
      </trkpt>
      <trkpt lat="45.65539" lon="4.68068">
        <ele>427</ele>
        <time>2017-02-18T08:23:57Z</time>
      </trkpt>
      <trkpt lat="45.65545" lon="4.68072">
        <ele>427</ele>
        <time>2017-02-18T08:23:59Z</time>
      </trkpt>
      <trkpt lat="45.65551" lon="4.68075">
        <ele>427</ele>
        <time>2017-02-18T08:24:01Z</time>
      </trkpt>
      <trkpt lat="45.65556" lon="4.68079">
        <ele>427</ele>
        <time>2017-02-18T08:24:03Z</time>
      </trkpt>
      <trkpt lat="45.65559" lon="4.68085">
        <ele>427</ele>
        <time>2017-02-18T08:24:05Z</time>
      </trkpt>
      <trkpt lat="45.65556" lon="4.68091">
        <ele>427</ele>
        <time>2017-02-18T08:24:07Z</time>
      </trkpt>
      <trkpt lat="45.6555" lon="4.68095">
        <ele>427</ele>
        <time>2017-02-18T08:24:09Z</time>
      </trkpt>
      <trkpt lat="45.65547" lon="4.681">
        <ele>427</ele>
        <time>2017-02-18T08:24:11Z</time>
      </trkpt>
      <trkpt lat="45.65542" lon="4.68106">
        <ele>427</ele>
        <time>2017-02-18T08:24:14Z</time>
      </trkpt>
      <trkpt lat="45.65537" lon="4.68112">
        <ele>427</ele>
        <time>2017-02-18T08:24:17Z</time>
      </trkpt>
      <trkpt lat="45.65533" lon="4.68118">
        <ele>427</ele>
        <time>2017-02-18T08:24:20Z</time>
      </trkpt>
      <trkpt lat="45.65529" lon="4.68124">
        <ele>428</ele>
        <time>2017-02-18T08:24:23Z</time>
      </trkpt>
      <trkpt lat="45.65524" lon="4.6813">
        <ele>429</ele>
        <time>2017-02-18T08:24:26Z</time>
      </trkpt>
      <trkpt lat="45.65521" lon="4.68139">
        <ele>430</ele>
        <time>2017-02-18T08:24:29Z</time>
      </trkpt>
      <trkpt lat="45.65518" lon="4.68145">
        <ele>432</ele>
        <time>2017-02-18T08:24:31Z</time>
      </trkpt>
      <trkpt lat="45.65515" lon="4.6815">
        <ele>434</ele>
        <time>2017-02-18T08:24:33Z</time>
      </trkpt>
      <trkpt lat="45.65511" lon="4.68155">
        <ele>434</ele>
        <time>2017-02-18T08:24:35Z</time>
      </trkpt>
      <trkpt lat="45.65507" lon="4.68162">
        <ele>434</ele>
        <time>2017-02-18T08:24:38Z</time>
      </trkpt>
      <trkpt lat="45.65504" lon="4.68167">
        <ele>434</ele>
        <time>2017-02-18T08:24:40Z</time>
      </trkpt>
      <trkpt lat="45.65501" lon="4.68172">
        <ele>434</ele>
        <time>2017-02-18T08:24:42Z</time>
      </trkpt>
      <trkpt lat="45.65499" lon="4.68177">
        <ele>434</ele>
        <time>2017-02-18T08:24:44Z</time>
      </trkpt>
      <trkpt lat="45.65496" lon="4.68183">
        <ele>434</ele>
        <time>2017-02-18T08:24:46Z</time>
      </trkpt>
      <trkpt lat="45.65492" lon="4.68189">
        <ele>434</ele>
        <time>2017-02-18T08:24:48Z</time>
      </trkpt>
      <trkpt lat="45.65486" lon="4.682">
        <ele>433</ele>
        <time>2017-02-18T08:24:50Z</time>
      </trkpt>
      <trkpt lat="45.6548" lon="4.68213">
        <ele>432</ele>
        <time>2017-02-18T08:24:52Z</time>
      </trkpt>
      <trkpt lat="45.65477" lon="4.6822">
        <ele>430</ele>
        <time>2017-02-18T08:24:53Z</time>
      </trkpt>
      <trkpt lat="45.65474" lon="4.68227">
        <ele>428</ele>
        <time>2017-02-18T08:24:54Z</time>
      </trkpt>
      <trkpt lat="45.6547" lon="4.68233">
        <ele>428</ele>
        <time>2017-02-18T08:24:55Z</time>
      </trkpt>
      <trkpt lat="45.65467" lon="4.6824">
        <ele>427</ele>
        <time>2017-02-18T08:24:56Z</time>
      </trkpt>
      <trkpt lat="45.65463" lon="4.68246">
        <ele>427</ele>
        <time>2017-02-18T08:24:57Z</time>
      </trkpt>
      <trkpt lat="45.65459" lon="4.68252">
        <ele>427</ele>
        <time>2017-02-18T08:24:58Z</time>
      </trkpt>
      <trkpt lat="45.65456" lon="4.68256">
        <ele>428</ele>
        <time>2017-02-18T08:24:59Z</time>
      </trkpt>
      <trkpt lat="45.65455" lon="4.68265">
        <ele>427</ele>
        <time>2017-02-18T08:25:01Z</time>
      </trkpt>
      <trkpt lat="45.65453" lon="4.68274">
        <ele>426</ele>
        <time>2017-02-18T08:25:03Z</time>
      </trkpt>
      <trkpt lat="45.65457" lon="4.6828">
        <ele>424</ele>
        <time>2017-02-18T08:25:05Z</time>
      </trkpt>
      <trkpt lat="45.65461" lon="4.68289">
        <ele>423</ele>
        <time>2017-02-18T08:25:07Z</time>
      </trkpt>
      <trkpt lat="45.6546" lon="4.68297">
        <ele>421</ele>
        <time>2017-02-18T08:25:09Z</time>
      </trkpt>
      <trkpt lat="45.65459" lon="4.68305">
        <ele>421</ele>
        <time>2017-02-18T08:25:12Z</time>
      </trkpt>
      <trkpt lat="45.65464" lon="4.6831">
        <ele>420</ele>
        <time>2017-02-18T08:25:15Z</time>
      </trkpt>
      <trkpt lat="45.65468" lon="4.68315">
        <ele>419</ele>
        <time>2017-02-18T08:25:17Z</time>
      </trkpt>
      <trkpt lat="45.65469" lon="4.68326">
        <ele>418</ele>
        <time>2017-02-18T08:25:19Z</time>
      </trkpt>
      <trkpt lat="45.65468" lon="4.68335">
        <ele>415</ele>
        <time>2017-02-18T08:25:21Z</time>
      </trkpt>
      <trkpt lat="45.65464" lon="4.68343">
        <ele>412</ele>
        <time>2017-02-18T08:25:23Z</time>
      </trkpt>
      <trkpt lat="45.65461" lon="4.6835">
        <ele>410</ele>
        <time>2017-02-18T08:25:25Z</time>
      </trkpt>
      <trkpt lat="45.65461" lon="4.68357">
        <ele>407</ele>
        <time>2017-02-18T08:25:27Z</time>
      </trkpt>
      <trkpt lat="45.65465" lon="4.68365">
        <ele>405</ele>
        <time>2017-02-18T08:25:29Z</time>
      </trkpt>
      <trkpt lat="45.6547" lon="4.68372">
        <ele>404</ele>
        <time>2017-02-18T08:25:31Z</time>
      </trkpt>
      <trkpt lat="45.65474" lon="4.6838">
        <ele>403</ele>
        <time>2017-02-18T08:25:33Z</time>
      </trkpt>
      <trkpt lat="45.65475" lon="4.68388">
        <ele>402</ele>
        <time>2017-02-18T08:25:35Z</time>
      </trkpt>
      <trkpt lat="45.65475" lon="4.68396">
        <ele>402</ele>
        <time>2017-02-18T08:25:37Z</time>
      </trkpt>
      <trkpt lat="45.65474" lon="4.68403">
        <ele>402</ele>
        <time>2017-02-18T08:25:39Z</time>
      </trkpt>
      <trkpt lat="45.65471" lon="4.68407">
        <ele>403</ele>
        <time>2017-02-18T08:25:43Z</time>
      </trkpt>
      <trkpt lat="45.65466" lon="4.68413">
        <ele>400</ele>
        <time>2017-02-18T08:25:47Z</time>
      </trkpt>
      <trkpt lat="45.65464" lon="4.68419">
        <ele>397</ele>
        <time>2017-02-18T08:25:50Z</time>
      </trkpt>
      <trkpt lat="45.65466" lon="4.68425">
        <ele>394</ele>
        <time>2017-02-18T08:25:53Z</time>
      </trkpt>
      <trkpt lat="45.65466" lon="4.68435">
        <ele>391</ele>
        <time>2017-02-18T08:25:56Z</time>
      </trkpt>
      <trkpt lat="45.65466" lon="4.68443">
        <ele>388</ele>
        <time>2017-02-18T08:25:59Z</time>
      </trkpt>
      <trkpt lat="45.65468" lon="4.68453">
        <ele>387</ele>
        <time>2017-02-18T08:26:02Z</time>
      </trkpt>
      <trkpt lat="45.65469" lon="4.6846">
        <ele>387</ele>
        <time>2017-02-18T08:26:03Z</time>
      </trkpt>
      <trkpt lat="45.65473" lon="4.68468">
        <ele>388</ele>
        <time>2017-02-18T08:26:05Z</time>
      </trkpt>
      <trkpt lat="45.65477" lon="4.68477">
        <ele>388</ele>
        <time>2017-02-18T08:26:07Z</time>
      </trkpt>
      <trkpt lat="45.6548" lon="4.68486">
        <ele>388</ele>
        <time>2017-02-18T08:26:09Z</time>
      </trkpt>
      <trkpt lat="45.65485" lon="4.68492">
        <ele>388</ele>
        <time>2017-02-18T08:26:11Z</time>
      </trkpt>
      <trkpt lat="45.6549" lon="4.68494">
        <ele>388</ele>
        <time>2017-02-18T08:26:13Z</time>
      </trkpt>
      <trkpt lat="45.65496" lon="4.68496">
        <ele>389</ele>
        <time>2017-02-18T08:26:15Z</time>
      </trkpt>
      <trkpt lat="45.65502" lon="4.68498">
        <ele>389</ele>
        <time>2017-02-18T08:26:17Z</time>
      </trkpt>
      <trkpt lat="45.65508" lon="4.685">
        <ele>390</ele>
        <time>2017-02-18T08:26:19Z</time>
      </trkpt>
      <trkpt lat="45.65514" lon="4.68504">
        <ele>391</ele>
        <time>2017-02-18T08:26:21Z</time>
      </trkpt>
      <trkpt lat="45.6552" lon="4.68506">
        <ele>392</ele>
        <time>2017-02-18T08:26:23Z</time>
      </trkpt>
      <trkpt lat="45.65526" lon="4.6851">
        <ele>392</ele>
        <time>2017-02-18T08:26:25Z</time>
      </trkpt>
      <trkpt lat="45.65532" lon="4.68515">
        <ele>392</ele>
        <time>2017-02-18T08:26:27Z</time>
      </trkpt>
      <trkpt lat="45.65537" lon="4.68519">
        <ele>392</ele>
        <time>2017-02-18T08:26:29Z</time>
      </trkpt>
      <trkpt lat="45.65543" lon="4.68524">
        <ele>391</ele>
        <time>2017-02-18T08:26:31Z</time>
      </trkpt>
      <trkpt lat="45.65549" lon="4.6853">
        <ele>391</ele>
        <time>2017-02-18T08:26:33Z</time>
      </trkpt>
      <trkpt lat="45.65555" lon="4.68535">
        <ele>390</ele>
        <time>2017-02-18T08:26:35Z</time>
      </trkpt>
      <trkpt lat="45.65562" lon="4.68539">
        <ele>390</ele>
        <time>2017-02-18T08:26:37Z</time>
      </trkpt>
      <trkpt lat="45.6557" lon="4.68542">
        <ele>389</ele>
        <time>2017-02-18T08:26:39Z</time>
      </trkpt>
      <trkpt lat="45.65579" lon="4.68545">
        <ele>389</ele>
        <time>2017-02-18T08:26:41Z</time>
      </trkpt>
      <trkpt lat="45.65588" lon="4.68549">
        <ele>389</ele>
        <time>2017-02-18T08:26:43Z</time>
      </trkpt>
      <trkpt lat="45.65596" lon="4.68552">
        <ele>389</ele>
        <time>2017-02-18T08:26:45Z</time>
      </trkpt>
      <trkpt lat="45.656" lon="4.68554">
        <ele>389</ele>
        <time>2017-02-18T08:26:46Z</time>
      </trkpt>
      <trkpt lat="45.65608" lon="4.68558">
        <ele>390</ele>
        <time>2017-02-18T08:26:48Z</time>
      </trkpt>
      <trkpt lat="45.65614" lon="4.68565">
        <ele>390</ele>
        <time>2017-02-18T08:26:50Z</time>
      </trkpt>
      <trkpt lat="45.65619" lon="4.68572">
        <ele>390</ele>
        <time>2017-02-18T08:26:52Z</time>
      </trkpt>
      <trkpt lat="45.65625" lon="4.68579">
        <ele>390</ele>
        <time>2017-02-18T08:26:54Z</time>
      </trkpt>
      <trkpt lat="45.65631" lon="4.68587">
        <ele>389</ele>
        <time>2017-02-18T08:26:56Z</time>
      </trkpt>
      <trkpt lat="45.65636" lon="4.68595">
        <ele>388</ele>
        <time>2017-02-18T08:26:58Z</time>
      </trkpt>
      <trkpt lat="45.65641" lon="4.68603">
        <ele>387</ele>
        <time>2017-02-18T08:27:00Z</time>
      </trkpt>
      <trkpt lat="45.65647" lon="4.68609">
        <ele>386</ele>
        <time>2017-02-18T08:27:02Z</time>
      </trkpt>
      <trkpt lat="45.65653" lon="4.68616">
        <ele>384</ele>
        <time>2017-02-18T08:27:04Z</time>
      </trkpt>
      <trkpt lat="45.65658" lon="4.68625">
        <ele>383</ele>
        <time>2017-02-18T08:27:06Z</time>
      </trkpt>
      <trkpt lat="45.65664" lon="4.68634">
        <ele>382</ele>
        <time>2017-02-18T08:27:08Z</time>
      </trkpt>
      <trkpt lat="45.65667" lon="4.68638">
        <ele>381</ele>
        <time>2017-02-18T08:27:09Z</time>
      </trkpt>
      <trkpt lat="45.65671" lon="4.68642">
        <ele>381</ele>
        <time>2017-02-18T08:27:10Z</time>
      </trkpt>
      <trkpt lat="45.65678" lon="4.6865">
        <ele>380</ele>
        <time>2017-02-18T08:27:12Z</time>
      </trkpt>
      <trkpt lat="45.65685" lon="4.68658">
        <ele>380</ele>
        <time>2017-02-18T08:27:14Z</time>
      </trkpt>
      <trkpt lat="45.65691" lon="4.68667">
        <ele>379</ele>
        <time>2017-02-18T08:27:16Z</time>
      </trkpt>
      <trkpt lat="45.65696" lon="4.68676">
        <ele>378</ele>
        <time>2017-02-18T08:27:18Z</time>
      </trkpt>
      <trkpt lat="45.65702" lon="4.68685">
        <ele>377</ele>
        <time>2017-02-18T08:27:20Z</time>
      </trkpt>
      <trkpt lat="45.65708" lon="4.68693">
        <ele>377</ele>
        <time>2017-02-18T08:27:21Z</time>
      </trkpt>
      <trkpt lat="45.65712" lon="4.68698">
        <ele>376</ele>
        <time>2017-02-18T08:27:22Z</time>
      </trkpt>
      <trkpt lat="45.65717" lon="4.68706">
        <ele>376</ele>
        <time>2017-02-18T08:27:24Z</time>
      </trkpt>
      <trkpt lat="45.65723" lon="4.68714">
        <ele>376</ele>
        <time>2017-02-18T08:27:26Z</time>
      </trkpt>
      <trkpt lat="45.65728" lon="4.68722">
        <ele>375</ele>
        <time>2017-02-18T08:27:28Z</time>
      </trkpt>
      <trkpt lat="45.65731" lon="4.68729">
        <ele>374</ele>
        <time>2017-02-18T08:27:30Z</time>
      </trkpt>
      <trkpt lat="45.65736" lon="4.68737">
        <ele>374</ele>
        <time>2017-02-18T08:27:32Z</time>
      </trkpt>
      <trkpt lat="45.6574" lon="4.68744">
        <ele>373</ele>
        <time>2017-02-18T08:27:34Z</time>
      </trkpt>
      <trkpt lat="45.65745" lon="4.6875">
        <ele>372</ele>
        <time>2017-02-18T08:27:36Z</time>
      </trkpt>
      <trkpt lat="45.6575" lon="4.68754">
        <ele>371</ele>
        <time>2017-02-18T08:27:38Z</time>
      </trkpt>
      <trkpt lat="45.65756" lon="4.6876">
        <ele>370</ele>
        <time>2017-02-18T08:27:40Z</time>
      </trkpt>
      <trkpt lat="45.65762" lon="4.68765">
        <ele>370</ele>
        <time>2017-02-18T08:27:42Z</time>
      </trkpt>
      <trkpt lat="45.65768" lon="4.68769">
        <ele>369</ele>
        <time>2017-02-18T08:27:44Z</time>
      </trkpt>
      <trkpt lat="45.65774" lon="4.68774">
        <ele>369</ele>
        <time>2017-02-18T08:27:46Z</time>
      </trkpt>
      <trkpt lat="45.6578" lon="4.6878">
        <ele>370</ele>
        <time>2017-02-18T08:27:48Z</time>
      </trkpt>
      <trkpt lat="45.65786" lon="4.68786">
        <ele>370</ele>
        <time>2017-02-18T08:27:50Z</time>
      </trkpt>
      <trkpt lat="45.65793" lon="4.68791">
        <ele>371</ele>
        <time>2017-02-18T08:27:51Z</time>
      </trkpt>
      <trkpt lat="45.65797" lon="4.68794">
        <ele>371</ele>
        <time>2017-02-18T08:27:52Z</time>
      </trkpt>
      <trkpt lat="45.65802" lon="4.68801">
        <ele>373</ele>
        <time>2017-02-18T08:27:54Z</time>
      </trkpt>
      <trkpt lat="45.65808" lon="4.68806">
        <ele>375</ele>
        <time>2017-02-18T08:27:56Z</time>
      </trkpt>
      <trkpt lat="45.65813" lon="4.68811">
        <ele>377</ele>
        <time>2017-02-18T08:27:58Z</time>
      </trkpt>
      <trkpt lat="45.65819" lon="4.68815">
        <ele>379</ele>
        <time>2017-02-18T08:28:00Z</time>
      </trkpt>
      <trkpt lat="45.65825" lon="4.68819">
        <ele>381</ele>
        <time>2017-02-18T08:28:02Z</time>
      </trkpt>
      <trkpt lat="45.65827" lon="4.68825">
        <ele>382</ele>
        <time>2017-02-18T08:28:04Z</time>
      </trkpt>
      <trkpt lat="45.65826" lon="4.68832">
        <ele>383</ele>
        <time>2017-02-18T08:28:06Z</time>
      </trkpt>
      <trkpt lat="45.65823" lon="4.68839">
        <ele>383</ele>
        <time>2017-02-18T08:28:08Z</time>
      </trkpt>
      <trkpt lat="45.65819" lon="4.68845">
        <ele>383</ele>
        <time>2017-02-18T08:28:10Z</time>
      </trkpt>
      <trkpt lat="45.65815" lon="4.68852">
        <ele>383</ele>
        <time>2017-02-18T08:28:12Z</time>
      </trkpt>
      <trkpt lat="45.65812" lon="4.6886">
        <ele>383</ele>
        <time>2017-02-18T08:28:14Z</time>
      </trkpt>
      <trkpt lat="45.65809" lon="4.68868">
        <ele>383</ele>
        <time>2017-02-18T08:28:16Z</time>
      </trkpt>
      <trkpt lat="45.65805" lon="4.68876">
        <ele>383</ele>
        <time>2017-02-18T08:28:18Z</time>
      </trkpt>
      <trkpt lat="45.65802" lon="4.68886">
        <ele>384</ele>
        <time>2017-02-18T08:28:20Z</time>
      </trkpt>
      <trkpt lat="45.65799" lon="4.68896">
        <ele>384</ele>
        <time>2017-02-18T08:28:22Z</time>
      </trkpt>
      <trkpt lat="45.65797" lon="4.68905">
        <ele>384</ele>
        <time>2017-02-18T08:28:24Z</time>
      </trkpt>
      <trkpt lat="45.65795" lon="4.68915">
        <ele>384</ele>
        <time>2017-02-18T08:28:26Z</time>
      </trkpt>
      <trkpt lat="45.65795" lon="4.68925">
        <ele>384</ele>
        <time>2017-02-18T08:28:28Z</time>
      </trkpt>
      <trkpt lat="45.65795" lon="4.68935">
        <ele>383</ele>
        <time>2017-02-18T08:28:30Z</time>
      </trkpt>
      <trkpt lat="45.65796" lon="4.68945">
        <ele>383</ele>
        <time>2017-02-18T08:28:32Z</time>
      </trkpt>
      <trkpt lat="45.65797" lon="4.68954">
        <ele>383</ele>
        <time>2017-02-18T08:28:34Z</time>
      </trkpt>
      <trkpt lat="45.65798" lon="4.68963">
        <ele>382</ele>
        <time>2017-02-18T08:28:36Z</time>
      </trkpt>
      <trkpt lat="45.65799" lon="4.68972">
        <ele>382</ele>
        <time>2017-02-18T08:28:38Z</time>
      </trkpt>
      <trkpt lat="45.65799" lon="4.68981">
        <ele>382</ele>
        <time>2017-02-18T08:28:40Z</time>
      </trkpt>
      <trkpt lat="45.65799" lon="4.68989">
        <ele>383</ele>
        <time>2017-02-18T08:28:42Z</time>
      </trkpt>
      <trkpt lat="45.65799" lon="4.68998">
        <ele>384</ele>
        <time>2017-02-18T08:28:44Z</time>
      </trkpt>
      <trkpt lat="45.65799" lon="4.69007">
        <ele>385</ele>
        <time>2017-02-18T08:28:46Z</time>
      </trkpt>
      <trkpt lat="45.65801" lon="4.69015">
        <ele>386</ele>
        <time>2017-02-18T08:28:48Z</time>
      </trkpt>
      <trkpt lat="45.65802" lon="4.69024">
        <ele>387</ele>
        <time>2017-02-18T08:28:50Z</time>
      </trkpt>
      <trkpt lat="45.65802" lon="4.69033">
        <ele>387</ele>
        <time>2017-02-18T08:28:52Z</time>
      </trkpt>
      <trkpt lat="45.65803" lon="4.69042">
        <ele>387</ele>
        <time>2017-02-18T08:28:54Z</time>
      </trkpt>
      <trkpt lat="45.65804" lon="4.6905">
        <ele>386</ele>
        <time>2017-02-18T08:28:56Z</time>
      </trkpt>
      <trkpt lat="45.65804" lon="4.69059">
        <ele>385</ele>
        <time>2017-02-18T08:28:58Z</time>
      </trkpt>
      <trkpt lat="45.65805" lon="4.69067">
        <ele>384</ele>
        <time>2017-02-18T08:29:00Z</time>
      </trkpt>
      <trkpt lat="45.65807" lon="4.69076">
        <ele>384</ele>
        <time>2017-02-18T08:29:02Z</time>
      </trkpt>
      <trkpt lat="45.65813" lon="4.69081">
        <ele>383</ele>
        <time>2017-02-18T08:29:04Z</time>
      </trkpt>
      <trkpt lat="45.65819" lon="4.69085">
        <ele>382</ele>
        <time>2017-02-18T08:29:06Z</time>
      </trkpt>
      <trkpt lat="45.65825" lon="4.69089">
        <ele>382</ele>
        <time>2017-02-18T08:29:08Z</time>
      </trkpt>
      <trkpt lat="45.65831" lon="4.69092">
        <ele>382</ele>
        <time>2017-02-18T08:29:10Z</time>
      </trkpt>
      <trkpt lat="45.65836" lon="4.69093">
        <ele>382</ele>
        <time>2017-02-18T08:29:12Z</time>
      </trkpt>
      <trkpt lat="45.65838" lon="4.691">
        <ele>381</ele>
        <time>2017-02-18T08:29:15Z</time>
      </trkpt>
      <trkpt lat="45.65836" lon="4.69108">
        <ele>381</ele>
        <time>2017-02-18T08:29:17Z</time>
      </trkpt>
      <trkpt lat="45.65836" lon="4.69116">
        <ele>380</ele>
        <time>2017-02-18T08:29:19Z</time>
      </trkpt>
      <trkpt lat="45.65841" lon="4.69123">
        <ele>379</ele>
        <time>2017-02-18T08:29:21Z</time>
      </trkpt>
      <trkpt lat="45.65848" lon="4.6913">
        <ele>378</ele>
        <time>2017-02-18T08:29:22Z</time>
      </trkpt>
      <trkpt lat="45.65851" lon="4.69135">
        <ele>376</ele>
        <time>2017-02-18T08:29:23Z</time>
      </trkpt>
      <trkpt lat="45.65855" lon="4.69139">
        <ele>375</ele>
        <time>2017-02-18T08:29:24Z</time>
      </trkpt>
      <trkpt lat="45.6586" lon="4.69144">
        <ele>374</ele>
        <time>2017-02-18T08:29:25Z</time>
      </trkpt>
      <trkpt lat="45.65867" lon="4.69151">
        <ele>372</ele>
        <time>2017-02-18T08:29:26Z</time>
      </trkpt>
      <trkpt lat="45.65873" lon="4.69158">
        <ele>371</ele>
        <time>2017-02-18T08:29:27Z</time>
      </trkpt>
      <trkpt lat="45.65878" lon="4.69164">
        <ele>370</ele>
        <time>2017-02-18T08:29:28Z</time>
      </trkpt>
      <trkpt lat="45.65883" lon="4.69171">
        <ele>368</ele>
        <time>2017-02-18T08:29:29Z</time>
      </trkpt>
      <trkpt lat="45.65888" lon="4.69175">
        <ele>367</ele>
        <time>2017-02-18T08:29:30Z</time>
      </trkpt>
      <trkpt lat="45.65893" lon="4.69181">
        <ele>367</ele>
        <time>2017-02-18T08:29:31Z</time>
      </trkpt>
      <trkpt lat="45.65897" lon="4.69188">
        <ele>366</ele>
        <time>2017-02-18T08:29:32Z</time>
      </trkpt>
      <trkpt lat="45.65902" lon="4.69195">
        <ele>366</ele>
        <time>2017-02-18T08:29:33Z</time>
      </trkpt>
      <trkpt lat="45.65908" lon="4.69199">
        <ele>365</ele>
        <time>2017-02-18T08:29:34Z</time>
      </trkpt>
      <trkpt lat="45.65912" lon="4.69204">
        <ele>365</ele>
        <time>2017-02-18T08:29:35Z</time>
      </trkpt>
      <trkpt lat="45.65917" lon="4.69208">
        <ele>364</ele>
        <time>2017-02-18T08:29:36Z</time>
      </trkpt>
      <trkpt lat="45.65922" lon="4.69213">
        <ele>364</ele>
        <time>2017-02-18T08:29:37Z</time>
      </trkpt>
      <trkpt lat="45.65932" lon="4.69218">
        <ele>364</ele>
        <time>2017-02-18T08:29:39Z</time>
      </trkpt>
      <trkpt lat="45.65938" lon="4.69221">
        <ele>363</ele>
        <time>2017-02-18T08:29:40Z</time>
      </trkpt>
      <trkpt lat="45.65944" lon="4.69224">
        <ele>362</ele>
        <time>2017-02-18T08:29:41Z</time>
      </trkpt>
      <trkpt lat="45.6595" lon="4.69227">
        <ele>362</ele>
        <time>2017-02-18T08:29:42Z</time>
      </trkpt>
      <trkpt lat="45.65958" lon="4.69231">
        <ele>361</ele>
        <time>2017-02-18T08:29:43Z</time>
      </trkpt>
      <trkpt lat="45.65965" lon="4.69234">
        <ele>363</ele>
        <time>2017-02-18T08:29:44Z</time>
      </trkpt>
      <trkpt lat="45.65973" lon="4.69237">
        <ele>364</ele>
        <time>2017-02-18T08:29:45Z</time>
      </trkpt>
      <trkpt lat="45.65978" lon="4.6924">
        <ele>364</ele>
        <time>2017-02-18T08:29:46Z</time>
      </trkpt>
      <trkpt lat="45.65984" lon="4.69243">
        <ele>364</ele>
        <time>2017-02-18T08:29:47Z</time>
      </trkpt>
      <trkpt lat="45.65989" lon="4.69246">
        <ele>364</ele>
        <time>2017-02-18T08:29:48Z</time>
      </trkpt>
      <trkpt lat="45.65994" lon="4.6925">
        <ele>361</ele>
        <time>2017-02-18T08:29:49Z</time>
      </trkpt>
      <trkpt lat="45.65999" lon="4.69252">
        <ele>359</ele>
        <time>2017-02-18T08:29:50Z</time>
      </trkpt>
      <trkpt lat="45.66004" lon="4.69255">
        <ele>357</ele>
        <time>2017-02-18T08:29:52Z</time>
      </trkpt>
      <trkpt lat="45.65998" lon="4.6926">
        <ele>356</ele>
        <time>2017-02-18T08:29:55Z</time>
      </trkpt>
      <trkpt lat="45.65991" lon="4.6926">
        <ele>355</ele>
        <time>2017-02-18T08:29:57Z</time>
      </trkpt>
      <trkpt lat="45.65983" lon="4.69259">
        <ele>354</ele>
        <time>2017-02-18T08:29:59Z</time>
      </trkpt>
      <trkpt lat="45.65982" lon="4.69267">
        <ele>353</ele>
        <time>2017-02-18T08:30:02Z</time>
      </trkpt>
      <trkpt lat="45.65987" lon="4.69272">
        <ele>353</ele>
        <time>2017-02-18T08:30:04Z</time>
      </trkpt>
      <trkpt lat="45.65995" lon="4.69272">
        <ele>352</ele>
        <time>2017-02-18T08:30:06Z</time>
      </trkpt>
      <trkpt lat="45.66005" lon="4.6927">
        <ele>351</ele>
        <time>2017-02-18T08:30:07Z</time>
      </trkpt>
      <trkpt lat="45.6601" lon="4.69271">
        <ele>351</ele>
        <time>2017-02-18T08:30:08Z</time>
      </trkpt>
      <trkpt lat="45.66015" lon="4.69274">
        <ele>350</ele>
        <time>2017-02-18T08:30:09Z</time>
      </trkpt>
      <trkpt lat="45.66021" lon="4.69276">
        <ele>350</ele>
        <time>2017-02-18T08:30:10Z</time>
      </trkpt>
      <trkpt lat="45.66028" lon="4.69277">
        <ele>349</ele>
        <time>2017-02-18T08:30:11Z</time>
      </trkpt>
      <trkpt lat="45.66034" lon="4.69279">
        <ele>349</ele>
        <time>2017-02-18T08:30:12Z</time>
      </trkpt>
      <trkpt lat="45.6604" lon="4.6928">
        <ele>349</ele>
        <time>2017-02-18T08:30:13Z</time>
      </trkpt>
      <trkpt lat="45.66047" lon="4.69282">
        <ele>348</ele>
        <time>2017-02-18T08:30:14Z</time>
      </trkpt>
      <trkpt lat="45.66052" lon="4.69294">
        <ele>348</ele>
        <time>2017-02-18T08:30:16Z</time>
      </trkpt>
      <trkpt lat="45.66055" lon="4.69299">
        <ele>348</ele>
        <time>2017-02-18T08:30:17Z</time>
      </trkpt>
      <trkpt lat="45.6605" lon="4.69306">
        <ele>348</ele>
        <time>2017-02-18T08:30:18Z</time>
      </trkpt>
      <trkpt lat="45.66048" lon="4.69313">
        <ele>348</ele>
        <time>2017-02-18T08:30:19Z</time>
      </trkpt>
      <trkpt lat="45.66045" lon="4.6932">
        <ele>347</ele>
        <time>2017-02-18T08:30:20Z</time>
      </trkpt>
      <trkpt lat="45.66043" lon="4.69327">
        <ele>347</ele>
        <time>2017-02-18T08:30:21Z</time>
      </trkpt>
      <trkpt lat="45.66041" lon="4.69334">
        <ele>347</ele>
        <time>2017-02-18T08:30:22Z</time>
      </trkpt>
      <trkpt lat="45.66038" lon="4.69342">
        <ele>346</ele>
        <time>2017-02-18T08:30:26Z</time>
      </trkpt>
      <trkpt lat="45.66032" lon="4.69341">
        <ele>345</ele>
        <time>2017-02-18T08:30:27Z</time>
      </trkpt>
      <trkpt lat="45.66027" lon="4.6934">
        <ele>345</ele>
        <time>2017-02-18T08:30:29Z</time>
      </trkpt>
      <trkpt lat="45.66022" lon="4.69339">
        <ele>345</ele>
        <time>2017-02-18T08:30:31Z</time>
      </trkpt>
      <trkpt lat="45.66015" lon="4.69335">
        <ele>345</ele>
        <time>2017-02-18T08:30:34Z</time>
      </trkpt>
      <trkpt lat="45.66008" lon="4.69334">
        <ele>346</ele>
        <time>2017-02-18T08:30:37Z</time>
      </trkpt>
      <trkpt lat="45.66003" lon="4.69333">
        <ele>346</ele>
        <time>2017-02-18T08:30:39Z</time>
      </trkpt>
      <trkpt lat="45.65994" lon="4.69331">
        <ele>347</ele>
        <time>2017-02-18T08:30:41Z</time>
      </trkpt>
      <trkpt lat="45.65986" lon="4.69329">
        <ele>347</ele>
        <time>2017-02-18T08:30:43Z</time>
      </trkpt>
      <trkpt lat="45.6598" lon="4.69326">
        <ele>347</ele>
        <time>2017-02-18T08:30:45Z</time>
      </trkpt>
      <trkpt lat="45.65975" lon="4.69324">
        <ele>347</ele>
        <time>2017-02-18T08:30:47Z</time>
      </trkpt>
      <trkpt lat="45.65969" lon="4.69322">
        <ele>347</ele>
        <time>2017-02-18T08:30:49Z</time>
      </trkpt>
      <trkpt lat="45.65963" lon="4.69322">
        <ele>348</ele>
        <time>2017-02-18T08:30:51Z</time>
      </trkpt>
      <trkpt lat="45.65958" lon="4.6932">
        <ele>348</ele>
        <time>2017-02-18T08:30:53Z</time>
      </trkpt>
      <trkpt lat="45.65953" lon="4.69318">
        <ele>349</ele>
        <time>2017-02-18T08:30:55Z</time>
      </trkpt>
      <trkpt lat="45.65948" lon="4.69317">
        <ele>350</ele>
        <time>2017-02-18T08:30:57Z</time>
      </trkpt>
      <trkpt lat="45.65942" lon="4.69315">
        <ele>351</ele>
        <time>2017-02-18T08:30:59Z</time>
      </trkpt>
      <trkpt lat="45.65937" lon="4.69313">
        <ele>352</ele>
        <time>2017-02-18T08:31:01Z</time>
      </trkpt>
      <trkpt lat="45.65931" lon="4.6931">
        <ele>352</ele>
        <time>2017-02-18T08:31:03Z</time>
      </trkpt>
      <trkpt lat="45.65925" lon="4.69307">
        <ele>353</ele>
        <time>2017-02-18T08:31:05Z</time>
      </trkpt>
      <trkpt lat="45.65918" lon="4.69305">
        <ele>353</ele>
        <time>2017-02-18T08:31:07Z</time>
      </trkpt>
      <trkpt lat="45.65912" lon="4.69304">
        <ele>354</ele>
        <time>2017-02-18T08:31:09Z</time>
      </trkpt>
      <trkpt lat="45.65908" lon="4.69308">
        <ele>354</ele>
        <time>2017-02-18T08:31:11Z</time>
      </trkpt>
      <trkpt lat="45.65912" lon="4.69312">
        <ele>354</ele>
        <time>2017-02-18T08:31:17Z</time>
      </trkpt>
      <trkpt lat="45.65914" lon="4.69311">
        <ele>353</ele>
        <time>2017-02-18T08:31:41Z</time>
      </trkpt>
      <trkpt lat="45.65914" lon="4.69311">
        <ele>353</ele>
        <time>2017-02-18T08:31:43Z</time>
      </trkpt>
      <trkpt lat="45.65921" lon="4.69313">
        <ele>353</ele>
        <time>2017-02-18T08:31:46Z</time>
      </trkpt>
      <trkpt lat="45.65925" lon="4.69315">
        <ele>352</ele>
        <time>2017-02-18T08:31:48Z</time>
      </trkpt>
      <trkpt lat="45.6593" lon="4.69317">
        <ele>352</ele>
        <time>2017-02-18T08:31:50Z</time>
      </trkpt>
      <trkpt lat="45.65936" lon="4.6932">
        <ele>352</ele>
        <time>2017-02-18T08:31:53Z</time>
      </trkpt>
      <trkpt lat="45.65942" lon="4.69323">
        <ele>352</ele>
        <time>2017-02-18T08:31:55Z</time>
      </trkpt>
      <trkpt lat="45.65947" lon="4.69326">
        <ele>352</ele>
        <time>2017-02-18T08:31:57Z</time>
      </trkpt>
      <trkpt lat="45.65952" lon="4.69329">
        <ele>352</ele>
        <time>2017-02-18T08:31:59Z</time>
      </trkpt>
      <trkpt lat="45.65956" lon="4.69332">
        <ele>352</ele>
        <time>2017-02-18T08:32:01Z</time>
      </trkpt>
      <trkpt lat="45.65962" lon="4.69337">
        <ele>352</ele>
        <time>2017-02-18T08:32:04Z</time>
      </trkpt>
      <trkpt lat="45.65968" lon="4.6934">
        <ele>352</ele>
        <time>2017-02-18T08:32:07Z</time>
      </trkpt>
      <trkpt lat="45.65972" lon="4.69342">
        <ele>352</ele>
        <time>2017-02-18T08:32:09Z</time>
      </trkpt>
      <trkpt lat="45.65978" lon="4.69345">
        <ele>352</ele>
        <time>2017-02-18T08:32:12Z</time>
      </trkpt>
      <trkpt lat="45.65984" lon="4.69348">
        <ele>352</ele>
        <time>2017-02-18T08:32:15Z</time>
      </trkpt>
      <trkpt lat="45.6599" lon="4.69351">
        <ele>353</ele>
        <time>2017-02-18T08:32:18Z</time>
      </trkpt>
      <trkpt lat="45.65994" lon="4.69354">
        <ele>353</ele>
        <time>2017-02-18T08:32:20Z</time>
      </trkpt>
      <trkpt lat="45.65999" lon="4.6936">
        <ele>354</ele>
        <time>2017-02-18T08:32:23Z</time>
      </trkpt>
      <trkpt lat="45.66002" lon="4.69365">
        <ele>355</ele>
        <time>2017-02-18T08:32:25Z</time>
      </trkpt>
      <trkpt lat="45.66005" lon="4.69369">
        <ele>355</ele>
        <time>2017-02-18T08:32:27Z</time>
      </trkpt>
      <trkpt lat="45.66009" lon="4.69374">
        <ele>356</ele>
        <time>2017-02-18T08:32:29Z</time>
      </trkpt>
      <trkpt lat="45.66013" lon="4.69379">
        <ele>356</ele>
        <time>2017-02-18T08:32:31Z</time>
      </trkpt>
      <trkpt lat="45.66017" lon="4.69385">
        <ele>357</ele>
        <time>2017-02-18T08:32:34Z</time>
      </trkpt>
      <trkpt lat="45.66019" lon="4.6939">
        <ele>357</ele>
        <time>2017-02-18T08:32:36Z</time>
      </trkpt>
      <trkpt lat="45.66023" lon="4.69398">
        <ele>358</ele>
        <time>2017-02-18T08:32:39Z</time>
      </trkpt>
      <trkpt lat="45.66026" lon="4.69406">
        <ele>358</ele>
        <time>2017-02-18T08:32:42Z</time>
      </trkpt>
      <trkpt lat="45.66028" lon="4.69415">
        <ele>358</ele>
        <time>2017-02-18T08:32:45Z</time>
      </trkpt>
      <trkpt lat="45.66029" lon="4.69423">
        <ele>359</ele>
        <time>2017-02-18T08:32:48Z</time>
      </trkpt>
      <trkpt lat="45.6603" lon="4.69431">
        <ele>359</ele>
        <time>2017-02-18T08:32:51Z</time>
      </trkpt>
      <trkpt lat="45.66028" lon="4.69438">
        <ele>359</ele>
        <time>2017-02-18T08:32:56Z</time>
      </trkpt>
      <trkpt lat="45.66027" lon="4.69446">
        <ele>360</ele>
        <time>2017-02-18T08:33:00Z</time>
      </trkpt>
      <trkpt lat="45.66026" lon="4.69454">
        <ele>361</ele>
        <time>2017-02-18T08:33:04Z</time>
      </trkpt>
      <trkpt lat="45.66024" lon="4.69461">
        <ele>361</ele>
        <time>2017-02-18T08:33:07Z</time>
      </trkpt>
      <trkpt lat="45.66022" lon="4.69468">
        <ele>362</ele>
        <time>2017-02-18T08:33:11Z</time>
      </trkpt>
      <trkpt lat="45.66021" lon="4.69477">
        <ele>362</ele>
        <time>2017-02-18T08:33:15Z</time>
      </trkpt>
      <trkpt lat="45.66021" lon="4.69483">
        <ele>363</ele>
        <time>2017-02-18T08:33:18Z</time>
      </trkpt>
      <trkpt lat="45.66021" lon="4.6949">
        <ele>364</ele>
        <time>2017-02-18T08:33:21Z</time>
      </trkpt>
      <trkpt lat="45.6602" lon="4.69497">
        <ele>365</ele>
        <time>2017-02-18T08:33:24Z</time>
      </trkpt>
      <trkpt lat="45.66018" lon="4.69504">
        <ele>366</ele>
        <time>2017-02-18T08:33:28Z</time>
      </trkpt>
      <trkpt lat="45.66016" lon="4.69511">
        <ele>367</ele>
        <time>2017-02-18T08:33:32Z</time>
      </trkpt>
      <trkpt lat="45.66014" lon="4.69518">
        <ele>367</ele>
        <time>2017-02-18T08:33:37Z</time>
      </trkpt>
      <trkpt lat="45.66013" lon="4.69526">
        <ele>368</ele>
        <time>2017-02-18T08:33:42Z</time>
      </trkpt>
      <trkpt lat="45.66011" lon="4.69532">
        <ele>368</ele>
        <time>2017-02-18T08:33:47Z</time>
      </trkpt>
      <trkpt lat="45.66011" lon="4.69539">
        <ele>368</ele>
        <time>2017-02-18T08:33:52Z</time>
      </trkpt>
      <trkpt lat="45.66009" lon="4.69546">
        <ele>368</ele>
        <time>2017-02-18T08:33:57Z</time>
      </trkpt>
      <trkpt lat="45.66008" lon="4.69554">
        <ele>368</ele>
        <time>2017-02-18T08:34:02Z</time>
      </trkpt>
      <trkpt lat="45.66009" lon="4.6956">
        <ele>368</ele>
        <time>2017-02-18T08:34:06Z</time>
      </trkpt>
      <trkpt lat="45.66007" lon="4.69567">
        <ele>368</ele>
        <time>2017-02-18T08:34:12Z</time>
      </trkpt>
      <trkpt lat="45.66003" lon="4.69571">
        <ele>368</ele>
        <time>2017-02-18T08:34:17Z</time>
      </trkpt>
      <trkpt lat="45.66002" lon="4.69578">
        <ele>368</ele>
        <time>2017-02-18T08:34:22Z</time>
      </trkpt>
      <trkpt lat="45.66001" lon="4.69585">
        <ele>368</ele>
        <time>2017-02-18T08:34:28Z</time>
      </trkpt>
      <trkpt lat="45.66" lon="4.69592">
        <ele>369</ele>
        <time>2017-02-18T08:34:34Z</time>
      </trkpt>
      <trkpt lat="45.66" lon="4.69596">
        <ele>369</ele>
        <time>2017-02-18T08:34:56Z</time>
      </trkpt>
      <trkpt lat="45.66" lon="4.69596">
        <ele>370</ele>
        <time>2017-02-18T08:34:58Z</time>
      </trkpt>
      <trkpt lat="45.66" lon="4.69601">
        <ele>370</ele>
        <time>2017-02-18T08:35:26Z</time>
      </trkpt>
      <trkpt lat="45.66" lon="4.69601">
        <ele>370</ele>
        <time>2017-02-18T08:35:28Z</time>
      </trkpt>
      <trkpt lat="45.65999" lon="4.69608">
        <ele>370</ele>
        <time>2017-02-18T08:35:33Z</time>
      </trkpt>
      <trkpt lat="45.65998" lon="4.69615">
        <ele>370</ele>
        <time>2017-02-18T08:35:36Z</time>
      </trkpt>
      <trkpt lat="45.65997" lon="4.69622">
        <ele>370</ele>
        <time>2017-02-18T08:35:38Z</time>
      </trkpt>
      <trkpt lat="45.65996" lon="4.69631">
        <ele>370</ele>
        <time>2017-02-18T08:35:41Z</time>
      </trkpt>
      <trkpt lat="45.65995" lon="4.69638">
        <ele>370</ele>
        <time>2017-02-18T08:35:43Z</time>
      </trkpt>
      <trkpt lat="45.65994" lon="4.69645">
        <ele>370</ele>
        <time>2017-02-18T08:35:45Z</time>
      </trkpt>
      <trkpt lat="45.65992" lon="4.69653">
        <ele>370</ele>
        <time>2017-02-18T08:35:47Z</time>
      </trkpt>
      <trkpt lat="45.6599" lon="4.6966">
        <ele>370</ele>
        <time>2017-02-18T08:35:49Z</time>
      </trkpt>
      <trkpt lat="45.65989" lon="4.69666">
        <ele>369</ele>
        <time>2017-02-18T08:35:51Z</time>
      </trkpt>
      <trkpt lat="45.65988" lon="4.69673">
        <ele>369</ele>
        <time>2017-02-18T08:35:53Z</time>
      </trkpt>
      <trkpt lat="45.65986" lon="4.69679">
        <ele>369</ele>
        <time>2017-02-18T08:35:55Z</time>
      </trkpt>
      <trkpt lat="45.65984" lon="4.69686">
        <ele>369</ele>
        <time>2017-02-18T08:35:57Z</time>
      </trkpt>
      <trkpt lat="45.65981" lon="4.69694">
        <ele>370</ele>
        <time>2017-02-18T08:35:59Z</time>
      </trkpt>
      <trkpt lat="45.65979" lon="4.69702">
        <ele>370</ele>
        <time>2017-02-18T08:36:01Z</time>
      </trkpt>
      <trkpt lat="45.65976" lon="4.6971">
        <ele>370</ele>
        <time>2017-02-18T08:36:03Z</time>
      </trkpt>
      <trkpt lat="45.6596" lon="4.69744">
        <ele>370</ele>
        <time>2017-02-18T08:36:10Z</time>
      </trkpt>
      <trkpt lat="45.65954" lon="4.6974">
        <ele>369</ele>
        <time>2017-02-18T08:36:12Z</time>
      </trkpt>
      <trkpt lat="45.6595" lon="4.69737">
        <ele>368</ele>
        <time>2017-02-18T08:36:14Z</time>
      </trkpt>
      <trkpt lat="45.65945" lon="4.69734">
        <ele>367</ele>
        <time>2017-02-18T08:36:16Z</time>
      </trkpt>
      <trkpt lat="45.6594" lon="4.69731">
        <ele>366</ele>
        <time>2017-02-18T08:36:18Z</time>
      </trkpt>
      <trkpt lat="45.65936" lon="4.69727">
        <ele>366</ele>
        <time>2017-02-18T08:36:20Z</time>
      </trkpt>
      <trkpt lat="45.65931" lon="4.69724">
        <ele>366</ele>
        <time>2017-02-18T08:36:22Z</time>
      </trkpt>
      <trkpt lat="45.65926" lon="4.69719">
        <ele>366</ele>
        <time>2017-02-18T08:36:24Z</time>
      </trkpt>
      <trkpt lat="45.65922" lon="4.69716">
        <ele>366</ele>
        <time>2017-02-18T08:36:26Z</time>
      </trkpt>
      <trkpt lat="45.65915" lon="4.69712">
        <ele>367</ele>
        <time>2017-02-18T08:36:29Z</time>
      </trkpt>
      <trkpt lat="45.65909" lon="4.69712">
        <ele>367</ele>
        <time>2017-02-18T08:36:31Z</time>
      </trkpt>
      <trkpt lat="45.65905" lon="4.69715">
        <ele>368</ele>
        <time>2017-02-18T08:36:33Z</time>
      </trkpt>
      <trkpt lat="45.65901" lon="4.69722">
        <ele>368</ele>
        <time>2017-02-18T08:36:35Z</time>
      </trkpt>
      <trkpt lat="45.65896" lon="4.69728">
        <ele>368</ele>
        <time>2017-02-18T08:36:37Z</time>
      </trkpt>
      <trkpt lat="45.65891" lon="4.69735">
        <ele>368</ele>
        <time>2017-02-18T08:36:39Z</time>
      </trkpt>
      <trkpt lat="45.65886" lon="4.69742">
        <ele>367</ele>
        <time>2017-02-18T08:36:41Z</time>
      </trkpt>
      <trkpt lat="45.65881" lon="4.69748">
        <ele>367</ele>
        <time>2017-02-18T08:36:43Z</time>
      </trkpt>
      <trkpt lat="45.65875" lon="4.69752">
        <ele>367</ele>
        <time>2017-02-18T08:36:46Z</time>
      </trkpt>
      <trkpt lat="45.65868" lon="4.69753">
        <ele>366</ele>
        <time>2017-02-18T08:36:49Z</time>
      </trkpt>
      <trkpt lat="45.65864" lon="4.6975">
        <ele>366</ele>
        <time>2017-02-18T08:36:51Z</time>
      </trkpt>
      <trkpt lat="45.6586" lon="4.69746">
        <ele>366</ele>
        <time>2017-02-18T08:36:53Z</time>
      </trkpt>
      <trkpt lat="45.65856" lon="4.69743">
        <ele>366</ele>
        <time>2017-02-18T08:36:55Z</time>
      </trkpt>
      <trkpt lat="45.6585" lon="4.69739">
        <ele>367</ele>
        <time>2017-02-18T08:36:58Z</time>
      </trkpt>
      <trkpt lat="45.65844" lon="4.69736">
        <ele>367</ele>
        <time>2017-02-18T08:37:01Z</time>
      </trkpt>
      <trkpt lat="45.65838" lon="4.69734">
        <ele>368</ele>
        <time>2017-02-18T08:37:04Z</time>
      </trkpt>
      <trkpt lat="45.65832" lon="4.69732">
        <ele>368</ele>
        <time>2017-02-18T08:37:07Z</time>
      </trkpt>
      <trkpt lat="45.65825" lon="4.6973">
        <ele>368</ele>
        <time>2017-02-18T08:37:10Z</time>
      </trkpt>
      <trkpt lat="45.65819" lon="4.69728">
        <ele>369</ele>
        <time>2017-02-18T08:37:13Z</time>
      </trkpt>
      <trkpt lat="45.65813" lon="4.69726">
        <ele>369</ele>
        <time>2017-02-18T08:37:16Z</time>
      </trkpt>
      <trkpt lat="45.65807" lon="4.69725">
        <ele>370</ele>
        <time>2017-02-18T08:37:19Z</time>
      </trkpt>
      <trkpt lat="45.65803" lon="4.6973">
        <ele>370</ele>
        <time>2017-02-18T08:37:22Z</time>
      </trkpt>
      <trkpt lat="45.65802" lon="4.69739">
        <ele>370</ele>
        <time>2017-02-18T08:37:25Z</time>
      </trkpt>
      <trkpt lat="45.65804" lon="4.69745">
        <ele>370</ele>
        <time>2017-02-18T08:37:26Z</time>
      </trkpt>
      <trkpt lat="45.65806" lon="4.69758">
        <ele>369</ele>
        <time>2017-02-18T08:37:28Z</time>
      </trkpt>
      <trkpt lat="45.65807" lon="4.69765">
        <ele>369</ele>
        <time>2017-02-18T08:37:29Z</time>
      </trkpt>
      <trkpt lat="45.65809" lon="4.69775">
        <ele>368</ele>
        <time>2017-02-18T08:37:30Z</time>
      </trkpt>
      <trkpt lat="45.65809" lon="4.69783">
        <ele>368</ele>
        <time>2017-02-18T08:37:31Z</time>
      </trkpt>
      <trkpt lat="45.6581" lon="4.69791">
        <ele>368</ele>
        <time>2017-02-18T08:37:32Z</time>
      </trkpt>
      <trkpt lat="45.6581" lon="4.69799">
        <ele>368</ele>
        <time>2017-02-18T08:37:33Z</time>
      </trkpt>
      <trkpt lat="45.65811" lon="4.69807">
        <ele>368</ele>
        <time>2017-02-18T08:37:34Z</time>
      </trkpt>
      <trkpt lat="45.65815" lon="4.69811">
        <ele>368</ele>
        <time>2017-02-18T08:37:35Z</time>
      </trkpt>
      <trkpt lat="45.65816" lon="4.69819">
        <ele>368</ele>
        <time>2017-02-18T08:37:36Z</time>
      </trkpt>
      <trkpt lat="45.65816" lon="4.69827">
        <ele>368</ele>
        <time>2017-02-18T08:37:37Z</time>
      </trkpt>
      <trkpt lat="45.65817" lon="4.69833">
        <ele>367</ele>
        <time>2017-02-18T08:37:38Z</time>
      </trkpt>
      <trkpt lat="45.65817" lon="4.6984">
        <ele>367</ele>
        <time>2017-02-18T08:37:39Z</time>
      </trkpt>
      <trkpt lat="45.65816" lon="4.69852">
        <ele>367</ele>
        <time>2017-02-18T08:37:41Z</time>
      </trkpt>
      <trkpt lat="45.65817" lon="4.69858">
        <ele>367</ele>
        <time>2017-02-18T08:37:42Z</time>
      </trkpt>
      <trkpt lat="45.65818" lon="4.69869">
        <ele>367</ele>
        <time>2017-02-18T08:37:44Z</time>
      </trkpt>
      <trkpt lat="45.6582" lon="4.6988">
        <ele>367</ele>
        <time>2017-02-18T08:37:46Z</time>
      </trkpt>
      <trkpt lat="45.65821" lon="4.69888">
        <ele>367</ele>
        <time>2017-02-18T08:37:48Z</time>
      </trkpt>
      <trkpt lat="45.65822" lon="4.69897">
        <ele>367</ele>
        <time>2017-02-18T08:37:50Z</time>
      </trkpt>
      <trkpt lat="45.65823" lon="4.69906">
        <ele>367</ele>
        <time>2017-02-18T08:37:52Z</time>
      </trkpt>
      <trkpt lat="45.65824" lon="4.69913">
        <ele>367</ele>
        <time>2017-02-18T08:37:54Z</time>
      </trkpt>
      <trkpt lat="45.65827" lon="4.69919">
        <ele>367</ele>
        <time>2017-02-18T08:37:56Z</time>
      </trkpt>
      <trkpt lat="45.65833" lon="4.69921">
        <ele>367</ele>
        <time>2017-02-18T08:37:58Z</time>
      </trkpt>
      <trkpt lat="45.65839" lon="4.69919">
        <ele>367</ele>
        <time>2017-02-18T08:38:00Z</time>
      </trkpt>
      <trkpt lat="45.65844" lon="4.69917">
        <ele>366</ele>
        <time>2017-02-18T08:38:02Z</time>
      </trkpt>
      <trkpt lat="45.65852" lon="4.69912">
        <ele>366</ele>
        <time>2017-02-18T08:38:04Z</time>
      </trkpt>
      <trkpt lat="45.6586" lon="4.69908">
        <ele>366</ele>
        <time>2017-02-18T08:38:06Z</time>
      </trkpt>
      <trkpt lat="45.65865" lon="4.69907">
        <ele>365</ele>
        <time>2017-02-18T08:38:07Z</time>
      </trkpt>
      <trkpt lat="45.65871" lon="4.69911">
        <ele>365</ele>
        <time>2017-02-18T08:38:08Z</time>
      </trkpt>
      <trkpt lat="45.65871" lon="4.6992">
        <ele>365</ele>
        <time>2017-02-18T08:38:10Z</time>
      </trkpt>
      <trkpt lat="45.6587" lon="4.69931">
        <ele>364</ele>
        <time>2017-02-18T08:38:12Z</time>
      </trkpt>
      <trkpt lat="45.65868" lon="4.69942">
        <ele>364</ele>
        <time>2017-02-18T08:38:14Z</time>
      </trkpt>
      <trkpt lat="45.65867" lon="4.69952">
        <ele>364</ele>
        <time>2017-02-18T08:38:16Z</time>
      </trkpt>
      <trkpt lat="45.65864" lon="4.69962">
        <ele>364</ele>
        <time>2017-02-18T08:38:18Z</time>
      </trkpt>
      <trkpt lat="45.65862" lon="4.69971">
        <ele>363</ele>
        <time>2017-02-18T08:38:20Z</time>
      </trkpt>
      <trkpt lat="45.6586" lon="4.69981">
        <ele>363</ele>
        <time>2017-02-18T08:38:22Z</time>
      </trkpt>
      <trkpt lat="45.65859" lon="4.6999">
        <ele>363</ele>
        <time>2017-02-18T08:38:24Z</time>
      </trkpt>
      <trkpt lat="45.65857" lon="4.69999">
        <ele>363</ele>
        <time>2017-02-18T08:38:26Z</time>
      </trkpt>
      <trkpt lat="45.65856" lon="4.70009">
        <ele>363</ele>
        <time>2017-02-18T08:38:28Z</time>
      </trkpt>
      <trkpt lat="45.65854" lon="4.70019">
        <ele>363</ele>
        <time>2017-02-18T08:38:30Z</time>
      </trkpt>
      <trkpt lat="45.65852" lon="4.70029">
        <ele>364</ele>
        <time>2017-02-18T08:38:32Z</time>
      </trkpt>
      <trkpt lat="45.65851" lon="4.7004">
        <ele>364</ele>
        <time>2017-02-18T08:38:34Z</time>
      </trkpt>
      <trkpt lat="45.65849" lon="4.70051">
        <ele>364</ele>
        <time>2017-02-18T08:38:36Z</time>
      </trkpt>
      <trkpt lat="45.65847" lon="4.70058">
        <ele>364</ele>
        <time>2017-02-18T08:38:37Z</time>
      </trkpt>
      <trkpt lat="45.65846" lon="4.70064">
        <ele>364</ele>
        <time>2017-02-18T08:38:38Z</time>
      </trkpt>
      <trkpt lat="45.65844" lon="4.70071">
        <ele>364</ele>
        <time>2017-02-18T08:38:39Z</time>
      </trkpt>
      <trkpt lat="45.65842" lon="4.70083">
        <ele>364</ele>
        <time>2017-02-18T08:38:41Z</time>
      </trkpt>
      <trkpt lat="45.65841" lon="4.7009">
        <ele>364</ele>
        <time>2017-02-18T08:38:42Z</time>
      </trkpt>
      <trkpt lat="45.65839" lon="4.701">
        <ele>364</ele>
        <time>2017-02-18T08:38:44Z</time>
      </trkpt>
      <trkpt lat="45.65836" lon="4.70111">
        <ele>364</ele>
        <time>2017-02-18T08:38:46Z</time>
      </trkpt>
      <trkpt lat="45.65834" lon="4.70123">
        <ele>364</ele>
        <time>2017-02-18T08:38:48Z</time>
      </trkpt>
      <trkpt lat="45.65834" lon="4.70129">
        <ele>364</ele>
        <time>2017-02-18T08:38:49Z</time>
      </trkpt>
      <trkpt lat="45.65832" lon="4.7014">
        <ele>364</ele>
        <time>2017-02-18T08:38:51Z</time>
      </trkpt>
      <trkpt lat="45.6583" lon="4.70151">
        <ele>365</ele>
        <time>2017-02-18T08:38:53Z</time>
      </trkpt>
      <trkpt lat="45.65828" lon="4.70161">
        <ele>365</ele>
        <time>2017-02-18T08:38:55Z</time>
      </trkpt>
      <trkpt lat="45.65826" lon="4.7017">
        <ele>365</ele>
        <time>2017-02-18T08:38:57Z</time>
      </trkpt>
      <trkpt lat="45.65825" lon="4.70179">
        <ele>364</ele>
        <time>2017-02-18T08:38:59Z</time>
      </trkpt>
      <trkpt lat="45.65824" lon="4.70188">
        <ele>365</ele>
        <time>2017-02-18T08:39:01Z</time>
      </trkpt>
      <trkpt lat="45.65822" lon="4.70198">
        <ele>366</ele>
        <time>2017-02-18T08:39:03Z</time>
      </trkpt>
      <trkpt lat="45.65821" lon="4.70207">
        <ele>366</ele>
        <time>2017-02-18T08:39:05Z</time>
      </trkpt>
      <trkpt lat="45.6582" lon="4.70215">
        <ele>367</ele>
        <time>2017-02-18T08:39:07Z</time>
      </trkpt>
      <trkpt lat="45.65818" lon="4.70223">
        <ele>368</ele>
        <time>2017-02-18T08:39:09Z</time>
      </trkpt>
      <trkpt lat="45.65816" lon="4.70231">
        <ele>367</ele>
        <time>2017-02-18T08:39:11Z</time>
      </trkpt>
      <trkpt lat="45.65815" lon="4.70239">
        <ele>367</ele>
        <time>2017-02-18T08:39:13Z</time>
      </trkpt>
      <trkpt lat="45.65814" lon="4.70246">
        <ele>367</ele>
        <time>2017-02-18T08:39:15Z</time>
      </trkpt>
      <trkpt lat="45.65812" lon="4.70253">
        <ele>367</ele>
        <time>2017-02-18T08:39:17Z</time>
      </trkpt>
      <trkpt lat="45.6581" lon="4.70261">
        <ele>366</ele>
        <time>2017-02-18T08:39:20Z</time>
      </trkpt>
      <trkpt lat="45.65806" lon="4.70269">
        <ele>364</ele>
        <time>2017-02-18T08:39:23Z</time>
      </trkpt>
      <trkpt lat="45.65803" lon="4.70276">
        <ele>363</ele>
        <time>2017-02-18T08:39:25Z</time>
      </trkpt>
      <trkpt lat="45.65799" lon="4.70283">
        <ele>361</ele>
        <time>2017-02-18T08:39:27Z</time>
      </trkpt>
      <trkpt lat="45.65795" lon="4.70291">
        <ele>360</ele>
        <time>2017-02-18T08:39:29Z</time>
      </trkpt>
      <trkpt lat="45.65791" lon="4.70299">
        <ele>359</ele>
        <time>2017-02-18T08:39:31Z</time>
      </trkpt>
      <trkpt lat="45.65786" lon="4.70307">
        <ele>359</ele>
        <time>2017-02-18T08:39:33Z</time>
      </trkpt>
      <trkpt lat="45.65783" lon="4.70316">
        <ele>359</ele>
        <time>2017-02-18T08:39:35Z</time>
      </trkpt>
      <trkpt lat="45.65779" lon="4.70324">
        <ele>359</ele>
        <time>2017-02-18T08:39:37Z</time>
      </trkpt>
      <trkpt lat="45.65776" lon="4.70332">
        <ele>358</ele>
        <time>2017-02-18T08:39:39Z</time>
      </trkpt>
      <trkpt lat="45.65772" lon="4.70339">
        <ele>357</ele>
        <time>2017-02-18T08:39:41Z</time>
      </trkpt>
      <trkpt lat="45.65768" lon="4.70347">
        <ele>356</ele>
        <time>2017-02-18T08:39:43Z</time>
      </trkpt>
      <trkpt lat="45.65765" lon="4.70355">
        <ele>355</ele>
        <time>2017-02-18T08:39:45Z</time>
      </trkpt>
      <trkpt lat="45.65762" lon="4.70364">
        <ele>354</ele>
        <time>2017-02-18T08:39:46Z</time>
      </trkpt>
      <trkpt lat="45.65759" lon="4.70371">
        <ele>354</ele>
        <time>2017-02-18T08:39:47Z</time>
      </trkpt>
      <trkpt lat="45.65757" lon="4.70377">
        <ele>354</ele>
        <time>2017-02-18T08:39:48Z</time>
      </trkpt>
      <trkpt lat="45.65754" lon="4.70383">
        <ele>354</ele>
        <time>2017-02-18T08:39:49Z</time>
      </trkpt>
      <trkpt lat="45.65749" lon="4.70386">
        <ele>354</ele>
        <time>2017-02-18T08:39:51Z</time>
      </trkpt>
      <trkpt lat="45.65741" lon="4.70383">
        <ele>355</ele>
        <time>2017-02-18T08:39:53Z</time>
      </trkpt>
      <trkpt lat="45.6574" lon="4.70375">
        <ele>355</ele>
        <time>2017-02-18T08:39:54Z</time>
      </trkpt>
      <trkpt lat="45.65735" lon="4.70366">
        <ele>355</ele>
        <time>2017-02-18T08:39:56Z</time>
      </trkpt>
      <trkpt lat="45.65732" lon="4.70361">
        <ele>354</ele>
        <time>2017-02-18T08:39:57Z</time>
      </trkpt>
      <trkpt lat="45.65728" lon="4.70353">
        <ele>354</ele>
        <time>2017-02-18T08:39:59Z</time>
      </trkpt>
      <trkpt lat="45.6572" lon="4.70348">
        <ele>353</ele>
        <time>2017-02-18T08:40:01Z</time>
      </trkpt>
      <trkpt lat="45.65715" lon="4.70336">
        <ele>352</ele>
        <time>2017-02-18T08:40:03Z</time>
      </trkpt>
      <trkpt lat="45.6571" lon="4.70326">
        <ele>351</ele>
        <time>2017-02-18T08:40:05Z</time>
      </trkpt>
      <trkpt lat="45.65706" lon="4.7032">
        <ele>350</ele>
        <time>2017-02-18T08:40:07Z</time>
      </trkpt>
      <trkpt lat="45.65702" lon="4.70317">
        <ele>349</ele>
        <time>2017-02-18T08:40:09Z</time>
      </trkpt>
      <trkpt lat="45.65697" lon="4.70316">
        <ele>348</ele>
        <time>2017-02-18T08:40:11Z</time>
      </trkpt>
      <trkpt lat="45.65692" lon="4.70313">
        <ele>348</ele>
        <time>2017-02-18T08:40:13Z</time>
      </trkpt>
      <trkpt lat="45.65688" lon="4.70309">
        <ele>348</ele>
        <time>2017-02-18T08:40:15Z</time>
      </trkpt>
      <trkpt lat="45.65684" lon="4.70305">
        <ele>348</ele>
        <time>2017-02-18T08:40:19Z</time>
      </trkpt>
      <trkpt lat="45.6568" lon="4.703">
        <ele>348</ele>
        <time>2017-02-18T08:40:23Z</time>
      </trkpt>
      <trkpt lat="45.65676" lon="4.70297">
        <ele>347</ele>
        <time>2017-02-18T08:40:26Z</time>
      </trkpt>
      <trkpt lat="45.65672" lon="4.70291">
        <ele>346</ele>
        <time>2017-02-18T08:40:30Z</time>
      </trkpt>
      <trkpt lat="45.65666" lon="4.70288">
        <ele>346</ele>
        <time>2017-02-18T08:40:34Z</time>
      </trkpt>
      <trkpt lat="45.65661" lon="4.70286">
        <ele>346</ele>
        <time>2017-02-18T08:40:37Z</time>
      </trkpt>
      <trkpt lat="45.65656" lon="4.70285">
        <ele>346</ele>
        <time>2017-02-18T08:40:40Z</time>
      </trkpt>
      <trkpt lat="45.65653" lon="4.70281">
        <ele>347</ele>
        <time>2017-02-18T08:40:43Z</time>
      </trkpt>
      <trkpt lat="45.65649" lon="4.70277">
        <ele>347</ele>
        <time>2017-02-18T08:40:46Z</time>
      </trkpt>
      <trkpt lat="45.65646" lon="4.70271">
        <ele>347</ele>
        <time>2017-02-18T08:40:49Z</time>
      </trkpt>
      <trkpt lat="45.65645" lon="4.70264">
        <ele>346</ele>
        <time>2017-02-18T08:40:52Z</time>
      </trkpt>
      <trkpt lat="45.65644" lon="4.70256">
        <ele>346</ele>
        <time>2017-02-18T08:40:55Z</time>
      </trkpt>
      <trkpt lat="45.65645" lon="4.70249">
        <ele>346</ele>
        <time>2017-02-18T08:40:58Z</time>
      </trkpt>
      <trkpt lat="45.65645" lon="4.70241">
        <ele>346</ele>
        <time>2017-02-18T08:41:02Z</time>
      </trkpt>
      <trkpt lat="45.65646" lon="4.70245">
        <ele>346</ele>
        <time>2017-02-18T08:41:26Z</time>
      </trkpt>
      <trkpt lat="45.65646" lon="4.70245">
        <ele>347</ele>
        <time>2017-02-18T08:41:28Z</time>
      </trkpt>
      <trkpt lat="45.65639" lon="4.70241">
        <ele>347</ele>
        <time>2017-02-18T08:41:46Z</time>
      </trkpt>
      <trkpt lat="45.65635" lon="4.70237">
        <ele>347</ele>
        <time>2017-02-18T08:41:49Z</time>
      </trkpt>
      <trkpt lat="45.65631" lon="4.70233">
        <ele>347</ele>
        <time>2017-02-18T08:41:53Z</time>
      </trkpt>
      <trkpt lat="45.65631" lon="4.70236">
        <ele>347</ele>
        <time>2017-02-18T08:42:11Z</time>
      </trkpt>
      <trkpt lat="45.65631" lon="4.70236">
        <ele>346</ele>
        <time>2017-02-18T08:42:13Z</time>
      </trkpt>
      <trkpt lat="45.65627" lon="4.70233">
        <ele>347</ele>
        <time>2017-02-18T08:42:40Z</time>
      </trkpt>
      <trkpt lat="45.65622" lon="4.7023">
        <ele>347</ele>
        <time>2017-02-18T08:42:49Z</time>
      </trkpt>
      <trkpt lat="45.65618" lon="4.7023">
        <ele>347</ele>
        <time>2017-02-18T08:43:00Z</time>
      </trkpt>
      <trkpt lat="45.65614" lon="4.70225">
        <ele>347</ele>
        <time>2017-02-18T08:43:05Z</time>
      </trkpt>
      <trkpt lat="45.65609" lon="4.7022">
        <ele>347</ele>
        <time>2017-02-18T08:43:08Z</time>
      </trkpt>
      <trkpt lat="45.65604" lon="4.70214">
        <ele>347</ele>
        <time>2017-02-18T08:43:11Z</time>
      </trkpt>
      <trkpt lat="45.656" lon="4.70209">
        <ele>347</ele>
        <time>2017-02-18T08:43:13Z</time>
      </trkpt>
      <trkpt lat="45.65595" lon="4.70202">
        <ele>347</ele>
        <time>2017-02-18T08:43:15Z</time>
      </trkpt>
      <trkpt lat="45.6559" lon="4.70196">
        <ele>347</ele>
        <time>2017-02-18T08:43:17Z</time>
      </trkpt>
      <trkpt lat="45.65586" lon="4.7019">
        <ele>347</ele>
        <time>2017-02-18T08:43:19Z</time>
      </trkpt>
      <trkpt lat="45.65582" lon="4.70186">
        <ele>348</ele>
        <time>2017-02-18T08:43:21Z</time>
      </trkpt>
      <trkpt lat="45.65578" lon="4.70182">
        <ele>349</ele>
        <time>2017-02-18T08:43:23Z</time>
      </trkpt>
      <trkpt lat="45.65575" lon="4.70177">
        <ele>350</ele>
        <time>2017-02-18T08:43:25Z</time>
      </trkpt>
      <trkpt lat="45.65572" lon="4.70173">
        <ele>352</ele>
        <time>2017-02-18T08:43:27Z</time>
      </trkpt>
      <trkpt lat="45.65568" lon="4.70168">
        <ele>353</ele>
        <time>2017-02-18T08:43:29Z</time>
      </trkpt>
      <trkpt lat="45.65564" lon="4.70164">
        <ele>353</ele>
        <time>2017-02-18T08:43:32Z</time>
      </trkpt>
      <trkpt lat="45.6556" lon="4.70159">
        <ele>354</ele>
        <time>2017-02-18T08:43:36Z</time>
      </trkpt>
      <trkpt lat="45.65555" lon="4.70153">
        <ele>353</ele>
        <time>2017-02-18T08:43:39Z</time>
      </trkpt>
      <trkpt lat="45.65551" lon="4.70146">
        <ele>352</ele>
        <time>2017-02-18T08:43:42Z</time>
      </trkpt>
      <trkpt lat="45.65548" lon="4.70139">
        <ele>351</ele>
        <time>2017-02-18T08:43:45Z</time>
      </trkpt>
      <trkpt lat="45.65545" lon="4.70134">
        <ele>349</ele>
        <time>2017-02-18T08:43:47Z</time>
      </trkpt>
      <trkpt lat="45.65541" lon="4.70125">
        <ele>347</ele>
        <time>2017-02-18T08:43:50Z</time>
      </trkpt>
      <trkpt lat="45.65539" lon="4.70118">
        <ele>346</ele>
        <time>2017-02-18T08:43:52Z</time>
      </trkpt>
      <trkpt lat="45.65537" lon="4.70112">
        <ele>345</ele>
        <time>2017-02-18T08:43:54Z</time>
      </trkpt>
      <trkpt lat="45.65535" lon="4.70104">
        <ele>344</ele>
        <time>2017-02-18T08:43:56Z</time>
      </trkpt>
      <trkpt lat="45.65528" lon="4.70096">
        <ele>344</ele>
        <time>2017-02-18T08:43:58Z</time>
      </trkpt>
      <trkpt lat="45.65519" lon="4.70093">
        <ele>343</ele>
        <time>2017-02-18T08:43:59Z</time>
      </trkpt>
      <trkpt lat="45.65514" lon="4.70092">
        <ele>343</ele>
        <time>2017-02-18T08:44:00Z</time>
      </trkpt>
      <trkpt lat="45.65509" lon="4.70092">
        <ele>342</ele>
        <time>2017-02-18T08:44:01Z</time>
      </trkpt>
      <trkpt lat="45.65503" lon="4.7009">
        <ele>342</ele>
        <time>2017-02-18T08:44:02Z</time>
      </trkpt>
      <trkpt lat="45.65498" lon="4.70088">
        <ele>341</ele>
        <time>2017-02-18T08:44:03Z</time>
      </trkpt>
      <trkpt lat="45.65493" lon="4.70087">
        <ele>341</ele>
        <time>2017-02-18T08:44:04Z</time>
      </trkpt>
      <trkpt lat="45.65487" lon="4.70085">
        <ele>340</ele>
        <time>2017-02-18T08:44:06Z</time>
      </trkpt>
      <trkpt lat="45.6548" lon="4.70084">
        <ele>340</ele>
        <time>2017-02-18T08:44:08Z</time>
      </trkpt>
      <trkpt lat="45.65484" lon="4.70075">
        <ele>339</ele>
        <time>2017-02-18T08:44:09Z</time>
      </trkpt>
      <trkpt lat="45.65484" lon="4.70065">
        <ele>339</ele>
        <time>2017-02-18T08:44:12Z</time>
      </trkpt>
      <trkpt lat="45.65484" lon="4.70058">
        <ele>339</ele>
        <time>2017-02-18T08:44:15Z</time>
      </trkpt>
      <trkpt lat="45.65481" lon="4.70066">
        <ele>339</ele>
        <time>2017-02-18T08:44:22Z</time>
      </trkpt>
      <trkpt lat="45.65479" lon="4.70075">
        <ele>339</ele>
        <time>2017-02-18T08:44:24Z</time>
      </trkpt>
      <trkpt lat="45.65477" lon="4.70085">
        <ele>339</ele>
        <time>2017-02-18T08:44:26Z</time>
      </trkpt>
      <trkpt lat="45.65473" lon="4.70101">
        <ele>339</ele>
        <time>2017-02-18T08:44:27Z</time>
      </trkpt>
      <trkpt lat="45.65472" lon="4.7011">
        <ele>339</ele>
        <time>2017-02-18T08:44:28Z</time>
      </trkpt>
      <trkpt lat="45.6547" lon="4.7012">
        <ele>338</ele>
        <time>2017-02-18T08:44:29Z</time>
      </trkpt>
      <trkpt lat="45.65468" lon="4.70131">
        <ele>337</ele>
        <time>2017-02-18T08:44:30Z</time>
      </trkpt>
      <trkpt lat="45.65465" lon="4.70143">
        <ele>337</ele>
        <time>2017-02-18T08:44:31Z</time>
      </trkpt>
      <trkpt lat="45.65462" lon="4.70157">
        <ele>336</ele>
        <time>2017-02-18T08:44:32Z</time>
      </trkpt>
      <trkpt lat="45.65459" lon="4.70169">
        <ele>336</ele>
        <time>2017-02-18T08:44:33Z</time>
      </trkpt>
      <trkpt lat="45.65457" lon="4.70181">
        <ele>336</ele>
        <time>2017-02-18T08:44:34Z</time>
      </trkpt>
      <trkpt lat="45.65458" lon="4.70194">
        <ele>336</ele>
        <time>2017-02-18T08:44:35Z</time>
      </trkpt>
      <trkpt lat="45.65458" lon="4.70205">
        <ele>335</ele>
        <time>2017-02-18T08:44:36Z</time>
      </trkpt>
      <trkpt lat="45.65455" lon="4.70215">
        <ele>335</ele>
        <time>2017-02-18T08:44:37Z</time>
      </trkpt>
      <trkpt lat="45.65455" lon="4.70225">
        <ele>335</ele>
        <time>2017-02-18T08:44:38Z</time>
      </trkpt>
      <trkpt lat="45.6545" lon="4.70223">
        <ele>335</ele>
        <time>2017-02-18T08:44:40Z</time>
      </trkpt>
      <trkpt lat="45.65443" lon="4.70223">
        <ele>336</ele>
        <time>2017-02-18T08:44:43Z</time>
      </trkpt>
      <trkpt lat="45.65439" lon="4.70218">
        <ele>335</ele>
        <time>2017-02-18T08:44:45Z</time>
      </trkpt>
      <trkpt lat="45.65433" lon="4.70214">
        <ele>335</ele>
        <time>2017-02-18T08:44:47Z</time>
      </trkpt>
      <trkpt lat="45.65427" lon="4.70212">
        <ele>335</ele>
        <time>2017-02-18T08:44:49Z</time>
      </trkpt>
      <trkpt lat="45.65422" lon="4.7021">
        <ele>335</ele>
        <time>2017-02-18T08:44:51Z</time>
      </trkpt>
      <trkpt lat="45.65417" lon="4.70208">
        <ele>335</ele>
        <time>2017-02-18T08:44:53Z</time>
      </trkpt>
      <trkpt lat="45.65412" lon="4.70204">
        <ele>335</ele>
        <time>2017-02-18T08:44:55Z</time>
      </trkpt>
      <trkpt lat="45.65406" lon="4.70199">
        <ele>335</ele>
        <time>2017-02-18T08:44:57Z</time>
      </trkpt>
      <trkpt lat="45.65401" lon="4.70196">
        <ele>335</ele>
        <time>2017-02-18T08:44:59Z</time>
      </trkpt>
      <trkpt lat="45.65396" lon="4.70194">
        <ele>336</ele>
        <time>2017-02-18T08:45:01Z</time>
      </trkpt>
      <trkpt lat="45.65389" lon="4.7019">
        <ele>336</ele>
        <time>2017-02-18T08:45:03Z</time>
      </trkpt>
      <trkpt lat="45.65384" lon="4.70187">
        <ele>337</ele>
        <time>2017-02-18T08:45:05Z</time>
      </trkpt>
      <trkpt lat="45.65377" lon="4.70184">
        <ele>338</ele>
        <time>2017-02-18T08:45:07Z</time>
      </trkpt>
      <trkpt lat="45.65371" lon="4.70181">
        <ele>339</ele>
        <time>2017-02-18T08:45:09Z</time>
      </trkpt>
      <trkpt lat="45.65365" lon="4.70179">
        <ele>339</ele>
        <time>2017-02-18T08:45:11Z</time>
      </trkpt>
      <trkpt lat="45.65358" lon="4.70177">
        <ele>339</ele>
        <time>2017-02-18T08:45:13Z</time>
      </trkpt>
      <trkpt lat="45.65353" lon="4.70177">
        <ele>339</ele>
        <time>2017-02-18T08:45:15Z</time>
      </trkpt>
      <trkpt lat="45.65348" lon="4.70177">
        <ele>339</ele>
        <time>2017-02-18T08:45:17Z</time>
      </trkpt>
      <trkpt lat="45.65342" lon="4.70177">
        <ele>339</ele>
        <time>2017-02-18T08:45:19Z</time>
      </trkpt>
      <trkpt lat="45.65337" lon="4.70175">
        <ele>339</ele>
        <time>2017-02-18T08:45:21Z</time>
      </trkpt>
      <trkpt lat="45.65331" lon="4.70173">
        <ele>339</ele>
        <time>2017-02-18T08:45:23Z</time>
      </trkpt>
      <trkpt lat="45.65326" lon="4.70172">
        <ele>339</ele>
        <time>2017-02-18T08:45:25Z</time>
      </trkpt>
      <trkpt lat="45.6532" lon="4.70171">
        <ele>340</ele>
        <time>2017-02-18T08:45:27Z</time>
      </trkpt>
      <trkpt lat="45.65314" lon="4.70169">
        <ele>340</ele>
        <time>2017-02-18T08:45:29Z</time>
      </trkpt>
      <trkpt lat="45.65309" lon="4.70166">
        <ele>340</ele>
        <time>2017-02-18T08:45:31Z</time>
      </trkpt>
      <trkpt lat="45.65304" lon="4.70164">
        <ele>340</ele>
        <time>2017-02-18T08:45:33Z</time>
      </trkpt>
      <trkpt lat="45.65299" lon="4.70162">
        <ele>340</ele>
        <time>2017-02-18T08:45:35Z</time>
      </trkpt>
      <trkpt lat="45.65292" lon="4.70161">
        <ele>340</ele>
        <time>2017-02-18T08:45:37Z</time>
      </trkpt>
      <trkpt lat="45.65286" lon="4.70159">
        <ele>340</ele>
        <time>2017-02-18T08:45:39Z</time>
      </trkpt>
      <trkpt lat="45.6528" lon="4.70158">
        <ele>340</ele>
        <time>2017-02-18T08:45:41Z</time>
      </trkpt>
      <trkpt lat="45.65274" lon="4.70155">
        <ele>340</ele>
        <time>2017-02-18T08:45:43Z</time>
      </trkpt>
      <trkpt lat="45.65268" lon="4.70153">
        <ele>340</ele>
        <time>2017-02-18T08:45:45Z</time>
      </trkpt>
      <trkpt lat="45.65263" lon="4.70151">
        <ele>340</ele>
        <time>2017-02-18T08:45:47Z</time>
      </trkpt>
      <trkpt lat="45.65257" lon="4.7015">
        <ele>340</ele>
        <time>2017-02-18T08:45:49Z</time>
      </trkpt>
      <trkpt lat="45.65251" lon="4.70147">
        <ele>340</ele>
        <time>2017-02-18T08:45:51Z</time>
      </trkpt>
      <trkpt lat="45.65245" lon="4.70145">
        <ele>339</ele>
        <time>2017-02-18T08:45:53Z</time>
      </trkpt>
      <trkpt lat="45.6524" lon="4.70143">
        <ele>339</ele>
        <time>2017-02-18T08:45:55Z</time>
      </trkpt>
      <trkpt lat="45.65235" lon="4.7014">
        <ele>339</ele>
        <time>2017-02-18T08:45:57Z</time>
      </trkpt>
      <trkpt lat="45.65229" lon="4.70137">
        <ele>339</ele>
        <time>2017-02-18T08:45:59Z</time>
      </trkpt>
      <trkpt lat="45.65223" lon="4.70134">
        <ele>339</ele>
        <time>2017-02-18T08:46:01Z</time>
      </trkpt>
      <trkpt lat="45.65218" lon="4.70132">
        <ele>340</ele>
        <time>2017-02-18T08:46:03Z</time>
      </trkpt>
      <trkpt lat="45.65212" lon="4.70131">
        <ele>340</ele>
        <time>2017-02-18T08:46:05Z</time>
      </trkpt>
      <trkpt lat="45.65206" lon="4.70129">
        <ele>340</ele>
        <time>2017-02-18T08:46:07Z</time>
      </trkpt>
      <trkpt lat="45.652" lon="4.70128">
        <ele>340</ele>
        <time>2017-02-18T08:46:09Z</time>
      </trkpt>
      <trkpt lat="45.65195" lon="4.70127">
        <ele>341</ele>
        <time>2017-02-18T08:46:11Z</time>
      </trkpt>
      <trkpt lat="45.65189" lon="4.70129">
        <ele>341</ele>
        <time>2017-02-18T08:46:13Z</time>
      </trkpt>
      <trkpt lat="45.65184" lon="4.70131">
        <ele>342</ele>
        <time>2017-02-18T08:46:15Z</time>
      </trkpt>
      <trkpt lat="45.65179" lon="4.70134">
        <ele>343</ele>
        <time>2017-02-18T08:46:17Z</time>
      </trkpt>
      <trkpt lat="45.65173" lon="4.70135">
        <ele>343</ele>
        <time>2017-02-18T08:46:19Z</time>
      </trkpt>
      <trkpt lat="45.65168" lon="4.70137">
        <ele>343</ele>
        <time>2017-02-18T08:46:21Z</time>
      </trkpt>
      <trkpt lat="45.65164" lon="4.70143">
        <ele>343</ele>
        <time>2017-02-18T08:46:23Z</time>
      </trkpt>
      <trkpt lat="45.6516" lon="4.7015">
        <ele>344</ele>
        <time>2017-02-18T08:46:25Z</time>
      </trkpt>
      <trkpt lat="45.65156" lon="4.70156">
        <ele>344</ele>
        <time>2017-02-18T08:46:27Z</time>
      </trkpt>
      <trkpt lat="45.65153" lon="4.70163">
        <ele>344</ele>
        <time>2017-02-18T08:46:29Z</time>
      </trkpt>
      <trkpt lat="45.65149" lon="4.7017">
        <ele>344</ele>
        <time>2017-02-18T08:46:31Z</time>
      </trkpt>
      <trkpt lat="45.65145" lon="4.70177">
        <ele>344</ele>
        <time>2017-02-18T08:46:33Z</time>
      </trkpt>
      <trkpt lat="45.65142" lon="4.70185">
        <ele>343</ele>
        <time>2017-02-18T08:46:35Z</time>
      </trkpt>
      <trkpt lat="45.65138" lon="4.70192">
        <ele>343</ele>
        <time>2017-02-18T08:46:37Z</time>
      </trkpt>
      <trkpt lat="45.65134" lon="4.702">
        <ele>343</ele>
        <time>2017-02-18T08:46:39Z</time>
      </trkpt>
      <trkpt lat="45.6513" lon="4.70207">
        <ele>342</ele>
        <time>2017-02-18T08:46:41Z</time>
      </trkpt>
      <trkpt lat="45.65126" lon="4.70213">
        <ele>342</ele>
        <time>2017-02-18T08:46:43Z</time>
      </trkpt>
      <trkpt lat="45.65123" lon="4.7022">
        <ele>342</ele>
        <time>2017-02-18T08:46:45Z</time>
      </trkpt>
      <trkpt lat="45.6512" lon="4.70227">
        <ele>343</ele>
        <time>2017-02-18T08:46:47Z</time>
      </trkpt>
      <trkpt lat="45.6512" lon="4.70235">
        <ele>343</ele>
        <time>2017-02-18T08:46:50Z</time>
      </trkpt>
      <trkpt lat="45.6512" lon="4.70242">
        <ele>343</ele>
        <time>2017-02-18T08:46:52Z</time>
      </trkpt>
      <trkpt lat="45.65125" lon="4.70248">
        <ele>344</ele>
        <time>2017-02-18T08:46:54Z</time>
      </trkpt>
      <trkpt lat="45.65132" lon="4.70254">
        <ele>344</ele>
        <time>2017-02-18T08:46:56Z</time>
      </trkpt>
      <trkpt lat="45.65139" lon="4.70259">
        <ele>343</ele>
        <time>2017-02-18T08:46:58Z</time>
      </trkpt>
      <trkpt lat="45.65146" lon="4.70266">
        <ele>343</ele>
        <time>2017-02-18T08:47:00Z</time>
      </trkpt>
      <trkpt lat="45.65153" lon="4.70272">
        <ele>342</ele>
        <time>2017-02-18T08:47:02Z</time>
      </trkpt>
      <trkpt lat="45.65159" lon="4.70281">
        <ele>341</ele>
        <time>2017-02-18T08:47:04Z</time>
      </trkpt>
      <trkpt lat="45.65157" lon="4.70291">
        <ele>341</ele>
        <time>2017-02-18T08:47:06Z</time>
      </trkpt>
      <trkpt lat="45.65151" lon="4.70298">
        <ele>340</ele>
        <time>2017-02-18T08:47:08Z</time>
      </trkpt>
      <trkpt lat="45.65144" lon="4.70303">
        <ele>340</ele>
        <time>2017-02-18T08:47:10Z</time>
      </trkpt>
      <trkpt lat="45.65133" lon="4.70309">
        <ele>340</ele>
        <time>2017-02-18T08:47:12Z</time>
      </trkpt>
      <trkpt lat="45.65128" lon="4.70311">
        <ele>340</ele>
        <time>2017-02-18T08:47:13Z</time>
      </trkpt>
      <trkpt lat="45.65124" lon="4.70314">
        <ele>340</ele>
        <time>2017-02-18T08:47:14Z</time>
      </trkpt>
      <trkpt lat="45.65117" lon="4.70319">
        <ele>339</ele>
        <time>2017-02-18T08:47:16Z</time>
      </trkpt>
      <trkpt lat="45.65112" lon="4.70323">
        <ele>339</ele>
        <time>2017-02-18T08:47:17Z</time>
      </trkpt>
      <trkpt lat="45.65108" lon="4.70326">
        <ele>339</ele>
        <time>2017-02-18T08:47:18Z</time>
      </trkpt>
      <trkpt lat="45.651" lon="4.7033">
        <ele>339</ele>
        <time>2017-02-18T08:47:20Z</time>
      </trkpt>
      <trkpt lat="45.65092" lon="4.70335">
        <ele>339</ele>
        <time>2017-02-18T08:47:22Z</time>
      </trkpt>
      <trkpt lat="45.65087" lon="4.70337">
        <ele>339</ele>
        <time>2017-02-18T08:47:23Z</time>
      </trkpt>
      <trkpt lat="45.65082" lon="4.70339">
        <ele>339</ele>
        <time>2017-02-18T08:47:24Z</time>
      </trkpt>
      <trkpt lat="45.65077" lon="4.70341">
        <ele>338</ele>
        <time>2017-02-18T08:47:25Z</time>
      </trkpt>
      <trkpt lat="45.65073" lon="4.70343">
        <ele>338</ele>
        <time>2017-02-18T08:47:26Z</time>
      </trkpt>
      <trkpt lat="45.65069" lon="4.70346">
        <ele>338</ele>
        <time>2017-02-18T08:47:27Z</time>
      </trkpt>
      <trkpt lat="45.6506" lon="4.7035">
        <ele>338</ele>
        <time>2017-02-18T08:47:29Z</time>
      </trkpt>
      <trkpt lat="45.65052" lon="4.70353">
        <ele>338</ele>
        <time>2017-02-18T08:47:31Z</time>
      </trkpt>
      <trkpt lat="45.65044" lon="4.70357">
        <ele>338</ele>
        <time>2017-02-18T08:47:33Z</time>
      </trkpt>
      <trkpt lat="45.65036" lon="4.70361">
        <ele>338</ele>
        <time>2017-02-18T08:47:35Z</time>
      </trkpt>
      <trkpt lat="45.65028" lon="4.70364">
        <ele>338</ele>
        <time>2017-02-18T08:47:37Z</time>
      </trkpt>
      <trkpt lat="45.65021" lon="4.70367">
        <ele>338</ele>
        <time>2017-02-18T08:47:39Z</time>
      </trkpt>
      <trkpt lat="45.65013" lon="4.7037">
        <ele>338</ele>
        <time>2017-02-18T08:47:41Z</time>
      </trkpt>
      <trkpt lat="45.65005" lon="4.70374">
        <ele>338</ele>
        <time>2017-02-18T08:47:43Z</time>
      </trkpt>
      <trkpt lat="45.65" lon="4.70377">
        <ele>338</ele>
        <time>2017-02-18T08:47:44Z</time>
      </trkpt>
      <trkpt lat="45.64996" lon="4.70379">
        <ele>338</ele>
        <time>2017-02-18T08:47:45Z</time>
      </trkpt>
      <trkpt lat="45.64989" lon="4.70382">
        <ele>338</ele>
        <time>2017-02-18T08:47:47Z</time>
      </trkpt>
      <trkpt lat="45.64982" lon="4.70388">
        <ele>338</ele>
        <time>2017-02-18T08:47:49Z</time>
      </trkpt>
      <trkpt lat="45.64977" lon="4.70395">
        <ele>337</ele>
        <time>2017-02-18T08:47:51Z</time>
      </trkpt>
      <trkpt lat="45.64971" lon="4.70402">
        <ele>336</ele>
        <time>2017-02-18T08:47:53Z</time>
      </trkpt>
      <trkpt lat="45.64966" lon="4.70409">
        <ele>335</ele>
        <time>2017-02-18T08:47:55Z</time>
      </trkpt>
      <trkpt lat="45.64961" lon="4.70417">
        <ele>335</ele>
        <time>2017-02-18T08:47:57Z</time>
      </trkpt>
      <trkpt lat="45.64956" lon="4.70423">
        <ele>335</ele>
        <time>2017-02-18T08:47:59Z</time>
      </trkpt>
      <trkpt lat="45.6495" lon="4.70427">
        <ele>335</ele>
        <time>2017-02-18T08:48:01Z</time>
      </trkpt>
      <trkpt lat="45.64944" lon="4.70431">
        <ele>336</ele>
        <time>2017-02-18T08:48:03Z</time>
      </trkpt>
      <trkpt lat="45.64939" lon="4.70437">
        <ele>337</ele>
        <time>2017-02-18T08:48:05Z</time>
      </trkpt>
      <trkpt lat="45.64933" lon="4.70443">
        <ele>338</ele>
        <time>2017-02-18T08:48:07Z</time>
      </trkpt>
      <trkpt lat="45.64928" lon="4.7045">
        <ele>339</ele>
        <time>2017-02-18T08:48:09Z</time>
      </trkpt>
      <trkpt lat="45.64924" lon="4.70457">
        <ele>339</ele>
        <time>2017-02-18T08:48:11Z</time>
      </trkpt>
      <trkpt lat="45.64919" lon="4.70464">
        <ele>340</ele>
        <time>2017-02-18T08:48:13Z</time>
      </trkpt>
      <trkpt lat="45.64915" lon="4.70472">
        <ele>340</ele>
        <time>2017-02-18T08:48:15Z</time>
      </trkpt>
      <trkpt lat="45.64911" lon="4.7048">
        <ele>340</ele>
        <time>2017-02-18T08:48:17Z</time>
      </trkpt>
      <trkpt lat="45.64907" lon="4.70488">
        <ele>340</ele>
        <time>2017-02-18T08:48:19Z</time>
      </trkpt>
      <trkpt lat="45.64902" lon="4.70496">
        <ele>340</ele>
        <time>2017-02-18T08:48:21Z</time>
      </trkpt>
      <trkpt lat="45.64898" lon="4.70503">
        <ele>340</ele>
        <time>2017-02-18T08:48:23Z</time>
      </trkpt>
      <trkpt lat="45.64893" lon="4.70511">
        <ele>340</ele>
        <time>2017-02-18T08:48:25Z</time>
      </trkpt>
      <trkpt lat="45.64889" lon="4.70519">
        <ele>340</ele>
        <time>2017-02-18T08:48:27Z</time>
      </trkpt>
      <trkpt lat="45.64885" lon="4.70527">
        <ele>340</ele>
        <time>2017-02-18T08:48:29Z</time>
      </trkpt>
      <trkpt lat="45.6488" lon="4.70534">
        <ele>340</ele>
        <time>2017-02-18T08:48:31Z</time>
      </trkpt>
      <trkpt lat="45.64875" lon="4.70541">
        <ele>340</ele>
        <time>2017-02-18T08:48:33Z</time>
      </trkpt>
      <trkpt lat="45.64871" lon="4.70548">
        <ele>340</ele>
        <time>2017-02-18T08:48:35Z</time>
      </trkpt>
      <trkpt lat="45.64866" lon="4.70556">
        <ele>340</ele>
        <time>2017-02-18T08:48:37Z</time>
      </trkpt>
      <trkpt lat="45.64861" lon="4.70564">
        <ele>340</ele>
        <time>2017-02-18T08:48:39Z</time>
      </trkpt>
      <trkpt lat="45.64856" lon="4.70572">
        <ele>340</ele>
        <time>2017-02-18T08:48:41Z</time>
      </trkpt>
      <trkpt lat="45.64851" lon="4.70579">
        <ele>340</ele>
        <time>2017-02-18T08:48:43Z</time>
      </trkpt>
      <trkpt lat="45.64845" lon="4.70586">
        <ele>340</ele>
        <time>2017-02-18T08:48:45Z</time>
      </trkpt>
      <trkpt lat="45.6484" lon="4.70593">
        <ele>340</ele>
        <time>2017-02-18T08:48:47Z</time>
      </trkpt>
      <trkpt lat="45.64836" lon="4.70598">
        <ele>340</ele>
        <time>2017-02-18T08:48:48Z</time>
      </trkpt>
      <trkpt lat="45.64832" lon="4.70605">
        <ele>340</ele>
        <time>2017-02-18T08:48:49Z</time>
      </trkpt>
      <trkpt lat="45.64828" lon="4.7061">
        <ele>339</ele>
        <time>2017-02-18T08:48:50Z</time>
      </trkpt>
      <trkpt lat="45.64824" lon="4.70615">
        <ele>339</ele>
        <time>2017-02-18T08:48:51Z</time>
      </trkpt>
      <trkpt lat="45.6482" lon="4.70621">
        <ele>339</ele>
        <time>2017-02-18T08:48:52Z</time>
      </trkpt>
      <trkpt lat="45.64816" lon="4.70626">
        <ele>339</ele>
        <time>2017-02-18T08:48:53Z</time>
      </trkpt>
      <trkpt lat="45.64811" lon="4.70633">
        <ele>339</ele>
        <time>2017-02-18T08:48:54Z</time>
      </trkpt>
      <trkpt lat="45.64808" lon="4.70638">
        <ele>339</ele>
        <time>2017-02-18T08:48:55Z</time>
      </trkpt>
      <trkpt lat="45.64803" lon="4.70643">
        <ele>339</ele>
        <time>2017-02-18T08:48:56Z</time>
      </trkpt>
      <trkpt lat="45.64798" lon="4.70648">
        <ele>339</ele>
        <time>2017-02-18T08:48:57Z</time>
      </trkpt>
      <trkpt lat="45.64793" lon="4.70651">
        <ele>339</ele>
        <time>2017-02-18T08:48:58Z</time>
      </trkpt>
      <trkpt lat="45.64789" lon="4.70655">
        <ele>338</ele>
        <time>2017-02-18T08:48:59Z</time>
      </trkpt>
      <trkpt lat="45.64785" lon="4.70659">
        <ele>338</ele>
        <time>2017-02-18T08:49:00Z</time>
      </trkpt>
      <trkpt lat="45.64782" lon="4.70664">
        <ele>338</ele>
        <time>2017-02-18T08:49:01Z</time>
      </trkpt>
      <trkpt lat="45.64778" lon="4.70669">
        <ele>338</ele>
        <time>2017-02-18T08:49:02Z</time>
      </trkpt>
      <trkpt lat="45.64774" lon="4.70674">
        <ele>337</ele>
        <time>2017-02-18T08:49:03Z</time>
      </trkpt>
      <trkpt lat="45.64769" lon="4.70683">
        <ele>337</ele>
        <time>2017-02-18T08:49:05Z</time>
      </trkpt>
      <trkpt lat="45.64765" lon="4.70696">
        <ele>337</ele>
        <time>2017-02-18T08:49:07Z</time>
      </trkpt>
      <trkpt lat="45.64764" lon="4.70702">
        <ele>337</ele>
        <time>2017-02-18T08:49:08Z</time>
      </trkpt>
      <trkpt lat="45.64763" lon="4.7071">
        <ele>337</ele>
        <time>2017-02-18T08:49:09Z</time>
      </trkpt>
      <trkpt lat="45.64763" lon="4.70719">
        <ele>337</ele>
        <time>2017-02-18T08:49:11Z</time>
      </trkpt>
      <trkpt lat="45.64761" lon="4.70727">
        <ele>338</ele>
        <time>2017-02-18T08:49:12Z</time>
      </trkpt>
      <trkpt lat="45.6476" lon="4.70734">
        <ele>338</ele>
        <time>2017-02-18T08:49:13Z</time>
      </trkpt>
      <trkpt lat="45.64759" lon="4.70741">
        <ele>339</ele>
        <time>2017-02-18T08:49:14Z</time>
      </trkpt>
      <trkpt lat="45.64755" lon="4.7075">
        <ele>339</ele>
        <time>2017-02-18T08:49:15Z</time>
      </trkpt>
      <trkpt lat="45.64753" lon="4.70759">
        <ele>340</ele>
        <time>2017-02-18T08:49:16Z</time>
      </trkpt>
      <trkpt lat="45.64751" lon="4.70766">
        <ele>339</ele>
        <time>2017-02-18T08:49:17Z</time>
      </trkpt>
      <trkpt lat="45.6475" lon="4.70772">
        <ele>339</ele>
        <time>2017-02-18T08:49:18Z</time>
      </trkpt>
      <trkpt lat="45.64748" lon="4.70785">
        <ele>338</ele>
        <time>2017-02-18T08:49:20Z</time>
      </trkpt>
      <trkpt lat="45.64747" lon="4.70793">
        <ele>338</ele>
        <time>2017-02-18T08:49:22Z</time>
      </trkpt>
      <trkpt lat="45.6474" lon="4.70795">
        <ele>337</ele>
        <time>2017-02-18T08:49:25Z</time>
      </trkpt>
      <trkpt lat="45.64735" lon="4.70794">
        <ele>337</ele>
        <time>2017-02-18T08:49:27Z</time>
      </trkpt>
      <trkpt lat="45.64736" lon="4.70795">
        <ele>337</ele>
        <time>2017-02-18T08:49:56Z</time>
      </trkpt>
      <trkpt lat="45.64736" lon="4.70795">
        <ele>337</ele>
        <time>2017-02-18T08:49:58Z</time>
      </trkpt>
      <trkpt lat="45.64736" lon="4.70795">
        <ele>337</ele>
        <time>2017-02-18T08:50:26Z</time>
      </trkpt>
      <trkpt lat="45.64736" lon="4.70795">
        <ele>337</ele>
        <time>2017-02-18T08:50:28Z</time>
      </trkpt>
      <trkpt lat="45.64737" lon="4.70793">
        <ele>337</ele>
        <time>2017-02-18T08:50:56Z</time>
      </trkpt>
      <trkpt lat="45.64737" lon="4.70793">
        <ele>337</ele>
        <time>2017-02-18T08:50:58Z</time>
      </trkpt>
      <trkpt lat="45.64737" lon="4.70793">
        <ele>337</ele>
        <time>2017-02-18T08:51:26Z</time>
      </trkpt>
      <trkpt lat="45.64737" lon="4.70793">
        <ele>337</ele>
        <time>2017-02-18T08:51:29Z</time>
      </trkpt>
      <trkpt lat="45.64737" lon="4.70795">
        <ele>337</ele>
        <time>2017-02-18T08:51:56Z</time>
      </trkpt>
      <trkpt lat="45.64738" lon="4.70795">
        <ele>337</ele>
        <time>2017-02-18T08:51:59Z</time>
      </trkpt>
      <trkpt lat="45.64736" lon="4.70787">
        <ele>337</ele>
        <time>2017-02-18T08:52:22Z</time>
      </trkpt>
      <trkpt lat="45.64732" lon="4.70782">
        <ele>336</ele>
        <time>2017-02-18T08:52:25Z</time>
      </trkpt>
      <trkpt lat="45.64727" lon="4.70776">
        <ele>336</ele>
        <time>2017-02-18T08:52:28Z</time>
      </trkpt>
      <trkpt lat="45.64722" lon="4.70771">
        <ele>336</ele>
        <time>2017-02-18T08:52:30Z</time>
      </trkpt>
      <trkpt lat="45.64719" lon="4.70766">
        <ele>336</ele>
        <time>2017-02-18T08:52:32Z</time>
      </trkpt>
      <trkpt lat="45.64715" lon="4.70762">
        <ele>336</ele>
        <time>2017-02-18T08:52:34Z</time>
      </trkpt>
      <trkpt lat="45.64712" lon="4.70756">
        <ele>337</ele>
        <time>2017-02-18T08:52:36Z</time>
      </trkpt>
      <trkpt lat="45.64708" lon="4.70752">
        <ele>338</ele>
        <time>2017-02-18T08:52:38Z</time>
      </trkpt>
      <trkpt lat="45.64705" lon="4.70747">
        <ele>338</ele>
        <time>2017-02-18T08:52:40Z</time>
      </trkpt>
      <trkpt lat="45.64701" lon="4.70743">
        <ele>338</ele>
        <time>2017-02-18T08:52:42Z</time>
      </trkpt>
      <trkpt lat="45.64697" lon="4.70739">
        <ele>339</ele>
        <time>2017-02-18T08:52:44Z</time>
      </trkpt>
      <trkpt lat="45.64693" lon="4.70735">
        <ele>339</ele>
        <time>2017-02-18T08:52:46Z</time>
      </trkpt>
      <trkpt lat="45.64689" lon="4.7073">
        <ele>338</ele>
        <time>2017-02-18T08:52:48Z</time>
      </trkpt>
      <trkpt lat="45.64685" lon="4.70725">
        <ele>338</ele>
        <time>2017-02-18T08:52:50Z</time>
      </trkpt>
      <trkpt lat="45.64681" lon="4.7072">
        <ele>337</ele>
        <time>2017-02-18T08:52:52Z</time>
      </trkpt>
      <trkpt lat="45.64678" lon="4.70715">
        <ele>337</ele>
        <time>2017-02-18T08:52:54Z</time>
      </trkpt>
      <trkpt lat="45.64675" lon="4.70709">
        <ele>336</ele>
        <time>2017-02-18T08:52:56Z</time>
      </trkpt>
      <trkpt lat="45.64671" lon="4.70702">
        <ele>336</ele>
        <time>2017-02-18T08:52:58Z</time>
      </trkpt>
      <trkpt lat="45.64668" lon="4.70696">
        <ele>336</ele>
        <time>2017-02-18T08:53:00Z</time>
      </trkpt>
      <trkpt lat="45.64663" lon="4.70692">
        <ele>336</ele>
        <time>2017-02-18T08:53:02Z</time>
      </trkpt>
      <trkpt lat="45.64658" lon="4.7069">
        <ele>336</ele>
        <time>2017-02-18T08:53:04Z</time>
      </trkpt>
      <trkpt lat="45.64653" lon="4.70687">
        <ele>337</ele>
        <time>2017-02-18T08:53:06Z</time>
      </trkpt>
      <trkpt lat="45.6465" lon="4.70683">
        <ele>338</ele>
        <time>2017-02-18T08:53:08Z</time>
      </trkpt>
      <trkpt lat="45.64646" lon="4.70678">
        <ele>340</ele>
        <time>2017-02-18T08:53:10Z</time>
      </trkpt>
      <trkpt lat="45.64642" lon="4.70672">
        <ele>342</ele>
        <time>2017-02-18T08:53:12Z</time>
      </trkpt>
      <trkpt lat="45.64639" lon="4.70667">
        <ele>343</ele>
        <time>2017-02-18T08:53:14Z</time>
      </trkpt>
      <trkpt lat="45.64635" lon="4.70661">
        <ele>345</ele>
        <time>2017-02-18T08:53:16Z</time>
      </trkpt>
      <trkpt lat="45.64631" lon="4.70656">
        <ele>345</ele>
        <time>2017-02-18T08:53:18Z</time>
      </trkpt>
      <trkpt lat="45.64627" lon="4.70651">
        <ele>345</ele>
        <time>2017-02-18T08:53:20Z</time>
      </trkpt>
      <trkpt lat="45.64623" lon="4.70646">
        <ele>345</ele>
        <time>2017-02-18T08:53:22Z</time>
      </trkpt>
      <trkpt lat="45.64619" lon="4.70641">
        <ele>345</ele>
        <time>2017-02-18T08:53:24Z</time>
      </trkpt>
      <trkpt lat="45.64615" lon="4.70635">
        <ele>346</ele>
        <time>2017-02-18T08:53:26Z</time>
      </trkpt>
      <trkpt lat="45.64611" lon="4.70629">
        <ele>346</ele>
        <time>2017-02-18T08:53:28Z</time>
      </trkpt>
      <trkpt lat="45.64608" lon="4.70623">
        <ele>347</ele>
        <time>2017-02-18T08:53:30Z</time>
      </trkpt>
      <trkpt lat="45.64605" lon="4.70618">
        <ele>347</ele>
        <time>2017-02-18T08:53:32Z</time>
      </trkpt>
      <trkpt lat="45.64602" lon="4.70612">
        <ele>348</ele>
        <time>2017-02-18T08:53:34Z</time>
      </trkpt>
      <trkpt lat="45.64599" lon="4.70607">
        <ele>348</ele>
        <time>2017-02-18T08:53:36Z</time>
      </trkpt>
      <trkpt lat="45.64595" lon="4.70602">
        <ele>349</ele>
        <time>2017-02-18T08:53:38Z</time>
      </trkpt>
      <trkpt lat="45.64592" lon="4.70597">
        <ele>349</ele>
        <time>2017-02-18T08:53:40Z</time>
      </trkpt>
      <trkpt lat="45.64588" lon="4.70592">
        <ele>349</ele>
        <time>2017-02-18T08:53:42Z</time>
      </trkpt>
      <trkpt lat="45.64585" lon="4.70587">
        <ele>349</ele>
        <time>2017-02-18T08:53:44Z</time>
      </trkpt>
      <trkpt lat="45.64581" lon="4.70583">
        <ele>349</ele>
        <time>2017-02-18T08:53:46Z</time>
      </trkpt>
      <trkpt lat="45.64577" lon="4.70578">
        <ele>349</ele>
        <time>2017-02-18T08:53:48Z</time>
      </trkpt>
      <trkpt lat="45.64573" lon="4.70573">
        <ele>349</ele>
        <time>2017-02-18T08:53:50Z</time>
      </trkpt>
      <trkpt lat="45.6457" lon="4.70568">
        <ele>349</ele>
        <time>2017-02-18T08:53:52Z</time>
      </trkpt>
      <trkpt lat="45.64566" lon="4.70563">
        <ele>349</ele>
        <time>2017-02-18T08:53:54Z</time>
      </trkpt>
      <trkpt lat="45.64563" lon="4.70555">
        <ele>350</ele>
        <time>2017-02-18T08:53:57Z</time>
      </trkpt>
      <trkpt lat="45.64559" lon="4.70548">
        <ele>350</ele>
        <time>2017-02-18T08:54:00Z</time>
      </trkpt>
      <trkpt lat="45.64555" lon="4.70542">
        <ele>350</ele>
        <time>2017-02-18T08:54:03Z</time>
      </trkpt>
      <trkpt lat="45.64551" lon="4.70538">
        <ele>349</ele>
        <time>2017-02-18T08:54:06Z</time>
      </trkpt>
      <trkpt lat="45.64547" lon="4.70533">
        <ele>348</ele>
        <time>2017-02-18T08:54:09Z</time>
      </trkpt>
      <trkpt lat="45.64543" lon="4.70526">
        <ele>346</ele>
        <time>2017-02-18T08:54:12Z</time>
      </trkpt>
      <trkpt lat="45.64539" lon="4.70521">
        <ele>346</ele>
        <time>2017-02-18T08:54:15Z</time>
      </trkpt>
      <trkpt lat="45.64534" lon="4.70515">
        <ele>346</ele>
        <time>2017-02-18T08:54:18Z</time>
      </trkpt>
      <trkpt lat="45.64531" lon="4.7051">
        <ele>349</ele>
        <time>2017-02-18T08:54:21Z</time>
      </trkpt>
      <trkpt lat="45.64527" lon="4.70503">
        <ele>351</ele>
        <time>2017-02-18T08:54:24Z</time>
      </trkpt>
      <trkpt lat="45.64523" lon="4.70497">
        <ele>353</ele>
        <time>2017-02-18T08:54:27Z</time>
      </trkpt>
      <trkpt lat="45.64519" lon="4.70491">
        <ele>354</ele>
        <time>2017-02-18T08:54:30Z</time>
      </trkpt>
      <trkpt lat="45.64516" lon="4.70485">
        <ele>356</ele>
        <time>2017-02-18T08:54:33Z</time>
      </trkpt>
      <trkpt lat="45.64513" lon="4.70479">
        <ele>356</ele>
        <time>2017-02-18T08:54:36Z</time>
      </trkpt>
      <trkpt lat="45.6451" lon="4.70474">
        <ele>357</ele>
        <time>2017-02-18T08:54:39Z</time>
      </trkpt>
      <trkpt lat="45.64508" lon="4.70468">
        <ele>358</ele>
        <time>2017-02-18T08:54:42Z</time>
      </trkpt>
      <trkpt lat="45.64504" lon="4.70463">
        <ele>359</ele>
        <time>2017-02-18T08:54:45Z</time>
      </trkpt>
      <trkpt lat="45.645" lon="4.70457">
        <ele>360</ele>
        <time>2017-02-18T08:54:48Z</time>
      </trkpt>
      <trkpt lat="45.64496" lon="4.70451">
        <ele>360</ele>
        <time>2017-02-18T08:54:52Z</time>
      </trkpt>
      <trkpt lat="45.64492" lon="4.70445">
        <ele>361</ele>
        <time>2017-02-18T08:54:56Z</time>
      </trkpt>
      <trkpt lat="45.64489" lon="4.70439">
        <ele>361</ele>
        <time>2017-02-18T08:54:59Z</time>
      </trkpt>
      <trkpt lat="45.64485" lon="4.70433">
        <ele>362</ele>
        <time>2017-02-18T08:55:03Z</time>
      </trkpt>
      <trkpt lat="45.64482" lon="4.70428">
        <ele>361</ele>
        <time>2017-02-18T08:55:06Z</time>
      </trkpt>
      <trkpt lat="45.64479" lon="4.70422">
        <ele>360</ele>
        <time>2017-02-18T08:55:09Z</time>
      </trkpt>
      <trkpt lat="45.64476" lon="4.70416">
        <ele>360</ele>
        <time>2017-02-18T08:55:13Z</time>
      </trkpt>
      <trkpt lat="45.64473" lon="4.7041">
        <ele>359</ele>
        <time>2017-02-18T08:55:16Z</time>
      </trkpt>
      <trkpt lat="45.6447" lon="4.70404">
        <ele>360</ele>
        <time>2017-02-18T08:55:20Z</time>
      </trkpt>
      <trkpt lat="45.64467" lon="4.70397">
        <ele>362</ele>
        <time>2017-02-18T08:55:23Z</time>
      </trkpt>
      <trkpt lat="45.64464" lon="4.70392">
        <ele>363</ele>
        <time>2017-02-18T08:55:26Z</time>
      </trkpt>
      <trkpt lat="45.64461" lon="4.70387">
        <ele>365</ele>
        <time>2017-02-18T08:55:29Z</time>
      </trkpt>
      <trkpt lat="45.64459" lon="4.70382">
        <ele>367</ele>
        <time>2017-02-18T08:55:32Z</time>
      </trkpt>
      <trkpt lat="45.64454" lon="4.70376">
        <ele>368</ele>
        <time>2017-02-18T08:55:37Z</time>
      </trkpt>
      <trkpt lat="45.6445" lon="4.70372">
        <ele>368</ele>
        <time>2017-02-18T08:55:41Z</time>
      </trkpt>
      <trkpt lat="45.64446" lon="4.70367">
        <ele>368</ele>
        <time>2017-02-18T08:55:45Z</time>
      </trkpt>
      <trkpt lat="45.64442" lon="4.7036">
        <ele>369</ele>
        <time>2017-02-18T08:55:49Z</time>
      </trkpt>
      <trkpt lat="45.64438" lon="4.70355">
        <ele>369</ele>
        <time>2017-02-18T08:55:53Z</time>
      </trkpt>
      <trkpt lat="45.64434" lon="4.7035">
        <ele>369</ele>
        <time>2017-02-18T08:55:57Z</time>
      </trkpt>
      <trkpt lat="45.64431" lon="4.70344">
        <ele>369</ele>
        <time>2017-02-18T08:56:01Z</time>
      </trkpt>
      <trkpt lat="45.64427" lon="4.7034">
        <ele>369</ele>
        <time>2017-02-18T08:56:04Z</time>
      </trkpt>
      <trkpt lat="45.64423" lon="4.70337">
        <ele>370</ele>
        <time>2017-02-18T08:56:07Z</time>
      </trkpt>
      <trkpt lat="45.64418" lon="4.70333">
        <ele>370</ele>
        <time>2017-02-18T08:56:10Z</time>
      </trkpt>
      <trkpt lat="45.64414" lon="4.70329">
        <ele>371</ele>
        <time>2017-02-18T08:56:13Z</time>
      </trkpt>
      <trkpt lat="45.64411" lon="4.70324">
        <ele>371</ele>
        <time>2017-02-18T08:56:16Z</time>
      </trkpt>
      <trkpt lat="45.64407" lon="4.70319">
        <ele>372</ele>
        <time>2017-02-18T08:56:19Z</time>
      </trkpt>
      <trkpt lat="45.64404" lon="4.70314">
        <ele>372</ele>
        <time>2017-02-18T08:56:22Z</time>
      </trkpt>
      <trkpt lat="45.644" lon="4.70308">
        <ele>372</ele>
        <time>2017-02-18T08:56:25Z</time>
      </trkpt>
      <trkpt lat="45.64396" lon="4.70303">
        <ele>372</ele>
        <time>2017-02-18T08:56:28Z</time>
      </trkpt>
      <trkpt lat="45.64392" lon="4.70299">
        <ele>372</ele>
        <time>2017-02-18T08:56:31Z</time>
      </trkpt>
      <trkpt lat="45.64388" lon="4.70295">
        <ele>372</ele>
        <time>2017-02-18T08:56:34Z</time>
      </trkpt>
      <trkpt lat="45.64384" lon="4.7029">
        <ele>371</ele>
        <time>2017-02-18T08:56:37Z</time>
      </trkpt>
      <trkpt lat="45.6438" lon="4.70286">
        <ele>371</ele>
        <time>2017-02-18T08:56:40Z</time>
      </trkpt>
      <trkpt lat="45.64376" lon="4.70281">
        <ele>371</ele>
        <time>2017-02-18T08:56:43Z</time>
      </trkpt>
      <trkpt lat="45.64372" lon="4.70276">
        <ele>371</ele>
        <time>2017-02-18T08:56:47Z</time>
      </trkpt>
      <trkpt lat="45.64368" lon="4.70274">
        <ele>371</ele>
        <time>2017-02-18T08:57:11Z</time>
      </trkpt>
      <trkpt lat="45.64365" lon="4.70271">
        <ele>372</ele>
        <time>2017-02-18T08:57:14Z</time>
      </trkpt>
      <trkpt lat="45.64361" lon="4.70266">
        <ele>373</ele>
        <time>2017-02-18T08:57:16Z</time>
      </trkpt>
      <trkpt lat="45.64356" lon="4.70261">
        <ele>373</ele>
        <time>2017-02-18T08:57:19Z</time>
      </trkpt>
      <trkpt lat="45.64352" lon="4.70256">
        <ele>373</ele>
        <time>2017-02-18T08:57:22Z</time>
      </trkpt>
      <trkpt lat="45.64348" lon="4.70253">
        <ele>374</ele>
        <time>2017-02-18T08:57:24Z</time>
      </trkpt>
      <trkpt lat="45.64343" lon="4.70247">
        <ele>374</ele>
        <time>2017-02-18T08:57:27Z</time>
      </trkpt>
      <trkpt lat="45.64339" lon="4.70243">
        <ele>374</ele>
        <time>2017-02-18T08:57:30Z</time>
      </trkpt>
      <trkpt lat="45.64335" lon="4.70237">
        <ele>374</ele>
        <time>2017-02-18T08:57:33Z</time>
      </trkpt>
      <trkpt lat="45.64332" lon="4.70232">
        <ele>374</ele>
        <time>2017-02-18T08:57:36Z</time>
      </trkpt>
      <trkpt lat="45.64332" lon="4.70234">
        <ele>374</ele>
        <time>2017-02-18T08:57:56Z</time>
      </trkpt>
      <trkpt lat="45.64332" lon="4.70234">
        <ele>375</ele>
        <time>2017-02-18T08:57:59Z</time>
      </trkpt>
      <trkpt lat="45.64329" lon="4.70238">
        <ele>375</ele>
        <time>2017-02-18T08:58:27Z</time>
      </trkpt>
      <trkpt lat="45.64328" lon="4.70239">
        <ele>376</ele>
        <time>2017-02-18T08:58:29Z</time>
      </trkpt>
      <trkpt lat="45.64324" lon="4.70248">
        <ele>375</ele>
        <time>2017-02-18T08:58:31Z</time>
      </trkpt>
      <trkpt lat="45.64321" lon="4.70258">
        <ele>374</ele>
        <time>2017-02-18T08:58:33Z</time>
      </trkpt>
      <trkpt lat="45.6432" lon="4.70265">
        <ele>373</ele>
        <time>2017-02-18T08:58:35Z</time>
      </trkpt>
      <trkpt lat="45.64318" lon="4.70272">
        <ele>373</ele>
        <time>2017-02-18T08:58:37Z</time>
      </trkpt>
      <trkpt lat="45.64317" lon="4.7028">
        <ele>372</ele>
        <time>2017-02-18T08:58:39Z</time>
      </trkpt>
      <trkpt lat="45.64315" lon="4.70286">
        <ele>372</ele>
        <time>2017-02-18T08:58:41Z</time>
      </trkpt>
      <trkpt lat="45.64314" lon="4.70293">
        <ele>372</ele>
        <time>2017-02-18T08:58:43Z</time>
      </trkpt>
      <trkpt lat="45.64313" lon="4.703">
        <ele>372</ele>
        <time>2017-02-18T08:58:45Z</time>
      </trkpt>
      <trkpt lat="45.6431" lon="4.70307">
        <ele>372</ele>
        <time>2017-02-18T08:58:47Z</time>
      </trkpt>
      <trkpt lat="45.64304" lon="4.70324">
        <ele>371</ele>
        <time>2017-02-18T08:58:49Z</time>
      </trkpt>
      <trkpt lat="45.64302" lon="4.70332">
        <ele>371</ele>
        <time>2017-02-18T08:58:50Z</time>
      </trkpt>
      <trkpt lat="45.643" lon="4.70342">
        <ele>371</ele>
        <time>2017-02-18T08:58:51Z</time>
      </trkpt>
      <trkpt lat="45.64298" lon="4.70351">
        <ele>371</ele>
        <time>2017-02-18T08:58:52Z</time>
      </trkpt>
      <trkpt lat="45.64296" lon="4.70362">
        <ele>370</ele>
        <time>2017-02-18T08:58:53Z</time>
      </trkpt>
      <trkpt lat="45.64294" lon="4.70372">
        <ele>370</ele>
        <time>2017-02-18T08:58:54Z</time>
      </trkpt>
      <trkpt lat="45.64293" lon="4.70381">
        <ele>369</ele>
        <time>2017-02-18T08:58:55Z</time>
      </trkpt>
      <trkpt lat="45.64291" lon="4.7039">
        <ele>369</ele>
        <time>2017-02-18T08:58:56Z</time>
      </trkpt>
      <trkpt lat="45.6429" lon="4.70399">
        <ele>369</ele>
        <time>2017-02-18T08:58:57Z</time>
      </trkpt>
      <trkpt lat="45.64289" lon="4.7041">
        <ele>369</ele>
        <time>2017-02-18T08:58:58Z</time>
      </trkpt>
      <trkpt lat="45.64288" lon="4.70421">
        <ele>369</ele>
        <time>2017-02-18T08:58:59Z</time>
      </trkpt>
      <trkpt lat="45.64285" lon="4.70431">
        <ele>370</ele>
        <time>2017-02-18T08:59:00Z</time>
      </trkpt>
      <trkpt lat="45.64284" lon="4.70441">
        <ele>371</ele>
        <time>2017-02-18T08:59:01Z</time>
      </trkpt>
      <trkpt lat="45.64283" lon="4.70451">
        <ele>371</ele>
        <time>2017-02-18T08:59:02Z</time>
      </trkpt>
      <trkpt lat="45.64282" lon="4.7046">
        <ele>371</ele>
        <time>2017-02-18T08:59:03Z</time>
      </trkpt>
      <trkpt lat="45.64279" lon="4.70468">
        <ele>371</ele>
        <time>2017-02-18T08:59:04Z</time>
      </trkpt>
      <trkpt lat="45.64277" lon="4.70477">
        <ele>370</ele>
        <time>2017-02-18T08:59:05Z</time>
      </trkpt>
      <trkpt lat="45.64276" lon="4.70485">
        <ele>369</ele>
        <time>2017-02-18T08:59:06Z</time>
      </trkpt>
      <trkpt lat="45.64274" lon="4.70492">
        <ele>368</ele>
        <time>2017-02-18T08:59:07Z</time>
      </trkpt>
      <trkpt lat="45.64273" lon="4.70499">
        <ele>368</ele>
        <time>2017-02-18T08:59:08Z</time>
      </trkpt>
      <trkpt lat="45.64271" lon="4.70505">
        <ele>367</ele>
        <time>2017-02-18T08:59:09Z</time>
      </trkpt>
      <trkpt lat="45.6427" lon="4.70513">
        <ele>366</ele>
        <time>2017-02-18T08:59:10Z</time>
      </trkpt>
      <trkpt lat="45.64269" lon="4.70519">
        <ele>366</ele>
        <time>2017-02-18T08:59:11Z</time>
      </trkpt>
      <trkpt lat="45.64267" lon="4.70529">
        <ele>365</ele>
        <time>2017-02-18T08:59:12Z</time>
      </trkpt>
      <trkpt lat="45.64266" lon="4.70535">
        <ele>365</ele>
        <time>2017-02-18T08:59:13Z</time>
      </trkpt>
      <trkpt lat="45.64264" lon="4.70543">
        <ele>365</ele>
        <time>2017-02-18T08:59:14Z</time>
      </trkpt>
      <trkpt lat="45.64262" lon="4.70549">
        <ele>365</ele>
        <time>2017-02-18T08:59:15Z</time>
      </trkpt>
      <trkpt lat="45.6426" lon="4.70557">
        <ele>365</ele>
        <time>2017-02-18T08:59:16Z</time>
      </trkpt>
      <trkpt lat="45.64259" lon="4.70564">
        <ele>365</ele>
        <time>2017-02-18T08:59:17Z</time>
      </trkpt>
      <trkpt lat="45.64256" lon="4.70571">
        <ele>366</ele>
        <time>2017-02-18T08:59:18Z</time>
      </trkpt>
      <trkpt lat="45.64255" lon="4.70579">
        <ele>366</ele>
        <time>2017-02-18T08:59:19Z</time>
      </trkpt>
      <trkpt lat="45.64252" lon="4.70586">
        <ele>365</ele>
        <time>2017-02-18T08:59:20Z</time>
      </trkpt>
      <trkpt lat="45.64249" lon="4.70593">
        <ele>365</ele>
        <time>2017-02-18T08:59:21Z</time>
      </trkpt>
      <trkpt lat="45.64247" lon="4.70599">
        <ele>364</ele>
        <time>2017-02-18T08:59:22Z</time>
      </trkpt>
      <trkpt lat="45.64244" lon="4.70606">
        <ele>364</ele>
        <time>2017-02-18T08:59:23Z</time>
      </trkpt>
      <trkpt lat="45.64238" lon="4.70618">
        <ele>363</ele>
        <time>2017-02-18T08:59:25Z</time>
      </trkpt>
      <trkpt lat="45.64234" lon="4.70624">
        <ele>363</ele>
        <time>2017-02-18T08:59:26Z</time>
      </trkpt>
      <trkpt lat="45.64231" lon="4.70631">
        <ele>362</ele>
        <time>2017-02-18T08:59:27Z</time>
      </trkpt>
      <trkpt lat="45.64228" lon="4.70637">
        <ele>360</ele>
        <time>2017-02-18T08:59:28Z</time>
      </trkpt>
      <trkpt lat="45.64224" lon="4.70644">
        <ele>358</ele>
        <time>2017-02-18T08:59:29Z</time>
      </trkpt>
      <trkpt lat="45.64221" lon="4.70649">
        <ele>358</ele>
        <time>2017-02-18T08:59:30Z</time>
      </trkpt>
      <trkpt lat="45.64218" lon="4.70656">
        <ele>358</ele>
        <time>2017-02-18T08:59:31Z</time>
      </trkpt>
      <trkpt lat="45.64214" lon="4.70663">
        <ele>359</ele>
        <time>2017-02-18T08:59:32Z</time>
      </trkpt>
      <trkpt lat="45.64211" lon="4.70669">
        <ele>360</ele>
        <time>2017-02-18T08:59:33Z</time>
      </trkpt>
      <trkpt lat="45.64207" lon="4.70677">
        <ele>362</ele>
        <time>2017-02-18T08:59:34Z</time>
      </trkpt>
      <trkpt lat="45.64204" lon="4.70683">
        <ele>362</ele>
        <time>2017-02-18T08:59:35Z</time>
      </trkpt>
      <trkpt lat="45.642" lon="4.7069">
        <ele>362</ele>
        <time>2017-02-18T08:59:36Z</time>
      </trkpt>
      <trkpt lat="45.64196" lon="4.70696">
        <ele>362</ele>
        <time>2017-02-18T08:59:37Z</time>
      </trkpt>
      <trkpt lat="45.64193" lon="4.70703">
        <ele>362</ele>
        <time>2017-02-18T08:59:38Z</time>
      </trkpt>
      <trkpt lat="45.6419" lon="4.7071">
        <ele>362</ele>
        <time>2017-02-18T08:59:39Z</time>
      </trkpt>
      <trkpt lat="45.64186" lon="4.70716">
        <ele>362</ele>
        <time>2017-02-18T08:59:40Z</time>
      </trkpt>
      <trkpt lat="45.64183" lon="4.70722">
        <ele>361</ele>
        <time>2017-02-18T08:59:41Z</time>
      </trkpt>
      <trkpt lat="45.64179" lon="4.70729">
        <ele>361</ele>
        <time>2017-02-18T08:59:42Z</time>
      </trkpt>
      <trkpt lat="45.64175" lon="4.70735">
        <ele>361</ele>
        <time>2017-02-18T08:59:43Z</time>
      </trkpt>
      <trkpt lat="45.64172" lon="4.70741">
        <ele>361</ele>
        <time>2017-02-18T08:59:44Z</time>
      </trkpt>
      <trkpt lat="45.64167" lon="4.70751">
        <ele>361</ele>
        <time>2017-02-18T08:59:46Z</time>
      </trkpt>
      <trkpt lat="45.64163" lon="4.70757">
        <ele>361</ele>
        <time>2017-02-18T08:59:47Z</time>
      </trkpt>
      <trkpt lat="45.64159" lon="4.70763">
        <ele>360</ele>
        <time>2017-02-18T08:59:48Z</time>
      </trkpt>
      <trkpt lat="45.64155" lon="4.7077">
        <ele>360</ele>
        <time>2017-02-18T08:59:49Z</time>
      </trkpt>
      <trkpt lat="45.64151" lon="4.70777">
        <ele>360</ele>
        <time>2017-02-18T08:59:50Z</time>
      </trkpt>
      <trkpt lat="45.64148" lon="4.70783">
        <ele>360</ele>
        <time>2017-02-18T08:59:51Z</time>
      </trkpt>
      <trkpt lat="45.64144" lon="4.70788">
        <ele>360</ele>
        <time>2017-02-18T08:59:52Z</time>
      </trkpt>
      <trkpt lat="45.64139" lon="4.70795">
        <ele>360</ele>
        <time>2017-02-18T08:59:53Z</time>
      </trkpt>
      <trkpt lat="45.64136" lon="4.70801">
        <ele>360</ele>
        <time>2017-02-18T08:59:54Z</time>
      </trkpt>
      <trkpt lat="45.64132" lon="4.70806">
        <ele>360</ele>
        <time>2017-02-18T08:59:55Z</time>
      </trkpt>
      <trkpt lat="45.64128" lon="4.70811">
        <ele>360</ele>
        <time>2017-02-18T08:59:56Z</time>
      </trkpt>
      <trkpt lat="45.64124" lon="4.70817">
        <ele>360</ele>
        <time>2017-02-18T08:59:57Z</time>
      </trkpt>
      <trkpt lat="45.6412" lon="4.70822">
        <ele>360</ele>
        <time>2017-02-18T08:59:58Z</time>
      </trkpt>
      <trkpt lat="45.64117" lon="4.70828">
        <ele>360</ele>
        <time>2017-02-18T08:59:59Z</time>
      </trkpt>
      <trkpt lat="45.64113" lon="4.70835">
        <ele>359</ele>
        <time>2017-02-18T09:00:00Z</time>
      </trkpt>
      <trkpt lat="45.64109" lon="4.70842">
        <ele>359</ele>
        <time>2017-02-18T09:00:01Z</time>
      </trkpt>
      <trkpt lat="45.64104" lon="4.70849">
        <ele>359</ele>
        <time>2017-02-18T09:00:02Z</time>
      </trkpt>
      <trkpt lat="45.641" lon="4.70855">
        <ele>359</ele>
        <time>2017-02-18T09:00:03Z</time>
      </trkpt>
      <trkpt lat="45.6409" lon="4.70866">
        <ele>358</ele>
        <time>2017-02-18T09:00:05Z</time>
      </trkpt>
      <trkpt lat="45.64084" lon="4.70873">
        <ele>356</ele>
        <time>2017-02-18T09:00:06Z</time>
      </trkpt>
      <trkpt lat="45.64078" lon="4.70879">
        <ele>355</ele>
        <time>2017-02-18T09:00:07Z</time>
      </trkpt>
      <trkpt lat="45.64073" lon="4.7089">
        <ele>353</ele>
        <time>2017-02-18T09:00:08Z</time>
      </trkpt>
      <trkpt lat="45.64066" lon="4.70896">
        <ele>351</ele>
        <time>2017-02-18T09:00:09Z</time>
      </trkpt>
      <trkpt lat="45.64061" lon="4.70903">
        <ele>350</ele>
        <time>2017-02-18T09:00:10Z</time>
      </trkpt>
      <trkpt lat="45.64056" lon="4.7091">
        <ele>350</ele>
        <time>2017-02-18T09:00:11Z</time>
      </trkpt>
      <trkpt lat="45.6405" lon="4.70916">
        <ele>349</ele>
        <time>2017-02-18T09:00:12Z</time>
      </trkpt>
      <trkpt lat="45.64044" lon="4.70924">
        <ele>348</ele>
        <time>2017-02-18T09:00:13Z</time>
      </trkpt>
      <trkpt lat="45.64039" lon="4.70934">
        <ele>348</ele>
        <time>2017-02-18T09:00:14Z</time>
      </trkpt>
      <trkpt lat="45.64034" lon="4.70943">
        <ele>347</ele>
        <time>2017-02-18T09:00:15Z</time>
      </trkpt>
      <trkpt lat="45.64027" lon="4.70951">
        <ele>346</ele>
        <time>2017-02-18T09:00:16Z</time>
      </trkpt>
      <trkpt lat="45.64022" lon="4.70959">
        <ele>345</ele>
        <time>2017-02-18T09:00:17Z</time>
      </trkpt>
      <trkpt lat="45.64016" lon="4.70967">
        <ele>344</ele>
        <time>2017-02-18T09:00:18Z</time>
      </trkpt>
      <trkpt lat="45.6401" lon="4.70975">
        <ele>343</ele>
        <time>2017-02-18T09:00:19Z</time>
      </trkpt>
      <trkpt lat="45.64005" lon="4.70987">
        <ele>343</ele>
        <time>2017-02-18T09:00:20Z</time>
      </trkpt>
      <trkpt lat="45.64" lon="4.70996">
        <ele>343</ele>
        <time>2017-02-18T09:00:21Z</time>
      </trkpt>
      <trkpt lat="45.63994" lon="4.71005">
        <ele>343</ele>
        <time>2017-02-18T09:00:22Z</time>
      </trkpt>
      <trkpt lat="45.63988" lon="4.71015">
        <ele>344</ele>
        <time>2017-02-18T09:00:23Z</time>
      </trkpt>
      <trkpt lat="45.63984" lon="4.71025">
        <ele>344</ele>
        <time>2017-02-18T09:00:24Z</time>
      </trkpt>
      <trkpt lat="45.6398" lon="4.71035">
        <ele>344</ele>
        <time>2017-02-18T09:00:25Z</time>
      </trkpt>
      <trkpt lat="45.63976" lon="4.71044">
        <ele>343</ele>
        <time>2017-02-18T09:00:26Z</time>
      </trkpt>
      <trkpt lat="45.63971" lon="4.71054">
        <ele>343</ele>
        <time>2017-02-18T09:00:27Z</time>
      </trkpt>
      <trkpt lat="45.63966" lon="4.71062">
        <ele>342</ele>
        <time>2017-02-18T09:00:28Z</time>
      </trkpt>
      <trkpt lat="45.63964" lon="4.71068">
        <ele>341</ele>
        <time>2017-02-18T09:00:29Z</time>
      </trkpt>
      <trkpt lat="45.63961" lon="4.71076">
        <ele>341</ele>
        <time>2017-02-18T09:00:30Z</time>
      </trkpt>
      <trkpt lat="45.63956" lon="4.71089">
        <ele>339</ele>
        <time>2017-02-18T09:00:32Z</time>
      </trkpt>
      <trkpt lat="45.63953" lon="4.71095">
        <ele>337</ele>
        <time>2017-02-18T09:00:34Z</time>
      </trkpt>
      <trkpt lat="45.63952" lon="4.71101">
        <ele>336</ele>
        <time>2017-02-18T09:00:36Z</time>
      </trkpt>
      <trkpt lat="45.63949" lon="4.71117">
        <ele>335</ele>
        <time>2017-02-18T09:00:52Z</time>
      </trkpt>
      <trkpt lat="45.63948" lon="4.7113">
        <ele>335</ele>
        <time>2017-02-18T09:00:54Z</time>
      </trkpt>
      <trkpt lat="45.63947" lon="4.71138">
        <ele>335</ele>
        <time>2017-02-18T09:00:55Z</time>
      </trkpt>
      <trkpt lat="45.63947" lon="4.71144">
        <ele>335</ele>
        <time>2017-02-18T09:00:56Z</time>
      </trkpt>
      <trkpt lat="45.63944" lon="4.71156">
        <ele>336</ele>
        <time>2017-02-18T09:00:58Z</time>
      </trkpt>
      <trkpt lat="45.63943" lon="4.71166">
        <ele>339</ele>
        <time>2017-02-18T09:01:00Z</time>
      </trkpt>
      <trkpt lat="45.63943" lon="4.71177">
        <ele>340</ele>
        <time>2017-02-18T09:01:02Z</time>
      </trkpt>
      <trkpt lat="45.6394" lon="4.71184">
        <ele>342</ele>
        <time>2017-02-18T09:01:04Z</time>
      </trkpt>
      <trkpt lat="45.63941" lon="4.71194">
        <ele>344</ele>
        <time>2017-02-18T09:01:06Z</time>
      </trkpt>
      <trkpt lat="45.63941" lon="4.71203">
        <ele>345</ele>
        <time>2017-02-18T09:01:08Z</time>
      </trkpt>
      <trkpt lat="45.6394" lon="4.71216">
        <ele>344</ele>
        <time>2017-02-18T09:01:10Z</time>
      </trkpt>
      <trkpt lat="45.6394" lon="4.71223">
        <ele>344</ele>
        <time>2017-02-18T09:01:11Z</time>
      </trkpt>
      <trkpt lat="45.63942" lon="4.71235">
        <ele>344</ele>
        <time>2017-02-18T09:01:13Z</time>
      </trkpt>
      <trkpt lat="45.63943" lon="4.71247">
        <ele>344</ele>
        <time>2017-02-18T09:01:15Z</time>
      </trkpt>
      <trkpt lat="45.6394" lon="4.71257">
        <ele>344</ele>
        <time>2017-02-18T09:01:17Z</time>
      </trkpt>
      <trkpt lat="45.63932" lon="4.71259">
        <ele>345</ele>
        <time>2017-02-18T09:01:19Z</time>
      </trkpt>
      <trkpt lat="45.63927" lon="4.71254">
        <ele>345</ele>
        <time>2017-02-18T09:01:21Z</time>
      </trkpt>
      <trkpt lat="45.63922" lon="4.71247">
        <ele>343</ele>
        <time>2017-02-18T09:01:23Z</time>
      </trkpt>
      <trkpt lat="45.63917" lon="4.71239">
        <ele>341</ele>
        <time>2017-02-18T09:01:25Z</time>
      </trkpt>
      <trkpt lat="45.63913" lon="4.71231">
        <ele>340</ele>
        <time>2017-02-18T09:01:27Z</time>
      </trkpt>
      <trkpt lat="45.63907" lon="4.71224">
        <ele>338</ele>
        <time>2017-02-18T09:01:29Z</time>
      </trkpt>
      <trkpt lat="45.63901" lon="4.71218">
        <ele>336</ele>
        <time>2017-02-18T09:01:31Z</time>
      </trkpt>
      <trkpt lat="45.63894" lon="4.71213">
        <ele>337</ele>
        <time>2017-02-18T09:01:33Z</time>
      </trkpt>
      <trkpt lat="45.63888" lon="4.71207">
        <ele>338</ele>
        <time>2017-02-18T09:01:35Z</time>
      </trkpt>
      <trkpt lat="45.63881" lon="4.71201">
        <ele>338</ele>
        <time>2017-02-18T09:01:37Z</time>
      </trkpt>
      <trkpt lat="45.63875" lon="4.71194">
        <ele>339</ele>
        <time>2017-02-18T09:01:39Z</time>
      </trkpt>
      <trkpt lat="45.63868" lon="4.71187">
        <ele>339</ele>
        <time>2017-02-18T09:01:41Z</time>
      </trkpt>
      <trkpt lat="45.63862" lon="4.71181">
        <ele>340</ele>
        <time>2017-02-18T09:01:43Z</time>
      </trkpt>
      <trkpt lat="45.63854" lon="4.71174">
        <ele>340</ele>
        <time>2017-02-18T09:01:45Z</time>
      </trkpt>
      <trkpt lat="45.63849" lon="4.71166">
        <ele>340</ele>
        <time>2017-02-18T09:01:47Z</time>
      </trkpt>
      <trkpt lat="45.63844" lon="4.71157">
        <ele>340</ele>
        <time>2017-02-18T09:01:49Z</time>
      </trkpt>
      <trkpt lat="45.63837" lon="4.7115">
        <ele>340</ele>
        <time>2017-02-18T09:01:51Z</time>
      </trkpt>
      <trkpt lat="45.63831" lon="4.71144">
        <ele>339</ele>
        <time>2017-02-18T09:01:53Z</time>
      </trkpt>
      <trkpt lat="45.63825" lon="4.71138">
        <ele>339</ele>
        <time>2017-02-18T09:01:55Z</time>
      </trkpt>
      <trkpt lat="45.63817" lon="4.71132">
        <ele>339</ele>
        <time>2017-02-18T09:01:57Z</time>
      </trkpt>
      <trkpt lat="45.6381" lon="4.71127">
        <ele>338</ele>
        <time>2017-02-18T09:01:59Z</time>
      </trkpt>
      <trkpt lat="45.63802" lon="4.71123">
        <ele>338</ele>
        <time>2017-02-18T09:02:01Z</time>
      </trkpt>
      <trkpt lat="45.63794" lon="4.71119">
        <ele>338</ele>
        <time>2017-02-18T09:02:03Z</time>
      </trkpt>
      <trkpt lat="45.63786" lon="4.71116">
        <ele>338</ele>
        <time>2017-02-18T09:02:05Z</time>
      </trkpt>
      <trkpt lat="45.63778" lon="4.71112">
        <ele>339</ele>
        <time>2017-02-18T09:02:07Z</time>
      </trkpt>
      <trkpt lat="45.63771" lon="4.71109">
        <ele>339</ele>
        <time>2017-02-18T09:02:09Z</time>
      </trkpt>
      <trkpt lat="45.63763" lon="4.71106">
        <ele>339</ele>
        <time>2017-02-18T09:02:11Z</time>
      </trkpt>
      <trkpt lat="45.63755" lon="4.71104">
        <ele>340</ele>
        <time>2017-02-18T09:02:13Z</time>
      </trkpt>
      <trkpt lat="45.63747" lon="4.71101">
        <ele>340</ele>
        <time>2017-02-18T09:02:15Z</time>
      </trkpt>
      <trkpt lat="45.63739" lon="4.71097">
        <ele>340</ele>
        <time>2017-02-18T09:02:17Z</time>
      </trkpt>
      <trkpt lat="45.63733" lon="4.71092">
        <ele>341</ele>
        <time>2017-02-18T09:02:19Z</time>
      </trkpt>
      <trkpt lat="45.63726" lon="4.71087">
        <ele>341</ele>
        <time>2017-02-18T09:02:21Z</time>
      </trkpt>
      <trkpt lat="45.6372" lon="4.71079">
        <ele>341</ele>
        <time>2017-02-18T09:02:23Z</time>
      </trkpt>
      <trkpt lat="45.63715" lon="4.71071">
        <ele>341</ele>
        <time>2017-02-18T09:02:25Z</time>
      </trkpt>
      <trkpt lat="45.6371" lon="4.71063">
        <ele>341</ele>
        <time>2017-02-18T09:02:27Z</time>
      </trkpt>
      <trkpt lat="45.63706" lon="4.71056">
        <ele>341</ele>
        <time>2017-02-18T09:02:29Z</time>
      </trkpt>
      <trkpt lat="45.63701" lon="4.71048">
        <ele>341</ele>
        <time>2017-02-18T09:02:31Z</time>
      </trkpt>
      <trkpt lat="45.63696" lon="4.71039">
        <ele>341</ele>
        <time>2017-02-18T09:02:33Z</time>
      </trkpt>
      <trkpt lat="45.63694" lon="4.7103">
        <ele>341</ele>
        <time>2017-02-18T09:02:35Z</time>
      </trkpt>
      <trkpt lat="45.63693" lon="4.7102">
        <ele>342</ele>
        <time>2017-02-18T09:02:37Z</time>
      </trkpt>
      <trkpt lat="45.63693" lon="4.7101">
        <ele>342</ele>
        <time>2017-02-18T09:02:39Z</time>
      </trkpt>
      <trkpt lat="45.63693" lon="4.70999">
        <ele>342</ele>
        <time>2017-02-18T09:02:41Z</time>
      </trkpt>
      <trkpt lat="45.63692" lon="4.70988">
        <ele>342</ele>
        <time>2017-02-18T09:02:43Z</time>
      </trkpt>
      <trkpt lat="45.63691" lon="4.70977">
        <ele>341</ele>
        <time>2017-02-18T09:02:45Z</time>
      </trkpt>
      <trkpt lat="45.63689" lon="4.70966">
        <ele>341</ele>
        <time>2017-02-18T09:02:47Z</time>
      </trkpt>
      <trkpt lat="45.63687" lon="4.70955">
        <ele>341</ele>
        <time>2017-02-18T09:02:49Z</time>
      </trkpt>
      <trkpt lat="45.63686" lon="4.70943">
        <ele>341</ele>
        <time>2017-02-18T09:02:51Z</time>
      </trkpt>
      <trkpt lat="45.63684" lon="4.70931">
        <ele>341</ele>
        <time>2017-02-18T09:02:53Z</time>
      </trkpt>
      <trkpt lat="45.63683" lon="4.70925">
        <ele>341</ele>
        <time>2017-02-18T09:02:54Z</time>
      </trkpt>
      <trkpt lat="45.6368" lon="4.70913">
        <ele>341</ele>
        <time>2017-02-18T09:02:55Z</time>
      </trkpt>
      <trkpt lat="45.63679" lon="4.70906">
        <ele>341</ele>
        <time>2017-02-18T09:02:56Z</time>
      </trkpt>
      <trkpt lat="45.63678" lon="4.70898">
        <ele>341</ele>
        <time>2017-02-18T09:02:57Z</time>
      </trkpt>
      <trkpt lat="45.63676" lon="4.70891">
        <ele>342</ele>
        <time>2017-02-18T09:02:58Z</time>
      </trkpt>
      <trkpt lat="45.63674" lon="4.70884">
        <ele>342</ele>
        <time>2017-02-18T09:02:59Z</time>
      </trkpt>
      <trkpt lat="45.63673" lon="4.70876">
        <ele>342</ele>
        <time>2017-02-18T09:03:00Z</time>
      </trkpt>
      <trkpt lat="45.63672" lon="4.70869">
        <ele>343</ele>
        <time>2017-02-18T09:03:01Z</time>
      </trkpt>
      <trkpt lat="45.6367" lon="4.70862">
        <ele>343</ele>
        <time>2017-02-18T09:03:02Z</time>
      </trkpt>
      <trkpt lat="45.63669" lon="4.70852">
        <ele>342</ele>
        <time>2017-02-18T09:03:04Z</time>
      </trkpt>
      <trkpt lat="45.63668" lon="4.70846">
        <ele>342</ele>
        <time>2017-02-18T09:03:05Z</time>
      </trkpt>
      <trkpt lat="45.63665" lon="4.70839">
        <ele>342</ele>
        <time>2017-02-18T09:03:06Z</time>
      </trkpt>
      <trkpt lat="45.63664" lon="4.70833">
        <ele>341</ele>
        <time>2017-02-18T09:03:07Z</time>
      </trkpt>
      <trkpt lat="45.63662" lon="4.70827">
        <ele>341</ele>
        <time>2017-02-18T09:03:08Z</time>
      </trkpt>
      <trkpt lat="45.6366" lon="4.7082">
        <ele>341</ele>
        <time>2017-02-18T09:03:09Z</time>
      </trkpt>
      <trkpt lat="45.6366" lon="4.70811">
        <ele>340</ele>
        <time>2017-02-18T09:03:10Z</time>
      </trkpt>
      <trkpt lat="45.63658" lon="4.70797">
        <ele>339</ele>
        <time>2017-02-18T09:03:12Z</time>
      </trkpt>
      <trkpt lat="45.63657" lon="4.70789">
        <ele>338</ele>
        <time>2017-02-18T09:03:13Z</time>
      </trkpt>
      <trkpt lat="45.63656" lon="4.70782">
        <ele>337</ele>
        <time>2017-02-18T09:03:14Z</time>
      </trkpt>
      <trkpt lat="45.63654" lon="4.70775">
        <ele>336</ele>
        <time>2017-02-18T09:03:15Z</time>
      </trkpt>
      <trkpt lat="45.63656" lon="4.70766">
        <ele>336</ele>
        <time>2017-02-18T09:03:16Z</time>
      </trkpt>
      <trkpt lat="45.63655" lon="4.70759">
        <ele>336</ele>
        <time>2017-02-18T09:03:17Z</time>
      </trkpt>
      <trkpt lat="45.6365" lon="4.70749">
        <ele>336</ele>
        <time>2017-02-18T09:03:19Z</time>
      </trkpt>
      <trkpt lat="45.63649" lon="4.70743">
        <ele>337</ele>
        <time>2017-02-18T09:03:20Z</time>
      </trkpt>
      <trkpt lat="45.63648" lon="4.70737">
        <ele>337</ele>
        <time>2017-02-18T09:03:21Z</time>
      </trkpt>
      <trkpt lat="45.63647" lon="4.7073">
        <ele>337</ele>
        <time>2017-02-18T09:03:22Z</time>
      </trkpt>
      <trkpt lat="45.63646" lon="4.70723">
        <ele>336</ele>
        <time>2017-02-18T09:03:23Z</time>
      </trkpt>
      <trkpt lat="45.63644" lon="4.70716">
        <ele>336</ele>
        <time>2017-02-18T09:03:24Z</time>
      </trkpt>
      <trkpt lat="45.63643" lon="4.70707">
        <ele>336</ele>
        <time>2017-02-18T09:03:25Z</time>
      </trkpt>
      <trkpt lat="45.63642" lon="4.70694">
        <ele>336</ele>
        <time>2017-02-18T09:03:27Z</time>
      </trkpt>
      <trkpt lat="45.63641" lon="4.70684">
        <ele>336</ele>
        <time>2017-02-18T09:03:28Z</time>
      </trkpt>
      <trkpt lat="45.63639" lon="4.70676">
        <ele>337</ele>
        <time>2017-02-18T09:03:29Z</time>
      </trkpt>
      <trkpt lat="45.63637" lon="4.70669">
        <ele>337</ele>
        <time>2017-02-18T09:03:30Z</time>
      </trkpt>
      <trkpt lat="45.63635" lon="4.70662">
        <ele>338</ele>
        <time>2017-02-18T09:03:31Z</time>
      </trkpt>
      <trkpt lat="45.63633" lon="4.7065">
        <ele>339</ele>
        <time>2017-02-18T09:03:33Z</time>
      </trkpt>
      <trkpt lat="45.63631" lon="4.70644">
        <ele>339</ele>
        <time>2017-02-18T09:03:34Z</time>
      </trkpt>
      <trkpt lat="45.63627" lon="4.70635">
        <ele>339</ele>
        <time>2017-02-18T09:03:36Z</time>
      </trkpt>
      <trkpt lat="45.63624" lon="4.70628">
        <ele>340</ele>
        <time>2017-02-18T09:03:37Z</time>
      </trkpt>
      <trkpt lat="45.63623" lon="4.70622">
        <ele>340</ele>
        <time>2017-02-18T09:03:38Z</time>
      </trkpt>
      <trkpt lat="45.6362" lon="4.70616">
        <ele>340</ele>
        <time>2017-02-18T09:03:39Z</time>
      </trkpt>
      <trkpt lat="45.63616" lon="4.70604">
        <ele>340</ele>
        <time>2017-02-18T09:03:41Z</time>
      </trkpt>
      <trkpt lat="45.63613" lon="4.70598">
        <ele>340</ele>
        <time>2017-02-18T09:03:42Z</time>
      </trkpt>
      <trkpt lat="45.63608" lon="4.70587">
        <ele>340</ele>
        <time>2017-02-18T09:03:44Z</time>
      </trkpt>
      <trkpt lat="45.63606" lon="4.70581">
        <ele>340</ele>
        <time>2017-02-18T09:03:45Z</time>
      </trkpt>
      <trkpt lat="45.63602" lon="4.7057">
        <ele>339</ele>
        <time>2017-02-18T09:03:47Z</time>
      </trkpt>
      <trkpt lat="45.63598" lon="4.7056">
        <ele>339</ele>
        <time>2017-02-18T09:03:49Z</time>
      </trkpt>
      <trkpt lat="45.63595" lon="4.70549">
        <ele>338</ele>
        <time>2017-02-18T09:03:51Z</time>
      </trkpt>
      <trkpt lat="45.63591" lon="4.70538">
        <ele>338</ele>
        <time>2017-02-18T09:03:53Z</time>
      </trkpt>
      <trkpt lat="45.63588" lon="4.70527">
        <ele>338</ele>
        <time>2017-02-18T09:03:55Z</time>
      </trkpt>
      <trkpt lat="45.63583" lon="4.70516">
        <ele>338</ele>
        <time>2017-02-18T09:03:57Z</time>
      </trkpt>
      <trkpt lat="45.6358" lon="4.70506">
        <ele>339</ele>
        <time>2017-02-18T09:03:59Z</time>
      </trkpt>
      <trkpt lat="45.63576" lon="4.70495">
        <ele>340</ele>
        <time>2017-02-18T09:04:01Z</time>
      </trkpt>
      <trkpt lat="45.63574" lon="4.70483">
        <ele>339</ele>
        <time>2017-02-18T09:04:03Z</time>
      </trkpt>
      <trkpt lat="45.63571" lon="4.70472">
        <ele>339</ele>
        <time>2017-02-18T09:04:05Z</time>
      </trkpt>
      <trkpt lat="45.63568" lon="4.70461">
        <ele>338</ele>
        <time>2017-02-18T09:04:07Z</time>
      </trkpt>
      <trkpt lat="45.63564" lon="4.70449">
        <ele>337</ele>
        <time>2017-02-18T09:04:09Z</time>
      </trkpt>
      <trkpt lat="45.63562" lon="4.70443">
        <ele>336</ele>
        <time>2017-02-18T09:04:10Z</time>
      </trkpt>
      <trkpt lat="45.63561" lon="4.70437">
        <ele>337</ele>
        <time>2017-02-18T09:04:11Z</time>
      </trkpt>
      <trkpt lat="45.63561" lon="4.70429">
        <ele>337</ele>
        <time>2017-02-18T09:04:12Z</time>
      </trkpt>
      <trkpt lat="45.63559" lon="4.70418">
        <ele>338</ele>
        <time>2017-02-18T09:04:14Z</time>
      </trkpt>
      <trkpt lat="45.63556" lon="4.70406">
        <ele>338</ele>
        <time>2017-02-18T09:04:16Z</time>
      </trkpt>
      <trkpt lat="45.63556" lon="4.704">
        <ele>339</ele>
        <time>2017-02-18T09:04:17Z</time>
      </trkpt>
      <trkpt lat="45.63553" lon="4.70388">
        <ele>339</ele>
        <time>2017-02-18T09:04:19Z</time>
      </trkpt>
      <trkpt lat="45.63551" lon="4.70376">
        <ele>340</ele>
        <time>2017-02-18T09:04:21Z</time>
      </trkpt>
      <trkpt lat="45.6355" lon="4.70363">
        <ele>340</ele>
        <time>2017-02-18T09:04:23Z</time>
      </trkpt>
      <trkpt lat="45.63548" lon="4.70352">
        <ele>341</ele>
        <time>2017-02-18T09:04:25Z</time>
      </trkpt>
      <trkpt lat="45.63546" lon="4.70341">
        <ele>342</ele>
        <time>2017-02-18T09:04:27Z</time>
      </trkpt>
      <trkpt lat="45.63545" lon="4.70332">
        <ele>343</ele>
        <time>2017-02-18T09:04:29Z</time>
      </trkpt>
      <trkpt lat="45.63544" lon="4.70322">
        <ele>343</ele>
        <time>2017-02-18T09:04:31Z</time>
      </trkpt>
      <trkpt lat="45.63542" lon="4.70313">
        <ele>344</ele>
        <time>2017-02-18T09:04:33Z</time>
      </trkpt>
      <trkpt lat="45.63541" lon="4.70303">
        <ele>345</ele>
        <time>2017-02-18T09:04:35Z</time>
      </trkpt>
      <trkpt lat="45.63539" lon="4.70291">
        <ele>345</ele>
        <time>2017-02-18T09:04:37Z</time>
      </trkpt>
      <trkpt lat="45.63538" lon="4.70283">
        <ele>345</ele>
        <time>2017-02-18T09:04:39Z</time>
      </trkpt>
      <trkpt lat="45.63537" lon="4.70274">
        <ele>345</ele>
        <time>2017-02-18T09:04:41Z</time>
      </trkpt>
      <trkpt lat="45.63537" lon="4.70265">
        <ele>345</ele>
        <time>2017-02-18T09:04:43Z</time>
      </trkpt>
      <trkpt lat="45.63535" lon="4.70256">
        <ele>345</ele>
        <time>2017-02-18T09:04:45Z</time>
      </trkpt>
      <trkpt lat="45.63535" lon="4.70247">
        <ele>345</ele>
        <time>2017-02-18T09:04:47Z</time>
      </trkpt>
      <trkpt lat="45.63534" lon="4.70238">
        <ele>345</ele>
        <time>2017-02-18T09:04:49Z</time>
      </trkpt>
      <trkpt lat="45.63533" lon="4.70229">
        <ele>345</ele>
        <time>2017-02-18T09:04:51Z</time>
      </trkpt>
      <trkpt lat="45.63532" lon="4.7022">
        <ele>345</ele>
        <time>2017-02-18T09:04:53Z</time>
      </trkpt>
      <trkpt lat="45.63532" lon="4.70212">
        <ele>346</ele>
        <time>2017-02-18T09:04:55Z</time>
      </trkpt>
      <trkpt lat="45.6353" lon="4.70203">
        <ele>346</ele>
        <time>2017-02-18T09:04:57Z</time>
      </trkpt>
      <trkpt lat="45.63529" lon="4.70195">
        <ele>346</ele>
        <time>2017-02-18T09:04:59Z</time>
      </trkpt>
      <trkpt lat="45.63528" lon="4.70186">
        <ele>345</ele>
        <time>2017-02-18T09:05:01Z</time>
      </trkpt>
      <trkpt lat="45.63527" lon="4.70178">
        <ele>345</ele>
        <time>2017-02-18T09:05:03Z</time>
      </trkpt>
      <trkpt lat="45.63526" lon="4.7017">
        <ele>345</ele>
        <time>2017-02-18T09:05:05Z</time>
      </trkpt>
      <trkpt lat="45.63524" lon="4.70162">
        <ele>345</ele>
        <time>2017-02-18T09:05:07Z</time>
      </trkpt>
      <trkpt lat="45.63523" lon="4.70153">
        <ele>345</ele>
        <time>2017-02-18T09:05:09Z</time>
      </trkpt>
      <trkpt lat="45.63522" lon="4.70145">
        <ele>345</ele>
        <time>2017-02-18T09:05:11Z</time>
      </trkpt>
      <trkpt lat="45.6352" lon="4.70136">
        <ele>346</ele>
        <time>2017-02-18T09:05:13Z</time>
      </trkpt>
      <trkpt lat="45.63519" lon="4.70128">
        <ele>346</ele>
        <time>2017-02-18T09:05:15Z</time>
      </trkpt>
      <trkpt lat="45.63517" lon="4.70119">
        <ele>347</ele>
        <time>2017-02-18T09:05:17Z</time>
      </trkpt>
      <trkpt lat="45.63516" lon="4.7011">
        <ele>347</ele>
        <time>2017-02-18T09:05:19Z</time>
      </trkpt>
      <trkpt lat="45.63512" lon="4.70101">
        <ele>346</ele>
        <time>2017-02-18T09:05:21Z</time>
      </trkpt>
      <trkpt lat="45.6351" lon="4.70092">
        <ele>346</ele>
        <time>2017-02-18T09:05:23Z</time>
      </trkpt>
      <trkpt lat="45.63507" lon="4.70084">
        <ele>346</ele>
        <time>2017-02-18T09:05:25Z</time>
      </trkpt>
      <trkpt lat="45.63504" lon="4.70075">
        <ele>346</ele>
        <time>2017-02-18T09:05:27Z</time>
      </trkpt>
      <trkpt lat="45.63501" lon="4.70066">
        <ele>346</ele>
        <time>2017-02-18T09:05:29Z</time>
      </trkpt>
      <trkpt lat="45.63498" lon="4.70056">
        <ele>346</ele>
        <time>2017-02-18T09:05:31Z</time>
      </trkpt>
      <trkpt lat="45.63495" lon="4.70047">
        <ele>345</ele>
        <time>2017-02-18T09:05:33Z</time>
      </trkpt>
      <trkpt lat="45.63491" lon="4.70037">
        <ele>345</ele>
        <time>2017-02-18T09:05:35Z</time>
      </trkpt>
      <trkpt lat="45.63489" lon="4.70026">
        <ele>345</ele>
        <time>2017-02-18T09:05:37Z</time>
      </trkpt>
      <trkpt lat="45.63486" lon="4.70016">
        <ele>345</ele>
        <time>2017-02-18T09:05:39Z</time>
      </trkpt>
      <trkpt lat="45.63483" lon="4.70007">
        <ele>346</ele>
        <time>2017-02-18T09:05:41Z</time>
      </trkpt>
      <trkpt lat="45.6348" lon="4.69998">
        <ele>346</ele>
        <time>2017-02-18T09:05:43Z</time>
      </trkpt>
      <trkpt lat="45.63477" lon="4.69989">
        <ele>347</ele>
        <time>2017-02-18T09:05:45Z</time>
      </trkpt>
      <trkpt lat="45.63474" lon="4.69981">
        <ele>348</ele>
        <time>2017-02-18T09:05:47Z</time>
      </trkpt>
      <trkpt lat="45.63471" lon="4.69972">
        <ele>348</ele>
        <time>2017-02-18T09:05:49Z</time>
      </trkpt>
      <trkpt lat="45.63468" lon="4.69964">
        <ele>348</ele>
        <time>2017-02-18T09:05:51Z</time>
      </trkpt>
      <trkpt lat="45.63468" lon="4.69954">
        <ele>349</ele>
        <time>2017-02-18T09:05:53Z</time>
      </trkpt>
      <trkpt lat="45.63467" lon="4.69944">
        <ele>349</ele>
        <time>2017-02-18T09:05:55Z</time>
      </trkpt>
      <trkpt lat="45.63467" lon="4.69935">
        <ele>349</ele>
        <time>2017-02-18T09:05:57Z</time>
      </trkpt>
      <trkpt lat="45.63467" lon="4.69925">
        <ele>348</ele>
        <time>2017-02-18T09:05:59Z</time>
      </trkpt>
      <trkpt lat="45.63466" lon="4.69915">
        <ele>348</ele>
        <time>2017-02-18T09:06:01Z</time>
      </trkpt>
      <trkpt lat="45.63466" lon="4.69906">
        <ele>347</ele>
        <time>2017-02-18T09:06:03Z</time>
      </trkpt>
      <trkpt lat="45.63465" lon="4.69897">
        <ele>347</ele>
        <time>2017-02-18T09:06:05Z</time>
      </trkpt>
      <trkpt lat="45.63464" lon="4.69888">
        <ele>347</ele>
        <time>2017-02-18T09:06:07Z</time>
      </trkpt>
      <trkpt lat="45.63463" lon="4.69879">
        <ele>347</ele>
        <time>2017-02-18T09:06:09Z</time>
      </trkpt>
      <trkpt lat="45.63462" lon="4.69869">
        <ele>347</ele>
        <time>2017-02-18T09:06:11Z</time>
      </trkpt>
      <trkpt lat="45.63462" lon="4.69859">
        <ele>348</ele>
        <time>2017-02-18T09:06:13Z</time>
      </trkpt>
      <trkpt lat="45.6346" lon="4.6985">
        <ele>348</ele>
        <time>2017-02-18T09:06:15Z</time>
      </trkpt>
      <trkpt lat="45.63459" lon="4.69839">
        <ele>349</ele>
        <time>2017-02-18T09:06:17Z</time>
      </trkpt>
      <trkpt lat="45.63458" lon="4.6983">
        <ele>350</ele>
        <time>2017-02-18T09:06:19Z</time>
      </trkpt>
      <trkpt lat="45.63458" lon="4.69821">
        <ele>350</ele>
        <time>2017-02-18T09:06:21Z</time>
      </trkpt>
      <trkpt lat="45.63458" lon="4.69812">
        <ele>351</ele>
        <time>2017-02-18T09:06:23Z</time>
      </trkpt>
      <trkpt lat="45.63458" lon="4.69803">
        <ele>351</ele>
        <time>2017-02-18T09:06:25Z</time>
      </trkpt>
      <trkpt lat="45.63458" lon="4.69794">
        <ele>351</ele>
        <time>2017-02-18T09:06:27Z</time>
      </trkpt>
      <trkpt lat="45.63458" lon="4.69785">
        <ele>352</ele>
        <time>2017-02-18T09:06:29Z</time>
      </trkpt>
      <trkpt lat="45.63458" lon="4.69776">
        <ele>352</ele>
        <time>2017-02-18T09:06:31Z</time>
      </trkpt>
      <trkpt lat="45.63458" lon="4.69768">
        <ele>352</ele>
        <time>2017-02-18T09:06:33Z</time>
      </trkpt>
      <trkpt lat="45.63456" lon="4.69759">
        <ele>352</ele>
        <time>2017-02-18T09:06:35Z</time>
      </trkpt>
      <trkpt lat="45.63455" lon="4.69751">
        <ele>352</ele>
        <time>2017-02-18T09:06:37Z</time>
      </trkpt>
      <trkpt lat="45.63454" lon="4.69742">
        <ele>351</ele>
        <time>2017-02-18T09:06:39Z</time>
      </trkpt>
      <trkpt lat="45.63453" lon="4.69734">
        <ele>351</ele>
        <time>2017-02-18T09:06:41Z</time>
      </trkpt>
      <trkpt lat="45.63452" lon="4.69725">
        <ele>351</ele>
        <time>2017-02-18T09:06:43Z</time>
      </trkpt>
      <trkpt lat="45.63451" lon="4.69716">
        <ele>351</ele>
        <time>2017-02-18T09:06:45Z</time>
      </trkpt>
      <trkpt lat="45.6345" lon="4.69706">
        <ele>351</ele>
        <time>2017-02-18T09:06:47Z</time>
      </trkpt>
      <trkpt lat="45.63449" lon="4.69696">
        <ele>351</ele>
        <time>2017-02-18T09:06:49Z</time>
      </trkpt>
      <trkpt lat="45.63448" lon="4.69688">
        <ele>352</ele>
        <time>2017-02-18T09:06:51Z</time>
      </trkpt>
      <trkpt lat="45.63447" lon="4.69679">
        <ele>352</ele>
        <time>2017-02-18T09:06:53Z</time>
      </trkpt>
      <trkpt lat="45.63445" lon="4.69671">
        <ele>352</ele>
        <time>2017-02-18T09:06:55Z</time>
      </trkpt>
      <trkpt lat="45.63442" lon="4.69662">
        <ele>352</ele>
        <time>2017-02-18T09:06:57Z</time>
      </trkpt>
      <trkpt lat="45.6344" lon="4.69653">
        <ele>352</ele>
        <time>2017-02-18T09:06:59Z</time>
      </trkpt>
      <trkpt lat="45.63438" lon="4.69645">
        <ele>352</ele>
        <time>2017-02-18T09:07:01Z</time>
      </trkpt>
      <trkpt lat="45.63435" lon="4.69637">
        <ele>353</ele>
        <time>2017-02-18T09:07:03Z</time>
      </trkpt>
      <trkpt lat="45.63432" lon="4.69629">
        <ele>353</ele>
        <time>2017-02-18T09:07:05Z</time>
      </trkpt>
      <trkpt lat="45.63429" lon="4.6962">
        <ele>353</ele>
        <time>2017-02-18T09:07:07Z</time>
      </trkpt>
      <trkpt lat="45.63426" lon="4.69613">
        <ele>353</ele>
        <time>2017-02-18T09:07:09Z</time>
      </trkpt>
      <trkpt lat="45.63424" lon="4.69604">
        <ele>353</ele>
        <time>2017-02-18T09:07:11Z</time>
      </trkpt>
      <trkpt lat="45.63422" lon="4.69595">
        <ele>353</ele>
        <time>2017-02-18T09:07:13Z</time>
      </trkpt>
      <trkpt lat="45.63422" lon="4.69586">
        <ele>353</ele>
        <time>2017-02-18T09:07:15Z</time>
      </trkpt>
      <trkpt lat="45.63422" lon="4.69577">
        <ele>354</ele>
        <time>2017-02-18T09:07:17Z</time>
      </trkpt>
      <trkpt lat="45.63422" lon="4.69568">
        <ele>354</ele>
        <time>2017-02-18T09:07:19Z</time>
      </trkpt>
      <trkpt lat="45.63422" lon="4.69559">
        <ele>354</ele>
        <time>2017-02-18T09:07:21Z</time>
      </trkpt>
      <trkpt lat="45.63423" lon="4.6955">
        <ele>354</ele>
        <time>2017-02-18T09:07:23Z</time>
      </trkpt>
      <trkpt lat="45.63425" lon="4.69542">
        <ele>354</ele>
        <time>2017-02-18T09:07:25Z</time>
      </trkpt>
      <trkpt lat="45.63426" lon="4.69533">
        <ele>354</ele>
        <time>2017-02-18T09:07:27Z</time>
      </trkpt>
      <trkpt lat="45.63426" lon="4.69526">
        <ele>353</ele>
        <time>2017-02-18T09:07:29Z</time>
      </trkpt>
      <trkpt lat="45.63426" lon="4.69518">
        <ele>353</ele>
        <time>2017-02-18T09:07:31Z</time>
      </trkpt>
      <trkpt lat="45.63427" lon="4.6951">
        <ele>353</ele>
        <time>2017-02-18T09:07:33Z</time>
      </trkpt>
      <trkpt lat="45.63426" lon="4.69502">
        <ele>353</ele>
        <time>2017-02-18T09:07:35Z</time>
      </trkpt>
      <trkpt lat="45.63425" lon="4.69494">
        <ele>353</ele>
        <time>2017-02-18T09:07:37Z</time>
      </trkpt>
      <trkpt lat="45.63425" lon="4.69486">
        <ele>353</ele>
        <time>2017-02-18T09:07:39Z</time>
      </trkpt>
      <trkpt lat="45.63424" lon="4.69478">
        <ele>353</ele>
        <time>2017-02-18T09:07:41Z</time>
      </trkpt>
      <trkpt lat="45.63423" lon="4.69469">
        <ele>354</ele>
        <time>2017-02-18T09:07:43Z</time>
      </trkpt>
      <trkpt lat="45.63423" lon="4.69461">
        <ele>354</ele>
        <time>2017-02-18T09:07:45Z</time>
      </trkpt>
      <trkpt lat="45.63422" lon="4.69453">
        <ele>354</ele>
        <time>2017-02-18T09:07:47Z</time>
      </trkpt>
      <trkpt lat="45.63421" lon="4.69445">
        <ele>354</ele>
        <time>2017-02-18T09:07:49Z</time>
      </trkpt>
      <trkpt lat="45.6342" lon="4.69437">
        <ele>355</ele>
        <time>2017-02-18T09:07:51Z</time>
      </trkpt>
      <trkpt lat="45.63419" lon="4.69428">
        <ele>355</ele>
        <time>2017-02-18T09:07:53Z</time>
      </trkpt>
      <trkpt lat="45.63418" lon="4.6942">
        <ele>355</ele>
        <time>2017-02-18T09:07:55Z</time>
      </trkpt>
      <trkpt lat="45.63417" lon="4.69412">
        <ele>355</ele>
        <time>2017-02-18T09:07:57Z</time>
      </trkpt>
      <trkpt lat="45.63416" lon="4.69404">
        <ele>356</ele>
        <time>2017-02-18T09:07:59Z</time>
      </trkpt>
      <trkpt lat="45.63416" lon="4.69395">
        <ele>356</ele>
        <time>2017-02-18T09:08:01Z</time>
      </trkpt>
      <trkpt lat="45.63414" lon="4.69387">
        <ele>356</ele>
        <time>2017-02-18T09:08:03Z</time>
      </trkpt>
      <trkpt lat="45.63413" lon="4.69379">
        <ele>356</ele>
        <time>2017-02-18T09:08:05Z</time>
      </trkpt>
      <trkpt lat="45.63413" lon="4.69371">
        <ele>357</ele>
        <time>2017-02-18T09:08:07Z</time>
      </trkpt>
      <trkpt lat="45.63412" lon="4.69362">
        <ele>357</ele>
        <time>2017-02-18T09:08:09Z</time>
      </trkpt>
      <trkpt lat="45.63411" lon="4.69355">
        <ele>356</ele>
        <time>2017-02-18T09:08:11Z</time>
      </trkpt>
      <trkpt lat="45.6341" lon="4.69347">
        <ele>356</ele>
        <time>2017-02-18T09:08:13Z</time>
      </trkpt>
      <trkpt lat="45.63409" lon="4.6934">
        <ele>356</ele>
        <time>2017-02-18T09:08:15Z</time>
      </trkpt>
      <trkpt lat="45.63408" lon="4.69332">
        <ele>356</ele>
        <time>2017-02-18T09:08:17Z</time>
      </trkpt>
      <trkpt lat="45.63407" lon="4.69324">
        <ele>356</ele>
        <time>2017-02-18T09:08:19Z</time>
      </trkpt>
      <trkpt lat="45.63406" lon="4.69316">
        <ele>356</ele>
        <time>2017-02-18T09:08:21Z</time>
      </trkpt>
      <trkpt lat="45.63405" lon="4.69308">
        <ele>357</ele>
        <time>2017-02-18T09:08:23Z</time>
      </trkpt>
      <trkpt lat="45.63405" lon="4.693">
        <ele>357</ele>
        <time>2017-02-18T09:08:25Z</time>
      </trkpt>
      <trkpt lat="45.63404" lon="4.69294">
        <ele>358</ele>
        <time>2017-02-18T09:08:27Z</time>
      </trkpt>
      <trkpt lat="45.63403" lon="4.69286">
        <ele>358</ele>
        <time>2017-02-18T09:08:30Z</time>
      </trkpt>
      <trkpt lat="45.63397" lon="4.69282">
        <ele>358</ele>
        <time>2017-02-18T09:08:34Z</time>
      </trkpt>
      <trkpt lat="45.63393" lon="4.69289">
        <ele>359</ele>
        <time>2017-02-18T09:08:37Z</time>
      </trkpt>
      <trkpt lat="45.63388" lon="4.69295">
        <ele>359</ele>
        <time>2017-02-18T09:08:40Z</time>
      </trkpt>
      <trkpt lat="45.63382" lon="4.69298">
        <ele>359</ele>
        <time>2017-02-18T09:08:43Z</time>
      </trkpt>
      <trkpt lat="45.63377" lon="4.69301">
        <ele>358</ele>
        <time>2017-02-18T09:08:45Z</time>
      </trkpt>
      <trkpt lat="45.63372" lon="4.69303">
        <ele>358</ele>
        <time>2017-02-18T09:08:47Z</time>
      </trkpt>
      <trkpt lat="45.63367" lon="4.69306">
        <ele>358</ele>
        <time>2017-02-18T09:08:49Z</time>
      </trkpt>
      <trkpt lat="45.63362" lon="4.69308">
        <ele>357</ele>
        <time>2017-02-18T09:08:51Z</time>
      </trkpt>
      <trkpt lat="45.63355" lon="4.6931">
        <ele>358</ele>
        <time>2017-02-18T09:08:53Z</time>
      </trkpt>
      <trkpt lat="45.63348" lon="4.69312">
        <ele>358</ele>
        <time>2017-02-18T09:08:55Z</time>
      </trkpt>
      <trkpt lat="45.63342" lon="4.69314">
        <ele>358</ele>
        <time>2017-02-18T09:08:57Z</time>
      </trkpt>
      <trkpt lat="45.63334" lon="4.69316">
        <ele>359</ele>
        <time>2017-02-18T09:08:59Z</time>
      </trkpt>
      <trkpt lat="45.63327" lon="4.69319">
        <ele>359</ele>
        <time>2017-02-18T09:09:01Z</time>
      </trkpt>
      <trkpt lat="45.6332" lon="4.69321">
        <ele>360</ele>
        <time>2017-02-18T09:09:03Z</time>
      </trkpt>
      <trkpt lat="45.63315" lon="4.69323">
        <ele>360</ele>
        <time>2017-02-18T09:09:05Z</time>
      </trkpt>
      <trkpt lat="45.63308" lon="4.69325">
        <ele>360</ele>
        <time>2017-02-18T09:09:07Z</time>
      </trkpt>
      <trkpt lat="45.63302" lon="4.69328">
        <ele>360</ele>
        <time>2017-02-18T09:09:09Z</time>
      </trkpt>
      <trkpt lat="45.63297" lon="4.6933">
        <ele>360</ele>
        <time>2017-02-18T09:09:11Z</time>
      </trkpt>
      <trkpt lat="45.63292" lon="4.69333">
        <ele>360</ele>
        <time>2017-02-18T09:09:13Z</time>
      </trkpt>
      <trkpt lat="45.63287" lon="4.69336">
        <ele>358</ele>
        <time>2017-02-18T09:09:15Z</time>
      </trkpt>
      <trkpt lat="45.63281" lon="4.69339">
        <ele>358</ele>
        <time>2017-02-18T09:09:17Z</time>
      </trkpt>
      <trkpt lat="45.63276" lon="4.69341">
        <ele>357</ele>
        <time>2017-02-18T09:09:19Z</time>
      </trkpt>
      <trkpt lat="45.63271" lon="4.69343">
        <ele>356</ele>
        <time>2017-02-18T09:09:21Z</time>
      </trkpt>
      <trkpt lat="45.63263" lon="4.69346">
        <ele>355</ele>
        <time>2017-02-18T09:09:23Z</time>
      </trkpt>
      <trkpt lat="45.63257" lon="4.69348">
        <ele>354</ele>
        <time>2017-02-18T09:09:25Z</time>
      </trkpt>
      <trkpt lat="45.63251" lon="4.6935">
        <ele>354</ele>
        <time>2017-02-18T09:09:27Z</time>
      </trkpt>
      <trkpt lat="45.63245" lon="4.69353">
        <ele>353</ele>
        <time>2017-02-18T09:09:29Z</time>
      </trkpt>
      <trkpt lat="45.63239" lon="4.69355">
        <ele>353</ele>
        <time>2017-02-18T09:09:31Z</time>
      </trkpt>
      <trkpt lat="45.63234" lon="4.69356">
        <ele>352</ele>
        <time>2017-02-18T09:09:33Z</time>
      </trkpt>
      <trkpt lat="45.63228" lon="4.69358">
        <ele>352</ele>
        <time>2017-02-18T09:09:35Z</time>
      </trkpt>
      <trkpt lat="45.63223" lon="4.69359">
        <ele>352</ele>
        <time>2017-02-18T09:09:37Z</time>
      </trkpt>
      <trkpt lat="45.63218" lon="4.69361">
        <ele>351</ele>
        <time>2017-02-18T09:09:39Z</time>
      </trkpt>
      <trkpt lat="45.63213" lon="4.69362">
        <ele>351</ele>
        <time>2017-02-18T09:09:41Z</time>
      </trkpt>
      <trkpt lat="45.63208" lon="4.69363">
        <ele>351</ele>
        <time>2017-02-18T09:09:43Z</time>
      </trkpt>
      <trkpt lat="45.63203" lon="4.69363">
        <ele>351</ele>
        <time>2017-02-18T09:09:45Z</time>
      </trkpt>
      <trkpt lat="45.63199" lon="4.6936">
        <ele>351</ele>
        <time>2017-02-18T09:09:47Z</time>
      </trkpt>
      <trkpt lat="45.63197" lon="4.69354">
        <ele>351</ele>
        <time>2017-02-18T09:09:49Z</time>
      </trkpt>
      <trkpt lat="45.63196" lon="4.69346">
        <ele>351</ele>
        <time>2017-02-18T09:09:51Z</time>
      </trkpt>
      <trkpt lat="45.63194" lon="4.6934">
        <ele>351</ele>
        <time>2017-02-18T09:09:53Z</time>
      </trkpt>
      <trkpt lat="45.63191" lon="4.69334">
        <ele>351</ele>
        <time>2017-02-18T09:09:55Z</time>
      </trkpt>
      <trkpt lat="45.63189" lon="4.69328">
        <ele>351</ele>
        <time>2017-02-18T09:09:57Z</time>
      </trkpt>
      <trkpt lat="45.63186" lon="4.69321">
        <ele>351</ele>
        <time>2017-02-18T09:09:59Z</time>
      </trkpt>
      <trkpt lat="45.63183" lon="4.69315">
        <ele>352</ele>
        <time>2017-02-18T09:10:01Z</time>
      </trkpt>
      <trkpt lat="45.63181" lon="4.69308">
        <ele>352</ele>
        <time>2017-02-18T09:10:03Z</time>
      </trkpt>
      <trkpt lat="45.63178" lon="4.69301">
        <ele>353</ele>
        <time>2017-02-18T09:10:05Z</time>
      </trkpt>
      <trkpt lat="45.63175" lon="4.69295">
        <ele>353</ele>
        <time>2017-02-18T09:10:07Z</time>
      </trkpt>
      <trkpt lat="45.63172" lon="4.69288">
        <ele>354</ele>
        <time>2017-02-18T09:10:09Z</time>
      </trkpt>
      <trkpt lat="45.6317" lon="4.69282">
        <ele>354</ele>
        <time>2017-02-18T09:10:11Z</time>
      </trkpt>
      <trkpt lat="45.63168" lon="4.69274">
        <ele>354</ele>
        <time>2017-02-18T09:10:13Z</time>
      </trkpt>
      <trkpt lat="45.63166" lon="4.69267">
        <ele>354</ele>
        <time>2017-02-18T09:10:15Z</time>
      </trkpt>
      <trkpt lat="45.63163" lon="4.6926">
        <ele>354</ele>
        <time>2017-02-18T09:10:17Z</time>
      </trkpt>
      <trkpt lat="45.63162" lon="4.69253">
        <ele>354</ele>
        <time>2017-02-18T09:10:19Z</time>
      </trkpt>
      <trkpt lat="45.63159" lon="4.69246">
        <ele>354</ele>
        <time>2017-02-18T09:10:21Z</time>
      </trkpt>
      <trkpt lat="45.63155" lon="4.69239">
        <ele>354</ele>
        <time>2017-02-18T09:10:23Z</time>
      </trkpt>
      <trkpt lat="45.63153" lon="4.69232">
        <ele>354</ele>
        <time>2017-02-18T09:10:25Z</time>
      </trkpt>
      <trkpt lat="45.6315" lon="4.69225">
        <ele>353</ele>
        <time>2017-02-18T09:10:27Z</time>
      </trkpt>
      <trkpt lat="45.63148" lon="4.69219">
        <ele>353</ele>
        <time>2017-02-18T09:10:29Z</time>
      </trkpt>
      <trkpt lat="45.63145" lon="4.69212">
        <ele>353</ele>
        <time>2017-02-18T09:10:31Z</time>
      </trkpt>
      <trkpt lat="45.63143" lon="4.69205">
        <ele>352</ele>
        <time>2017-02-18T09:10:33Z</time>
      </trkpt>
      <trkpt lat="45.63141" lon="4.69199">
        <ele>352</ele>
        <time>2017-02-18T09:10:35Z</time>
      </trkpt>
      <trkpt lat="45.63139" lon="4.69192">
        <ele>352</ele>
        <time>2017-02-18T09:10:37Z</time>
      </trkpt>
      <trkpt lat="45.63136" lon="4.69186">
        <ele>352</ele>
        <time>2017-02-18T09:10:39Z</time>
      </trkpt>
      <trkpt lat="45.63133" lon="4.69179">
        <ele>352</ele>
        <time>2017-02-18T09:10:41Z</time>
      </trkpt>
      <trkpt lat="45.63128" lon="4.69177">
        <ele>353</ele>
        <time>2017-02-18T09:10:43Z</time>
      </trkpt>
      <trkpt lat="45.63122" lon="4.69179">
        <ele>353</ele>
        <time>2017-02-18T09:10:45Z</time>
      </trkpt>
      <trkpt lat="45.63117" lon="4.69182">
        <ele>354</ele>
        <time>2017-02-18T09:10:47Z</time>
      </trkpt>
      <trkpt lat="45.63111" lon="4.69188">
        <ele>354</ele>
        <time>2017-02-18T09:10:49Z</time>
      </trkpt>
      <trkpt lat="45.63106" lon="4.69194">
        <ele>354</ele>
        <time>2017-02-18T09:10:51Z</time>
      </trkpt>
      <trkpt lat="45.631" lon="4.692">
        <ele>354</ele>
        <time>2017-02-18T09:10:53Z</time>
      </trkpt>
      <trkpt lat="45.63096" lon="4.69205">
        <ele>353</ele>
        <time>2017-02-18T09:10:55Z</time>
      </trkpt>
      <trkpt lat="45.6309" lon="4.69211">
        <ele>353</ele>
        <time>2017-02-18T09:10:57Z</time>
      </trkpt>
      <trkpt lat="45.63084" lon="4.69218">
        <ele>353</ele>
        <time>2017-02-18T09:10:59Z</time>
      </trkpt>
      <trkpt lat="45.63078" lon="4.69223">
        <ele>354</ele>
        <time>2017-02-18T09:11:01Z</time>
      </trkpt>
      <trkpt lat="45.63072" lon="4.69224">
        <ele>354</ele>
        <time>2017-02-18T09:11:03Z</time>
      </trkpt>
      <trkpt lat="45.63068" lon="4.69215">
        <ele>355</ele>
        <time>2017-02-18T09:11:05Z</time>
      </trkpt>
      <trkpt lat="45.63067" lon="4.69205">
        <ele>355</ele>
        <time>2017-02-18T09:11:07Z</time>
      </trkpt>
      <trkpt lat="45.63064" lon="4.69195">
        <ele>356</ele>
        <time>2017-02-18T09:11:09Z</time>
      </trkpt>
      <trkpt lat="45.63061" lon="4.69186">
        <ele>357</ele>
        <time>2017-02-18T09:11:11Z</time>
      </trkpt>
      <trkpt lat="45.63058" lon="4.69177">
        <ele>357</ele>
        <time>2017-02-18T09:11:13Z</time>
      </trkpt>
      <trkpt lat="45.63055" lon="4.69169">
        <ele>357</ele>
        <time>2017-02-18T09:11:15Z</time>
      </trkpt>
      <trkpt lat="45.63051" lon="4.69162">
        <ele>358</ele>
        <time>2017-02-18T09:11:17Z</time>
      </trkpt>
      <trkpt lat="45.63046" lon="4.69157">
        <ele>358</ele>
        <time>2017-02-18T09:11:19Z</time>
      </trkpt>
      <trkpt lat="45.6304" lon="4.69157">
        <ele>358</ele>
        <time>2017-02-18T09:11:21Z</time>
      </trkpt>
      <trkpt lat="45.63033" lon="4.69159">
        <ele>358</ele>
        <time>2017-02-18T09:11:23Z</time>
      </trkpt>
      <trkpt lat="45.63027" lon="4.69161">
        <ele>357</ele>
        <time>2017-02-18T09:11:25Z</time>
      </trkpt>
      <trkpt lat="45.63022" lon="4.69163">
        <ele>357</ele>
        <time>2017-02-18T09:11:27Z</time>
      </trkpt>
      <trkpt lat="45.63015" lon="4.69167">
        <ele>357</ele>
        <time>2017-02-18T09:11:29Z</time>
      </trkpt>
      <trkpt lat="45.63009" lon="4.69169">
        <ele>357</ele>
        <time>2017-02-18T09:11:31Z</time>
      </trkpt>
      <trkpt lat="45.63002" lon="4.69172">
        <ele>356</ele>
        <time>2017-02-18T09:11:33Z</time>
      </trkpt>
      <trkpt lat="45.62995" lon="4.69174">
        <ele>356</ele>
        <time>2017-02-18T09:11:35Z</time>
      </trkpt>
      <trkpt lat="45.62988" lon="4.69176">
        <ele>356</ele>
        <time>2017-02-18T09:11:37Z</time>
      </trkpt>
      <trkpt lat="45.62981" lon="4.69179">
        <ele>355</ele>
        <time>2017-02-18T09:11:39Z</time>
      </trkpt>
      <trkpt lat="45.62975" lon="4.69182">
        <ele>355</ele>
        <time>2017-02-18T09:11:41Z</time>
      </trkpt>
      <trkpt lat="45.62969" lon="4.69184">
        <ele>355</ele>
        <time>2017-02-18T09:11:43Z</time>
      </trkpt>
      <trkpt lat="45.62962" lon="4.69185">
        <ele>355</ele>
        <time>2017-02-18T09:11:45Z</time>
      </trkpt>
      <trkpt lat="45.62954" lon="4.69186">
        <ele>355</ele>
        <time>2017-02-18T09:11:47Z</time>
      </trkpt>
      <trkpt lat="45.62948" lon="4.69188">
        <ele>355</ele>
        <time>2017-02-18T09:11:49Z</time>
      </trkpt>
      <trkpt lat="45.62941" lon="4.69189">
        <ele>355</ele>
        <time>2017-02-18T09:11:51Z</time>
      </trkpt>
      <trkpt lat="45.62934" lon="4.69192">
        <ele>355</ele>
        <time>2017-02-18T09:11:53Z</time>
      </trkpt>
      <trkpt lat="45.62926" lon="4.69195">
        <ele>355</ele>
        <time>2017-02-18T09:11:55Z</time>
      </trkpt>
      <trkpt lat="45.62919" lon="4.69198">
        <ele>355</ele>
        <time>2017-02-18T09:11:57Z</time>
      </trkpt>
      <trkpt lat="45.62911" lon="4.69202">
        <ele>354</ele>
        <time>2017-02-18T09:11:59Z</time>
      </trkpt>
      <trkpt lat="45.62904" lon="4.69207">
        <ele>354</ele>
        <time>2017-02-18T09:12:01Z</time>
      </trkpt>
      <trkpt lat="45.62896" lon="4.69211">
        <ele>354</ele>
        <time>2017-02-18T09:12:03Z</time>
      </trkpt>
      <trkpt lat="45.6289" lon="4.69216">
        <ele>354</ele>
        <time>2017-02-18T09:12:05Z</time>
      </trkpt>
      <trkpt lat="45.62882" lon="4.6922">
        <ele>354</ele>
        <time>2017-02-18T09:12:07Z</time>
      </trkpt>
      <trkpt lat="45.62877" lon="4.69223">
        <ele>354</ele>
        <time>2017-02-18T09:12:08Z</time>
      </trkpt>
      <trkpt lat="45.62869" lon="4.69228">
        <ele>354</ele>
        <time>2017-02-18T09:12:10Z</time>
      </trkpt>
      <trkpt lat="45.62862" lon="4.69234">
        <ele>354</ele>
        <time>2017-02-18T09:12:12Z</time>
      </trkpt>
      <trkpt lat="45.62855" lon="4.69239">
        <ele>355</ele>
        <time>2017-02-18T09:12:14Z</time>
      </trkpt>
      <trkpt lat="45.62848" lon="4.69244">
        <ele>355</ele>
        <time>2017-02-18T09:12:16Z</time>
      </trkpt>
      <trkpt lat="45.62841" lon="4.6925">
        <ele>355</ele>
        <time>2017-02-18T09:12:18Z</time>
      </trkpt>
      <trkpt lat="45.62835" lon="4.69254">
        <ele>355</ele>
        <time>2017-02-18T09:12:20Z</time>
      </trkpt>
      <trkpt lat="45.62828" lon="4.69256">
        <ele>355</ele>
        <time>2017-02-18T09:12:22Z</time>
      </trkpt>
      <trkpt lat="45.62822" lon="4.69261">
        <ele>355</ele>
        <time>2017-02-18T09:12:24Z</time>
      </trkpt>
      <trkpt lat="45.62816" lon="4.69265">
        <ele>355</ele>
        <time>2017-02-18T09:12:26Z</time>
      </trkpt>
      <trkpt lat="45.6281" lon="4.6927">
        <ele>355</ele>
        <time>2017-02-18T09:12:28Z</time>
      </trkpt>
      <trkpt lat="45.62803" lon="4.69274">
        <ele>354</ele>
        <time>2017-02-18T09:12:30Z</time>
      </trkpt>
      <trkpt lat="45.62796" lon="4.69278">
        <ele>354</ele>
        <time>2017-02-18T09:12:32Z</time>
      </trkpt>
      <trkpt lat="45.6279" lon="4.69282">
        <ele>355</ele>
        <time>2017-02-18T09:12:34Z</time>
      </trkpt>
      <trkpt lat="45.62783" lon="4.69287">
        <ele>355</ele>
        <time>2017-02-18T09:12:36Z</time>
      </trkpt>
      <trkpt lat="45.62776" lon="4.69292">
        <ele>356</ele>
        <time>2017-02-18T09:12:38Z</time>
      </trkpt>
      <trkpt lat="45.6277" lon="4.69297">
        <ele>356</ele>
        <time>2017-02-18T09:12:40Z</time>
      </trkpt>
      <trkpt lat="45.62764" lon="4.69301">
        <ele>356</ele>
        <time>2017-02-18T09:12:42Z</time>
      </trkpt>
      <trkpt lat="45.62758" lon="4.69305">
        <ele>356</ele>
        <time>2017-02-18T09:12:44Z</time>
      </trkpt>
      <trkpt lat="45.62751" lon="4.69308">
        <ele>355</ele>
        <time>2017-02-18T09:12:46Z</time>
      </trkpt>
      <trkpt lat="45.62746" lon="4.69312">
        <ele>355</ele>
        <time>2017-02-18T09:12:48Z</time>
      </trkpt>
      <trkpt lat="45.62742" lon="4.69314">
        <ele>355</ele>
        <time>2017-02-18T09:12:50Z</time>
      </trkpt>
      <trkpt lat="45.62737" lon="4.69316">
        <ele>355</ele>
        <time>2017-02-18T09:12:52Z</time>
      </trkpt>
      <trkpt lat="45.6273" lon="4.69317">
        <ele>355</ele>
        <time>2017-02-18T09:12:54Z</time>
      </trkpt>
      <trkpt lat="45.62724" lon="4.69317">
        <ele>355</ele>
        <time>2017-02-18T09:12:56Z</time>
      </trkpt>
      <trkpt lat="45.62719" lon="4.69318">
        <ele>355</ele>
        <time>2017-02-18T09:12:57Z</time>
      </trkpt>
      <trkpt lat="45.62714" lon="4.69318">
        <ele>354</ele>
        <time>2017-02-18T09:12:58Z</time>
      </trkpt>
      <trkpt lat="45.62706" lon="4.69318">
        <ele>354</ele>
        <time>2017-02-18T09:13:00Z</time>
      </trkpt>
      <trkpt lat="45.62698" lon="4.69319">
        <ele>353</ele>
        <time>2017-02-18T09:13:02Z</time>
      </trkpt>
      <trkpt lat="45.62691" lon="4.69319">
        <ele>353</ele>
        <time>2017-02-18T09:13:04Z</time>
      </trkpt>
      <trkpt lat="45.62685" lon="4.6932">
        <ele>353</ele>
        <time>2017-02-18T09:13:06Z</time>
      </trkpt>
      <trkpt lat="45.62678" lon="4.69323">
        <ele>353</ele>
        <time>2017-02-18T09:13:08Z</time>
      </trkpt>
      <trkpt lat="45.62671" lon="4.69326">
        <ele>353</ele>
        <time>2017-02-18T09:13:10Z</time>
      </trkpt>
      <trkpt lat="45.62665" lon="4.69331">
        <ele>354</ele>
        <time>2017-02-18T09:13:12Z</time>
      </trkpt>
      <trkpt lat="45.62659" lon="4.69336">
        <ele>354</ele>
        <time>2017-02-18T09:13:14Z</time>
      </trkpt>
      <trkpt lat="45.62655" lon="4.6934">
        <ele>353</ele>
        <time>2017-02-18T09:13:15Z</time>
      </trkpt>
      <trkpt lat="45.62645" lon="4.69348">
        <ele>353</ele>
        <time>2017-02-18T09:13:17Z</time>
      </trkpt>
      <trkpt lat="45.62638" lon="4.69354">
        <ele>353</ele>
        <time>2017-02-18T09:13:19Z</time>
      </trkpt>
      <trkpt lat="45.62634" lon="4.69358">
        <ele>353</ele>
        <time>2017-02-18T09:13:20Z</time>
      </trkpt>
      <trkpt lat="45.62627" lon="4.69364">
        <ele>352</ele>
        <time>2017-02-18T09:13:22Z</time>
      </trkpt>
      <trkpt lat="45.6262" lon="4.69371">
        <ele>352</ele>
        <time>2017-02-18T09:13:24Z</time>
      </trkpt>
      <trkpt lat="45.62616" lon="4.69375">
        <ele>352</ele>
        <time>2017-02-18T09:13:25Z</time>
      </trkpt>
      <trkpt lat="45.62611" lon="4.69379">
        <ele>351</ele>
        <time>2017-02-18T09:13:26Z</time>
      </trkpt>
      <trkpt lat="45.62606" lon="4.69382">
        <ele>351</ele>
        <time>2017-02-18T09:13:27Z</time>
      </trkpt>
      <trkpt lat="45.62601" lon="4.69382">
        <ele>350</ele>
        <time>2017-02-18T09:13:28Z</time>
      </trkpt>
      <trkpt lat="45.62595" lon="4.69384">
        <ele>349</ele>
        <time>2017-02-18T09:13:29Z</time>
      </trkpt>
      <trkpt lat="45.6259" lon="4.69385">
        <ele>348</ele>
        <time>2017-02-18T09:13:30Z</time>
      </trkpt>
      <trkpt lat="45.62584" lon="4.69385">
        <ele>347</ele>
        <time>2017-02-18T09:13:31Z</time>
      </trkpt>
      <trkpt lat="45.62579" lon="4.69386">
        <ele>346</ele>
        <time>2017-02-18T09:13:32Z</time>
      </trkpt>
      <trkpt lat="45.62574" lon="4.69385">
        <ele>346</ele>
        <time>2017-02-18T09:13:33Z</time>
      </trkpt>
      <trkpt lat="45.62568" lon="4.69382">
        <ele>346</ele>
        <time>2017-02-18T09:13:34Z</time>
      </trkpt>
      <trkpt lat="45.62563" lon="4.69379">
        <ele>346</ele>
        <time>2017-02-18T09:13:35Z</time>
      </trkpt>
      <trkpt lat="45.62559" lon="4.69376">
        <ele>346</ele>
        <time>2017-02-18T09:13:36Z</time>
      </trkpt>
      <trkpt lat="45.62554" lon="4.69374">
        <ele>346</ele>
        <time>2017-02-18T09:13:37Z</time>
      </trkpt>
      <trkpt lat="45.6255" lon="4.69372">
        <ele>347</ele>
        <time>2017-02-18T09:13:38Z</time>
      </trkpt>
      <trkpt lat="45.62545" lon="4.6937">
        <ele>347</ele>
        <time>2017-02-18T09:13:39Z</time>
      </trkpt>
      <trkpt lat="45.6254" lon="4.69367">
        <ele>347</ele>
        <time>2017-02-18T09:13:40Z</time>
      </trkpt>
      <trkpt lat="45.62535" lon="4.69365">
        <ele>347</ele>
        <time>2017-02-18T09:13:41Z</time>
      </trkpt>
      <trkpt lat="45.62531" lon="4.69363">
        <ele>347</ele>
        <time>2017-02-18T09:13:42Z</time>
      </trkpt>
      <trkpt lat="45.62524" lon="4.69363">
        <ele>347</ele>
        <time>2017-02-18T09:13:44Z</time>
      </trkpt>
      <trkpt lat="45.62516" lon="4.69359">
        <ele>347</ele>
        <time>2017-02-18T09:13:46Z</time>
      </trkpt>
      <trkpt lat="45.62509" lon="4.69354">
        <ele>347</ele>
        <time>2017-02-18T09:13:48Z</time>
      </trkpt>
      <trkpt lat="45.625" lon="4.69351">
        <ele>346</ele>
        <time>2017-02-18T09:13:50Z</time>
      </trkpt>
      <trkpt lat="45.62492" lon="4.69346">
        <ele>345</ele>
        <time>2017-02-18T09:13:52Z</time>
      </trkpt>
      <trkpt lat="45.62486" lon="4.69343">
        <ele>344</ele>
        <time>2017-02-18T09:13:54Z</time>
      </trkpt>
      <trkpt lat="45.62478" lon="4.69341">
        <ele>343</ele>
        <time>2017-02-18T09:13:56Z</time>
      </trkpt>
      <trkpt lat="45.6247" lon="4.69337">
        <ele>342</ele>
        <time>2017-02-18T09:13:58Z</time>
      </trkpt>
      <trkpt lat="45.62463" lon="4.69331">
        <ele>341</ele>
        <time>2017-02-18T09:14:00Z</time>
      </trkpt>
      <trkpt lat="45.62456" lon="4.69325">
        <ele>340</ele>
        <time>2017-02-18T09:14:02Z</time>
      </trkpt>
      <trkpt lat="45.6245" lon="4.69324">
        <ele>339</ele>
        <time>2017-02-18T09:14:03Z</time>
      </trkpt>
      <trkpt lat="45.62442" lon="4.6932">
        <ele>339</ele>
        <time>2017-02-18T09:14:05Z</time>
      </trkpt>
      <trkpt lat="45.62437" lon="4.69318">
        <ele>338</ele>
        <time>2017-02-18T09:14:06Z</time>
      </trkpt>
      <trkpt lat="45.62428" lon="4.69313">
        <ele>337</ele>
        <time>2017-02-18T09:14:08Z</time>
      </trkpt>
      <trkpt lat="45.62424" lon="4.69311">
        <ele>337</ele>
        <time>2017-02-18T09:14:09Z</time>
      </trkpt>
      <trkpt lat="45.6242" lon="4.69307">
        <ele>337</ele>
        <time>2017-02-18T09:14:10Z</time>
      </trkpt>
      <trkpt lat="45.62415" lon="4.69304">
        <ele>336</ele>
        <time>2017-02-18T09:14:11Z</time>
      </trkpt>
      <trkpt lat="45.62411" lon="4.69301">
        <ele>336</ele>
        <time>2017-02-18T09:14:12Z</time>
      </trkpt>
      <trkpt lat="45.62407" lon="4.69299">
        <ele>336</ele>
        <time>2017-02-18T09:14:13Z</time>
      </trkpt>
      <trkpt lat="45.624" lon="4.6929">
        <ele>335</ele>
        <time>2017-02-18T09:14:15Z</time>
      </trkpt>
      <trkpt lat="45.62393" lon="4.69284">
        <ele>336</ele>
        <time>2017-02-18T09:14:17Z</time>
      </trkpt>
      <trkpt lat="45.62389" lon="4.6928">
        <ele>337</ele>
        <time>2017-02-18T09:14:18Z</time>
      </trkpt>
      <trkpt lat="45.62384" lon="4.69278">
        <ele>338</ele>
        <time>2017-02-18T09:14:19Z</time>
      </trkpt>
      <trkpt lat="45.62378" lon="4.69277">
        <ele>339</ele>
        <time>2017-02-18T09:14:20Z</time>
      </trkpt>
      <trkpt lat="45.62372" lon="4.69275">
        <ele>340</ele>
        <time>2017-02-18T09:14:21Z</time>
      </trkpt>
      <trkpt lat="45.62366" lon="4.69273">
        <ele>340</ele>
        <time>2017-02-18T09:14:22Z</time>
      </trkpt>
      <trkpt lat="45.62361" lon="4.69269">
        <ele>340</ele>
        <time>2017-02-18T09:14:23Z</time>
      </trkpt>
      <trkpt lat="45.62355" lon="4.69265">
        <ele>340</ele>
        <time>2017-02-18T09:14:24Z</time>
      </trkpt>
      <trkpt lat="45.62349" lon="4.69262">
        <ele>341</ele>
        <time>2017-02-18T09:14:25Z</time>
      </trkpt>
      <trkpt lat="45.62343" lon="4.6926">
        <ele>341</ele>
        <time>2017-02-18T09:14:26Z</time>
      </trkpt>
      <trkpt lat="45.62336" lon="4.6926">
        <ele>341</ele>
        <time>2017-02-18T09:14:27Z</time>
      </trkpt>
      <trkpt lat="45.6233" lon="4.69258">
        <ele>340</ele>
        <time>2017-02-18T09:14:28Z</time>
      </trkpt>
      <trkpt lat="45.62323" lon="4.69257">
        <ele>340</ele>
        <time>2017-02-18T09:14:29Z</time>
      </trkpt>
      <trkpt lat="45.62318" lon="4.69256">
        <ele>340</ele>
        <time>2017-02-18T09:14:31Z</time>
      </trkpt>
      <trkpt lat="45.6231" lon="4.6925">
        <ele>340</ele>
        <time>2017-02-18T09:14:33Z</time>
      </trkpt>
      <trkpt lat="45.62302" lon="4.69245">
        <ele>340</ele>
        <time>2017-02-18T09:14:35Z</time>
      </trkpt>
      <trkpt lat="45.62295" lon="4.69244">
        <ele>341</ele>
        <time>2017-02-18T09:14:36Z</time>
      </trkpt>
      <trkpt lat="45.6229" lon="4.69243">
        <ele>341</ele>
        <time>2017-02-18T09:14:37Z</time>
      </trkpt>
      <trkpt lat="45.62284" lon="4.69242">
        <ele>341</ele>
        <time>2017-02-18T09:14:39Z</time>
      </trkpt>
      <trkpt lat="45.62283" lon="4.69237">
        <ele>338</ele>
        <time>2017-02-18T09:14:57Z</time>
      </trkpt>
      <trkpt lat="45.62283" lon="4.69237">
        <ele>336</ele>
        <time>2017-02-18T09:14:59Z</time>
      </trkpt>
      <trkpt lat="45.6228" lon="4.69231">
        <ele>333</ele>
        <time>2017-02-18T09:15:05Z</time>
      </trkpt>
      <trkpt lat="45.62277" lon="4.69223">
        <ele>330</ele>
        <time>2017-02-18T09:15:07Z</time>
      </trkpt>
      <trkpt lat="45.62275" lon="4.69211">
        <ele>326</ele>
        <time>2017-02-18T09:15:09Z</time>
      </trkpt>
      <trkpt lat="45.62272" lon="4.69201">
        <ele>325</ele>
        <time>2017-02-18T09:15:11Z</time>
      </trkpt>
      <trkpt lat="45.62269" lon="4.69195">
        <ele>324</ele>
        <time>2017-02-18T09:15:12Z</time>
      </trkpt>
      <trkpt lat="45.62265" lon="4.69185">
        <ele>323</ele>
        <time>2017-02-18T09:15:14Z</time>
      </trkpt>
      <trkpt lat="45.6226" lon="4.69175">
        <ele>322</ele>
        <time>2017-02-18T09:15:16Z</time>
      </trkpt>
      <trkpt lat="45.62254" lon="4.69164">
        <ele>322</ele>
        <time>2017-02-18T09:15:18Z</time>
      </trkpt>
      <trkpt lat="45.62251" lon="4.69159">
        <ele>322</ele>
        <time>2017-02-18T09:15:19Z</time>
      </trkpt>
      <trkpt lat="45.62248" lon="4.69154">
        <ele>322</ele>
        <time>2017-02-18T09:15:20Z</time>
      </trkpt>
      <trkpt lat="45.62241" lon="4.69147">
        <ele>322</ele>
        <time>2017-02-18T09:15:22Z</time>
      </trkpt>
      <trkpt lat="45.62235" lon="4.69138">
        <ele>323</ele>
        <time>2017-02-18T09:15:24Z</time>
      </trkpt>
      <trkpt lat="45.6223" lon="4.69129">
        <ele>323</ele>
        <time>2017-02-18T09:15:26Z</time>
      </trkpt>
      <trkpt lat="45.62225" lon="4.69122">
        <ele>323</ele>
        <time>2017-02-18T09:15:28Z</time>
      </trkpt>
      <trkpt lat="45.62221" lon="4.69115">
        <ele>324</ele>
        <time>2017-02-18T09:15:30Z</time>
      </trkpt>
      <trkpt lat="45.62216" lon="4.69107">
        <ele>324</ele>
        <time>2017-02-18T09:15:32Z</time>
      </trkpt>
      <trkpt lat="45.62211" lon="4.691">
        <ele>324</ele>
        <time>2017-02-18T09:15:34Z</time>
      </trkpt>
      <trkpt lat="45.62206" lon="4.69097">
        <ele>324</ele>
        <time>2017-02-18T09:15:36Z</time>
      </trkpt>
      <trkpt lat="45.62203" lon="4.69089">
        <ele>324</ele>
        <time>2017-02-18T09:15:38Z</time>
      </trkpt>
      <trkpt lat="45.62202" lon="4.69083">
        <ele>324</ele>
        <time>2017-02-18T09:15:39Z</time>
      </trkpt>
      <trkpt lat="45.62199" lon="4.69075">
        <ele>324</ele>
        <time>2017-02-18T09:15:41Z</time>
      </trkpt>
      <trkpt lat="45.62204" lon="4.6907">
        <ele>324</ele>
        <time>2017-02-18T09:15:43Z</time>
      </trkpt>
      <trkpt lat="45.62207" lon="4.69063">
        <ele>324</ele>
        <time>2017-02-18T09:15:45Z</time>
      </trkpt>
      <trkpt lat="45.6221" lon="4.69055">
        <ele>324</ele>
        <time>2017-02-18T09:15:47Z</time>
      </trkpt>
      <trkpt lat="45.62213" lon="4.69046">
        <ele>324</ele>
        <time>2017-02-18T09:15:49Z</time>
      </trkpt>
      <trkpt lat="45.62216" lon="4.69037">
        <ele>324</ele>
        <time>2017-02-18T09:15:51Z</time>
      </trkpt>
      <trkpt lat="45.62219" lon="4.69029">
        <ele>324</ele>
        <time>2017-02-18T09:15:53Z</time>
      </trkpt>
      <trkpt lat="45.62222" lon="4.69021">
        <ele>325</ele>
        <time>2017-02-18T09:15:55Z</time>
      </trkpt>
      <trkpt lat="45.62225" lon="4.69014">
        <ele>326</ele>
        <time>2017-02-18T09:15:57Z</time>
      </trkpt>
      <trkpt lat="45.62228" lon="4.69007">
        <ele>326</ele>
        <time>2017-02-18T09:15:59Z</time>
      </trkpt>
      <trkpt lat="45.62231" lon="4.69">
        <ele>327</ele>
        <time>2017-02-18T09:16:01Z</time>
      </trkpt>
      <trkpt lat="45.62233" lon="4.68992">
        <ele>328</ele>
        <time>2017-02-18T09:16:03Z</time>
      </trkpt>
      <trkpt lat="45.62234" lon="4.68984">
        <ele>328</ele>
        <time>2017-02-18T09:16:05Z</time>
      </trkpt>
      <trkpt lat="45.62235" lon="4.68975">
        <ele>328</ele>
        <time>2017-02-18T09:16:07Z</time>
      </trkpt>
      <trkpt lat="45.62235" lon="4.68966">
        <ele>328</ele>
        <time>2017-02-18T09:16:09Z</time>
      </trkpt>
      <trkpt lat="45.62235" lon="4.68958">
        <ele>328</ele>
        <time>2017-02-18T09:16:11Z</time>
      </trkpt>
      <trkpt lat="45.62234" lon="4.6895">
        <ele>327</ele>
        <time>2017-02-18T09:16:13Z</time>
      </trkpt>
      <trkpt lat="45.62233" lon="4.68941">
        <ele>327</ele>
        <time>2017-02-18T09:16:15Z</time>
      </trkpt>
      <trkpt lat="45.62232" lon="4.68933">
        <ele>327</ele>
        <time>2017-02-18T09:16:17Z</time>
      </trkpt>
      <trkpt lat="45.62231" lon="4.68925">
        <ele>327</ele>
        <time>2017-02-18T09:16:19Z</time>
      </trkpt>
      <trkpt lat="45.62229" lon="4.68917">
        <ele>328</ele>
        <time>2017-02-18T09:16:21Z</time>
      </trkpt>
      <trkpt lat="45.62227" lon="4.68909">
        <ele>328</ele>
        <time>2017-02-18T09:16:23Z</time>
      </trkpt>
      <trkpt lat="45.62225" lon="4.689">
        <ele>328</ele>
        <time>2017-02-18T09:16:25Z</time>
      </trkpt>
      <trkpt lat="45.62223" lon="4.68892">
        <ele>329</ele>
        <time>2017-02-18T09:16:27Z</time>
      </trkpt>
      <trkpt lat="45.62222" lon="4.68884">
        <ele>330</ele>
        <time>2017-02-18T09:16:29Z</time>
      </trkpt>
      <trkpt lat="45.6222" lon="4.68875">
        <ele>330</ele>
        <time>2017-02-18T09:16:31Z</time>
      </trkpt>
      <trkpt lat="45.62218" lon="4.68866">
        <ele>330</ele>
        <time>2017-02-18T09:16:33Z</time>
      </trkpt>
      <trkpt lat="45.62217" lon="4.68858">
        <ele>331</ele>
        <time>2017-02-18T09:16:35Z</time>
      </trkpt>
      <trkpt lat="45.62215" lon="4.68849">
        <ele>330</ele>
        <time>2017-02-18T09:16:37Z</time>
      </trkpt>
      <trkpt lat="45.62213" lon="4.68842">
        <ele>330</ele>
        <time>2017-02-18T09:16:39Z</time>
      </trkpt>
      <trkpt lat="45.62211" lon="4.68834">
        <ele>329</ele>
        <time>2017-02-18T09:16:41Z</time>
      </trkpt>
      <trkpt lat="45.62209" lon="4.68827">
        <ele>329</ele>
        <time>2017-02-18T09:16:43Z</time>
      </trkpt>
      <trkpt lat="45.62207" lon="4.68819">
        <ele>328</ele>
        <time>2017-02-18T09:16:45Z</time>
      </trkpt>
      <trkpt lat="45.62206" lon="4.68811">
        <ele>328</ele>
        <time>2017-02-18T09:16:47Z</time>
      </trkpt>
      <trkpt lat="45.62203" lon="4.68803">
        <ele>329</ele>
        <time>2017-02-18T09:16:49Z</time>
      </trkpt>
      <trkpt lat="45.62201" lon="4.68795">
        <ele>329</ele>
        <time>2017-02-18T09:16:51Z</time>
      </trkpt>
      <trkpt lat="45.622" lon="4.68786">
        <ele>330</ele>
        <time>2017-02-18T09:16:53Z</time>
      </trkpt>
      <trkpt lat="45.62198" lon="4.68777">
        <ele>330</ele>
        <time>2017-02-18T09:16:55Z</time>
      </trkpt>
      <trkpt lat="45.62197" lon="4.68768">
        <ele>330</ele>
        <time>2017-02-18T09:16:57Z</time>
      </trkpt>
      <trkpt lat="45.62196" lon="4.68759">
        <ele>330</ele>
        <time>2017-02-18T09:16:59Z</time>
      </trkpt>
      <trkpt lat="45.62195" lon="4.68751">
        <ele>330</ele>
        <time>2017-02-18T09:17:01Z</time>
      </trkpt>
      <trkpt lat="45.62195" lon="4.68742">
        <ele>330</ele>
        <time>2017-02-18T09:17:03Z</time>
      </trkpt>
      <trkpt lat="45.62194" lon="4.68734">
        <ele>329</ele>
        <time>2017-02-18T09:17:05Z</time>
      </trkpt>
      <trkpt lat="45.62194" lon="4.68725">
        <ele>329</ele>
        <time>2017-02-18T09:17:07Z</time>
      </trkpt>
      <trkpt lat="45.62193" lon="4.68716">
        <ele>329</ele>
        <time>2017-02-18T09:17:09Z</time>
      </trkpt>
      <trkpt lat="45.62193" lon="4.68708">
        <ele>329</ele>
        <time>2017-02-18T09:17:11Z</time>
      </trkpt>
      <trkpt lat="45.62192" lon="4.68698">
        <ele>329</ele>
        <time>2017-02-18T09:17:13Z</time>
      </trkpt>
      <trkpt lat="45.62192" lon="4.6869">
        <ele>330</ele>
        <time>2017-02-18T09:17:15Z</time>
      </trkpt>
      <trkpt lat="45.62193" lon="4.68683">
        <ele>330</ele>
        <time>2017-02-18T09:17:17Z</time>
      </trkpt>
      <trkpt lat="45.62196" lon="4.68676">
        <ele>330</ele>
        <time>2017-02-18T09:17:19Z</time>
      </trkpt>
      <trkpt lat="45.62199" lon="4.68671">
        <ele>330</ele>
        <time>2017-02-18T09:17:21Z</time>
      </trkpt>
      <trkpt lat="45.62202" lon="4.68664">
        <ele>330</ele>
        <time>2017-02-18T09:17:24Z</time>
      </trkpt>
      <trkpt lat="45.62205" lon="4.68658">
        <ele>330</ele>
        <time>2017-02-18T09:17:26Z</time>
      </trkpt>
      <trkpt lat="45.62209" lon="4.68651">
        <ele>330</ele>
        <time>2017-02-18T09:17:29Z</time>
      </trkpt>
      <trkpt lat="45.62213" lon="4.68645">
        <ele>330</ele>
        <time>2017-02-18T09:17:32Z</time>
      </trkpt>
      <trkpt lat="45.62217" lon="4.68639">
        <ele>331</ele>
        <time>2017-02-18T09:17:35Z</time>
      </trkpt>
      <trkpt lat="45.6222" lon="4.6863">
        <ele>332</ele>
        <time>2017-02-18T09:17:38Z</time>
      </trkpt>
      <trkpt lat="45.62221" lon="4.68623">
        <ele>332</ele>
        <time>2017-02-18T09:17:41Z</time>
      </trkpt>
      <trkpt lat="45.62222" lon="4.68615">
        <ele>332</ele>
        <time>2017-02-18T09:17:44Z</time>
      </trkpt>
      <trkpt lat="45.62221" lon="4.68605">
        <ele>332</ele>
        <time>2017-02-18T09:17:47Z</time>
      </trkpt>
      <trkpt lat="45.6222" lon="4.68598">
        <ele>331</ele>
        <time>2017-02-18T09:17:49Z</time>
      </trkpt>
      <trkpt lat="45.62219" lon="4.68592">
        <ele>330</ele>
        <time>2017-02-18T09:17:51Z</time>
      </trkpt>
      <trkpt lat="45.62217" lon="4.68586">
        <ele>330</ele>
        <time>2017-02-18T09:17:53Z</time>
      </trkpt>
      <trkpt lat="45.62213" lon="4.6858">
        <ele>330</ele>
        <time>2017-02-18T09:17:55Z</time>
      </trkpt>
      <trkpt lat="45.6221" lon="4.68575">
        <ele>330</ele>
        <time>2017-02-18T09:17:57Z</time>
      </trkpt>
      <trkpt lat="45.62207" lon="4.68569">
        <ele>329</ele>
        <time>2017-02-18T09:17:59Z</time>
      </trkpt>
      <trkpt lat="45.62204" lon="4.68564">
        <ele>329</ele>
        <time>2017-02-18T09:18:01Z</time>
      </trkpt>
      <trkpt lat="45.62202" lon="4.68558">
        <ele>329</ele>
        <time>2017-02-18T09:18:03Z</time>
      </trkpt>
      <trkpt lat="45.622" lon="4.68549">
        <ele>328</ele>
        <time>2017-02-18T09:18:06Z</time>
      </trkpt>
      <trkpt lat="45.62199" lon="4.6854">
        <ele>328</ele>
        <time>2017-02-18T09:18:09Z</time>
      </trkpt>
      <trkpt lat="45.62199" lon="4.68534">
        <ele>328</ele>
        <time>2017-02-18T09:18:11Z</time>
      </trkpt>
      <trkpt lat="45.62199" lon="4.68527">
        <ele>328</ele>
        <time>2017-02-18T09:18:13Z</time>
      </trkpt>
      <trkpt lat="45.62199" lon="4.6852">
        <ele>328</ele>
        <time>2017-02-18T09:18:15Z</time>
      </trkpt>
      <trkpt lat="45.62199" lon="4.68513">
        <ele>329</ele>
        <time>2017-02-18T09:18:17Z</time>
      </trkpt>
      <trkpt lat="45.62199" lon="4.68506">
        <ele>329</ele>
        <time>2017-02-18T09:18:19Z</time>
      </trkpt>
      <trkpt lat="45.62199" lon="4.68496">
        <ele>329</ele>
        <time>2017-02-18T09:18:22Z</time>
      </trkpt>
      <trkpt lat="45.62199" lon="4.6849">
        <ele>329</ele>
        <time>2017-02-18T09:18:24Z</time>
      </trkpt>
      <trkpt lat="45.62199" lon="4.68483">
        <ele>330</ele>
        <time>2017-02-18T09:18:26Z</time>
      </trkpt>
      <trkpt lat="45.62199" lon="4.68476">
        <ele>331</ele>
        <time>2017-02-18T09:18:28Z</time>
      </trkpt>
      <trkpt lat="45.62199" lon="4.68467">
        <ele>332</ele>
        <time>2017-02-18T09:18:30Z</time>
      </trkpt>
      <trkpt lat="45.62198" lon="4.6846">
        <ele>333</ele>
        <time>2017-02-18T09:18:32Z</time>
      </trkpt>
      <trkpt lat="45.62197" lon="4.6845">
        <ele>334</ele>
        <time>2017-02-18T09:18:35Z</time>
      </trkpt>
      <trkpt lat="45.62197" lon="4.68443">
        <ele>335</ele>
        <time>2017-02-18T09:18:37Z</time>
      </trkpt>
      <trkpt lat="45.62198" lon="4.68435">
        <ele>335</ele>
        <time>2017-02-18T09:18:39Z</time>
      </trkpt>
      <trkpt lat="45.62197" lon="4.68428">
        <ele>335</ele>
        <time>2017-02-18T09:18:41Z</time>
      </trkpt>
      <trkpt lat="45.62198" lon="4.68421">
        <ele>335</ele>
        <time>2017-02-18T09:18:43Z</time>
      </trkpt>
      <trkpt lat="45.62198" lon="4.68414">
        <ele>334</ele>
        <time>2017-02-18T09:18:45Z</time>
      </trkpt>
      <trkpt lat="45.62198" lon="4.68408">
        <ele>334</ele>
        <time>2017-02-18T09:18:47Z</time>
      </trkpt>
      <trkpt lat="45.62198" lon="4.68401">
        <ele>333</ele>
        <time>2017-02-18T09:18:49Z</time>
      </trkpt>
      <trkpt lat="45.62198" lon="4.68394">
        <ele>333</ele>
        <time>2017-02-18T09:18:51Z</time>
      </trkpt>
      <trkpt lat="45.62198" lon="4.68387">
        <ele>334</ele>
        <time>2017-02-18T09:18:53Z</time>
      </trkpt>
      <trkpt lat="45.62198" lon="4.6838">
        <ele>335</ele>
        <time>2017-02-18T09:18:55Z</time>
      </trkpt>
      <trkpt lat="45.62198" lon="4.68371">
        <ele>335</ele>
        <time>2017-02-18T09:18:58Z</time>
      </trkpt>
      <trkpt lat="45.62199" lon="4.68362">
        <ele>336</ele>
        <time>2017-02-18T09:19:01Z</time>
      </trkpt>
      <trkpt lat="45.62198" lon="4.68353">
        <ele>337</ele>
        <time>2017-02-18T09:19:04Z</time>
      </trkpt>
      <trkpt lat="45.62197" lon="4.68344">
        <ele>337</ele>
        <time>2017-02-18T09:19:07Z</time>
      </trkpt>
      <trkpt lat="45.62196" lon="4.68338">
        <ele>338</ele>
        <time>2017-02-18T09:19:09Z</time>
      </trkpt>
      <trkpt lat="45.62194" lon="4.68332">
        <ele>338</ele>
        <time>2017-02-18T09:19:11Z</time>
      </trkpt>
      <trkpt lat="45.62192" lon="4.68325">
        <ele>338</ele>
        <time>2017-02-18T09:19:13Z</time>
      </trkpt>
      <trkpt lat="45.6219" lon="4.68318">
        <ele>338</ele>
        <time>2017-02-18T09:19:15Z</time>
      </trkpt>
      <trkpt lat="45.62189" lon="4.6831">
        <ele>339</ele>
        <time>2017-02-18T09:19:17Z</time>
      </trkpt>
      <trkpt lat="45.62189" lon="4.68303">
        <ele>339</ele>
        <time>2017-02-18T09:19:19Z</time>
      </trkpt>
      <trkpt lat="45.62188" lon="4.68296">
        <ele>340</ele>
        <time>2017-02-18T09:19:21Z</time>
      </trkpt>
      <trkpt lat="45.62188" lon="4.68289">
        <ele>340</ele>
        <time>2017-02-18T09:19:23Z</time>
      </trkpt>
      <trkpt lat="45.62187" lon="4.68283">
        <ele>340</ele>
        <time>2017-02-18T09:19:25Z</time>
      </trkpt>
      <trkpt lat="45.62186" lon="4.68275">
        <ele>340</ele>
        <time>2017-02-18T09:19:27Z</time>
      </trkpt>
      <trkpt lat="45.62184" lon="4.68268">
        <ele>340</ele>
        <time>2017-02-18T09:19:29Z</time>
      </trkpt>
      <trkpt lat="45.62183" lon="4.68262">
        <ele>341</ele>
        <time>2017-02-18T09:19:31Z</time>
      </trkpt>
      <trkpt lat="45.62182" lon="4.68255">
        <ele>341</ele>
        <time>2017-02-18T09:19:33Z</time>
      </trkpt>
      <trkpt lat="45.6218" lon="4.68249">
        <ele>342</ele>
        <time>2017-02-18T09:19:35Z</time>
      </trkpt>
      <trkpt lat="45.62178" lon="4.6824">
        <ele>342</ele>
        <time>2017-02-18T09:19:38Z</time>
      </trkpt>
      <trkpt lat="45.62177" lon="4.68231">
        <ele>342</ele>
        <time>2017-02-18T09:19:41Z</time>
      </trkpt>
      <trkpt lat="45.62175" lon="4.68224">
        <ele>342</ele>
        <time>2017-02-18T09:19:44Z</time>
      </trkpt>
      <trkpt lat="45.62175" lon="4.68215">
        <ele>343</ele>
        <time>2017-02-18T09:19:47Z</time>
      </trkpt>
      <trkpt lat="45.62175" lon="4.68207">
        <ele>343</ele>
        <time>2017-02-18T09:19:50Z</time>
      </trkpt>
      <trkpt lat="45.62175" lon="4.682">
        <ele>343</ele>
        <time>2017-02-18T09:19:52Z</time>
      </trkpt>
      <trkpt lat="45.62174" lon="4.68192">
        <ele>343</ele>
        <time>2017-02-18T09:19:55Z</time>
      </trkpt>
      <trkpt lat="45.62174" lon="4.68185">
        <ele>343</ele>
        <time>2017-02-18T09:19:58Z</time>
      </trkpt>
      <trkpt lat="45.62172" lon="4.68177">
        <ele>343</ele>
        <time>2017-02-18T09:20:01Z</time>
      </trkpt>
      <trkpt lat="45.62173" lon="4.68168">
        <ele>343</ele>
        <time>2017-02-18T09:20:04Z</time>
      </trkpt>
      <trkpt lat="45.62174" lon="4.68159">
        <ele>344</ele>
        <time>2017-02-18T09:20:07Z</time>
      </trkpt>
      <trkpt lat="45.62174" lon="4.6815">
        <ele>344</ele>
        <time>2017-02-18T09:20:10Z</time>
      </trkpt>
      <trkpt lat="45.62173" lon="4.68143">
        <ele>345</ele>
        <time>2017-02-18T09:20:12Z</time>
      </trkpt>
      <trkpt lat="45.62172" lon="4.68134">
        <ele>346</ele>
        <time>2017-02-18T09:20:15Z</time>
      </trkpt>
      <trkpt lat="45.62172" lon="4.68125">
        <ele>347</ele>
        <time>2017-02-18T09:20:18Z</time>
      </trkpt>
      <trkpt lat="45.62169" lon="4.68116">
        <ele>348</ele>
        <time>2017-02-18T09:20:21Z</time>
      </trkpt>
      <trkpt lat="45.62164" lon="4.68109">
        <ele>348</ele>
        <time>2017-02-18T09:20:24Z</time>
      </trkpt>
      <trkpt lat="45.6216" lon="4.68102">
        <ele>349</ele>
        <time>2017-02-18T09:20:27Z</time>
      </trkpt>
      <trkpt lat="45.62156" lon="4.68095">
        <ele>349</ele>
        <time>2017-02-18T09:20:30Z</time>
      </trkpt>
      <trkpt lat="45.62152" lon="4.68088">
        <ele>350</ele>
        <time>2017-02-18T09:20:33Z</time>
      </trkpt>
      <trkpt lat="45.62148" lon="4.68081">
        <ele>351</ele>
        <time>2017-02-18T09:20:36Z</time>
      </trkpt>
      <trkpt lat="45.62144" lon="4.68074">
        <ele>351</ele>
        <time>2017-02-18T09:20:39Z</time>
      </trkpt>
      <trkpt lat="45.62141" lon="4.68067">
        <ele>351</ele>
        <time>2017-02-18T09:20:42Z</time>
      </trkpt>
      <trkpt lat="45.6214" lon="4.68058">
        <ele>351</ele>
        <time>2017-02-18T09:20:45Z</time>
      </trkpt>
      <trkpt lat="45.62138" lon="4.68049">
        <ele>351</ele>
        <time>2017-02-18T09:20:48Z</time>
      </trkpt>
      <trkpt lat="45.62138" lon="4.6804">
        <ele>350</ele>
        <time>2017-02-18T09:20:51Z</time>
      </trkpt>
      <trkpt lat="45.62137" lon="4.68031">
        <ele>350</ele>
        <time>2017-02-18T09:20:54Z</time>
      </trkpt>
      <trkpt lat="45.62137" lon="4.68022">
        <ele>351</ele>
        <time>2017-02-18T09:20:57Z</time>
      </trkpt>
      <trkpt lat="45.62137" lon="4.68015">
        <ele>352</ele>
        <time>2017-02-18T09:21:00Z</time>
      </trkpt>
      <trkpt lat="45.62137" lon="4.6802">
        <ele>353</ele>
        <time>2017-02-18T09:21:27Z</time>
      </trkpt>
      <trkpt lat="45.62137" lon="4.6802">
        <ele>355</ele>
        <time>2017-02-18T09:21:29Z</time>
      </trkpt>
      <trkpt lat="45.62137" lon="4.6802">
        <ele>356</ele>
        <time>2017-02-18T09:21:57Z</time>
      </trkpt>
      <trkpt lat="45.62137" lon="4.6802">
        <ele>357</ele>
        <time>2017-02-18T09:21:59Z</time>
      </trkpt>
      <trkpt lat="45.62138" lon="4.68021">
        <ele>358</ele>
        <time>2017-02-18T09:22:27Z</time>
      </trkpt>
      <trkpt lat="45.62138" lon="4.68021">
        <ele>358</ele>
        <time>2017-02-18T09:22:29Z</time>
      </trkpt>
      <trkpt lat="45.62138" lon="4.68021">
        <ele>357</ele>
        <time>2017-02-18T09:22:57Z</time>
      </trkpt>
      <trkpt lat="45.62138" lon="4.68021">
        <ele>357</ele>
        <time>2017-02-18T09:22:59Z</time>
      </trkpt>
      <trkpt lat="45.62138" lon="4.68021">
        <ele>357</ele>
        <time>2017-02-18T09:23:27Z</time>
      </trkpt>
      <trkpt lat="45.62138" lon="4.68021">
        <ele>357</ele>
        <time>2017-02-18T09:23:29Z</time>
      </trkpt>
      <trkpt lat="45.62138" lon="4.68022">
        <ele>357</ele>
        <time>2017-02-18T09:23:57Z</time>
      </trkpt>
      <trkpt lat="45.62138" lon="4.68022">
        <ele>357</ele>
        <time>2017-02-18T09:23:59Z</time>
      </trkpt>
      <trkpt lat="45.62138" lon="4.68022">
        <ele>357</ele>
        <time>2017-02-18T09:24:27Z</time>
      </trkpt>
      <trkpt lat="45.62138" lon="4.68022">
        <ele>357</ele>
        <time>2017-02-18T09:24:29Z</time>
      </trkpt>
      <trkpt lat="45.62138" lon="4.68021">
        <ele>356</ele>
        <time>2017-02-18T09:24:57Z</time>
      </trkpt>
      <trkpt lat="45.62138" lon="4.68021">
        <ele>356</ele>
        <time>2017-02-18T09:24:59Z</time>
      </trkpt>
      <trkpt lat="45.62138" lon="4.68021">
        <ele>356</ele>
        <time>2017-02-18T09:25:27Z</time>
      </trkpt>
      <trkpt lat="45.62138" lon="4.68021">
        <ele>356</ele>
        <time>2017-02-18T09:25:29Z</time>
      </trkpt>
      <trkpt lat="45.62141" lon="4.68026">
        <ele>356</ele>
        <time>2017-02-18T09:25:49Z</time>
      </trkpt>
      <trkpt lat="45.62146" lon="4.68021">
        <ele>356</ele>
        <time>2017-02-18T09:25:53Z</time>
      </trkpt>
      <trkpt lat="45.62152" lon="4.68017">
        <ele>356</ele>
        <time>2017-02-18T09:25:56Z</time>
      </trkpt>
      <trkpt lat="45.62157" lon="4.68013">
        <ele>356</ele>
        <time>2017-02-18T09:25:58Z</time>
      </trkpt>
      <trkpt lat="45.62163" lon="4.68009">
        <ele>356</ele>
        <time>2017-02-18T09:26:00Z</time>
      </trkpt>
      <trkpt lat="45.62168" lon="4.68004">
        <ele>356</ele>
        <time>2017-02-18T09:26:02Z</time>
      </trkpt>
      <trkpt lat="45.62173" lon="4.67999">
        <ele>355</ele>
        <time>2017-02-18T09:26:04Z</time>
      </trkpt>
      <trkpt lat="45.62178" lon="4.67994">
        <ele>355</ele>
        <time>2017-02-18T09:26:06Z</time>
      </trkpt>
      <trkpt lat="45.62183" lon="4.6799">
        <ele>354</ele>
        <time>2017-02-18T09:26:08Z</time>
      </trkpt>
      <trkpt lat="45.62188" lon="4.67985">
        <ele>354</ele>
        <time>2017-02-18T09:26:10Z</time>
      </trkpt>
      <trkpt lat="45.62193" lon="4.6798">
        <ele>354</ele>
        <time>2017-02-18T09:26:12Z</time>
      </trkpt>
      <trkpt lat="45.62198" lon="4.67976">
        <ele>354</ele>
        <time>2017-02-18T09:26:14Z</time>
      </trkpt>
      <trkpt lat="45.62203" lon="4.67973">
        <ele>354</ele>
        <time>2017-02-18T09:26:16Z</time>
      </trkpt>
      <trkpt lat="45.62207" lon="4.67969">
        <ele>354</ele>
        <time>2017-02-18T09:26:18Z</time>
      </trkpt>
      <trkpt lat="45.62211" lon="4.67966">
        <ele>354</ele>
        <time>2017-02-18T09:26:20Z</time>
      </trkpt>
      <trkpt lat="45.62216" lon="4.67962">
        <ele>354</ele>
        <time>2017-02-18T09:26:23Z</time>
      </trkpt>
      <trkpt lat="45.62222" lon="4.67955">
        <ele>353</ele>
        <time>2017-02-18T09:26:26Z</time>
      </trkpt>
      <trkpt lat="45.62225" lon="4.67951">
        <ele>353</ele>
        <time>2017-02-18T09:26:28Z</time>
      </trkpt>
      <trkpt lat="45.62229" lon="4.67947">
        <ele>353</ele>
        <time>2017-02-18T09:26:30Z</time>
      </trkpt>
      <trkpt lat="45.62234" lon="4.67943">
        <ele>353</ele>
        <time>2017-02-18T09:26:33Z</time>
      </trkpt>
      <trkpt lat="45.62234" lon="4.67936">
        <ele>353</ele>
        <time>2017-02-18T09:26:43Z</time>
      </trkpt>
      <trkpt lat="45.62233" lon="4.6793">
        <ele>353</ele>
        <time>2017-02-18T09:26:47Z</time>
      </trkpt>
      <trkpt lat="45.62233" lon="4.67922">
        <ele>353</ele>
        <time>2017-02-18T09:26:51Z</time>
      </trkpt>
      <trkpt lat="45.62231" lon="4.67916">
        <ele>353</ele>
        <time>2017-02-18T09:26:55Z</time>
      </trkpt>
      <trkpt lat="45.62232" lon="4.67908">
        <ele>354</ele>
        <time>2017-02-18T09:27:01Z</time>
      </trkpt>
      <trkpt lat="45.62235" lon="4.67901">
        <ele>354</ele>
        <time>2017-02-18T09:27:06Z</time>
      </trkpt>
      <trkpt lat="45.62238" lon="4.67895">
        <ele>355</ele>
        <time>2017-02-18T09:27:11Z</time>
      </trkpt>
      <trkpt lat="45.62238" lon="4.67888">
        <ele>356</ele>
        <time>2017-02-18T09:27:20Z</time>
      </trkpt>
      <trkpt lat="45.62241" lon="4.67882">
        <ele>356</ele>
        <time>2017-02-18T09:27:24Z</time>
      </trkpt>
      <trkpt lat="45.62242" lon="4.67875">
        <ele>357</ele>
        <time>2017-02-18T09:27:28Z</time>
      </trkpt>
      <trkpt lat="45.62244" lon="4.67868">
        <ele>357</ele>
        <time>2017-02-18T09:27:32Z</time>
      </trkpt>
      <trkpt lat="45.62245" lon="4.67861">
        <ele>358</ele>
        <time>2017-02-18T09:27:36Z</time>
      </trkpt>
      <trkpt lat="45.62249" lon="4.67856">
        <ele>359</ele>
        <time>2017-02-18T09:27:40Z</time>
      </trkpt>
      <trkpt lat="45.62252" lon="4.67852">
        <ele>360</ele>
        <time>2017-02-18T09:27:44Z</time>
      </trkpt>
      <trkpt lat="45.62254" lon="4.67848">
        <ele>360</ele>
        <time>2017-02-18T09:28:12Z</time>
      </trkpt>
      <trkpt lat="45.62254" lon="4.67848">
        <ele>360</ele>
        <time>2017-02-18T09:28:14Z</time>
      </trkpt>
      <trkpt lat="45.62254" lon="4.67842">
        <ele>360</ele>
        <time>2017-02-18T09:28:21Z</time>
      </trkpt>
      <trkpt lat="45.62255" lon="4.67834">
        <ele>359</ele>
        <time>2017-02-18T09:28:24Z</time>
      </trkpt>
      <trkpt lat="45.62257" lon="4.67826">
        <ele>359</ele>
        <time>2017-02-18T09:28:27Z</time>
      </trkpt>
      <trkpt lat="45.6226" lon="4.67819">
        <ele>359</ele>
        <time>2017-02-18T09:28:30Z</time>
      </trkpt>
      <trkpt lat="45.62262" lon="4.67812">
        <ele>359</ele>
        <time>2017-02-18T09:28:33Z</time>
      </trkpt>
      <trkpt lat="45.62265" lon="4.67805">
        <ele>359</ele>
        <time>2017-02-18T09:28:36Z</time>
      </trkpt>
      <trkpt lat="45.62268" lon="4.67799">
        <ele>359</ele>
        <time>2017-02-18T09:28:39Z</time>
      </trkpt>
      <trkpt lat="45.6227" lon="4.67792">
        <ele>359</ele>
        <time>2017-02-18T09:28:42Z</time>
      </trkpt>
      <trkpt lat="45.62273" lon="4.67785">
        <ele>360</ele>
        <time>2017-02-18T09:28:45Z</time>
      </trkpt>
      <trkpt lat="45.62276" lon="4.67778">
        <ele>360</ele>
        <time>2017-02-18T09:28:48Z</time>
      </trkpt>
      <trkpt lat="45.62278" lon="4.67771">
        <ele>360</ele>
        <time>2017-02-18T09:28:51Z</time>
      </trkpt>
      <trkpt lat="45.62281" lon="4.67763">
        <ele>360</ele>
        <time>2017-02-18T09:28:54Z</time>
      </trkpt>
      <trkpt lat="45.62284" lon="4.67756">
        <ele>361</ele>
        <time>2017-02-18T09:28:57Z</time>
      </trkpt>
      <trkpt lat="45.62287" lon="4.6775">
        <ele>361</ele>
        <time>2017-02-18T09:29:00Z</time>
      </trkpt>
      <trkpt lat="45.62289" lon="4.67744">
        <ele>360</ele>
        <time>2017-02-18T09:29:03Z</time>
      </trkpt>
      <trkpt lat="45.62291" lon="4.67738">
        <ele>360</ele>
        <time>2017-02-18T09:29:06Z</time>
      </trkpt>
      <trkpt lat="45.62296" lon="4.67734">
        <ele>361</ele>
        <time>2017-02-18T09:29:09Z</time>
      </trkpt>
      <trkpt lat="45.62302" lon="4.67734">
        <ele>361</ele>
        <time>2017-02-18T09:29:12Z</time>
      </trkpt>
      <trkpt lat="45.62307" lon="4.67734">
        <ele>360</ele>
        <time>2017-02-18T09:29:15Z</time>
      </trkpt>
      <trkpt lat="45.62314" lon="4.67732">
        <ele>360</ele>
        <time>2017-02-18T09:29:18Z</time>
      </trkpt>
      <trkpt lat="45.62319" lon="4.67732">
        <ele>359</ele>
        <time>2017-02-18T09:29:21Z</time>
      </trkpt>
      <trkpt lat="45.62325" lon="4.67731">
        <ele>358</ele>
        <time>2017-02-18T09:29:24Z</time>
      </trkpt>
      <trkpt lat="45.6233" lon="4.6773">
        <ele>358</ele>
        <time>2017-02-18T09:29:27Z</time>
      </trkpt>
      <trkpt lat="45.62335" lon="4.67728">
        <ele>357</ele>
        <time>2017-02-18T09:29:30Z</time>
      </trkpt>
      <trkpt lat="45.62337" lon="4.67721">
        <ele>358</ele>
        <time>2017-02-18T09:29:33Z</time>
      </trkpt>
      <trkpt lat="45.62336" lon="4.67714">
        <ele>358</ele>
        <time>2017-02-18T09:29:36Z</time>
      </trkpt>
      <trkpt lat="45.62333" lon="4.67708">
        <ele>359</ele>
        <time>2017-02-18T09:29:39Z</time>
      </trkpt>
      <trkpt lat="45.62329" lon="4.67702">
        <ele>359</ele>
        <time>2017-02-18T09:29:42Z</time>
      </trkpt>
      <trkpt lat="45.62325" lon="4.67695">
        <ele>360</ele>
        <time>2017-02-18T09:29:45Z</time>
      </trkpt>
      <trkpt lat="45.62322" lon="4.67689">
        <ele>360</ele>
        <time>2017-02-18T09:29:48Z</time>
      </trkpt>
      <trkpt lat="45.62317" lon="4.67682">
        <ele>360</ele>
        <time>2017-02-18T09:29:51Z</time>
      </trkpt>
      <trkpt lat="45.62312" lon="4.67676">
        <ele>360</ele>
        <time>2017-02-18T09:29:54Z</time>
      </trkpt>
      <trkpt lat="45.62309" lon="4.67672">
        <ele>361</ele>
        <time>2017-02-18T09:29:56Z</time>
      </trkpt>
      <trkpt lat="45.62305" lon="4.67668">
        <ele>361</ele>
        <time>2017-02-18T09:29:58Z</time>
      </trkpt>
      <trkpt lat="45.62299" lon="4.67664">
        <ele>360</ele>
        <time>2017-02-18T09:30:01Z</time>
      </trkpt>
      <trkpt lat="45.62293" lon="4.67661">
        <ele>360</ele>
        <time>2017-02-18T09:30:03Z</time>
      </trkpt>
      <trkpt lat="45.62289" lon="4.67659">
        <ele>360</ele>
        <time>2017-02-18T09:30:05Z</time>
      </trkpt>
      <trkpt lat="45.62284" lon="4.67656">
        <ele>360</ele>
        <time>2017-02-18T09:30:07Z</time>
      </trkpt>
      <trkpt lat="45.62279" lon="4.67654">
        <ele>360</ele>
        <time>2017-02-18T09:30:09Z</time>
      </trkpt>
      <trkpt lat="45.62273" lon="4.67652">
        <ele>360</ele>
        <time>2017-02-18T09:30:11Z</time>
      </trkpt>
      <trkpt lat="45.62269" lon="4.6765">
        <ele>360</ele>
        <time>2017-02-18T09:30:13Z</time>
      </trkpt>
      <trkpt lat="45.62264" lon="4.67648">
        <ele>361</ele>
        <time>2017-02-18T09:30:15Z</time>
      </trkpt>
      <trkpt lat="45.62258" lon="4.67647">
        <ele>361</ele>
        <time>2017-02-18T09:30:17Z</time>
      </trkpt>
      <trkpt lat="45.62252" lon="4.67646">
        <ele>362</ele>
        <time>2017-02-18T09:30:19Z</time>
      </trkpt>
      <trkpt lat="45.62247" lon="4.67643">
        <ele>362</ele>
        <time>2017-02-18T09:30:21Z</time>
      </trkpt>
      <trkpt lat="45.62242" lon="4.6764">
        <ele>363</ele>
        <time>2017-02-18T09:30:23Z</time>
      </trkpt>
      <trkpt lat="45.62237" lon="4.67637">
        <ele>363</ele>
        <time>2017-02-18T09:30:25Z</time>
      </trkpt>
      <trkpt lat="45.62232" lon="4.67634">
        <ele>364</ele>
        <time>2017-02-18T09:30:27Z</time>
      </trkpt>
      <trkpt lat="45.62228" lon="4.67631">
        <ele>364</ele>
        <time>2017-02-18T09:30:29Z</time>
      </trkpt>
      <trkpt lat="45.62223" lon="4.67629">
        <ele>365</ele>
        <time>2017-02-18T09:30:31Z</time>
      </trkpt>
      <trkpt lat="45.62219" lon="4.67627">
        <ele>365</ele>
        <time>2017-02-18T09:30:33Z</time>
      </trkpt>
      <trkpt lat="45.62215" lon="4.67623">
        <ele>366</ele>
        <time>2017-02-18T09:30:35Z</time>
      </trkpt>
      <trkpt lat="45.62211" lon="4.67619">
        <ele>366</ele>
        <time>2017-02-18T09:30:37Z</time>
      </trkpt>
      <trkpt lat="45.62208" lon="4.67614">
        <ele>367</ele>
        <time>2017-02-18T09:30:39Z</time>
      </trkpt>
      <trkpt lat="45.62204" lon="4.6761">
        <ele>367</ele>
        <time>2017-02-18T09:30:41Z</time>
      </trkpt>
      <trkpt lat="45.62201" lon="4.67606">
        <ele>367</ele>
        <time>2017-02-18T09:30:43Z</time>
      </trkpt>
      <trkpt lat="45.62197" lon="4.67602">
        <ele>367</ele>
        <time>2017-02-18T09:30:45Z</time>
      </trkpt>
      <trkpt lat="45.62193" lon="4.67598">
        <ele>367</ele>
        <time>2017-02-18T09:30:47Z</time>
      </trkpt>
      <trkpt lat="45.62188" lon="4.67594">
        <ele>367</ele>
        <time>2017-02-18T09:30:49Z</time>
      </trkpt>
      <trkpt lat="45.62184" lon="4.67591">
        <ele>367</ele>
        <time>2017-02-18T09:30:51Z</time>
      </trkpt>
      <trkpt lat="45.6218" lon="4.67588">
        <ele>366</ele>
        <time>2017-02-18T09:30:53Z</time>
      </trkpt>
      <trkpt lat="45.62175" lon="4.67587">
        <ele>366</ele>
        <time>2017-02-18T09:30:55Z</time>
      </trkpt>
      <trkpt lat="45.62171" lon="4.67585">
        <ele>366</ele>
        <time>2017-02-18T09:30:57Z</time>
      </trkpt>
      <trkpt lat="45.62166" lon="4.67583">
        <ele>365</ele>
        <time>2017-02-18T09:30:59Z</time>
      </trkpt>
      <trkpt lat="45.62162" lon="4.67576">
        <ele>365</ele>
        <time>2017-02-18T09:31:02Z</time>
      </trkpt>
      <trkpt lat="45.62167" lon="4.67571">
        <ele>364</ele>
        <time>2017-02-18T09:31:04Z</time>
      </trkpt>
      <trkpt lat="45.62171" lon="4.67567">
        <ele>364</ele>
        <time>2017-02-18T09:31:06Z</time>
      </trkpt>
      <trkpt lat="45.62175" lon="4.67563">
        <ele>364</ele>
        <time>2017-02-18T09:31:08Z</time>
      </trkpt>
      <trkpt lat="45.6218" lon="4.6756">
        <ele>365</ele>
        <time>2017-02-18T09:31:10Z</time>
      </trkpt>
      <trkpt lat="45.62184" lon="4.67556">
        <ele>365</ele>
        <time>2017-02-18T09:31:12Z</time>
      </trkpt>
      <trkpt lat="45.62188" lon="4.67553">
        <ele>365</ele>
        <time>2017-02-18T09:31:14Z</time>
      </trkpt>
      <trkpt lat="45.62193" lon="4.67549">
        <ele>366</ele>
        <time>2017-02-18T09:31:16Z</time>
      </trkpt>
      <trkpt lat="45.62198" lon="4.67544">
        <ele>366</ele>
        <time>2017-02-18T09:31:18Z</time>
      </trkpt>
      <trkpt lat="45.62201" lon="4.6754">
        <ele>366</ele>
        <time>2017-02-18T09:31:20Z</time>
      </trkpt>
      <trkpt lat="45.62206" lon="4.67535">
        <ele>366</ele>
        <time>2017-02-18T09:31:22Z</time>
      </trkpt>
      <trkpt lat="45.6221" lon="4.67531">
        <ele>366</ele>
        <time>2017-02-18T09:31:24Z</time>
      </trkpt>
      <trkpt lat="45.62214" lon="4.67526">
        <ele>366</ele>
        <time>2017-02-18T09:31:26Z</time>
      </trkpt>
      <trkpt lat="45.62219" lon="4.67521">
        <ele>366</ele>
        <time>2017-02-18T09:31:28Z</time>
      </trkpt>
      <trkpt lat="45.62223" lon="4.67517">
        <ele>365</ele>
        <time>2017-02-18T09:31:30Z</time>
      </trkpt>
      <trkpt lat="45.62228" lon="4.67512">
        <ele>365</ele>
        <time>2017-02-18T09:31:32Z</time>
      </trkpt>
      <trkpt lat="45.62232" lon="4.67507">
        <ele>365</ele>
        <time>2017-02-18T09:31:34Z</time>
      </trkpt>
      <trkpt lat="45.62238" lon="4.67501">
        <ele>366</ele>
        <time>2017-02-18T09:31:36Z</time>
      </trkpt>
      <trkpt lat="45.62244" lon="4.67495">
        <ele>366</ele>
        <time>2017-02-18T09:31:38Z</time>
      </trkpt>
      <trkpt lat="45.62251" lon="4.6749">
        <ele>366</ele>
        <time>2017-02-18T09:31:40Z</time>
      </trkpt>
      <trkpt lat="45.62256" lon="4.67485">
        <ele>367</ele>
        <time>2017-02-18T09:31:42Z</time>
      </trkpt>
      <trkpt lat="45.62262" lon="4.6748">
        <ele>367</ele>
        <time>2017-02-18T09:31:44Z</time>
      </trkpt>
      <trkpt lat="45.62268" lon="4.67476">
        <ele>368</ele>
        <time>2017-02-18T09:31:46Z</time>
      </trkpt>
      <trkpt lat="45.62273" lon="4.6747">
        <ele>368</ele>
        <time>2017-02-18T09:31:48Z</time>
      </trkpt>
      <trkpt lat="45.6228" lon="4.67464">
        <ele>368</ele>
        <time>2017-02-18T09:31:50Z</time>
      </trkpt>
      <trkpt lat="45.62286" lon="4.67459">
        <ele>368</ele>
        <time>2017-02-18T09:31:52Z</time>
      </trkpt>
      <trkpt lat="45.62291" lon="4.67453">
        <ele>368</ele>
        <time>2017-02-18T09:31:54Z</time>
      </trkpt>
      <trkpt lat="45.62297" lon="4.67447">
        <ele>367</ele>
        <time>2017-02-18T09:31:56Z</time>
      </trkpt>
      <trkpt lat="45.62302" lon="4.67442">
        <ele>367</ele>
        <time>2017-02-18T09:31:58Z</time>
      </trkpt>
      <trkpt lat="45.62307" lon="4.67436">
        <ele>367</ele>
        <time>2017-02-18T09:32:00Z</time>
      </trkpt>
      <trkpt lat="45.62312" lon="4.67431">
        <ele>367</ele>
        <time>2017-02-18T09:32:02Z</time>
      </trkpt>
      <trkpt lat="45.62318" lon="4.67426">
        <ele>367</ele>
        <time>2017-02-18T09:32:04Z</time>
      </trkpt>
      <trkpt lat="45.62323" lon="4.67422">
        <ele>367</ele>
        <time>2017-02-18T09:32:06Z</time>
      </trkpt>
      <trkpt lat="45.6233" lon="4.67417">
        <ele>367</ele>
        <time>2017-02-18T09:32:08Z</time>
      </trkpt>
      <trkpt lat="45.62335" lon="4.67412">
        <ele>366</ele>
        <time>2017-02-18T09:32:10Z</time>
      </trkpt>
      <trkpt lat="45.62341" lon="4.67406">
        <ele>366</ele>
        <time>2017-02-18T09:32:12Z</time>
      </trkpt>
      <trkpt lat="45.62347" lon="4.674">
        <ele>366</ele>
        <time>2017-02-18T09:32:14Z</time>
      </trkpt>
      <trkpt lat="45.62352" lon="4.67396">
        <ele>366</ele>
        <time>2017-02-18T09:32:16Z</time>
      </trkpt>
      <trkpt lat="45.62358" lon="4.67391">
        <ele>366</ele>
        <time>2017-02-18T09:32:18Z</time>
      </trkpt>
      <trkpt lat="45.62364" lon="4.67387">
        <ele>367</ele>
        <time>2017-02-18T09:32:20Z</time>
      </trkpt>
      <trkpt lat="45.62369" lon="4.67382">
        <ele>366</ele>
        <time>2017-02-18T09:32:22Z</time>
      </trkpt>
      <trkpt lat="45.62374" lon="4.67376">
        <ele>366</ele>
        <time>2017-02-18T09:32:24Z</time>
      </trkpt>
      <trkpt lat="45.62379" lon="4.67371">
        <ele>366</ele>
        <time>2017-02-18T09:32:26Z</time>
      </trkpt>
      <trkpt lat="45.62384" lon="4.67367">
        <ele>366</ele>
        <time>2017-02-18T09:32:28Z</time>
      </trkpt>
      <trkpt lat="45.62389" lon="4.67362">
        <ele>366</ele>
        <time>2017-02-18T09:32:30Z</time>
      </trkpt>
      <trkpt lat="45.62396" lon="4.67359">
        <ele>366</ele>
        <time>2017-02-18T09:32:32Z</time>
      </trkpt>
      <trkpt lat="45.62402" lon="4.67356">
        <ele>367</ele>
        <time>2017-02-18T09:32:34Z</time>
      </trkpt>
      <trkpt lat="45.62409" lon="4.67353">
        <ele>367</ele>
        <time>2017-02-18T09:32:36Z</time>
      </trkpt>
      <trkpt lat="45.62417" lon="4.67351">
        <ele>367</ele>
        <time>2017-02-18T09:32:38Z</time>
      </trkpt>
      <trkpt lat="45.62423" lon="4.67348">
        <ele>367</ele>
        <time>2017-02-18T09:32:40Z</time>
      </trkpt>
      <trkpt lat="45.62428" lon="4.67347">
        <ele>366</ele>
        <time>2017-02-18T09:32:41Z</time>
      </trkpt>
      <trkpt lat="45.62436" lon="4.67344">
        <ele>365</ele>
        <time>2017-02-18T09:32:43Z</time>
      </trkpt>
      <trkpt lat="45.62444" lon="4.67342">
        <ele>365</ele>
        <time>2017-02-18T09:32:45Z</time>
      </trkpt>
      <trkpt lat="45.62452" lon="4.6734">
        <ele>364</ele>
        <time>2017-02-18T09:32:47Z</time>
      </trkpt>
      <trkpt lat="45.62458" lon="4.67341">
        <ele>364</ele>
        <time>2017-02-18T09:32:49Z</time>
      </trkpt>
      <trkpt lat="45.62462" lon="4.67345">
        <ele>363</ele>
        <time>2017-02-18T09:32:51Z</time>
      </trkpt>
      <trkpt lat="45.62465" lon="4.67351">
        <ele>363</ele>
        <time>2017-02-18T09:32:53Z</time>
      </trkpt>
      <trkpt lat="45.62469" lon="4.67358">
        <ele>363</ele>
        <time>2017-02-18T09:32:56Z</time>
      </trkpt>
      <trkpt lat="45.62474" lon="4.67358">
        <ele>362</ele>
        <time>2017-02-18T09:32:58Z</time>
      </trkpt>
      <trkpt lat="45.62479" lon="4.67359">
        <ele>362</ele>
        <time>2017-02-18T09:33:00Z</time>
      </trkpt>
      <trkpt lat="45.62482" lon="4.67349">
        <ele>362</ele>
        <time>2017-02-18T09:33:01Z</time>
      </trkpt>
      <trkpt lat="45.62486" lon="4.67338">
        <ele>362</ele>
        <time>2017-02-18T09:33:03Z</time>
      </trkpt>
      <trkpt lat="45.6249" lon="4.67328">
        <ele>362</ele>
        <time>2017-02-18T09:33:05Z</time>
      </trkpt>
      <trkpt lat="45.62493" lon="4.67319">
        <ele>362</ele>
        <time>2017-02-18T09:33:07Z</time>
      </trkpt>
      <trkpt lat="45.62496" lon="4.67309">
        <ele>362</ele>
        <time>2017-02-18T09:33:09Z</time>
      </trkpt>
      <trkpt lat="45.625" lon="4.673">
        <ele>362</ele>
        <time>2017-02-18T09:33:11Z</time>
      </trkpt>
      <trkpt lat="45.62505" lon="4.67289">
        <ele>361</ele>
        <time>2017-02-18T09:33:13Z</time>
      </trkpt>
      <trkpt lat="45.62509" lon="4.67279">
        <ele>361</ele>
        <time>2017-02-18T09:33:14Z</time>
      </trkpt>
      <trkpt lat="45.62513" lon="4.67273">
        <ele>360</ele>
        <time>2017-02-18T09:33:15Z</time>
      </trkpt>
      <trkpt lat="45.62516" lon="4.67266">
        <ele>360</ele>
        <time>2017-02-18T09:33:16Z</time>
      </trkpt>
      <trkpt lat="45.6252" lon="4.67259">
        <ele>360</ele>
        <time>2017-02-18T09:33:17Z</time>
      </trkpt>
      <trkpt lat="45.62524" lon="4.67253">
        <ele>361</ele>
        <time>2017-02-18T09:33:18Z</time>
      </trkpt>
      <trkpt lat="45.62529" lon="4.67247">
        <ele>361</ele>
        <time>2017-02-18T09:33:20Z</time>
      </trkpt>
      <trkpt lat="45.62533" lon="4.67238">
        <ele>361</ele>
        <time>2017-02-18T09:33:22Z</time>
      </trkpt>
      <trkpt lat="45.62537" lon="4.6723">
        <ele>361</ele>
        <time>2017-02-18T09:33:24Z</time>
      </trkpt>
      <trkpt lat="45.6254" lon="4.67223">
        <ele>361</ele>
        <time>2017-02-18T09:33:26Z</time>
      </trkpt>
      <trkpt lat="45.62544" lon="4.67217">
        <ele>361</ele>
        <time>2017-02-18T09:33:28Z</time>
      </trkpt>
      <trkpt lat="45.62548" lon="4.67211">
        <ele>361</ele>
        <time>2017-02-18T09:33:30Z</time>
      </trkpt>
      <trkpt lat="45.62551" lon="4.67204">
        <ele>362</ele>
        <time>2017-02-18T09:33:32Z</time>
      </trkpt>
      <trkpt lat="45.62555" lon="4.67198">
        <ele>362</ele>
        <time>2017-02-18T09:33:34Z</time>
      </trkpt>
      <trkpt lat="45.62558" lon="4.67191">
        <ele>362</ele>
        <time>2017-02-18T09:33:36Z</time>
      </trkpt>
      <trkpt lat="45.62561" lon="4.67185">
        <ele>363</ele>
        <time>2017-02-18T09:33:38Z</time>
      </trkpt>
      <trkpt lat="45.62563" lon="4.67178">
        <ele>363</ele>
        <time>2017-02-18T09:33:40Z</time>
      </trkpt>
      <trkpt lat="45.62565" lon="4.67171">
        <ele>363</ele>
        <time>2017-02-18T09:33:42Z</time>
      </trkpt>
      <trkpt lat="45.62566" lon="4.67164">
        <ele>363</ele>
        <time>2017-02-18T09:33:44Z</time>
      </trkpt>
      <trkpt lat="45.62568" lon="4.67154">
        <ele>363</ele>
        <time>2017-02-18T09:33:46Z</time>
      </trkpt>
      <trkpt lat="45.62569" lon="4.67147">
        <ele>363</ele>
        <time>2017-02-18T09:33:48Z</time>
      </trkpt>
      <trkpt lat="45.6257" lon="4.67139">
        <ele>364</ele>
        <time>2017-02-18T09:33:50Z</time>
      </trkpt>
      <trkpt lat="45.62572" lon="4.67131">
        <ele>364</ele>
        <time>2017-02-18T09:33:52Z</time>
      </trkpt>
      <trkpt lat="45.62574" lon="4.67124">
        <ele>364</ele>
        <time>2017-02-18T09:33:54Z</time>
      </trkpt>
      <trkpt lat="45.62575" lon="4.67117">
        <ele>364</ele>
        <time>2017-02-18T09:33:56Z</time>
      </trkpt>
      <trkpt lat="45.62576" lon="4.67109">
        <ele>364</ele>
        <time>2017-02-18T09:33:58Z</time>
      </trkpt>
      <trkpt lat="45.62577" lon="4.67103">
        <ele>364</ele>
        <time>2017-02-18T09:34:00Z</time>
      </trkpt>
      <trkpt lat="45.62579" lon="4.67096">
        <ele>364</ele>
        <time>2017-02-18T09:34:02Z</time>
      </trkpt>
      <trkpt lat="45.6258" lon="4.67089">
        <ele>363</ele>
        <time>2017-02-18T09:34:04Z</time>
      </trkpt>
      <trkpt lat="45.62581" lon="4.67081">
        <ele>363</ele>
        <time>2017-02-18T09:34:06Z</time>
      </trkpt>
      <trkpt lat="45.62582" lon="4.67074">
        <ele>364</ele>
        <time>2017-02-18T09:34:08Z</time>
      </trkpt>
      <trkpt lat="45.62583" lon="4.67067">
        <ele>364</ele>
        <time>2017-02-18T09:34:10Z</time>
      </trkpt>
      <trkpt lat="45.62584" lon="4.6706">
        <ele>364</ele>
        <time>2017-02-18T09:34:12Z</time>
      </trkpt>
      <trkpt lat="45.62585" lon="4.67053">
        <ele>365</ele>
        <time>2017-02-18T09:34:14Z</time>
      </trkpt>
      <trkpt lat="45.62587" lon="4.67046">
        <ele>365</ele>
        <time>2017-02-18T09:34:16Z</time>
      </trkpt>
      <trkpt lat="45.62588" lon="4.67038">
        <ele>365</ele>
        <time>2017-02-18T09:34:18Z</time>
      </trkpt>
      <trkpt lat="45.6259" lon="4.67031">
        <ele>364</ele>
        <time>2017-02-18T09:34:20Z</time>
      </trkpt>
      <trkpt lat="45.62591" lon="4.67024">
        <ele>364</ele>
        <time>2017-02-18T09:34:22Z</time>
      </trkpt>
      <trkpt lat="45.62592" lon="4.67017">
        <ele>364</ele>
        <time>2017-02-18T09:34:24Z</time>
      </trkpt>
      <trkpt lat="45.62594" lon="4.67009">
        <ele>364</ele>
        <time>2017-02-18T09:34:26Z</time>
      </trkpt>
      <trkpt lat="45.62595" lon="4.67002">
        <ele>364</ele>
        <time>2017-02-18T09:34:28Z</time>
      </trkpt>
      <trkpt lat="45.62597" lon="4.66994">
        <ele>364</ele>
        <time>2017-02-18T09:34:30Z</time>
      </trkpt>
      <trkpt lat="45.62598" lon="4.66987">
        <ele>365</ele>
        <time>2017-02-18T09:34:32Z</time>
      </trkpt>
      <trkpt lat="45.62599" lon="4.66979">
        <ele>365</ele>
        <time>2017-02-18T09:34:34Z</time>
      </trkpt>
      <trkpt lat="45.62601" lon="4.66971">
        <ele>366</ele>
        <time>2017-02-18T09:34:36Z</time>
      </trkpt>
      <trkpt lat="45.62602" lon="4.66964">
        <ele>366</ele>
        <time>2017-02-18T09:34:38Z</time>
      </trkpt>
      <trkpt lat="45.62604" lon="4.66957">
        <ele>367</ele>
        <time>2017-02-18T09:34:40Z</time>
      </trkpt>
      <trkpt lat="45.62605" lon="4.6695">
        <ele>367</ele>
        <time>2017-02-18T09:34:42Z</time>
      </trkpt>
      <trkpt lat="45.62608" lon="4.66943">
        <ele>368</ele>
        <time>2017-02-18T09:34:44Z</time>
      </trkpt>
      <trkpt lat="45.6261" lon="4.66937">
        <ele>368</ele>
        <time>2017-02-18T09:34:46Z</time>
      </trkpt>
      <trkpt lat="45.62612" lon="4.6693">
        <ele>368</ele>
        <time>2017-02-18T09:34:48Z</time>
      </trkpt>
      <trkpt lat="45.62615" lon="4.66924">
        <ele>368</ele>
        <time>2017-02-18T09:34:50Z</time>
      </trkpt>
      <trkpt lat="45.62619" lon="4.66919">
        <ele>369</ele>
        <time>2017-02-18T09:34:52Z</time>
      </trkpt>
      <trkpt lat="45.62623" lon="4.66914">
        <ele>369</ele>
        <time>2017-02-18T09:34:54Z</time>
      </trkpt>
      <trkpt lat="45.62627" lon="4.66906">
        <ele>369</ele>
        <time>2017-02-18T09:34:56Z</time>
      </trkpt>
      <trkpt lat="45.62628" lon="4.66897">
        <ele>369</ele>
        <time>2017-02-18T09:34:58Z</time>
      </trkpt>
      <trkpt lat="45.62626" lon="4.66888">
        <ele>369</ele>
        <time>2017-02-18T09:35:00Z</time>
      </trkpt>
      <trkpt lat="45.62622" lon="4.66881">
        <ele>369</ele>
        <time>2017-02-18T09:35:02Z</time>
      </trkpt>
      <trkpt lat="45.62616" lon="4.66877">
        <ele>369</ele>
        <time>2017-02-18T09:35:04Z</time>
      </trkpt>
      <trkpt lat="45.6261" lon="4.66876">
        <ele>369</ele>
        <time>2017-02-18T09:35:06Z</time>
      </trkpt>
      <trkpt lat="45.62603" lon="4.66875">
        <ele>369</ele>
        <time>2017-02-18T09:35:08Z</time>
      </trkpt>
      <trkpt lat="45.62595" lon="4.66873">
        <ele>369</ele>
        <time>2017-02-18T09:35:10Z</time>
      </trkpt>
      <trkpt lat="45.62589" lon="4.66869">
        <ele>370</ele>
        <time>2017-02-18T09:35:12Z</time>
      </trkpt>
      <trkpt lat="45.62582" lon="4.66864">
        <ele>371</ele>
        <time>2017-02-18T09:35:14Z</time>
      </trkpt>
      <trkpt lat="45.62576" lon="4.66859">
        <ele>372</ele>
        <time>2017-02-18T09:35:16Z</time>
      </trkpt>
      <trkpt lat="45.62569" lon="4.66854">
        <ele>372</ele>
        <time>2017-02-18T09:35:18Z</time>
      </trkpt>
      <trkpt lat="45.62563" lon="4.66849">
        <ele>372</ele>
        <time>2017-02-18T09:35:20Z</time>
      </trkpt>
      <trkpt lat="45.62556" lon="4.66845">
        <ele>372</ele>
        <time>2017-02-18T09:35:22Z</time>
      </trkpt>
      <trkpt lat="45.62549" lon="4.6684">
        <ele>372</ele>
        <time>2017-02-18T09:35:24Z</time>
      </trkpt>
      <trkpt lat="45.62542" lon="4.66835">
        <ele>372</ele>
        <time>2017-02-18T09:35:26Z</time>
      </trkpt>
      <trkpt lat="45.62536" lon="4.6683">
        <ele>373</ele>
        <time>2017-02-18T09:35:28Z</time>
      </trkpt>
      <trkpt lat="45.6253" lon="4.66824">
        <ele>373</ele>
        <time>2017-02-18T09:35:30Z</time>
      </trkpt>
      <trkpt lat="45.62525" lon="4.66818">
        <ele>374</ele>
        <time>2017-02-18T09:35:32Z</time>
      </trkpt>
      <trkpt lat="45.62519" lon="4.66812">
        <ele>374</ele>
        <time>2017-02-18T09:35:34Z</time>
      </trkpt>
      <trkpt lat="45.62513" lon="4.66807">
        <ele>375</ele>
        <time>2017-02-18T09:35:36Z</time>
      </trkpt>
      <trkpt lat="45.62508" lon="4.66802">
        <ele>375</ele>
        <time>2017-02-18T09:35:38Z</time>
      </trkpt>
      <trkpt lat="45.62503" lon="4.66796">
        <ele>375</ele>
        <time>2017-02-18T09:35:40Z</time>
      </trkpt>
      <trkpt lat="45.62497" lon="4.66789">
        <ele>375</ele>
        <time>2017-02-18T09:35:42Z</time>
      </trkpt>
      <trkpt lat="45.62492" lon="4.66783">
        <ele>375</ele>
        <time>2017-02-18T09:35:44Z</time>
      </trkpt>
      <trkpt lat="45.62487" lon="4.66775">
        <ele>375</ele>
        <time>2017-02-18T09:35:46Z</time>
      </trkpt>
      <trkpt lat="45.62487" lon="4.66764">
        <ele>374</ele>
        <time>2017-02-18T09:35:48Z</time>
      </trkpt>
      <trkpt lat="45.62493" lon="4.66757">
        <ele>374</ele>
        <time>2017-02-18T09:35:50Z</time>
      </trkpt>
      <trkpt lat="45.62501" lon="4.66755">
        <ele>374</ele>
        <time>2017-02-18T09:35:52Z</time>
      </trkpt>
      <trkpt lat="45.62508" lon="4.66754">
        <ele>373</ele>
        <time>2017-02-18T09:35:54Z</time>
      </trkpt>
      <trkpt lat="45.62516" lon="4.66753">
        <ele>373</ele>
        <time>2017-02-18T09:35:56Z</time>
      </trkpt>
      <trkpt lat="45.62523" lon="4.66753">
        <ele>373</ele>
        <time>2017-02-18T09:35:58Z</time>
      </trkpt>
      <trkpt lat="45.6253" lon="4.66753">
        <ele>372</ele>
        <time>2017-02-18T09:36:00Z</time>
      </trkpt>
      <trkpt lat="45.62537" lon="4.66752">
        <ele>372</ele>
        <time>2017-02-18T09:36:02Z</time>
      </trkpt>
      <trkpt lat="45.62543" lon="4.6675">
        <ele>373</ele>
        <time>2017-02-18T09:36:04Z</time>
      </trkpt>
      <trkpt lat="45.6255" lon="4.66746">
        <ele>374</ele>
        <time>2017-02-18T09:36:06Z</time>
      </trkpt>
      <trkpt lat="45.62555" lon="4.66741">
        <ele>375</ele>
        <time>2017-02-18T09:36:08Z</time>
      </trkpt>
      <trkpt lat="45.6256" lon="4.66737">
        <ele>376</ele>
        <time>2017-02-18T09:36:10Z</time>
      </trkpt>
      <trkpt lat="45.62565" lon="4.66733">
        <ele>376</ele>
        <time>2017-02-18T09:36:12Z</time>
      </trkpt>
      <trkpt lat="45.6257" lon="4.66728">
        <ele>375</ele>
        <time>2017-02-18T09:36:14Z</time>
      </trkpt>
      <trkpt lat="45.62575" lon="4.66724">
        <ele>374</ele>
        <time>2017-02-18T09:36:16Z</time>
      </trkpt>
      <trkpt lat="45.6258" lon="4.6672">
        <ele>372</ele>
        <time>2017-02-18T09:36:18Z</time>
      </trkpt>
      <trkpt lat="45.62585" lon="4.66716">
        <ele>371</ele>
        <time>2017-02-18T09:36:20Z</time>
      </trkpt>
      <trkpt lat="45.6259" lon="4.66712">
        <ele>371</ele>
        <time>2017-02-18T09:36:22Z</time>
      </trkpt>
      <trkpt lat="45.62595" lon="4.66707">
        <ele>371</ele>
        <time>2017-02-18T09:36:24Z</time>
      </trkpt>
      <trkpt lat="45.62599" lon="4.667">
        <ele>371</ele>
        <time>2017-02-18T09:36:27Z</time>
      </trkpt>
      <trkpt lat="45.62604" lon="4.66696">
        <ele>372</ele>
        <time>2017-02-18T09:36:29Z</time>
      </trkpt>
      <trkpt lat="45.62609" lon="4.66691">
        <ele>373</ele>
        <time>2017-02-18T09:36:31Z</time>
      </trkpt>
      <trkpt lat="45.62613" lon="4.66687">
        <ele>374</ele>
        <time>2017-02-18T09:36:33Z</time>
      </trkpt>
      <trkpt lat="45.62618" lon="4.66683">
        <ele>376</ele>
        <time>2017-02-18T09:36:35Z</time>
      </trkpt>
      <trkpt lat="45.62623" lon="4.66679">
        <ele>377</ele>
        <time>2017-02-18T09:36:37Z</time>
      </trkpt>
      <trkpt lat="45.62629" lon="4.66675">
        <ele>379</ele>
        <time>2017-02-18T09:36:39Z</time>
      </trkpt>
      <trkpt lat="45.62635" lon="4.66673">
        <ele>380</ele>
        <time>2017-02-18T09:36:41Z</time>
      </trkpt>
      <trkpt lat="45.6264" lon="4.6667">
        <ele>380</ele>
        <time>2017-02-18T09:36:43Z</time>
      </trkpt>
      <trkpt lat="45.62646" lon="4.66665">
        <ele>380</ele>
        <time>2017-02-18T09:36:45Z</time>
      </trkpt>
      <trkpt lat="45.62651" lon="4.6666">
        <ele>380</ele>
        <time>2017-02-18T09:36:47Z</time>
      </trkpt>
      <trkpt lat="45.62656" lon="4.66656">
        <ele>380</ele>
        <time>2017-02-18T09:36:49Z</time>
      </trkpt>
      <trkpt lat="45.62662" lon="4.66653">
        <ele>380</ele>
        <time>2017-02-18T09:36:51Z</time>
      </trkpt>
      <trkpt lat="45.62668" lon="4.6665">
        <ele>380</ele>
        <time>2017-02-18T09:36:53Z</time>
      </trkpt>
      <trkpt lat="45.62673" lon="4.66647">
        <ele>380</ele>
        <time>2017-02-18T09:36:55Z</time>
      </trkpt>
      <trkpt lat="45.62678" lon="4.66643">
        <ele>380</ele>
        <time>2017-02-18T09:36:57Z</time>
      </trkpt>
      <trkpt lat="45.62684" lon="4.6664">
        <ele>380</ele>
        <time>2017-02-18T09:36:59Z</time>
      </trkpt>
      <trkpt lat="45.62688" lon="4.66636">
        <ele>379</ele>
        <time>2017-02-18T09:37:01Z</time>
      </trkpt>
      <trkpt lat="45.62694" lon="4.66633">
        <ele>379</ele>
        <time>2017-02-18T09:37:03Z</time>
      </trkpt>
      <trkpt lat="45.627" lon="4.6663">
        <ele>378</ele>
        <time>2017-02-18T09:37:05Z</time>
      </trkpt>
      <trkpt lat="45.62705" lon="4.66626">
        <ele>379</ele>
        <time>2017-02-18T09:37:07Z</time>
      </trkpt>
      <trkpt lat="45.6271" lon="4.66621">
        <ele>379</ele>
        <time>2017-02-18T09:37:09Z</time>
      </trkpt>
      <trkpt lat="45.62715" lon="4.66618">
        <ele>379</ele>
        <time>2017-02-18T09:37:11Z</time>
      </trkpt>
      <trkpt lat="45.6272" lon="4.66614">
        <ele>379</ele>
        <time>2017-02-18T09:37:13Z</time>
      </trkpt>
      <trkpt lat="45.62725" lon="4.66611">
        <ele>379</ele>
        <time>2017-02-18T09:37:15Z</time>
      </trkpt>
      <trkpt lat="45.62731" lon="4.66607">
        <ele>379</ele>
        <time>2017-02-18T09:37:17Z</time>
      </trkpt>
      <trkpt lat="45.62736" lon="4.66601">
        <ele>379</ele>
        <time>2017-02-18T09:37:19Z</time>
      </trkpt>
      <trkpt lat="45.62741" lon="4.66596">
        <ele>379</ele>
        <time>2017-02-18T09:37:21Z</time>
      </trkpt>
      <trkpt lat="45.62745" lon="4.66591">
        <ele>379</ele>
        <time>2017-02-18T09:37:23Z</time>
      </trkpt>
      <trkpt lat="45.6275" lon="4.66586">
        <ele>380</ele>
        <time>2017-02-18T09:37:25Z</time>
      </trkpt>
      <trkpt lat="45.62754" lon="4.66582">
        <ele>381</ele>
        <time>2017-02-18T09:37:27Z</time>
      </trkpt>
      <trkpt lat="45.62759" lon="4.66578">
        <ele>381</ele>
        <time>2017-02-18T09:37:29Z</time>
      </trkpt>
      <trkpt lat="45.62764" lon="4.66574">
        <ele>381</ele>
        <time>2017-02-18T09:37:31Z</time>
      </trkpt>
      <trkpt lat="45.62768" lon="4.6657">
        <ele>381</ele>
        <time>2017-02-18T09:37:33Z</time>
      </trkpt>
      <trkpt lat="45.62773" lon="4.66565">
        <ele>381</ele>
        <time>2017-02-18T09:37:35Z</time>
      </trkpt>
      <trkpt lat="45.62778" lon="4.66561">
        <ele>380</ele>
        <time>2017-02-18T09:37:37Z</time>
      </trkpt>
      <trkpt lat="45.62783" lon="4.66556">
        <ele>381</ele>
        <time>2017-02-18T09:37:39Z</time>
      </trkpt>
      <trkpt lat="45.62788" lon="4.66551">
        <ele>381</ele>
        <time>2017-02-18T09:37:41Z</time>
      </trkpt>
      <trkpt lat="45.62793" lon="4.66546">
        <ele>380</ele>
        <time>2017-02-18T09:37:43Z</time>
      </trkpt>
      <trkpt lat="45.62798" lon="4.66541">
        <ele>380</ele>
        <time>2017-02-18T09:37:45Z</time>
      </trkpt>
      <trkpt lat="45.62803" lon="4.66536">
        <ele>380</ele>
        <time>2017-02-18T09:37:47Z</time>
      </trkpt>
      <trkpt lat="45.62807" lon="4.66531">
        <ele>381</ele>
        <time>2017-02-18T09:37:49Z</time>
      </trkpt>
      <trkpt lat="45.62811" lon="4.66526">
        <ele>382</ele>
        <time>2017-02-18T09:37:51Z</time>
      </trkpt>
      <trkpt lat="45.62815" lon="4.66521">
        <ele>382</ele>
        <time>2017-02-18T09:37:53Z</time>
      </trkpt>
      <trkpt lat="45.6282" lon="4.66516">
        <ele>383</ele>
        <time>2017-02-18T09:37:55Z</time>
      </trkpt>
      <trkpt lat="45.62824" lon="4.66511">
        <ele>384</ele>
        <time>2017-02-18T09:37:57Z</time>
      </trkpt>
      <trkpt lat="45.62829" lon="4.66505">
        <ele>385</ele>
        <time>2017-02-18T09:38:00Z</time>
      </trkpt>
      <trkpt lat="45.62833" lon="4.66501">
        <ele>385</ele>
        <time>2017-02-18T09:38:02Z</time>
      </trkpt>
      <trkpt lat="45.62837" lon="4.66498">
        <ele>386</ele>
        <time>2017-02-18T09:38:04Z</time>
      </trkpt>
      <trkpt lat="45.62841" lon="4.66494">
        <ele>387</ele>
        <time>2017-02-18T09:38:06Z</time>
      </trkpt>
      <trkpt lat="45.62846" lon="4.66489">
        <ele>388</ele>
        <time>2017-02-18T09:38:08Z</time>
      </trkpt>
      <trkpt lat="45.62851" lon="4.66485">
        <ele>388</ele>
        <time>2017-02-18T09:38:10Z</time>
      </trkpt>
      <trkpt lat="45.62856" lon="4.66482">
        <ele>388</ele>
        <time>2017-02-18T09:38:12Z</time>
      </trkpt>
      <trkpt lat="45.62861" lon="4.66478">
        <ele>388</ele>
        <time>2017-02-18T09:38:14Z</time>
      </trkpt>
      <trkpt lat="45.62865" lon="4.66474">
        <ele>388</ele>
        <time>2017-02-18T09:38:16Z</time>
      </trkpt>
      <trkpt lat="45.6287" lon="4.6647">
        <ele>388</ele>
        <time>2017-02-18T09:38:18Z</time>
      </trkpt>
      <trkpt lat="45.62874" lon="4.66466">
        <ele>388</ele>
        <time>2017-02-18T09:38:20Z</time>
      </trkpt>
      <trkpt lat="45.62878" lon="4.66462">
        <ele>389</ele>
        <time>2017-02-18T09:38:22Z</time>
      </trkpt>
      <trkpt lat="45.62883" lon="4.66458">
        <ele>389</ele>
        <time>2017-02-18T09:38:24Z</time>
      </trkpt>
      <trkpt lat="45.62887" lon="4.66454">
        <ele>390</ele>
        <time>2017-02-18T09:38:26Z</time>
      </trkpt>
      <trkpt lat="45.62891" lon="4.66451">
        <ele>390</ele>
        <time>2017-02-18T09:38:28Z</time>
      </trkpt>
      <trkpt lat="45.62896" lon="4.66448">
        <ele>390</ele>
        <time>2017-02-18T09:38:30Z</time>
      </trkpt>
      <trkpt lat="45.629" lon="4.66446">
        <ele>391</ele>
        <time>2017-02-18T09:38:32Z</time>
      </trkpt>
      <trkpt lat="45.62907" lon="4.66442">
        <ele>391</ele>
        <time>2017-02-18T09:38:35Z</time>
      </trkpt>
      <trkpt lat="45.62913" lon="4.66439">
        <ele>391</ele>
        <time>2017-02-18T09:38:38Z</time>
      </trkpt>
      <trkpt lat="45.62917" lon="4.66436">
        <ele>392</ele>
        <time>2017-02-18T09:38:40Z</time>
      </trkpt>
      <trkpt lat="45.62922" lon="4.66433">
        <ele>393</ele>
        <time>2017-02-18T09:38:42Z</time>
      </trkpt>
      <trkpt lat="45.62926" lon="4.66431">
        <ele>393</ele>
        <time>2017-02-18T09:38:44Z</time>
      </trkpt>
      <trkpt lat="45.62932" lon="4.66428">
        <ele>394</ele>
        <time>2017-02-18T09:38:47Z</time>
      </trkpt>
      <trkpt lat="45.62938" lon="4.66425">
        <ele>395</ele>
        <time>2017-02-18T09:38:50Z</time>
      </trkpt>
      <trkpt lat="45.62943" lon="4.66422">
        <ele>396</ele>
        <time>2017-02-18T09:38:53Z</time>
      </trkpt>
      <trkpt lat="45.62949" lon="4.66419">
        <ele>396</ele>
        <time>2017-02-18T09:38:56Z</time>
      </trkpt>
      <trkpt lat="45.62955" lon="4.66417">
        <ele>397</ele>
        <time>2017-02-18T09:38:59Z</time>
      </trkpt>
      <trkpt lat="45.6296" lon="4.66414">
        <ele>398</ele>
        <time>2017-02-18T09:39:02Z</time>
      </trkpt>
      <trkpt lat="45.62966" lon="4.66412">
        <ele>399</ele>
        <time>2017-02-18T09:39:05Z</time>
      </trkpt>
      <trkpt lat="45.62972" lon="4.66409">
        <ele>399</ele>
        <time>2017-02-18T09:39:08Z</time>
      </trkpt>
      <trkpt lat="45.62978" lon="4.66406">
        <ele>400</ele>
        <time>2017-02-18T09:39:11Z</time>
      </trkpt>
      <trkpt lat="45.62984" lon="4.66402">
        <ele>400</ele>
        <time>2017-02-18T09:39:14Z</time>
      </trkpt>
      <trkpt lat="45.62988" lon="4.66399">
        <ele>401</ele>
        <time>2017-02-18T09:39:16Z</time>
      </trkpt>
      <trkpt lat="45.62992" lon="4.66397">
        <ele>402</ele>
        <time>2017-02-18T09:39:18Z</time>
      </trkpt>
      <trkpt lat="45.62999" lon="4.66393">
        <ele>402</ele>
        <time>2017-02-18T09:39:21Z</time>
      </trkpt>
      <trkpt lat="45.63003" lon="4.66391">
        <ele>402</ele>
        <time>2017-02-18T09:39:23Z</time>
      </trkpt>
      <trkpt lat="45.63007" lon="4.66389">
        <ele>402</ele>
        <time>2017-02-18T09:39:25Z</time>
      </trkpt>
      <trkpt lat="45.63014" lon="4.66385">
        <ele>402</ele>
        <time>2017-02-18T09:39:28Z</time>
      </trkpt>
      <trkpt lat="45.6302" lon="4.66383">
        <ele>402</ele>
        <time>2017-02-18T09:39:31Z</time>
      </trkpt>
      <trkpt lat="45.63026" lon="4.6638">
        <ele>402</ele>
        <time>2017-02-18T09:39:34Z</time>
      </trkpt>
      <trkpt lat="45.6303" lon="4.66376">
        <ele>402</ele>
        <time>2017-02-18T09:39:36Z</time>
      </trkpt>
      <trkpt lat="45.63033" lon="4.66372">
        <ele>402</ele>
        <time>2017-02-18T09:39:38Z</time>
      </trkpt>
      <trkpt lat="45.63033" lon="4.66362">
        <ele>402</ele>
        <time>2017-02-18T09:39:40Z</time>
      </trkpt>
      <trkpt lat="45.63031" lon="4.66356">
        <ele>402</ele>
        <time>2017-02-18T09:39:42Z</time>
      </trkpt>
      <trkpt lat="45.63028" lon="4.6635">
        <ele>403</ele>
        <time>2017-02-18T09:39:45Z</time>
      </trkpt>
      <trkpt lat="45.63027" lon="4.66343">
        <ele>403</ele>
        <time>2017-02-18T09:39:48Z</time>
      </trkpt>
      <trkpt lat="45.63026" lon="4.66336">
        <ele>404</ele>
        <time>2017-02-18T09:39:51Z</time>
      </trkpt>
      <trkpt lat="45.63026" lon="4.66331">
        <ele>404</ele>
        <time>2017-02-18T09:40:12Z</time>
      </trkpt>
      <trkpt lat="45.63026" lon="4.66331">
        <ele>405</ele>
        <time>2017-02-18T09:40:14Z</time>
      </trkpt>
      <trkpt lat="45.63026" lon="4.66331">
        <ele>406</ele>
        <time>2017-02-18T09:40:42Z</time>
      </trkpt>
      <trkpt lat="45.63026" lon="4.66331">
        <ele>406</ele>
        <time>2017-02-18T09:40:44Z</time>
      </trkpt>
      <trkpt lat="45.63027" lon="4.66331">
        <ele>407</ele>
        <time>2017-02-18T09:41:12Z</time>
      </trkpt>
      <trkpt lat="45.63027" lon="4.66331">
        <ele>408</ele>
        <time>2017-02-18T09:41:14Z</time>
      </trkpt>
      <trkpt lat="45.63027" lon="4.66331">
        <ele>408</ele>
        <time>2017-02-18T09:41:42Z</time>
      </trkpt>
      <trkpt lat="45.63027" lon="4.66331">
        <ele>408</ele>
        <time>2017-02-18T09:41:44Z</time>
      </trkpt>
      <trkpt lat="45.63027" lon="4.66332">
        <ele>406</ele>
        <time>2017-02-18T09:47:42Z</time>
      </trkpt>
      <trkpt lat="45.63027" lon="4.66332">
        <ele>406</ele>
        <time>2017-02-18T09:47:44Z</time>
      </trkpt>
      <trkpt lat="45.63026" lon="4.66324">
        <ele>406</ele>
        <time>2017-02-18T09:47:53Z</time>
      </trkpt>
      <trkpt lat="45.63025" lon="4.66317">
        <ele>406</ele>
        <time>2017-02-18T09:47:56Z</time>
      </trkpt>
      <trkpt lat="45.63024" lon="4.66309">
        <ele>406</ele>
        <time>2017-02-18T09:47:59Z</time>
      </trkpt>
      <trkpt lat="45.63023" lon="4.66301">
        <ele>407</ele>
        <time>2017-02-18T09:48:02Z</time>
      </trkpt>
      <trkpt lat="45.63022" lon="4.66294">
        <ele>407</ele>
        <time>2017-02-18T09:48:05Z</time>
      </trkpt>
      <trkpt lat="45.63021" lon="4.66286">
        <ele>407</ele>
        <time>2017-02-18T09:48:08Z</time>
      </trkpt>
      <trkpt lat="45.6302" lon="4.66278">
        <ele>407</ele>
        <time>2017-02-18T09:48:11Z</time>
      </trkpt>
      <trkpt lat="45.63019" lon="4.66269">
        <ele>407</ele>
        <time>2017-02-18T09:48:14Z</time>
      </trkpt>
      <trkpt lat="45.63019" lon="4.66262">
        <ele>407</ele>
        <time>2017-02-18T09:48:17Z</time>
      </trkpt>
      <trkpt lat="45.63018" lon="4.66255">
        <ele>407</ele>
        <time>2017-02-18T09:48:20Z</time>
      </trkpt>
      <trkpt lat="45.63018" lon="4.66248">
        <ele>407</ele>
        <time>2017-02-18T09:48:23Z</time>
      </trkpt>
      <trkpt lat="45.63017" lon="4.6624">
        <ele>408</ele>
        <time>2017-02-18T09:48:26Z</time>
      </trkpt>
      <trkpt lat="45.63017" lon="4.66233">
        <ele>408</ele>
        <time>2017-02-18T09:48:29Z</time>
      </trkpt>
      <trkpt lat="45.63016" lon="4.66226">
        <ele>407</ele>
        <time>2017-02-18T09:48:32Z</time>
      </trkpt>
      <trkpt lat="45.63016" lon="4.66219">
        <ele>407</ele>
        <time>2017-02-18T09:48:35Z</time>
      </trkpt>
      <trkpt lat="45.63015" lon="4.66212">
        <ele>407</ele>
        <time>2017-02-18T09:48:38Z</time>
      </trkpt>
      <trkpt lat="45.63014" lon="4.66205">
        <ele>408</ele>
        <time>2017-02-18T09:48:41Z</time>
      </trkpt>
      <trkpt lat="45.63015" lon="4.66198">
        <ele>408</ele>
        <time>2017-02-18T09:48:44Z</time>
      </trkpt>
      <trkpt lat="45.63018" lon="4.66191">
        <ele>409</ele>
        <time>2017-02-18T09:48:47Z</time>
      </trkpt>
      <trkpt lat="45.63023" lon="4.66189">
        <ele>409</ele>
        <time>2017-02-18T09:48:50Z</time>
      </trkpt>
      <trkpt lat="45.63028" lon="4.66188">
        <ele>409</ele>
        <time>2017-02-18T09:48:53Z</time>
      </trkpt>
      <trkpt lat="45.63033" lon="4.66188">
        <ele>408</ele>
        <time>2017-02-18T09:48:56Z</time>
      </trkpt>
      <trkpt lat="45.63037" lon="4.66184">
        <ele>408</ele>
        <time>2017-02-18T09:48:59Z</time>
      </trkpt>
      <trkpt lat="45.63041" lon="4.66181">
        <ele>408</ele>
        <time>2017-02-18T09:49:02Z</time>
      </trkpt>
      <trkpt lat="45.63046" lon="4.66178">
        <ele>408</ele>
        <time>2017-02-18T09:49:06Z</time>
      </trkpt>
      <trkpt lat="45.6305" lon="4.66172">
        <ele>408</ele>
        <time>2017-02-18T09:49:10Z</time>
      </trkpt>
      <trkpt lat="45.63051" lon="4.66164">
        <ele>408</ele>
        <time>2017-02-18T09:49:14Z</time>
      </trkpt>
      <trkpt lat="45.63053" lon="4.66156">
        <ele>409</ele>
        <time>2017-02-18T09:49:18Z</time>
      </trkpt>
      <trkpt lat="45.63054" lon="4.66148">
        <ele>409</ele>
        <time>2017-02-18T09:49:22Z</time>
      </trkpt>
      <trkpt lat="45.63054" lon="4.6614">
        <ele>409</ele>
        <time>2017-02-18T09:49:26Z</time>
      </trkpt>
      <trkpt lat="45.63054" lon="4.66133">
        <ele>409</ele>
        <time>2017-02-18T09:49:30Z</time>
      </trkpt>
      <trkpt lat="45.63054" lon="4.66125">
        <ele>409</ele>
        <time>2017-02-18T09:49:34Z</time>
      </trkpt>
      <trkpt lat="45.63054" lon="4.66117">
        <ele>409</ele>
        <time>2017-02-18T09:49:38Z</time>
      </trkpt>
      <trkpt lat="45.63054" lon="4.66108">
        <ele>410</ele>
        <time>2017-02-18T09:49:42Z</time>
      </trkpt>
      <trkpt lat="45.63054" lon="4.66101">
        <ele>411</ele>
        <time>2017-02-18T09:49:46Z</time>
      </trkpt>
      <trkpt lat="45.63052" lon="4.66094">
        <ele>413</ele>
        <time>2017-02-18T09:49:50Z</time>
      </trkpt>
      <trkpt lat="45.63048" lon="4.66087">
        <ele>415</ele>
        <time>2017-02-18T09:49:54Z</time>
      </trkpt>
      <trkpt lat="45.63045" lon="4.66081">
        <ele>417</ele>
        <time>2017-02-18T09:49:57Z</time>
      </trkpt>
      <trkpt lat="45.63042" lon="4.66076">
        <ele>419</ele>
        <time>2017-02-18T09:50:00Z</time>
      </trkpt>
      <trkpt lat="45.63039" lon="4.66071">
        <ele>420</ele>
        <time>2017-02-18T09:50:03Z</time>
      </trkpt>
      <trkpt lat="45.63036" lon="4.66066">
        <ele>420</ele>
        <time>2017-02-18T09:50:06Z</time>
      </trkpt>
      <trkpt lat="45.63031" lon="4.66061">
        <ele>420</ele>
        <time>2017-02-18T09:50:10Z</time>
      </trkpt>
      <trkpt lat="45.63028" lon="4.66057">
        <ele>419</ele>
        <time>2017-02-18T09:50:13Z</time>
      </trkpt>
      <trkpt lat="45.63024" lon="4.66052">
        <ele>419</ele>
        <time>2017-02-18T09:50:16Z</time>
      </trkpt>
      <trkpt lat="45.63021" lon="4.66048">
        <ele>418</ele>
        <time>2017-02-18T09:50:19Z</time>
      </trkpt>
      <trkpt lat="45.63016" lon="4.66047">
        <ele>417</ele>
        <time>2017-02-18T09:50:22Z</time>
      </trkpt>
      <trkpt lat="45.63011" lon="4.66047">
        <ele>417</ele>
        <time>2017-02-18T09:50:25Z</time>
      </trkpt>
      <trkpt lat="45.63006" lon="4.66047">
        <ele>418</ele>
        <time>2017-02-18T09:50:28Z</time>
      </trkpt>
      <trkpt lat="45.63001" lon="4.66044">
        <ele>418</ele>
        <time>2017-02-18T09:50:32Z</time>
      </trkpt>
      <trkpt lat="45.62996" lon="4.66043">
        <ele>418</ele>
        <time>2017-02-18T09:50:36Z</time>
      </trkpt>
      <trkpt lat="45.62993" lon="4.66037">
        <ele>419</ele>
        <time>2017-02-18T09:50:41Z</time>
      </trkpt>
      <trkpt lat="45.62994" lon="4.66031">
        <ele>420</ele>
        <time>2017-02-18T09:50:44Z</time>
      </trkpt>
      <trkpt lat="45.62996" lon="4.66023">
        <ele>420</ele>
        <time>2017-02-18T09:50:48Z</time>
      </trkpt>
      <trkpt lat="45.62998" lon="4.66017">
        <ele>420</ele>
        <time>2017-02-18T09:50:51Z</time>
      </trkpt>
      <trkpt lat="45.63" lon="4.6601">
        <ele>420</ele>
        <time>2017-02-18T09:50:54Z</time>
      </trkpt>
      <trkpt lat="45.63001" lon="4.66001">
        <ele>419</ele>
        <time>2017-02-18T09:50:58Z</time>
      </trkpt>
      <trkpt lat="45.63003" lon="4.65995">
        <ele>419</ele>
        <time>2017-02-18T09:51:01Z</time>
      </trkpt>
      <trkpt lat="45.63005" lon="4.65987">
        <ele>419</ele>
        <time>2017-02-18T09:51:05Z</time>
      </trkpt>
      <trkpt lat="45.63006" lon="4.65981">
        <ele>419</ele>
        <time>2017-02-18T09:51:08Z</time>
      </trkpt>
      <trkpt lat="45.63007" lon="4.65974">
        <ele>419</ele>
        <time>2017-02-18T09:51:11Z</time>
      </trkpt>
      <trkpt lat="45.63008" lon="4.65967">
        <ele>420</ele>
        <time>2017-02-18T09:51:14Z</time>
      </trkpt>
      <trkpt lat="45.6301" lon="4.6596">
        <ele>420</ele>
        <time>2017-02-18T09:51:17Z</time>
      </trkpt>
      <trkpt lat="45.63011" lon="4.65952">
        <ele>420</ele>
        <time>2017-02-18T09:51:21Z</time>
      </trkpt>
      <trkpt lat="45.63013" lon="4.65945">
        <ele>419</ele>
        <time>2017-02-18T09:51:25Z</time>
      </trkpt>
      <trkpt lat="45.63013" lon="4.65938">
        <ele>419</ele>
        <time>2017-02-18T09:51:29Z</time>
      </trkpt>
      <trkpt lat="45.63014" lon="4.6593">
        <ele>418</ele>
        <time>2017-02-18T09:51:34Z</time>
      </trkpt>
      <trkpt lat="45.63018" lon="4.65926">
        <ele>417</ele>
        <time>2017-02-18T09:51:38Z</time>
      </trkpt>
      <trkpt lat="45.63023" lon="4.65928">
        <ele>417</ele>
        <time>2017-02-18T09:51:40Z</time>
      </trkpt>
      <trkpt lat="45.63029" lon="4.65932">
        <ele>417</ele>
        <time>2017-02-18T09:51:42Z</time>
      </trkpt>
      <trkpt lat="45.63035" lon="4.65937">
        <ele>416</ele>
        <time>2017-02-18T09:51:44Z</time>
      </trkpt>
      <trkpt lat="45.6304" lon="4.65941">
        <ele>416</ele>
        <time>2017-02-18T09:51:46Z</time>
      </trkpt>
      <trkpt lat="45.63045" lon="4.65944">
        <ele>416</ele>
        <time>2017-02-18T09:51:48Z</time>
      </trkpt>
      <trkpt lat="45.6305" lon="4.65947">
        <ele>416</ele>
        <time>2017-02-18T09:51:50Z</time>
      </trkpt>
      <trkpt lat="45.63055" lon="4.6595">
        <ele>416</ele>
        <time>2017-02-18T09:51:52Z</time>
      </trkpt>
      <trkpt lat="45.63059" lon="4.65953">
        <ele>416</ele>
        <time>2017-02-18T09:51:54Z</time>
      </trkpt>
      <trkpt lat="45.63064" lon="4.65957">
        <ele>416</ele>
        <time>2017-02-18T09:51:56Z</time>
      </trkpt>
      <trkpt lat="45.63069" lon="4.65959">
        <ele>416</ele>
        <time>2017-02-18T09:51:58Z</time>
      </trkpt>
      <trkpt lat="45.63074" lon="4.65962">
        <ele>416</ele>
        <time>2017-02-18T09:52:00Z</time>
      </trkpt>
      <trkpt lat="45.63079" lon="4.65964">
        <ele>416</ele>
        <time>2017-02-18T09:52:02Z</time>
      </trkpt>
      <trkpt lat="45.63083" lon="4.65967">
        <ele>416</ele>
        <time>2017-02-18T09:52:04Z</time>
      </trkpt>
      <trkpt lat="45.63087" lon="4.6597">
        <ele>417</ele>
        <time>2017-02-18T09:52:06Z</time>
      </trkpt>
      <trkpt lat="45.63091" lon="4.65973">
        <ele>417</ele>
        <time>2017-02-18T09:52:08Z</time>
      </trkpt>
      <trkpt lat="45.63097" lon="4.65976">
        <ele>417</ele>
        <time>2017-02-18T09:52:11Z</time>
      </trkpt>
      <trkpt lat="45.63103" lon="4.65979">
        <ele>417</ele>
        <time>2017-02-18T09:52:14Z</time>
      </trkpt>
      <trkpt lat="45.63109" lon="4.65982">
        <ele>418</ele>
        <time>2017-02-18T09:52:17Z</time>
      </trkpt>
      <trkpt lat="45.63114" lon="4.65986">
        <ele>418</ele>
        <time>2017-02-18T09:52:20Z</time>
      </trkpt>
      <trkpt lat="45.63118" lon="4.65989">
        <ele>419</ele>
        <time>2017-02-18T09:52:23Z</time>
      </trkpt>
      <trkpt lat="45.63123" lon="4.65992">
        <ele>419</ele>
        <time>2017-02-18T09:52:26Z</time>
      </trkpt>
      <trkpt lat="45.63127" lon="4.65996">
        <ele>420</ele>
        <time>2017-02-18T09:52:29Z</time>
      </trkpt>
      <trkpt lat="45.63132" lon="4.66">
        <ele>420</ele>
        <time>2017-02-18T09:52:33Z</time>
      </trkpt>
      <trkpt lat="45.63137" lon="4.66002">
        <ele>420</ele>
        <time>2017-02-18T09:52:37Z</time>
      </trkpt>
      <trkpt lat="45.63143" lon="4.66003">
        <ele>420</ele>
        <time>2017-02-18T09:52:41Z</time>
      </trkpt>
      <trkpt lat="45.63147" lon="4.66001">
        <ele>420</ele>
        <time>2017-02-18T09:52:45Z</time>
      </trkpt>
      <trkpt lat="45.63144" lon="4.66003">
        <ele>420</ele>
        <time>2017-02-18T09:53:12Z</time>
      </trkpt>
      <trkpt lat="45.63144" lon="4.66003">
        <ele>420</ele>
        <time>2017-02-18T09:53:14Z</time>
      </trkpt>
      <trkpt lat="45.63148" lon="4.65997">
        <ele>421</ele>
        <time>2017-02-18T09:53:40Z</time>
      </trkpt>
      <trkpt lat="45.6315" lon="4.65991">
        <ele>422</ele>
        <time>2017-02-18T09:53:42Z</time>
      </trkpt>
      <trkpt lat="45.63154" lon="4.65986">
        <ele>423</ele>
        <time>2017-02-18T09:53:44Z</time>
      </trkpt>
      <trkpt lat="45.63156" lon="4.65981">
        <ele>424</ele>
        <time>2017-02-18T09:53:46Z</time>
      </trkpt>
      <trkpt lat="45.63158" lon="4.65975">
        <ele>425</ele>
        <time>2017-02-18T09:53:48Z</time>
      </trkpt>
      <trkpt lat="45.63162" lon="4.65967">
        <ele>426</ele>
        <time>2017-02-18T09:53:51Z</time>
      </trkpt>
      <trkpt lat="45.63165" lon="4.65962">
        <ele>426</ele>
        <time>2017-02-18T09:53:53Z</time>
      </trkpt>
      <trkpt lat="45.63168" lon="4.65957">
        <ele>426</ele>
        <time>2017-02-18T09:53:55Z</time>
      </trkpt>
      <trkpt lat="45.63171" lon="4.65951">
        <ele>426</ele>
        <time>2017-02-18T09:53:57Z</time>
      </trkpt>
      <trkpt lat="45.63174" lon="4.65946">
        <ele>426</ele>
        <time>2017-02-18T09:53:59Z</time>
      </trkpt>
      <trkpt lat="45.63178" lon="4.6594">
        <ele>426</ele>
        <time>2017-02-18T09:54:01Z</time>
      </trkpt>
      <trkpt lat="45.63181" lon="4.65935">
        <ele>426</ele>
        <time>2017-02-18T09:54:03Z</time>
      </trkpt>
      <trkpt lat="45.63184" lon="4.65929">
        <ele>427</ele>
        <time>2017-02-18T09:54:05Z</time>
      </trkpt>
      <trkpt lat="45.63187" lon="4.65924">
        <ele>427</ele>
        <time>2017-02-18T09:54:07Z</time>
      </trkpt>
      <trkpt lat="45.6319" lon="4.65918">
        <ele>427</ele>
        <time>2017-02-18T09:54:09Z</time>
      </trkpt>
      <trkpt lat="45.63193" lon="4.65913">
        <ele>428</ele>
        <time>2017-02-18T09:54:11Z</time>
      </trkpt>
      <trkpt lat="45.63197" lon="4.65908">
        <ele>428</ele>
        <time>2017-02-18T09:54:13Z</time>
      </trkpt>
      <trkpt lat="45.63201" lon="4.65906">
        <ele>428</ele>
        <time>2017-02-18T09:54:15Z</time>
      </trkpt>
      <trkpt lat="45.63206" lon="4.65906">
        <ele>428</ele>
        <time>2017-02-18T09:54:17Z</time>
      </trkpt>
      <trkpt lat="45.6321" lon="4.65912">
        <ele>428</ele>
        <time>2017-02-18T09:54:19Z</time>
      </trkpt>
      <trkpt lat="45.63214" lon="4.65915">
        <ele>428</ele>
        <time>2017-02-18T09:54:21Z</time>
      </trkpt>
      <trkpt lat="45.63218" lon="4.65919">
        <ele>429</ele>
        <time>2017-02-18T09:54:23Z</time>
      </trkpt>
      <trkpt lat="45.63223" lon="4.65925">
        <ele>428</ele>
        <time>2017-02-18T09:54:26Z</time>
      </trkpt>
      <trkpt lat="45.63227" lon="4.65929">
        <ele>428</ele>
        <time>2017-02-18T09:54:28Z</time>
      </trkpt>
      <trkpt lat="45.63231" lon="4.65933">
        <ele>428</ele>
        <time>2017-02-18T09:54:30Z</time>
      </trkpt>
      <trkpt lat="45.63235" lon="4.65937">
        <ele>428</ele>
        <time>2017-02-18T09:54:32Z</time>
      </trkpt>
      <trkpt lat="45.63239" lon="4.6594">
        <ele>428</ele>
        <time>2017-02-18T09:54:34Z</time>
      </trkpt>
      <trkpt lat="45.63244" lon="4.65945">
        <ele>428</ele>
        <time>2017-02-18T09:54:37Z</time>
      </trkpt>
      <trkpt lat="45.63248" lon="4.65949">
        <ele>429</ele>
        <time>2017-02-18T09:54:40Z</time>
      </trkpt>
      <trkpt lat="45.63253" lon="4.65953">
        <ele>429</ele>
        <time>2017-02-18T09:54:44Z</time>
      </trkpt>
      <trkpt lat="45.63257" lon="4.65958">
        <ele>429</ele>
        <time>2017-02-18T09:54:49Z</time>
      </trkpt>
      <trkpt lat="45.63262" lon="4.65961">
        <ele>430</ele>
        <time>2017-02-18T09:54:53Z</time>
      </trkpt>
      <trkpt lat="45.63265" lon="4.65966">
        <ele>430</ele>
        <time>2017-02-18T09:54:57Z</time>
      </trkpt>
      <trkpt lat="45.63269" lon="4.65971">
        <ele>430</ele>
        <time>2017-02-18T09:55:01Z</time>
      </trkpt>
      <trkpt lat="45.63274" lon="4.65975">
        <ele>430</ele>
        <time>2017-02-18T09:55:05Z</time>
      </trkpt>
      <trkpt lat="45.63278" lon="4.6598">
        <ele>430</ele>
        <time>2017-02-18T09:55:08Z</time>
      </trkpt>
      <trkpt lat="45.63282" lon="4.65984">
        <ele>430</ele>
        <time>2017-02-18T09:55:11Z</time>
      </trkpt>
      <trkpt lat="45.63286" lon="4.65988">
        <ele>430</ele>
        <time>2017-02-18T09:55:14Z</time>
      </trkpt>
      <trkpt lat="45.6329" lon="4.65992">
        <ele>430</ele>
        <time>2017-02-18T09:55:17Z</time>
      </trkpt>
      <trkpt lat="45.63293" lon="4.65996">
        <ele>430</ele>
        <time>2017-02-18T09:55:20Z</time>
      </trkpt>
      <trkpt lat="45.63297" lon="4.66002">
        <ele>430</ele>
        <time>2017-02-18T09:55:24Z</time>
      </trkpt>
      <trkpt lat="45.63302" lon="4.65999">
        <ele>431</ele>
        <time>2017-02-18T09:55:36Z</time>
      </trkpt>
      <trkpt lat="45.63308" lon="4.65998">
        <ele>432</ele>
        <time>2017-02-18T09:55:40Z</time>
      </trkpt>
      <trkpt lat="45.63313" lon="4.65998">
        <ele>432</ele>
        <time>2017-02-18T09:55:44Z</time>
      </trkpt>
      <trkpt lat="45.63319" lon="4.65998">
        <ele>433</ele>
        <time>2017-02-18T09:55:48Z</time>
      </trkpt>
      <trkpt lat="45.63324" lon="4.65998">
        <ele>433</ele>
        <time>2017-02-18T09:55:52Z</time>
      </trkpt>
      <trkpt lat="45.6333" lon="4.65998">
        <ele>434</ele>
        <time>2017-02-18T09:55:56Z</time>
      </trkpt>
      <trkpt lat="45.63335" lon="4.65997">
        <ele>434</ele>
        <time>2017-02-18T09:56:00Z</time>
      </trkpt>
      <trkpt lat="45.63341" lon="4.65998">
        <ele>435</ele>
        <time>2017-02-18T09:56:04Z</time>
      </trkpt>
      <trkpt lat="45.63345" lon="4.65998">
        <ele>435</ele>
        <time>2017-02-18T09:56:08Z</time>
      </trkpt>
      <trkpt lat="45.63351" lon="4.65997">
        <ele>436</ele>
        <time>2017-02-18T09:56:13Z</time>
      </trkpt>
      <trkpt lat="45.63353" lon="4.65998">
        <ele>436</ele>
        <time>2017-02-18T09:56:42Z</time>
      </trkpt>
      <trkpt lat="45.63353" lon="4.65998">
        <ele>436</ele>
        <time>2017-02-18T09:56:44Z</time>
      </trkpt>
      <trkpt lat="45.63358" lon="4.66">
        <ele>436</ele>
        <time>2017-02-18T09:56:58Z</time>
      </trkpt>
      <trkpt lat="45.63363" lon="4.66001">
        <ele>436</ele>
        <time>2017-02-18T09:57:00Z</time>
      </trkpt>
      <trkpt lat="45.63369" lon="4.66005">
        <ele>437</ele>
        <time>2017-02-18T09:57:03Z</time>
      </trkpt>
      <trkpt lat="45.63374" lon="4.66009">
        <ele>437</ele>
        <time>2017-02-18T09:57:06Z</time>
      </trkpt>
      <trkpt lat="45.63378" lon="4.66014">
        <ele>437</ele>
        <time>2017-02-18T09:57:09Z</time>
      </trkpt>
      <trkpt lat="45.63382" lon="4.66018">
        <ele>438</ele>
        <time>2017-02-18T09:57:12Z</time>
      </trkpt>
      <trkpt lat="45.63387" lon="4.66023">
        <ele>439</ele>
        <time>2017-02-18T09:57:15Z</time>
      </trkpt>
      <trkpt lat="45.63391" lon="4.66027">
        <ele>439</ele>
        <time>2017-02-18T09:57:18Z</time>
      </trkpt>
      <trkpt lat="45.63395" lon="4.66032">
        <ele>439</ele>
        <time>2017-02-18T09:57:21Z</time>
      </trkpt>
      <trkpt lat="45.634" lon="4.66035">
        <ele>440</ele>
        <time>2017-02-18T09:57:24Z</time>
      </trkpt>
      <trkpt lat="45.63404" lon="4.66038">
        <ele>440</ele>
        <time>2017-02-18T09:57:27Z</time>
      </trkpt>
      <trkpt lat="45.63408" lon="4.66041">
        <ele>441</ele>
        <time>2017-02-18T09:57:30Z</time>
      </trkpt>
      <trkpt lat="45.63412" lon="4.66045">
        <ele>441</ele>
        <time>2017-02-18T09:57:33Z</time>
      </trkpt>
      <trkpt lat="45.63417" lon="4.6605">
        <ele>441</ele>
        <time>2017-02-18T09:57:37Z</time>
      </trkpt>
      <trkpt lat="45.63421" lon="4.66054">
        <ele>442</ele>
        <time>2017-02-18T09:57:40Z</time>
      </trkpt>
      <trkpt lat="45.63424" lon="4.66057">
        <ele>442</ele>
        <time>2017-02-18T09:57:43Z</time>
      </trkpt>
      <trkpt lat="45.63428" lon="4.66062">
        <ele>442</ele>
        <time>2017-02-18T09:57:46Z</time>
      </trkpt>
      <trkpt lat="45.63431" lon="4.66066">
        <ele>442</ele>
        <time>2017-02-18T09:57:49Z</time>
      </trkpt>
      <trkpt lat="45.63435" lon="4.66069">
        <ele>442</ele>
        <time>2017-02-18T09:57:52Z</time>
      </trkpt>
      <trkpt lat="45.6344" lon="4.66072">
        <ele>441</ele>
        <time>2017-02-18T09:57:55Z</time>
      </trkpt>
      <trkpt lat="45.63444" lon="4.66076">
        <ele>441</ele>
        <time>2017-02-18T09:57:58Z</time>
      </trkpt>
      <trkpt lat="45.63448" lon="4.6608">
        <ele>441</ele>
        <time>2017-02-18T09:58:01Z</time>
      </trkpt>
      <trkpt lat="45.63452" lon="4.66084">
        <ele>441</ele>
        <time>2017-02-18T09:58:04Z</time>
      </trkpt>
      <trkpt lat="45.63456" lon="4.66089">
        <ele>442</ele>
        <time>2017-02-18T09:58:07Z</time>
      </trkpt>
      <trkpt lat="45.63459" lon="4.66093">
        <ele>442</ele>
        <time>2017-02-18T09:58:10Z</time>
      </trkpt>
      <trkpt lat="45.63463" lon="4.66097">
        <ele>442</ele>
        <time>2017-02-18T09:58:13Z</time>
      </trkpt>
      <trkpt lat="45.63466" lon="4.66102">
        <ele>442</ele>
        <time>2017-02-18T09:58:16Z</time>
      </trkpt>
      <trkpt lat="45.63469" lon="4.66107">
        <ele>442</ele>
        <time>2017-02-18T09:58:19Z</time>
      </trkpt>
      <trkpt lat="45.63473" lon="4.66112">
        <ele>442</ele>
        <time>2017-02-18T09:58:22Z</time>
      </trkpt>
      <trkpt lat="45.63477" lon="4.66117">
        <ele>442</ele>
        <time>2017-02-18T09:58:25Z</time>
      </trkpt>
      <trkpt lat="45.63481" lon="4.66121">
        <ele>442</ele>
        <time>2017-02-18T09:58:28Z</time>
      </trkpt>
      <trkpt lat="45.63485" lon="4.66126">
        <ele>441</ele>
        <time>2017-02-18T09:58:31Z</time>
      </trkpt>
      <trkpt lat="45.63489" lon="4.66131">
        <ele>441</ele>
        <time>2017-02-18T09:58:34Z</time>
      </trkpt>
      <trkpt lat="45.63492" lon="4.66137">
        <ele>441</ele>
        <time>2017-02-18T09:58:37Z</time>
      </trkpt>
      <trkpt lat="45.63495" lon="4.66143">
        <ele>441</ele>
        <time>2017-02-18T09:58:40Z</time>
      </trkpt>
      <trkpt lat="45.63496" lon="4.66144">
        <ele>441</ele>
        <time>2017-02-18T09:58:57Z</time>
      </trkpt>
      <trkpt lat="45.63496" lon="4.66144">
        <ele>442</ele>
        <time>2017-02-18T09:58:59Z</time>
      </trkpt>
      <trkpt lat="45.63496" lon="4.66144">
        <ele>442</ele>
        <time>2017-02-18T09:59:27Z</time>
      </trkpt>
      <trkpt lat="45.63496" lon="4.66144">
        <ele>442</ele>
        <time>2017-02-18T09:59:29Z</time>
      </trkpt>
      <trkpt lat="45.635" lon="4.66138">
        <ele>442</ele>
        <time>2017-02-18T09:59:34Z</time>
      </trkpt>
      <trkpt lat="45.63504" lon="4.66131">
        <ele>443</ele>
        <time>2017-02-18T09:59:37Z</time>
      </trkpt>
      <trkpt lat="45.63509" lon="4.66124">
        <ele>443</ele>
        <time>2017-02-18T09:59:40Z</time>
      </trkpt>
      <trkpt lat="45.63513" lon="4.66117">
        <ele>444</ele>
        <time>2017-02-18T09:59:43Z</time>
      </trkpt>
      <trkpt lat="45.63517" lon="4.6611">
        <ele>444</ele>
        <time>2017-02-18T09:59:46Z</time>
      </trkpt>
      <trkpt lat="45.6352" lon="4.66105">
        <ele>444</ele>
        <time>2017-02-18T09:59:48Z</time>
      </trkpt>
      <trkpt lat="45.63524" lon="4.661">
        <ele>444</ele>
        <time>2017-02-18T09:59:50Z</time>
      </trkpt>
      <trkpt lat="45.63528" lon="4.66095">
        <ele>444</ele>
        <time>2017-02-18T09:59:52Z</time>
      </trkpt>
      <trkpt lat="45.63532" lon="4.66091">
        <ele>444</ele>
        <time>2017-02-18T09:59:54Z</time>
      </trkpt>
      <trkpt lat="45.63537" lon="4.66087">
        <ele>445</ele>
        <time>2017-02-18T09:59:56Z</time>
      </trkpt>
      <trkpt lat="45.6354" lon="4.66082">
        <ele>445</ele>
        <time>2017-02-18T09:59:58Z</time>
      </trkpt>
      <trkpt lat="45.63543" lon="4.66076">
        <ele>445</ele>
        <time>2017-02-18T10:00:00Z</time>
      </trkpt>
      <trkpt lat="45.63544" lon="4.66069">
        <ele>445</ele>
        <time>2017-02-18T10:00:02Z</time>
      </trkpt>
      <trkpt lat="45.63543" lon="4.6606">
        <ele>445</ele>
        <time>2017-02-18T10:00:05Z</time>
      </trkpt>
      <trkpt lat="45.63542" lon="4.66052">
        <ele>445</ele>
        <time>2017-02-18T10:00:08Z</time>
      </trkpt>
      <trkpt lat="45.63538" lon="4.66044">
        <ele>445</ele>
        <time>2017-02-18T10:00:11Z</time>
      </trkpt>
      <trkpt lat="45.63535" lon="4.66039">
        <ele>445</ele>
        <time>2017-02-18T10:00:13Z</time>
      </trkpt>
      <trkpt lat="45.63533" lon="4.66033">
        <ele>444</ele>
        <time>2017-02-18T10:00:15Z</time>
      </trkpt>
      <trkpt lat="45.6353" lon="4.66027">
        <ele>444</ele>
        <time>2017-02-18T10:00:17Z</time>
      </trkpt>
      <trkpt lat="45.63528" lon="4.6602">
        <ele>444</ele>
        <time>2017-02-18T10:00:19Z</time>
      </trkpt>
      <trkpt lat="45.63525" lon="4.66013">
        <ele>445</ele>
        <time>2017-02-18T10:00:21Z</time>
      </trkpt>
      <trkpt lat="45.63522" lon="4.66007">
        <ele>445</ele>
        <time>2017-02-18T10:00:23Z</time>
      </trkpt>
      <trkpt lat="45.63519" lon="4.66">
        <ele>445</ele>
        <time>2017-02-18T10:00:25Z</time>
      </trkpt>
      <trkpt lat="45.63516" lon="4.65994">
        <ele>445</ele>
        <time>2017-02-18T10:00:27Z</time>
      </trkpt>
      <trkpt lat="45.63514" lon="4.65987">
        <ele>445</ele>
        <time>2017-02-18T10:00:29Z</time>
      </trkpt>
      <trkpt lat="45.63511" lon="4.65981">
        <ele>445</ele>
        <time>2017-02-18T10:00:31Z</time>
      </trkpt>
      <trkpt lat="45.63508" lon="4.65975">
        <ele>445</ele>
        <time>2017-02-18T10:00:33Z</time>
      </trkpt>
      <trkpt lat="45.63506" lon="4.65969">
        <ele>445</ele>
        <time>2017-02-18T10:00:35Z</time>
      </trkpt>
      <trkpt lat="45.63503" lon="4.65964">
        <ele>445</ele>
        <time>2017-02-18T10:00:37Z</time>
      </trkpt>
      <trkpt lat="45.63501" lon="4.65958">
        <ele>445</ele>
        <time>2017-02-18T10:00:39Z</time>
      </trkpt>
      <trkpt lat="45.63498" lon="4.65951">
        <ele>445</ele>
        <time>2017-02-18T10:00:41Z</time>
      </trkpt>
      <trkpt lat="45.63496" lon="4.65945">
        <ele>445</ele>
        <time>2017-02-18T10:00:43Z</time>
      </trkpt>
      <trkpt lat="45.63493" lon="4.65939">
        <ele>445</ele>
        <time>2017-02-18T10:00:45Z</time>
      </trkpt>
      <trkpt lat="45.63491" lon="4.65931">
        <ele>444</ele>
        <time>2017-02-18T10:00:48Z</time>
      </trkpt>
      <trkpt lat="45.63488" lon="4.65926">
        <ele>444</ele>
        <time>2017-02-18T10:00:50Z</time>
      </trkpt>
      <trkpt lat="45.63484" lon="4.65919">
        <ele>444</ele>
        <time>2017-02-18T10:00:53Z</time>
      </trkpt>
      <trkpt lat="45.63482" lon="4.6591">
        <ele>444</ele>
        <time>2017-02-18T10:00:56Z</time>
      </trkpt>
      <trkpt lat="45.63482" lon="4.65904">
        <ele>443</ele>
        <time>2017-02-18T10:00:58Z</time>
      </trkpt>
      <trkpt lat="45.63484" lon="4.65895">
        <ele>443</ele>
        <time>2017-02-18T10:01:01Z</time>
      </trkpt>
      <trkpt lat="45.63485" lon="4.65886">
        <ele>443</ele>
        <time>2017-02-18T10:01:04Z</time>
      </trkpt>
      <trkpt lat="45.63486" lon="4.65877">
        <ele>444</ele>
        <time>2017-02-18T10:01:07Z</time>
      </trkpt>
      <trkpt lat="45.63487" lon="4.6587">
        <ele>444</ele>
        <time>2017-02-18T10:01:09Z</time>
      </trkpt>
      <trkpt lat="45.63488" lon="4.65864">
        <ele>444</ele>
        <time>2017-02-18T10:01:11Z</time>
      </trkpt>
      <trkpt lat="45.63488" lon="4.65855">
        <ele>444</ele>
        <time>2017-02-18T10:01:14Z</time>
      </trkpt>
      <trkpt lat="45.63488" lon="4.65847">
        <ele>444</ele>
        <time>2017-02-18T10:01:17Z</time>
      </trkpt>
      <trkpt lat="45.6349" lon="4.65841">
        <ele>445</ele>
        <time>2017-02-18T10:01:20Z</time>
      </trkpt>
      <trkpt lat="45.63491" lon="4.65834">
        <ele>445</ele>
        <time>2017-02-18T10:01:25Z</time>
      </trkpt>
      <trkpt lat="45.63493" lon="4.65828">
        <ele>445</ele>
        <time>2017-02-18T10:01:29Z</time>
      </trkpt>
      <trkpt lat="45.63495" lon="4.65821">
        <ele>445</ele>
        <time>2017-02-18T10:01:33Z</time>
      </trkpt>
      <trkpt lat="45.63496" lon="4.65814">
        <ele>445</ele>
        <time>2017-02-18T10:01:37Z</time>
      </trkpt>
      <trkpt lat="45.63499" lon="4.65807">
        <ele>445</ele>
        <time>2017-02-18T10:01:41Z</time>
      </trkpt>
      <trkpt lat="45.635" lon="4.658">
        <ele>445</ele>
        <time>2017-02-18T10:01:45Z</time>
      </trkpt>
      <trkpt lat="45.63502" lon="4.65792">
        <ele>446</ele>
        <time>2017-02-18T10:01:49Z</time>
      </trkpt>
      <trkpt lat="45.63503" lon="4.65786">
        <ele>446</ele>
        <time>2017-02-18T10:01:52Z</time>
      </trkpt>
      <trkpt lat="45.63504" lon="4.65779">
        <ele>447</ele>
        <time>2017-02-18T10:01:55Z</time>
      </trkpt>
      <trkpt lat="45.63506" lon="4.65772">
        <ele>447</ele>
        <time>2017-02-18T10:01:58Z</time>
      </trkpt>
      <trkpt lat="45.63508" lon="4.65765">
        <ele>447</ele>
        <time>2017-02-18T10:02:01Z</time>
      </trkpt>
      <trkpt lat="45.6351" lon="4.65759">
        <ele>448</ele>
        <time>2017-02-18T10:02:04Z</time>
      </trkpt>
      <trkpt lat="45.63512" lon="4.65752">
        <ele>448</ele>
        <time>2017-02-18T10:02:07Z</time>
      </trkpt>
      <trkpt lat="45.63514" lon="4.65744">
        <ele>447</ele>
        <time>2017-02-18T10:02:10Z</time>
      </trkpt>
      <trkpt lat="45.63517" lon="4.65736">
        <ele>448</ele>
        <time>2017-02-18T10:02:13Z</time>
      </trkpt>
      <trkpt lat="45.63519" lon="4.65729">
        <ele>448</ele>
        <time>2017-02-18T10:02:16Z</time>
      </trkpt>
      <trkpt lat="45.63522" lon="4.65721">
        <ele>449</ele>
        <time>2017-02-18T10:02:19Z</time>
      </trkpt>
      <trkpt lat="45.63524" lon="4.65712">
        <ele>449</ele>
        <time>2017-02-18T10:02:22Z</time>
      </trkpt>
      <trkpt lat="45.63526" lon="4.65703">
        <ele>449</ele>
        <time>2017-02-18T10:02:25Z</time>
      </trkpt>
      <trkpt lat="45.63528" lon="4.65697">
        <ele>449</ele>
        <time>2017-02-18T10:02:27Z</time>
      </trkpt>
      <trkpt lat="45.6353" lon="4.65691">
        <ele>448</ele>
        <time>2017-02-18T10:02:29Z</time>
      </trkpt>
      <trkpt lat="45.63532" lon="4.65685">
        <ele>448</ele>
        <time>2017-02-18T10:02:31Z</time>
      </trkpt>
      <trkpt lat="45.63533" lon="4.65679">
        <ele>448</ele>
        <time>2017-02-18T10:02:33Z</time>
      </trkpt>
      <trkpt lat="45.63536" lon="4.6567">
        <ele>447</ele>
        <time>2017-02-18T10:02:36Z</time>
      </trkpt>
      <trkpt lat="45.63538" lon="4.65663">
        <ele>447</ele>
        <time>2017-02-18T10:02:38Z</time>
      </trkpt>
      <trkpt lat="45.6354" lon="4.65656">
        <ele>446</ele>
        <time>2017-02-18T10:02:40Z</time>
      </trkpt>
      <trkpt lat="45.63542" lon="4.6565">
        <ele>446</ele>
        <time>2017-02-18T10:02:42Z</time>
      </trkpt>
      <trkpt lat="45.63544" lon="4.65643">
        <ele>445</ele>
        <time>2017-02-18T10:02:44Z</time>
      </trkpt>
      <trkpt lat="45.63546" lon="4.65635">
        <ele>445</ele>
        <time>2017-02-18T10:02:46Z</time>
      </trkpt>
      <trkpt lat="45.63549" lon="4.65626">
        <ele>444</ele>
        <time>2017-02-18T10:02:48Z</time>
      </trkpt>
      <trkpt lat="45.63552" lon="4.65618">
        <ele>444</ele>
        <time>2017-02-18T10:02:50Z</time>
      </trkpt>
      <trkpt lat="45.63554" lon="4.6561">
        <ele>443</ele>
        <time>2017-02-18T10:02:52Z</time>
      </trkpt>
      <trkpt lat="45.63556" lon="4.65602">
        <ele>443</ele>
        <time>2017-02-18T10:02:54Z</time>
      </trkpt>
      <trkpt lat="45.63558" lon="4.65595">
        <ele>442</ele>
        <time>2017-02-18T10:02:56Z</time>
      </trkpt>
      <trkpt lat="45.6356" lon="4.65588">
        <ele>441</ele>
        <time>2017-02-18T10:02:58Z</time>
      </trkpt>
      <trkpt lat="45.63561" lon="4.65581">
        <ele>441</ele>
        <time>2017-02-18T10:03:00Z</time>
      </trkpt>
      <trkpt lat="45.63563" lon="4.65575">
        <ele>441</ele>
        <time>2017-02-18T10:03:02Z</time>
      </trkpt>
      <trkpt lat="45.63568" lon="4.65575">
        <ele>440</ele>
        <time>2017-02-18T10:03:04Z</time>
      </trkpt>
      <trkpt lat="45.63573" lon="4.65579">
        <ele>440</ele>
        <time>2017-02-18T10:03:06Z</time>
      </trkpt>
      <trkpt lat="45.63578" lon="4.65582">
        <ele>440</ele>
        <time>2017-02-18T10:03:08Z</time>
      </trkpt>
      <trkpt lat="45.63583" lon="4.65586">
        <ele>440</ele>
        <time>2017-02-18T10:03:10Z</time>
      </trkpt>
      <trkpt lat="45.63587" lon="4.65588">
        <ele>441</ele>
        <time>2017-02-18T10:03:12Z</time>
      </trkpt>
      <trkpt lat="45.63592" lon="4.65591">
        <ele>441</ele>
        <time>2017-02-18T10:03:14Z</time>
      </trkpt>
      <trkpt lat="45.63596" lon="4.65594">
        <ele>441</ele>
        <time>2017-02-18T10:03:16Z</time>
      </trkpt>
      <trkpt lat="45.63601" lon="4.65596">
        <ele>441</ele>
        <time>2017-02-18T10:03:18Z</time>
      </trkpt>
      <trkpt lat="45.63606" lon="4.65598">
        <ele>441</ele>
        <time>2017-02-18T10:03:20Z</time>
      </trkpt>
      <trkpt lat="45.6361" lon="4.656">
        <ele>441</ele>
        <time>2017-02-18T10:03:22Z</time>
      </trkpt>
      <trkpt lat="45.63615" lon="4.65602">
        <ele>441</ele>
        <time>2017-02-18T10:03:24Z</time>
      </trkpt>
      <trkpt lat="45.63621" lon="4.65605">
        <ele>441</ele>
        <time>2017-02-18T10:03:27Z</time>
      </trkpt>
      <trkpt lat="45.63626" lon="4.65607">
        <ele>442</ele>
        <time>2017-02-18T10:03:29Z</time>
      </trkpt>
      <trkpt lat="45.6363" lon="4.65609">
        <ele>443</ele>
        <time>2017-02-18T10:03:31Z</time>
      </trkpt>
      <trkpt lat="45.63635" lon="4.6561">
        <ele>444</ele>
        <time>2017-02-18T10:03:33Z</time>
      </trkpt>
      <trkpt lat="45.6364" lon="4.65611">
        <ele>445</ele>
        <time>2017-02-18T10:03:35Z</time>
      </trkpt>
      <trkpt lat="45.63644" lon="4.65613">
        <ele>446</ele>
        <time>2017-02-18T10:03:37Z</time>
      </trkpt>
      <trkpt lat="45.63649" lon="4.65614">
        <ele>446</ele>
        <time>2017-02-18T10:03:39Z</time>
      </trkpt>
      <trkpt lat="45.63656" lon="4.65617">
        <ele>446</ele>
        <time>2017-02-18T10:03:42Z</time>
      </trkpt>
      <trkpt lat="45.63662" lon="4.65618">
        <ele>446</ele>
        <time>2017-02-18T10:03:45Z</time>
      </trkpt>
      <trkpt lat="45.63668" lon="4.65619">
        <ele>446</ele>
        <time>2017-02-18T10:03:48Z</time>
      </trkpt>
      <trkpt lat="45.63674" lon="4.6562">
        <ele>445</ele>
        <time>2017-02-18T10:03:51Z</time>
      </trkpt>
      <trkpt lat="45.6368" lon="4.65621">
        <ele>445</ele>
        <time>2017-02-18T10:03:54Z</time>
      </trkpt>
      <trkpt lat="45.63686" lon="4.65623">
        <ele>445</ele>
        <time>2017-02-18T10:03:57Z</time>
      </trkpt>
      <trkpt lat="45.63691" lon="4.65624">
        <ele>445</ele>
        <time>2017-02-18T10:04:00Z</time>
      </trkpt>
      <trkpt lat="45.63696" lon="4.65625">
        <ele>445</ele>
        <time>2017-02-18T10:04:03Z</time>
      </trkpt>
      <trkpt lat="45.63701" lon="4.65626">
        <ele>446</ele>
        <time>2017-02-18T10:04:06Z</time>
      </trkpt>
      <trkpt lat="45.63706" lon="4.65627">
        <ele>447</ele>
        <time>2017-02-18T10:04:10Z</time>
      </trkpt>
      <trkpt lat="45.63711" lon="4.65627">
        <ele>447</ele>
        <time>2017-02-18T10:04:13Z</time>
      </trkpt>
      <trkpt lat="45.63715" lon="4.65628">
        <ele>447</ele>
        <time>2017-02-18T10:04:16Z</time>
      </trkpt>
      <trkpt lat="45.63719" lon="4.65632">
        <ele>447</ele>
        <time>2017-02-18T10:04:19Z</time>
      </trkpt>
      <trkpt lat="45.63724" lon="4.65634">
        <ele>447</ele>
        <time>2017-02-18T10:04:22Z</time>
      </trkpt>
      <trkpt lat="45.6373" lon="4.65632">
        <ele>447</ele>
        <time>2017-02-18T10:04:26Z</time>
      </trkpt>
      <trkpt lat="45.63735" lon="4.65633">
        <ele>447</ele>
        <time>2017-02-18T10:04:30Z</time>
      </trkpt>
      <trkpt lat="45.6374" lon="4.65633">
        <ele>448</ele>
        <time>2017-02-18T10:04:35Z</time>
      </trkpt>
      <trkpt lat="45.63745" lon="4.65633">
        <ele>449</ele>
        <time>2017-02-18T10:04:39Z</time>
      </trkpt>
      <trkpt lat="45.6375" lon="4.65635">
        <ele>450</ele>
        <time>2017-02-18T10:04:43Z</time>
      </trkpt>
      <trkpt lat="45.63755" lon="4.65636">
        <ele>450</ele>
        <time>2017-02-18T10:04:47Z</time>
      </trkpt>
      <trkpt lat="45.63761" lon="4.65636">
        <ele>450</ele>
        <time>2017-02-18T10:04:51Z</time>
      </trkpt>
      <trkpt lat="45.63767" lon="4.65638">
        <ele>451</ele>
        <time>2017-02-18T10:04:55Z</time>
      </trkpt>
      <trkpt lat="45.63771" lon="4.6564">
        <ele>452</ele>
        <time>2017-02-18T10:04:58Z</time>
      </trkpt>
      <trkpt lat="45.63775" lon="4.65643">
        <ele>453</ele>
        <time>2017-02-18T10:05:01Z</time>
      </trkpt>
      <trkpt lat="45.63779" lon="4.65644">
        <ele>454</ele>
        <time>2017-02-18T10:05:04Z</time>
      </trkpt>
      <trkpt lat="45.63785" lon="4.65648">
        <ele>456</ele>
        <time>2017-02-18T10:05:08Z</time>
      </trkpt>
      <trkpt lat="45.63789" lon="4.65651">
        <ele>457</ele>
        <time>2017-02-18T10:05:11Z</time>
      </trkpt>
      <trkpt lat="45.63793" lon="4.65653">
        <ele>459</ele>
        <time>2017-02-18T10:05:14Z</time>
      </trkpt>
      <trkpt lat="45.63798" lon="4.65655">
        <ele>460</ele>
        <time>2017-02-18T10:05:17Z</time>
      </trkpt>
      <trkpt lat="45.63803" lon="4.65657">
        <ele>460</ele>
        <time>2017-02-18T10:05:20Z</time>
      </trkpt>
      <trkpt lat="45.63808" lon="4.6566">
        <ele>461</ele>
        <time>2017-02-18T10:05:23Z</time>
      </trkpt>
      <trkpt lat="45.63813" lon="4.65664">
        <ele>461</ele>
        <time>2017-02-18T10:05:26Z</time>
      </trkpt>
      <trkpt lat="45.63819" lon="4.65666">
        <ele>460</ele>
        <time>2017-02-18T10:05:29Z</time>
      </trkpt>
      <trkpt lat="45.63824" lon="4.65668">
        <ele>461</ele>
        <time>2017-02-18T10:05:32Z</time>
      </trkpt>
      <trkpt lat="45.63829" lon="4.65671">
        <ele>461</ele>
        <time>2017-02-18T10:05:35Z</time>
      </trkpt>
      <trkpt lat="45.63835" lon="4.65674">
        <ele>462</ele>
        <time>2017-02-18T10:05:38Z</time>
      </trkpt>
      <trkpt lat="45.63841" lon="4.65677">
        <ele>462</ele>
        <time>2017-02-18T10:05:41Z</time>
      </trkpt>
      <trkpt lat="45.63846" lon="4.65683">
        <ele>463</ele>
        <time>2017-02-18T10:05:44Z</time>
      </trkpt>
      <trkpt lat="45.63851" lon="4.65688">
        <ele>463</ele>
        <time>2017-02-18T10:05:47Z</time>
      </trkpt>
      <trkpt lat="45.63855" lon="4.65692">
        <ele>463</ele>
        <time>2017-02-18T10:05:49Z</time>
      </trkpt>
      <trkpt lat="45.6386" lon="4.65698">
        <ele>464</ele>
        <time>2017-02-18T10:05:52Z</time>
      </trkpt>
      <trkpt lat="45.63864" lon="4.65702">
        <ele>464</ele>
        <time>2017-02-18T10:05:54Z</time>
      </trkpt>
      <trkpt lat="45.63867" lon="4.65707">
        <ele>464</ele>
        <time>2017-02-18T10:05:56Z</time>
      </trkpt>
      <trkpt lat="45.63873" lon="4.65713">
        <ele>464</ele>
        <time>2017-02-18T10:05:59Z</time>
      </trkpt>
      <trkpt lat="45.63877" lon="4.65719">
        <ele>464</ele>
        <time>2017-02-18T10:06:02Z</time>
      </trkpt>
      <trkpt lat="45.63882" lon="4.65725">
        <ele>464</ele>
        <time>2017-02-18T10:06:05Z</time>
      </trkpt>
      <trkpt lat="45.63887" lon="4.65731">
        <ele>465</ele>
        <time>2017-02-18T10:06:08Z</time>
      </trkpt>
      <trkpt lat="45.63891" lon="4.65737">
        <ele>466</ele>
        <time>2017-02-18T10:06:11Z</time>
      </trkpt>
      <trkpt lat="45.63896" lon="4.65743">
        <ele>467</ele>
        <time>2017-02-18T10:06:14Z</time>
      </trkpt>
      <trkpt lat="45.63901" lon="4.65749">
        <ele>468</ele>
        <time>2017-02-18T10:06:17Z</time>
      </trkpt>
      <trkpt lat="45.63906" lon="4.65755">
        <ele>468</ele>
        <time>2017-02-18T10:06:20Z</time>
      </trkpt>
      <trkpt lat="45.63911" lon="4.65761">
        <ele>468</ele>
        <time>2017-02-18T10:06:23Z</time>
      </trkpt>
      <trkpt lat="45.63915" lon="4.65767">
        <ele>468</ele>
        <time>2017-02-18T10:06:26Z</time>
      </trkpt>
      <trkpt lat="45.63919" lon="4.65772">
        <ele>468</ele>
        <time>2017-02-18T10:06:29Z</time>
      </trkpt>
      <trkpt lat="45.63924" lon="4.65778">
        <ele>467</ele>
        <time>2017-02-18T10:06:32Z</time>
      </trkpt>
      <trkpt lat="45.63928" lon="4.65783">
        <ele>467</ele>
        <time>2017-02-18T10:06:35Z</time>
      </trkpt>
      <trkpt lat="45.63933" lon="4.65789">
        <ele>467</ele>
        <time>2017-02-18T10:06:38Z</time>
      </trkpt>
      <trkpt lat="45.63937" lon="4.65794">
        <ele>467</ele>
        <time>2017-02-18T10:06:41Z</time>
      </trkpt>
      <trkpt lat="45.63943" lon="4.658">
        <ele>467</ele>
        <time>2017-02-18T10:06:44Z</time>
      </trkpt>
      <trkpt lat="45.63946" lon="4.65804">
        <ele>466</ele>
        <time>2017-02-18T10:06:46Z</time>
      </trkpt>
      <trkpt lat="45.6395" lon="4.65808">
        <ele>466</ele>
        <time>2017-02-18T10:06:48Z</time>
      </trkpt>
      <trkpt lat="45.63953" lon="4.65811">
        <ele>466</ele>
        <time>2017-02-18T10:06:50Z</time>
      </trkpt>
      <trkpt lat="45.63957" lon="4.65815">
        <ele>466</ele>
        <time>2017-02-18T10:06:52Z</time>
      </trkpt>
      <trkpt lat="45.63961" lon="4.65819">
        <ele>466</ele>
        <time>2017-02-18T10:06:54Z</time>
      </trkpt>
      <trkpt lat="45.63965" lon="4.65823">
        <ele>466</ele>
        <time>2017-02-18T10:06:56Z</time>
      </trkpt>
      <trkpt lat="45.63969" lon="4.65829">
        <ele>466</ele>
        <time>2017-02-18T10:06:59Z</time>
      </trkpt>
      <trkpt lat="45.63973" lon="4.65835">
        <ele>466</ele>
        <time>2017-02-18T10:07:02Z</time>
      </trkpt>
      <trkpt lat="45.63976" lon="4.6584">
        <ele>466</ele>
        <time>2017-02-18T10:07:05Z</time>
      </trkpt>
      <trkpt lat="45.63981" lon="4.65845">
        <ele>466</ele>
        <time>2017-02-18T10:07:09Z</time>
      </trkpt>
      <trkpt lat="45.63986" lon="4.65849">
        <ele>466</ele>
        <time>2017-02-18T10:07:13Z</time>
      </trkpt>
      <trkpt lat="45.6399" lon="4.65849">
        <ele>466</ele>
        <time>2017-02-18T10:07:16Z</time>
      </trkpt>
      <trkpt lat="45.63996" lon="4.65844">
        <ele>466</ele>
        <time>2017-02-18T10:07:19Z</time>
      </trkpt>
      <trkpt lat="45.64" lon="4.6584">
        <ele>466</ele>
        <time>2017-02-18T10:07:21Z</time>
      </trkpt>
      <trkpt lat="45.64003" lon="4.65836">
        <ele>466</ele>
        <time>2017-02-18T10:07:23Z</time>
      </trkpt>
      <trkpt lat="45.64008" lon="4.65831">
        <ele>466</ele>
        <time>2017-02-18T10:07:25Z</time>
      </trkpt>
      <trkpt lat="45.64012" lon="4.65827">
        <ele>467</ele>
        <time>2017-02-18T10:07:27Z</time>
      </trkpt>
      <trkpt lat="45.64016" lon="4.65823">
        <ele>467</ele>
        <time>2017-02-18T10:07:29Z</time>
      </trkpt>
      <trkpt lat="45.6402" lon="4.65819">
        <ele>467</ele>
        <time>2017-02-18T10:07:31Z</time>
      </trkpt>
      <trkpt lat="45.64024" lon="4.65815">
        <ele>467</ele>
        <time>2017-02-18T10:07:33Z</time>
      </trkpt>
      <trkpt lat="45.64029" lon="4.6581">
        <ele>467</ele>
        <time>2017-02-18T10:07:36Z</time>
      </trkpt>
      <trkpt lat="45.64035" lon="4.65805">
        <ele>468</ele>
        <time>2017-02-18T10:07:38Z</time>
      </trkpt>
      <trkpt lat="45.6404" lon="4.65801">
        <ele>469</ele>
        <time>2017-02-18T10:07:40Z</time>
      </trkpt>
      <trkpt lat="45.64045" lon="4.65796">
        <ele>470</ele>
        <time>2017-02-18T10:07:42Z</time>
      </trkpt>
      <trkpt lat="45.64049" lon="4.65792">
        <ele>471</ele>
        <time>2017-02-18T10:07:44Z</time>
      </trkpt>
      <trkpt lat="45.64053" lon="4.65789">
        <ele>471</ele>
        <time>2017-02-18T10:07:46Z</time>
      </trkpt>
      <trkpt lat="45.64058" lon="4.65785">
        <ele>471</ele>
        <time>2017-02-18T10:07:48Z</time>
      </trkpt>
      <trkpt lat="45.64062" lon="4.65781">
        <ele>471</ele>
        <time>2017-02-18T10:07:50Z</time>
      </trkpt>
      <trkpt lat="45.64067" lon="4.65778">
        <ele>471</ele>
        <time>2017-02-18T10:07:52Z</time>
      </trkpt>
      <trkpt lat="45.64071" lon="4.65774">
        <ele>471</ele>
        <time>2017-02-18T10:07:54Z</time>
      </trkpt>
      <trkpt lat="45.64076" lon="4.6577">
        <ele>472</ele>
        <time>2017-02-18T10:07:56Z</time>
      </trkpt>
      <trkpt lat="45.6408" lon="4.65766">
        <ele>473</ele>
        <time>2017-02-18T10:07:58Z</time>
      </trkpt>
      <trkpt lat="45.64085" lon="4.65762">
        <ele>473</ele>
        <time>2017-02-18T10:08:00Z</time>
      </trkpt>
      <trkpt lat="45.64089" lon="4.65757">
        <ele>474</ele>
        <time>2017-02-18T10:08:02Z</time>
      </trkpt>
      <trkpt lat="45.64094" lon="4.65754">
        <ele>474</ele>
        <time>2017-02-18T10:08:04Z</time>
      </trkpt>
      <trkpt lat="45.64098" lon="4.65749">
        <ele>475</ele>
        <time>2017-02-18T10:08:06Z</time>
      </trkpt>
      <trkpt lat="45.64102" lon="4.65744">
        <ele>475</ele>
        <time>2017-02-18T10:08:08Z</time>
      </trkpt>
      <trkpt lat="45.64106" lon="4.65739">
        <ele>474</ele>
        <time>2017-02-18T10:08:10Z</time>
      </trkpt>
      <trkpt lat="45.6411" lon="4.65734">
        <ele>475</ele>
        <time>2017-02-18T10:08:12Z</time>
      </trkpt>
      <trkpt lat="45.64114" lon="4.65729">
        <ele>475</ele>
        <time>2017-02-18T10:08:14Z</time>
      </trkpt>
      <trkpt lat="45.64118" lon="4.65724">
        <ele>475</ele>
        <time>2017-02-18T10:08:16Z</time>
      </trkpt>
      <trkpt lat="45.64122" lon="4.65719">
        <ele>475</ele>
        <time>2017-02-18T10:08:18Z</time>
      </trkpt>
      <trkpt lat="45.64126" lon="4.65713">
        <ele>475</ele>
        <time>2017-02-18T10:08:20Z</time>
      </trkpt>
      <trkpt lat="45.6413" lon="4.65707">
        <ele>474</ele>
        <time>2017-02-18T10:08:22Z</time>
      </trkpt>
      <trkpt lat="45.64134" lon="4.65701">
        <ele>474</ele>
        <time>2017-02-18T10:08:24Z</time>
      </trkpt>
      <trkpt lat="45.64138" lon="4.65696">
        <ele>474</ele>
        <time>2017-02-18T10:08:26Z</time>
      </trkpt>
      <trkpt lat="45.64141" lon="4.6569">
        <ele>474</ele>
        <time>2017-02-18T10:08:28Z</time>
      </trkpt>
      <trkpt lat="45.64144" lon="4.65683">
        <ele>474</ele>
        <time>2017-02-18T10:08:30Z</time>
      </trkpt>
      <trkpt lat="45.64148" lon="4.65678">
        <ele>474</ele>
        <time>2017-02-18T10:08:32Z</time>
      </trkpt>
      <trkpt lat="45.64151" lon="4.65673">
        <ele>475</ele>
        <time>2017-02-18T10:08:34Z</time>
      </trkpt>
      <trkpt lat="45.64154" lon="4.65667">
        <ele>475</ele>
        <time>2017-02-18T10:08:36Z</time>
      </trkpt>
      <trkpt lat="45.64158" lon="4.65661">
        <ele>475</ele>
        <time>2017-02-18T10:08:38Z</time>
      </trkpt>
      <trkpt lat="45.6416" lon="4.65655">
        <ele>476</ele>
        <time>2017-02-18T10:08:40Z</time>
      </trkpt>
      <trkpt lat="45.64162" lon="4.65648">
        <ele>476</ele>
        <time>2017-02-18T10:08:42Z</time>
      </trkpt>
      <trkpt lat="45.64165" lon="4.65642">
        <ele>476</ele>
        <time>2017-02-18T10:08:44Z</time>
      </trkpt>
      <trkpt lat="45.64167" lon="4.65635">
        <ele>477</ele>
        <time>2017-02-18T10:08:46Z</time>
      </trkpt>
      <trkpt lat="45.6417" lon="4.65629">
        <ele>477</ele>
        <time>2017-02-18T10:08:48Z</time>
      </trkpt>
      <trkpt lat="45.64173" lon="4.65623">
        <ele>477</ele>
        <time>2017-02-18T10:08:50Z</time>
      </trkpt>
      <trkpt lat="45.64175" lon="4.65617">
        <ele>478</ele>
        <time>2017-02-18T10:08:52Z</time>
      </trkpt>
      <trkpt lat="45.64179" lon="4.6561">
        <ele>478</ele>
        <time>2017-02-18T10:08:54Z</time>
      </trkpt>
      <trkpt lat="45.64181" lon="4.65604">
        <ele>477</ele>
        <time>2017-02-18T10:08:56Z</time>
      </trkpt>
      <trkpt lat="45.64184" lon="4.65598">
        <ele>478</ele>
        <time>2017-02-18T10:08:58Z</time>
      </trkpt>
      <trkpt lat="45.64187" lon="4.65592">
        <ele>478</ele>
        <time>2017-02-18T10:09:00Z</time>
      </trkpt>
      <trkpt lat="45.6419" lon="4.65586">
        <ele>477</ele>
        <time>2017-02-18T10:09:02Z</time>
      </trkpt>
      <trkpt lat="45.64193" lon="4.65579">
        <ele>477</ele>
        <time>2017-02-18T10:09:04Z</time>
      </trkpt>
      <trkpt lat="45.64196" lon="4.65573">
        <ele>478</ele>
        <time>2017-02-18T10:09:06Z</time>
      </trkpt>
      <trkpt lat="45.64199" lon="4.65567">
        <ele>478</ele>
        <time>2017-02-18T10:09:08Z</time>
      </trkpt>
      <trkpt lat="45.64203" lon="4.6556">
        <ele>478</ele>
        <time>2017-02-18T10:09:10Z</time>
      </trkpt>
      <trkpt lat="45.64206" lon="4.65554">
        <ele>479</ele>
        <time>2017-02-18T10:09:12Z</time>
      </trkpt>
      <trkpt lat="45.64209" lon="4.65549">
        <ele>479</ele>
        <time>2017-02-18T10:09:14Z</time>
      </trkpt>
      <trkpt lat="45.64213" lon="4.65545">
        <ele>479</ele>
        <time>2017-02-18T10:09:16Z</time>
      </trkpt>
      <trkpt lat="45.64217" lon="4.65541">
        <ele>478</ele>
        <time>2017-02-18T10:09:18Z</time>
      </trkpt>
      <trkpt lat="45.64221" lon="4.65537">
        <ele>478</ele>
        <time>2017-02-18T10:09:20Z</time>
      </trkpt>
      <trkpt lat="45.64225" lon="4.65533">
        <ele>478</ele>
        <time>2017-02-18T10:09:22Z</time>
      </trkpt>
      <trkpt lat="45.6423" lon="4.6553">
        <ele>477</ele>
        <time>2017-02-18T10:09:24Z</time>
      </trkpt>
      <trkpt lat="45.64235" lon="4.65528">
        <ele>477</ele>
        <time>2017-02-18T10:09:26Z</time>
      </trkpt>
      <trkpt lat="45.6424" lon="4.65526">
        <ele>477</ele>
        <time>2017-02-18T10:09:28Z</time>
      </trkpt>
      <trkpt lat="45.64245" lon="4.65526">
        <ele>477</ele>
        <time>2017-02-18T10:09:30Z</time>
      </trkpt>
      <trkpt lat="45.6425" lon="4.65527">
        <ele>476</ele>
        <time>2017-02-18T10:09:32Z</time>
      </trkpt>
      <trkpt lat="45.64255" lon="4.65529">
        <ele>476</ele>
        <time>2017-02-18T10:09:34Z</time>
      </trkpt>
      <trkpt lat="45.64261" lon="4.65531">
        <ele>477</ele>
        <time>2017-02-18T10:09:37Z</time>
      </trkpt>
      <trkpt lat="45.64266" lon="4.65532">
        <ele>477</ele>
        <time>2017-02-18T10:09:41Z</time>
      </trkpt>
      <trkpt lat="45.64271" lon="4.65534">
        <ele>477</ele>
        <time>2017-02-18T10:09:46Z</time>
      </trkpt>
      <trkpt lat="45.64275" lon="4.65537">
        <ele>477</ele>
        <time>2017-02-18T10:09:50Z</time>
      </trkpt>
      <trkpt lat="45.6428" lon="4.65542">
        <ele>477</ele>
        <time>2017-02-18T10:09:54Z</time>
      </trkpt>
      <trkpt lat="45.64285" lon="4.65546">
        <ele>476</ele>
        <time>2017-02-18T10:09:58Z</time>
      </trkpt>
      <trkpt lat="45.6429" lon="4.6555">
        <ele>476</ele>
        <time>2017-02-18T10:10:02Z</time>
      </trkpt>
      <trkpt lat="45.64294" lon="4.65555">
        <ele>477</ele>
        <time>2017-02-18T10:10:06Z</time>
      </trkpt>
      <trkpt lat="45.64299" lon="4.65559">
        <ele>477</ele>
        <time>2017-02-18T10:10:10Z</time>
      </trkpt>
      <trkpt lat="45.64304" lon="4.65563">
        <ele>478</ele>
        <time>2017-02-18T10:10:14Z</time>
      </trkpt>
      <trkpt lat="45.64308" lon="4.65569">
        <ele>478</ele>
        <time>2017-02-18T10:10:18Z</time>
      </trkpt>
      <trkpt lat="45.64312" lon="4.65574">
        <ele>478</ele>
        <time>2017-02-18T10:10:22Z</time>
      </trkpt>
      <trkpt lat="45.64317" lon="4.65578">
        <ele>478</ele>
        <time>2017-02-18T10:10:26Z</time>
      </trkpt>
      <trkpt lat="45.64321" lon="4.65583">
        <ele>478</ele>
        <time>2017-02-18T10:10:30Z</time>
      </trkpt>
      <trkpt lat="45.64325" lon="4.65588">
        <ele>478</ele>
        <time>2017-02-18T10:10:34Z</time>
      </trkpt>
      <trkpt lat="45.6433" lon="4.65592">
        <ele>478</ele>
        <time>2017-02-18T10:10:38Z</time>
      </trkpt>
      <trkpt lat="45.64334" lon="4.65596">
        <ele>479</ele>
        <time>2017-02-18T10:10:42Z</time>
      </trkpt>
      <trkpt lat="45.64338" lon="4.65599">
        <ele>480</ele>
        <time>2017-02-18T10:10:46Z</time>
      </trkpt>
      <trkpt lat="45.64343" lon="4.65602">
        <ele>481</ele>
        <time>2017-02-18T10:10:50Z</time>
      </trkpt>
      <trkpt lat="45.64349" lon="4.65604">
        <ele>481</ele>
        <time>2017-02-18T10:10:54Z</time>
      </trkpt>
      <trkpt lat="45.64353" lon="4.65607">
        <ele>482</ele>
        <time>2017-02-18T10:10:57Z</time>
      </trkpt>
      <trkpt lat="45.64357" lon="4.65611">
        <ele>482</ele>
        <time>2017-02-18T10:11:00Z</time>
      </trkpt>
      <trkpt lat="45.64361" lon="4.65614">
        <ele>481</ele>
        <time>2017-02-18T10:11:03Z</time>
      </trkpt>
      <trkpt lat="45.64366" lon="4.65618">
        <ele>481</ele>
        <time>2017-02-18T10:11:07Z</time>
      </trkpt>
      <trkpt lat="45.6437" lon="4.65621">
        <ele>481</ele>
        <time>2017-02-18T10:11:11Z</time>
      </trkpt>
      <trkpt lat="45.64373" lon="4.65623">
        <ele>483</ele>
        <time>2017-02-18T10:11:27Z</time>
      </trkpt>
      <trkpt lat="45.64373" lon="4.65623">
        <ele>485</ele>
        <time>2017-02-18T10:11:30Z</time>
      </trkpt>
      <trkpt lat="45.64373" lon="4.65623">
        <ele>487</ele>
        <time>2017-02-18T10:11:57Z</time>
      </trkpt>
      <trkpt lat="45.64373" lon="4.65623">
        <ele>490</ele>
        <time>2017-02-18T10:11:59Z</time>
      </trkpt>
      <trkpt lat="45.64373" lon="4.65623">
        <ele>492</ele>
        <time>2017-02-18T10:12:27Z</time>
      </trkpt>
      <trkpt lat="45.64373" lon="4.65623">
        <ele>493</ele>
        <time>2017-02-18T10:12:29Z</time>
      </trkpt>
      <trkpt lat="45.64376" lon="4.65626">
        <ele>494</ele>
        <time>2017-02-18T10:12:57Z</time>
      </trkpt>
      <trkpt lat="45.64378" lon="4.65628">
        <ele>495</ele>
        <time>2017-02-18T10:13:00Z</time>
      </trkpt>
      <trkpt lat="45.64383" lon="4.65631">
        <ele>495</ele>
        <time>2017-02-18T10:13:04Z</time>
      </trkpt>
      <trkpt lat="45.64387" lon="4.65635">
        <ele>496</ele>
        <time>2017-02-18T10:13:08Z</time>
      </trkpt>
      <trkpt lat="45.64391" lon="4.65641">
        <ele>496</ele>
        <time>2017-02-18T10:13:12Z</time>
      </trkpt>
      <trkpt lat="45.64395" lon="4.65644">
        <ele>496</ele>
        <time>2017-02-18T10:13:16Z</time>
      </trkpt>
      <trkpt lat="45.64399" lon="4.65649">
        <ele>496</ele>
        <time>2017-02-18T10:13:19Z</time>
      </trkpt>
      <trkpt lat="45.64404" lon="4.65653">
        <ele>497</ele>
        <time>2017-02-18T10:13:22Z</time>
      </trkpt>
      <trkpt lat="45.64409" lon="4.65659">
        <ele>497</ele>
        <time>2017-02-18T10:13:26Z</time>
      </trkpt>
      <trkpt lat="45.64414" lon="4.65663">
        <ele>498</ele>
        <time>2017-02-18T10:13:29Z</time>
      </trkpt>
      <trkpt lat="45.64418" lon="4.65665">
        <ele>498</ele>
        <time>2017-02-18T10:13:32Z</time>
      </trkpt>
      <trkpt lat="45.64422" lon="4.65668">
        <ele>498</ele>
        <time>2017-02-18T10:13:35Z</time>
      </trkpt>
      <trkpt lat="45.64427" lon="4.65672">
        <ele>498</ele>
        <time>2017-02-18T10:13:38Z</time>
      </trkpt>
      <trkpt lat="45.64432" lon="4.65677">
        <ele>498</ele>
        <time>2017-02-18T10:13:41Z</time>
      </trkpt>
      <trkpt lat="45.64437" lon="4.65682">
        <ele>498</ele>
        <time>2017-02-18T10:13:45Z</time>
      </trkpt>
      <trkpt lat="45.64441" lon="4.65686">
        <ele>498</ele>
        <time>2017-02-18T10:13:48Z</time>
      </trkpt>
      <trkpt lat="45.64446" lon="4.65692">
        <ele>498</ele>
        <time>2017-02-18T10:13:52Z</time>
      </trkpt>
      <trkpt lat="45.64449" lon="4.65697">
        <ele>498</ele>
        <time>2017-02-18T10:13:55Z</time>
      </trkpt>
      <trkpt lat="45.64452" lon="4.65702">
        <ele>497</ele>
        <time>2017-02-18T10:13:58Z</time>
      </trkpt>
      <trkpt lat="45.64456" lon="4.65708">
        <ele>497</ele>
        <time>2017-02-18T10:14:02Z</time>
      </trkpt>
      <trkpt lat="45.6446" lon="4.65714">
        <ele>497</ele>
        <time>2017-02-18T10:14:06Z</time>
      </trkpt>
      <trkpt lat="45.64464" lon="4.65718">
        <ele>498</ele>
        <time>2017-02-18T10:14:09Z</time>
      </trkpt>
      <trkpt lat="45.64468" lon="4.65723">
        <ele>498</ele>
        <time>2017-02-18T10:14:12Z</time>
      </trkpt>
      <trkpt lat="45.6447" lon="4.65729">
        <ele>499</ele>
        <time>2017-02-18T10:14:15Z</time>
      </trkpt>
      <trkpt lat="45.64474" lon="4.65733">
        <ele>500</ele>
        <time>2017-02-18T10:14:18Z</time>
      </trkpt>
      <trkpt lat="45.64478" lon="4.65738">
        <ele>500</ele>
        <time>2017-02-18T10:14:21Z</time>
      </trkpt>
      <trkpt lat="45.6448" lon="4.65744">
        <ele>501</ele>
        <time>2017-02-18T10:14:24Z</time>
      </trkpt>
      <trkpt lat="45.64483" lon="4.6575">
        <ele>501</ele>
        <time>2017-02-18T10:14:27Z</time>
      </trkpt>
      <trkpt lat="45.64486" lon="4.65754">
        <ele>501</ele>
        <time>2017-02-18T10:14:30Z</time>
      </trkpt>
      <trkpt lat="45.64491" lon="4.65758">
        <ele>502</ele>
        <time>2017-02-18T10:14:33Z</time>
      </trkpt>
      <trkpt lat="45.64495" lon="4.65761">
        <ele>503</ele>
        <time>2017-02-18T10:14:36Z</time>
      </trkpt>
      <trkpt lat="45.64498" lon="4.65766">
        <ele>504</ele>
        <time>2017-02-18T10:14:39Z</time>
      </trkpt>
      <trkpt lat="45.64502" lon="4.6577">
        <ele>505</ele>
        <time>2017-02-18T10:14:42Z</time>
      </trkpt>
      <trkpt lat="45.64505" lon="4.65774">
        <ele>507</ele>
        <time>2017-02-18T10:14:45Z</time>
      </trkpt>
      <trkpt lat="45.6451" lon="4.65778">
        <ele>508</ele>
        <time>2017-02-18T10:14:48Z</time>
      </trkpt>
      <trkpt lat="45.64515" lon="4.65782">
        <ele>510</ele>
        <time>2017-02-18T10:14:52Z</time>
      </trkpt>
      <trkpt lat="45.6452" lon="4.65786">
        <ele>511</ele>
        <time>2017-02-18T10:14:56Z</time>
      </trkpt>
      <trkpt lat="45.64525" lon="4.65789">
        <ele>510</ele>
        <time>2017-02-18T10:14:59Z</time>
      </trkpt>
      <trkpt lat="45.64528" lon="4.65794">
        <ele>509</ele>
        <time>2017-02-18T10:15:02Z</time>
      </trkpt>
      <trkpt lat="45.64533" lon="4.65797">
        <ele>508</ele>
        <time>2017-02-18T10:15:06Z</time>
      </trkpt>
      <trkpt lat="45.64536" lon="4.65801">
        <ele>507</ele>
        <time>2017-02-18T10:15:09Z</time>
      </trkpt>
      <trkpt lat="45.64541" lon="4.65805">
        <ele>505</ele>
        <time>2017-02-18T10:15:13Z</time>
      </trkpt>
      <trkpt lat="45.64546" lon="4.65809">
        <ele>506</ele>
        <time>2017-02-18T10:15:17Z</time>
      </trkpt>
      <trkpt lat="45.64551" lon="4.65812">
        <ele>506</ele>
        <time>2017-02-18T10:15:21Z</time>
      </trkpt>
      <trkpt lat="45.64556" lon="4.65816">
        <ele>505</ele>
        <time>2017-02-18T10:15:25Z</time>
      </trkpt>
      <trkpt lat="45.6456" lon="4.6582">
        <ele>506</ele>
        <time>2017-02-18T10:15:28Z</time>
      </trkpt>
      <trkpt lat="45.64565" lon="4.65823">
        <ele>506</ele>
        <time>2017-02-18T10:15:31Z</time>
      </trkpt>
      <trkpt lat="45.64569" lon="4.65827">
        <ele>505</ele>
        <time>2017-02-18T10:15:34Z</time>
      </trkpt>
      <trkpt lat="45.64574" lon="4.6583">
        <ele>506</ele>
        <time>2017-02-18T10:15:37Z</time>
      </trkpt>
      <trkpt lat="45.64578" lon="4.65836">
        <ele>508</ele>
        <time>2017-02-18T10:15:41Z</time>
      </trkpt>
      <trkpt lat="45.64582" lon="4.6584">
        <ele>510</ele>
        <time>2017-02-18T10:15:44Z</time>
      </trkpt>
      <trkpt lat="45.64586" lon="4.65844">
        <ele>513</ele>
        <time>2017-02-18T10:15:47Z</time>
      </trkpt>
      <trkpt lat="45.64591" lon="4.65848">
        <ele>514</ele>
        <time>2017-02-18T10:15:50Z</time>
      </trkpt>
      <trkpt lat="45.64594" lon="4.65852">
        <ele>516</ele>
        <time>2017-02-18T10:15:53Z</time>
      </trkpt>
      <trkpt lat="45.64599" lon="4.65856">
        <ele>516</ele>
        <time>2017-02-18T10:15:57Z</time>
      </trkpt>
      <trkpt lat="45.64603" lon="4.65861">
        <ele>516</ele>
        <time>2017-02-18T10:16:00Z</time>
      </trkpt>
      <trkpt lat="45.64606" lon="4.65867">
        <ele>516</ele>
        <time>2017-02-18T10:16:03Z</time>
      </trkpt>
      <trkpt lat="45.6461" lon="4.65873">
        <ele>517</ele>
        <time>2017-02-18T10:16:07Z</time>
      </trkpt>
      <trkpt lat="45.64615" lon="4.65877">
        <ele>519</ele>
        <time>2017-02-18T10:16:11Z</time>
      </trkpt>
      <trkpt lat="45.6462" lon="4.65881">
        <ele>520</ele>
        <time>2017-02-18T10:16:15Z</time>
      </trkpt>
      <trkpt lat="45.64625" lon="4.65885">
        <ele>520</ele>
        <time>2017-02-18T10:16:19Z</time>
      </trkpt>
      <trkpt lat="45.6463" lon="4.65889">
        <ele>521</ele>
        <time>2017-02-18T10:16:23Z</time>
      </trkpt>
      <trkpt lat="45.64642" lon="4.65899">
        <ele>521</ele>
        <time>2017-02-18T10:16:27Z</time>
      </trkpt>
      <trkpt lat="45.64639" lon="4.65895">
        <ele>520</ele>
        <time>2017-02-18T10:16:29Z</time>
      </trkpt>
      <trkpt lat="45.64642" lon="4.65901">
        <ele>520</ele>
        <time>2017-02-18T10:16:33Z</time>
      </trkpt>
      <trkpt lat="45.64648" lon="4.65904">
        <ele>520</ele>
        <time>2017-02-18T10:16:35Z</time>
      </trkpt>
      <trkpt lat="45.64653" lon="4.65908">
        <ele>521</ele>
        <time>2017-02-18T10:16:39Z</time>
      </trkpt>
      <trkpt lat="45.64656" lon="4.65915">
        <ele>522</ele>
        <time>2017-02-18T10:16:44Z</time>
      </trkpt>
      <trkpt lat="45.64661" lon="4.65919">
        <ele>523</ele>
        <time>2017-02-18T10:16:48Z</time>
      </trkpt>
      <trkpt lat="45.64665" lon="4.65921">
        <ele>524</ele>
        <time>2017-02-18T10:16:51Z</time>
      </trkpt>
      <trkpt lat="45.64669" lon="4.65924">
        <ele>525</ele>
        <time>2017-02-18T10:16:54Z</time>
      </trkpt>
      <trkpt lat="45.64674" lon="4.65928">
        <ele>525</ele>
        <time>2017-02-18T10:16:57Z</time>
      </trkpt>
      <trkpt lat="45.64679" lon="4.65932">
        <ele>525</ele>
        <time>2017-02-18T10:17:01Z</time>
      </trkpt>
      <trkpt lat="45.64684" lon="4.65934">
        <ele>526</ele>
        <time>2017-02-18T10:17:04Z</time>
      </trkpt>
      <trkpt lat="45.64688" lon="4.65937">
        <ele>526</ele>
        <time>2017-02-18T10:17:07Z</time>
      </trkpt>
      <trkpt lat="45.64693" lon="4.6594">
        <ele>526</ele>
        <time>2017-02-18T10:17:11Z</time>
      </trkpt>
      <trkpt lat="45.64699" lon="4.65943">
        <ele>527</ele>
        <time>2017-02-18T10:17:15Z</time>
      </trkpt>
      <trkpt lat="45.64703" lon="4.65945">
        <ele>527</ele>
        <time>2017-02-18T10:17:18Z</time>
      </trkpt>
      <trkpt lat="45.64709" lon="4.65948">
        <ele>527</ele>
        <time>2017-02-18T10:17:22Z</time>
      </trkpt>
      <trkpt lat="45.64714" lon="4.65951">
        <ele>528</ele>
        <time>2017-02-18T10:17:26Z</time>
      </trkpt>
      <trkpt lat="45.6472" lon="4.65953">
        <ele>529</ele>
        <time>2017-02-18T10:17:30Z</time>
      </trkpt>
      <trkpt lat="45.64725" lon="4.65955">
        <ele>529</ele>
        <time>2017-02-18T10:17:33Z</time>
      </trkpt>
      <trkpt lat="45.64729" lon="4.65956">
        <ele>530</ele>
        <time>2017-02-18T10:17:36Z</time>
      </trkpt>
      <trkpt lat="45.64734" lon="4.65958">
        <ele>530</ele>
        <time>2017-02-18T10:17:39Z</time>
      </trkpt>
      <trkpt lat="45.64738" lon="4.6596">
        <ele>531</ele>
        <time>2017-02-18T10:17:42Z</time>
      </trkpt>
      <trkpt lat="45.64743" lon="4.65961">
        <ele>531</ele>
        <time>2017-02-18T10:17:46Z</time>
      </trkpt>
      <trkpt lat="45.6475" lon="4.65963">
        <ele>531</ele>
        <time>2017-02-18T10:17:50Z</time>
      </trkpt>
      <trkpt lat="45.64755" lon="4.65966">
        <ele>531</ele>
        <time>2017-02-18T10:17:54Z</time>
      </trkpt>
      <trkpt lat="45.6476" lon="4.65968">
        <ele>531</ele>
        <time>2017-02-18T10:17:58Z</time>
      </trkpt>
      <trkpt lat="45.64766" lon="4.65969">
        <ele>531</ele>
        <time>2017-02-18T10:18:02Z</time>
      </trkpt>
      <trkpt lat="45.64772" lon="4.65971">
        <ele>531</ele>
        <time>2017-02-18T10:18:06Z</time>
      </trkpt>
      <trkpt lat="45.64777" lon="4.65973">
        <ele>531</ele>
        <time>2017-02-18T10:18:10Z</time>
      </trkpt>
      <trkpt lat="45.64782" lon="4.65974">
        <ele>531</ele>
        <time>2017-02-18T10:18:13Z</time>
      </trkpt>
      <trkpt lat="45.64787" lon="4.65976">
        <ele>531</ele>
        <time>2017-02-18T10:18:16Z</time>
      </trkpt>
      <trkpt lat="45.64791" lon="4.65978">
        <ele>531</ele>
        <time>2017-02-18T10:18:19Z</time>
      </trkpt>
      <trkpt lat="45.64795" lon="4.6598">
        <ele>532</ele>
        <time>2017-02-18T10:18:22Z</time>
      </trkpt>
      <trkpt lat="45.64801" lon="4.65982">
        <ele>532</ele>
        <time>2017-02-18T10:18:25Z</time>
      </trkpt>
      <trkpt lat="45.64805" lon="4.65983">
        <ele>532</ele>
        <time>2017-02-18T10:18:27Z</time>
      </trkpt>
      <trkpt lat="45.64812" lon="4.65985">
        <ele>533</ele>
        <time>2017-02-18T10:18:30Z</time>
      </trkpt>
      <trkpt lat="45.64818" lon="4.65986">
        <ele>533</ele>
        <time>2017-02-18T10:18:33Z</time>
      </trkpt>
      <trkpt lat="45.64825" lon="4.65987">
        <ele>533</ele>
        <time>2017-02-18T10:18:36Z</time>
      </trkpt>
      <trkpt lat="45.64831" lon="4.65987">
        <ele>533</ele>
        <time>2017-02-18T10:18:39Z</time>
      </trkpt>
      <trkpt lat="45.64837" lon="4.65988">
        <ele>533</ele>
        <time>2017-02-18T10:18:42Z</time>
      </trkpt>
      <trkpt lat="45.64844" lon="4.65988">
        <ele>533</ele>
        <time>2017-02-18T10:18:45Z</time>
      </trkpt>
      <trkpt lat="45.64851" lon="4.65988">
        <ele>533</ele>
        <time>2017-02-18T10:18:48Z</time>
      </trkpt>
      <trkpt lat="45.64857" lon="4.65987">
        <ele>534</ele>
        <time>2017-02-18T10:18:51Z</time>
      </trkpt>
      <trkpt lat="45.64864" lon="4.65986">
        <ele>534</ele>
        <time>2017-02-18T10:18:54Z</time>
      </trkpt>
      <trkpt lat="45.64868" lon="4.65987">
        <ele>534</ele>
        <time>2017-02-18T10:18:56Z</time>
      </trkpt>
      <trkpt lat="45.64875" lon="4.65987">
        <ele>535</ele>
        <time>2017-02-18T10:18:59Z</time>
      </trkpt>
      <trkpt lat="45.64882" lon="4.65987">
        <ele>535</ele>
        <time>2017-02-18T10:19:02Z</time>
      </trkpt>
      <trkpt lat="45.64888" lon="4.65987">
        <ele>535</ele>
        <time>2017-02-18T10:19:05Z</time>
      </trkpt>
      <trkpt lat="45.64895" lon="4.65988">
        <ele>535</ele>
        <time>2017-02-18T10:19:08Z</time>
      </trkpt>
      <trkpt lat="45.64901" lon="4.65989">
        <ele>536</ele>
        <time>2017-02-18T10:19:11Z</time>
      </trkpt>
      <trkpt lat="45.64908" lon="4.65989">
        <ele>536</ele>
        <time>2017-02-18T10:19:14Z</time>
      </trkpt>
      <trkpt lat="45.64914" lon="4.6599">
        <ele>536</ele>
        <time>2017-02-18T10:19:17Z</time>
      </trkpt>
      <trkpt lat="45.64919" lon="4.6599">
        <ele>536</ele>
        <time>2017-02-18T10:19:19Z</time>
      </trkpt>
      <trkpt lat="45.64924" lon="4.65989">
        <ele>537</ele>
        <time>2017-02-18T10:19:21Z</time>
      </trkpt>
      <trkpt lat="45.64928" lon="4.65989">
        <ele>537</ele>
        <time>2017-02-18T10:19:23Z</time>
      </trkpt>
      <trkpt lat="45.64935" lon="4.6599">
        <ele>537</ele>
        <time>2017-02-18T10:19:26Z</time>
      </trkpt>
      <trkpt lat="45.6494" lon="4.6599">
        <ele>537</ele>
        <time>2017-02-18T10:19:28Z</time>
      </trkpt>
      <trkpt lat="45.64946" lon="4.6599">
        <ele>537</ele>
        <time>2017-02-18T10:19:31Z</time>
      </trkpt>
      <trkpt lat="45.64953" lon="4.65989">
        <ele>537</ele>
        <time>2017-02-18T10:19:34Z</time>
      </trkpt>
      <trkpt lat="45.64959" lon="4.6599">
        <ele>538</ele>
        <time>2017-02-18T10:19:37Z</time>
      </trkpt>
      <trkpt lat="45.64965" lon="4.65989">
        <ele>538</ele>
        <time>2017-02-18T10:19:40Z</time>
      </trkpt>
      <trkpt lat="45.64971" lon="4.65987">
        <ele>538</ele>
        <time>2017-02-18T10:19:43Z</time>
      </trkpt>
      <trkpt lat="45.64977" lon="4.65984">
        <ele>538</ele>
        <time>2017-02-18T10:19:46Z</time>
      </trkpt>
      <trkpt lat="45.64982" lon="4.65981">
        <ele>538</ele>
        <time>2017-02-18T10:19:49Z</time>
      </trkpt>
      <trkpt lat="45.64987" lon="4.65979">
        <ele>538</ele>
        <time>2017-02-18T10:19:51Z</time>
      </trkpt>
      <trkpt lat="45.64991" lon="4.65979">
        <ele>538</ele>
        <time>2017-02-18T10:19:53Z</time>
      </trkpt>
      <trkpt lat="45.64996" lon="4.65981">
        <ele>538</ele>
        <time>2017-02-18T10:19:55Z</time>
      </trkpt>
      <trkpt lat="45.65" lon="4.65984">
        <ele>538</ele>
        <time>2017-02-18T10:19:57Z</time>
      </trkpt>
      <trkpt lat="45.65004" lon="4.65987">
        <ele>538</ele>
        <time>2017-02-18T10:19:59Z</time>
      </trkpt>
      <trkpt lat="45.65007" lon="4.65992">
        <ele>538</ele>
        <time>2017-02-18T10:20:01Z</time>
      </trkpt>
      <trkpt lat="45.65008" lon="4.65999">
        <ele>538</ele>
        <time>2017-02-18T10:20:03Z</time>
      </trkpt>
      <trkpt lat="45.65008" lon="4.66005">
        <ele>538</ele>
        <time>2017-02-18T10:20:05Z</time>
      </trkpt>
      <trkpt lat="45.65007" lon="4.66012">
        <ele>538</ele>
        <time>2017-02-18T10:20:07Z</time>
      </trkpt>
      <trkpt lat="45.65005" lon="4.66019">
        <ele>538</ele>
        <time>2017-02-18T10:20:09Z</time>
      </trkpt>
      <trkpt lat="45.65003" lon="4.66025">
        <ele>538</ele>
        <time>2017-02-18T10:20:11Z</time>
      </trkpt>
      <trkpt lat="45.65001" lon="4.6603">
        <ele>537</ele>
        <time>2017-02-18T10:20:13Z</time>
      </trkpt>
      <trkpt lat="45.64998" lon="4.66036">
        <ele>537</ele>
        <time>2017-02-18T10:20:15Z</time>
      </trkpt>
      <trkpt lat="45.64996" lon="4.66041">
        <ele>537</ele>
        <time>2017-02-18T10:20:17Z</time>
      </trkpt>
      <trkpt lat="45.64992" lon="4.66046">
        <ele>537</ele>
        <time>2017-02-18T10:20:19Z</time>
      </trkpt>
      <trkpt lat="45.64989" lon="4.66051">
        <ele>538</ele>
        <time>2017-02-18T10:20:21Z</time>
      </trkpt>
      <trkpt lat="45.64986" lon="4.66056">
        <ele>538</ele>
        <time>2017-02-18T10:20:23Z</time>
      </trkpt>
      <trkpt lat="45.64983" lon="4.66061">
        <ele>538</ele>
        <time>2017-02-18T10:20:25Z</time>
      </trkpt>
      <trkpt lat="45.64979" lon="4.66065">
        <ele>538</ele>
        <time>2017-02-18T10:20:27Z</time>
      </trkpt>
      <trkpt lat="45.64976" lon="4.6607">
        <ele>538</ele>
        <time>2017-02-18T10:20:29Z</time>
      </trkpt>
      <trkpt lat="45.64972" lon="4.66075">
        <ele>538</ele>
        <time>2017-02-18T10:20:31Z</time>
      </trkpt>
      <trkpt lat="45.64969" lon="4.6608">
        <ele>539</ele>
        <time>2017-02-18T10:20:33Z</time>
      </trkpt>
      <trkpt lat="45.64966" lon="4.66084">
        <ele>538</ele>
        <time>2017-02-18T10:20:35Z</time>
      </trkpt>
      <trkpt lat="45.64961" lon="4.66091">
        <ele>538</ele>
        <time>2017-02-18T10:20:38Z</time>
      </trkpt>
      <trkpt lat="45.64957" lon="4.66096">
        <ele>538</ele>
        <time>2017-02-18T10:20:40Z</time>
      </trkpt>
      <trkpt lat="45.64954" lon="4.661">
        <ele>538</ele>
        <time>2017-02-18T10:20:42Z</time>
      </trkpt>
      <trkpt lat="45.6495" lon="4.66105">
        <ele>538</ele>
        <time>2017-02-18T10:20:44Z</time>
      </trkpt>
      <trkpt lat="45.64947" lon="4.6611">
        <ele>538</ele>
        <time>2017-02-18T10:20:46Z</time>
      </trkpt>
      <trkpt lat="45.64943" lon="4.66115">
        <ele>538</ele>
        <time>2017-02-18T10:20:48Z</time>
      </trkpt>
      <trkpt lat="45.6494" lon="4.6612">
        <ele>538</ele>
        <time>2017-02-18T10:20:50Z</time>
      </trkpt>
      <trkpt lat="45.64936" lon="4.66125">
        <ele>538</ele>
        <time>2017-02-18T10:20:52Z</time>
      </trkpt>
      <trkpt lat="45.64932" lon="4.66129">
        <ele>538</ele>
        <time>2017-02-18T10:20:54Z</time>
      </trkpt>
      <trkpt lat="45.64929" lon="4.66135">
        <ele>538</ele>
        <time>2017-02-18T10:20:56Z</time>
      </trkpt>
      <trkpt lat="45.64925" lon="4.66139">
        <ele>538</ele>
        <time>2017-02-18T10:20:58Z</time>
      </trkpt>
      <trkpt lat="45.64922" lon="4.66144">
        <ele>538</ele>
        <time>2017-02-18T10:21:00Z</time>
      </trkpt>
      <trkpt lat="45.64918" lon="4.66149">
        <ele>538</ele>
        <time>2017-02-18T10:21:02Z</time>
      </trkpt>
      <trkpt lat="45.64915" lon="4.66154">
        <ele>538</ele>
        <time>2017-02-18T10:21:04Z</time>
      </trkpt>
      <trkpt lat="45.64911" lon="4.66161">
        <ele>538</ele>
        <time>2017-02-18T10:21:07Z</time>
      </trkpt>
      <trkpt lat="45.64907" lon="4.66168">
        <ele>538</ele>
        <time>2017-02-18T10:21:10Z</time>
      </trkpt>
      <trkpt lat="45.64904" lon="4.66176">
        <ele>538</ele>
        <time>2017-02-18T10:21:13Z</time>
      </trkpt>
      <trkpt lat="45.64901" lon="4.66184">
        <ele>538</ele>
        <time>2017-02-18T10:21:16Z</time>
      </trkpt>
      <trkpt lat="45.64902" lon="4.66192">
        <ele>537</ele>
        <time>2017-02-18T10:21:19Z</time>
      </trkpt>
      <trkpt lat="45.64904" lon="4.66198">
        <ele>536</ele>
        <time>2017-02-18T10:21:21Z</time>
      </trkpt>
      <trkpt lat="45.64908" lon="4.66198">
        <ele>536</ele>
        <time>2017-02-18T10:21:42Z</time>
      </trkpt>
      <trkpt lat="45.6491" lon="4.66201">
        <ele>536</ele>
        <time>2017-02-18T10:21:45Z</time>
      </trkpt>
      <trkpt lat="45.64914" lon="4.66206">
        <ele>536</ele>
        <time>2017-02-18T10:21:46Z</time>
      </trkpt>
      <trkpt lat="45.64919" lon="4.66212">
        <ele>537</ele>
        <time>2017-02-18T10:21:48Z</time>
      </trkpt>
      <trkpt lat="45.64925" lon="4.66219">
        <ele>537</ele>
        <time>2017-02-18T10:21:50Z</time>
      </trkpt>
      <trkpt lat="45.64931" lon="4.66226">
        <ele>537</ele>
        <time>2017-02-18T10:21:52Z</time>
      </trkpt>
      <trkpt lat="45.64941" lon="4.66232">
        <ele>537</ele>
        <time>2017-02-18T10:21:54Z</time>
      </trkpt>
      <trkpt lat="45.64948" lon="4.66237">
        <ele>536</ele>
        <time>2017-02-18T10:21:56Z</time>
      </trkpt>
      <trkpt lat="45.64956" lon="4.66241">
        <ele>536</ele>
        <time>2017-02-18T10:21:58Z</time>
      </trkpt>
      <trkpt lat="45.64965" lon="4.66245">
        <ele>536</ele>
        <time>2017-02-18T10:22:00Z</time>
      </trkpt>
      <trkpt lat="45.64969" lon="4.66247">
        <ele>536</ele>
        <time>2017-02-18T10:22:01Z</time>
      </trkpt>
      <trkpt lat="45.64977" lon="4.66251">
        <ele>535</ele>
        <time>2017-02-18T10:22:03Z</time>
      </trkpt>
      <trkpt lat="45.64982" lon="4.66254">
        <ele>535</ele>
        <time>2017-02-18T10:22:04Z</time>
      </trkpt>
      <trkpt lat="45.64986" lon="4.66256">
        <ele>535</ele>
        <time>2017-02-18T10:22:05Z</time>
      </trkpt>
      <trkpt lat="45.64995" lon="4.66261">
        <ele>534</ele>
        <time>2017-02-18T10:22:07Z</time>
      </trkpt>
      <trkpt lat="45.65" lon="4.66263">
        <ele>535</ele>
        <time>2017-02-18T10:22:08Z</time>
      </trkpt>
      <trkpt lat="45.65006" lon="4.66266">
        <ele>534</ele>
        <time>2017-02-18T10:22:09Z</time>
      </trkpt>
      <trkpt lat="45.65011" lon="4.66269">
        <ele>534</ele>
        <time>2017-02-18T10:22:10Z</time>
      </trkpt>
      <trkpt lat="45.65017" lon="4.66272">
        <ele>533</ele>
        <time>2017-02-18T10:22:11Z</time>
      </trkpt>
      <trkpt lat="45.65025" lon="4.66276">
        <ele>532</ele>
        <time>2017-02-18T10:22:13Z</time>
      </trkpt>
      <trkpt lat="45.65033" lon="4.6627">
        <ele>532</ele>
        <time>2017-02-18T10:22:15Z</time>
      </trkpt>
      <trkpt lat="45.65036" lon="4.66266">
        <ele>532</ele>
        <time>2017-02-18T10:22:16Z</time>
      </trkpt>
      <trkpt lat="45.65039" lon="4.66261">
        <ele>533</ele>
        <time>2017-02-18T10:22:17Z</time>
      </trkpt>
      <trkpt lat="45.65043" lon="4.66258">
        <ele>533</ele>
        <time>2017-02-18T10:22:18Z</time>
      </trkpt>
      <trkpt lat="45.65048" lon="4.66254">
        <ele>534</ele>
        <time>2017-02-18T10:22:19Z</time>
      </trkpt>
      <trkpt lat="45.65051" lon="4.66249">
        <ele>534</ele>
        <time>2017-02-18T10:22:20Z</time>
      </trkpt>
      <trkpt lat="45.65058" lon="4.6624">
        <ele>534</ele>
        <time>2017-02-18T10:22:22Z</time>
      </trkpt>
      <trkpt lat="45.65064" lon="4.66233">
        <ele>534</ele>
        <time>2017-02-18T10:22:24Z</time>
      </trkpt>
      <trkpt lat="45.65072" lon="4.66225">
        <ele>533</ele>
        <time>2017-02-18T10:22:26Z</time>
      </trkpt>
      <trkpt lat="45.65076" lon="4.6622">
        <ele>533</ele>
        <time>2017-02-18T10:22:27Z</time>
      </trkpt>
      <trkpt lat="45.65081" lon="4.66215">
        <ele>531</ele>
        <time>2017-02-18T10:22:28Z</time>
      </trkpt>
      <trkpt lat="45.65085" lon="4.66211">
        <ele>530</ele>
        <time>2017-02-18T10:22:29Z</time>
      </trkpt>
      <trkpt lat="45.65089" lon="4.66206">
        <ele>528</ele>
        <time>2017-02-18T10:22:30Z</time>
      </trkpt>
      <trkpt lat="45.65096" lon="4.66201">
        <ele>528</ele>
        <time>2017-02-18T10:22:32Z</time>
      </trkpt>
      <trkpt lat="45.651" lon="4.66196">
        <ele>527</ele>
        <time>2017-02-18T10:22:33Z</time>
      </trkpt>
      <trkpt lat="45.65107" lon="4.66191">
        <ele>528</ele>
        <time>2017-02-18T10:22:35Z</time>
      </trkpt>
      <trkpt lat="45.65115" lon="4.66187">
        <ele>529</ele>
        <time>2017-02-18T10:22:37Z</time>
      </trkpt>
      <trkpt lat="45.6512" lon="4.66182">
        <ele>529</ele>
        <time>2017-02-18T10:22:39Z</time>
      </trkpt>
      <trkpt lat="45.65126" lon="4.66179">
        <ele>530</ele>
        <time>2017-02-18T10:22:41Z</time>
      </trkpt>
      <trkpt lat="45.65133" lon="4.66177">
        <ele>531</ele>
        <time>2017-02-18T10:22:43Z</time>
      </trkpt>
      <trkpt lat="45.65141" lon="4.66176">
        <ele>530</ele>
        <time>2017-02-18T10:22:45Z</time>
      </trkpt>
      <trkpt lat="45.65149" lon="4.66175">
        <ele>530</ele>
        <time>2017-02-18T10:22:47Z</time>
      </trkpt>
      <trkpt lat="45.65157" lon="4.66174">
        <ele>529</ele>
        <time>2017-02-18T10:22:49Z</time>
      </trkpt>
      <trkpt lat="45.65164" lon="4.66175">
        <ele>528</ele>
        <time>2017-02-18T10:22:50Z</time>
      </trkpt>
      <trkpt lat="45.6517" lon="4.66175">
        <ele>527</ele>
        <time>2017-02-18T10:22:51Z</time>
      </trkpt>
      <trkpt lat="45.65179" lon="4.66175">
        <ele>527</ele>
        <time>2017-02-18T10:22:53Z</time>
      </trkpt>
      <trkpt lat="45.65184" lon="4.66176">
        <ele>526</ele>
        <time>2017-02-18T10:22:54Z</time>
      </trkpt>
      <trkpt lat="45.65193" lon="4.66177">
        <ele>526</ele>
        <time>2017-02-18T10:22:56Z</time>
      </trkpt>
      <trkpt lat="45.65198" lon="4.66179">
        <ele>526</ele>
        <time>2017-02-18T10:22:57Z</time>
      </trkpt>
      <trkpt lat="45.65203" lon="4.66181">
        <ele>526</ele>
        <time>2017-02-18T10:22:58Z</time>
      </trkpt>
      <trkpt lat="45.65211" lon="4.66182">
        <ele>526</ele>
        <time>2017-02-18T10:23:00Z</time>
      </trkpt>
      <trkpt lat="45.65215" lon="4.66183">
        <ele>525</ele>
        <time>2017-02-18T10:23:01Z</time>
      </trkpt>
      <trkpt lat="45.65221" lon="4.66185">
        <ele>525</ele>
        <time>2017-02-18T10:23:02Z</time>
      </trkpt>
      <trkpt lat="45.65231" lon="4.66186">
        <ele>524</ele>
        <time>2017-02-18T10:23:04Z</time>
      </trkpt>
      <trkpt lat="45.65237" lon="4.66185">
        <ele>522</ele>
        <time>2017-02-18T10:23:05Z</time>
      </trkpt>
      <trkpt lat="45.65245" lon="4.66184">
        <ele>521</ele>
        <time>2017-02-18T10:23:07Z</time>
      </trkpt>
      <trkpt lat="45.6525" lon="4.66183">
        <ele>520</ele>
        <time>2017-02-18T10:23:08Z</time>
      </trkpt>
      <trkpt lat="45.65257" lon="4.6618">
        <ele>518</ele>
        <time>2017-02-18T10:23:10Z</time>
      </trkpt>
      <trkpt lat="45.65267" lon="4.66177">
        <ele>516</ele>
        <time>2017-02-18T10:23:12Z</time>
      </trkpt>
      <trkpt lat="45.65271" lon="4.66173">
        <ele>515</ele>
        <time>2017-02-18T10:23:13Z</time>
      </trkpt>
      <trkpt lat="45.65279" lon="4.66169">
        <ele>514</ele>
        <time>2017-02-18T10:23:15Z</time>
      </trkpt>
      <trkpt lat="45.65287" lon="4.66162">
        <ele>512</ele>
        <time>2017-02-18T10:23:17Z</time>
      </trkpt>
      <trkpt lat="45.65292" lon="4.66159">
        <ele>512</ele>
        <time>2017-02-18T10:23:18Z</time>
      </trkpt>
      <trkpt lat="45.653" lon="4.66156">
        <ele>511</ele>
        <time>2017-02-18T10:23:20Z</time>
      </trkpt>
      <trkpt lat="45.65305" lon="4.66153">
        <ele>511</ele>
        <time>2017-02-18T10:23:21Z</time>
      </trkpt>
      <trkpt lat="45.65313" lon="4.6615">
        <ele>511</ele>
        <time>2017-02-18T10:23:23Z</time>
      </trkpt>
      <trkpt lat="45.65319" lon="4.66149">
        <ele>511</ele>
        <time>2017-02-18T10:23:25Z</time>
      </trkpt>
      <trkpt lat="45.65327" lon="4.66148">
        <ele>510</ele>
        <time>2017-02-18T10:23:27Z</time>
      </trkpt>
      <trkpt lat="45.65334" lon="4.66151">
        <ele>509</ele>
        <time>2017-02-18T10:23:29Z</time>
      </trkpt>
      <trkpt lat="45.65342" lon="4.66153">
        <ele>507</ele>
        <time>2017-02-18T10:23:31Z</time>
      </trkpt>
      <trkpt lat="45.6535" lon="4.66158">
        <ele>505</ele>
        <time>2017-02-18T10:23:33Z</time>
      </trkpt>
      <trkpt lat="45.65355" lon="4.66164">
        <ele>502</ele>
        <time>2017-02-18T10:23:34Z</time>
      </trkpt>
      <trkpt lat="45.65362" lon="4.6617">
        <ele>501</ele>
        <time>2017-02-18T10:23:36Z</time>
      </trkpt>
      <trkpt lat="45.65368" lon="4.66177">
        <ele>501</ele>
        <time>2017-02-18T10:23:38Z</time>
      </trkpt>
      <trkpt lat="45.65373" lon="4.66181">
        <ele>500</ele>
        <time>2017-02-18T10:23:39Z</time>
      </trkpt>
      <trkpt lat="45.65377" lon="4.66187">
        <ele>501</ele>
        <time>2017-02-18T10:23:41Z</time>
      </trkpt>
      <trkpt lat="45.65384" lon="4.66195">
        <ele>501</ele>
        <time>2017-02-18T10:23:43Z</time>
      </trkpt>
      <trkpt lat="45.65389" lon="4.66199">
        <ele>500</ele>
        <time>2017-02-18T10:23:44Z</time>
      </trkpt>
      <trkpt lat="45.65396" lon="4.66204">
        <ele>500</ele>
        <time>2017-02-18T10:23:46Z</time>
      </trkpt>
      <trkpt lat="45.654" lon="4.66208">
        <ele>499</ele>
        <time>2017-02-18T10:23:47Z</time>
      </trkpt>
      <trkpt lat="45.65402" lon="4.66215">
        <ele>498</ele>
        <time>2017-02-18T10:23:48Z</time>
      </trkpt>
      <trkpt lat="45.65402" lon="4.66222">
        <ele>498</ele>
        <time>2017-02-18T10:23:49Z</time>
      </trkpt>
      <trkpt lat="45.65403" lon="4.66231">
        <ele>497</ele>
        <time>2017-02-18T10:23:50Z</time>
      </trkpt>
      <trkpt lat="45.65404" lon="4.66238">
        <ele>497</ele>
        <time>2017-02-18T10:23:51Z</time>
      </trkpt>
      <trkpt lat="45.65405" lon="4.66246">
        <ele>496</ele>
        <time>2017-02-18T10:23:52Z</time>
      </trkpt>
      <trkpt lat="45.65407" lon="4.66253">
        <ele>496</ele>
        <time>2017-02-18T10:23:53Z</time>
      </trkpt>
      <trkpt lat="45.65412" lon="4.66265">
        <ele>495</ele>
        <time>2017-02-18T10:23:55Z</time>
      </trkpt>
      <trkpt lat="45.65415" lon="4.66272">
        <ele>495</ele>
        <time>2017-02-18T10:23:56Z</time>
      </trkpt>
      <trkpt lat="45.65419" lon="4.66279">
        <ele>494</ele>
        <time>2017-02-18T10:23:57Z</time>
      </trkpt>
      <trkpt lat="45.65423" lon="4.66285">
        <ele>493</ele>
        <time>2017-02-18T10:23:58Z</time>
      </trkpt>
      <trkpt lat="45.65429" lon="4.66298">
        <ele>493</ele>
        <time>2017-02-18T10:24:00Z</time>
      </trkpt>
      <trkpt lat="45.65432" lon="4.66305">
        <ele>492</ele>
        <time>2017-02-18T10:24:01Z</time>
      </trkpt>
      <trkpt lat="45.65435" lon="4.66311">
        <ele>491</ele>
        <time>2017-02-18T10:24:02Z</time>
      </trkpt>
      <trkpt lat="45.65439" lon="4.66318">
        <ele>490</ele>
        <time>2017-02-18T10:24:03Z</time>
      </trkpt>
      <trkpt lat="45.65442" lon="4.66323">
        <ele>489</ele>
        <time>2017-02-18T10:24:04Z</time>
      </trkpt>
      <trkpt lat="45.65446" lon="4.6633">
        <ele>489</ele>
        <time>2017-02-18T10:24:05Z</time>
      </trkpt>
      <trkpt lat="45.65451" lon="4.66338">
        <ele>488</ele>
        <time>2017-02-18T10:24:06Z</time>
      </trkpt>
      <trkpt lat="45.65454" lon="4.66346">
        <ele>487</ele>
        <time>2017-02-18T10:24:07Z</time>
      </trkpt>
      <trkpt lat="45.65458" lon="4.66355">
        <ele>487</ele>
        <time>2017-02-18T10:24:08Z</time>
      </trkpt>
      <trkpt lat="45.65462" lon="4.66362">
        <ele>486</ele>
        <time>2017-02-18T10:24:09Z</time>
      </trkpt>
      <trkpt lat="45.65467" lon="4.66368">
        <ele>485</ele>
        <time>2017-02-18T10:24:10Z</time>
      </trkpt>
      <trkpt lat="45.65472" lon="4.66375">
        <ele>485</ele>
        <time>2017-02-18T10:24:11Z</time>
      </trkpt>
      <trkpt lat="45.65476" lon="4.6638">
        <ele>484</ele>
        <time>2017-02-18T10:24:12Z</time>
      </trkpt>
      <trkpt lat="45.65483" lon="4.66388">
        <ele>484</ele>
        <time>2017-02-18T10:24:13Z</time>
      </trkpt>
      <trkpt lat="45.65489" lon="4.66393">
        <ele>483</ele>
        <time>2017-02-18T10:24:14Z</time>
      </trkpt>
      <trkpt lat="45.65499" lon="4.66404">
        <ele>482</ele>
        <time>2017-02-18T10:24:16Z</time>
      </trkpt>
      <trkpt lat="45.65503" lon="4.66409">
        <ele>481</ele>
        <time>2017-02-18T10:24:17Z</time>
      </trkpt>
      <trkpt lat="45.655" lon="4.66415">
        <ele>480</ele>
        <time>2017-02-18T10:24:18Z</time>
      </trkpt>
      <trkpt lat="45.65498" lon="4.66423">
        <ele>478</ele>
        <time>2017-02-18T10:24:19Z</time>
      </trkpt>
      <trkpt lat="45.6549" lon="4.66426">
        <ele>477</ele>
        <time>2017-02-18T10:24:21Z</time>
      </trkpt>
      <trkpt lat="45.65483" lon="4.66427">
        <ele>476</ele>
        <time>2017-02-18T10:24:23Z</time>
      </trkpt>
      <trkpt lat="45.65477" lon="4.66424">
        <ele>474</ele>
        <time>2017-02-18T10:24:25Z</time>
      </trkpt>
      <trkpt lat="45.65472" lon="4.66425">
        <ele>473</ele>
        <time>2017-02-18T10:24:27Z</time>
      </trkpt>
      <trkpt lat="45.65466" lon="4.66425">
        <ele>471</ele>
        <time>2017-02-18T10:24:29Z</time>
      </trkpt>
      <trkpt lat="45.65461" lon="4.66426">
        <ele>469</ele>
        <time>2017-02-18T10:24:31Z</time>
      </trkpt>
      <trkpt lat="45.65453" lon="4.66427">
        <ele>468</ele>
        <time>2017-02-18T10:24:33Z</time>
      </trkpt>
      <trkpt lat="45.65448" lon="4.66428">
        <ele>467</ele>
        <time>2017-02-18T10:24:34Z</time>
      </trkpt>
      <trkpt lat="45.65442" lon="4.66431">
        <ele>465</ele>
        <time>2017-02-18T10:24:35Z</time>
      </trkpt>
      <trkpt lat="45.65437" lon="4.66432">
        <ele>465</ele>
        <time>2017-02-18T10:24:36Z</time>
      </trkpt>
      <trkpt lat="45.65429" lon="4.66434">
        <ele>464</ele>
        <time>2017-02-18T10:24:38Z</time>
      </trkpt>
      <trkpt lat="45.65424" lon="4.66436">
        <ele>464</ele>
        <time>2017-02-18T10:24:40Z</time>
      </trkpt>
      <trkpt lat="45.65419" lon="4.6644">
        <ele>464</ele>
        <time>2017-02-18T10:24:44Z</time>
      </trkpt>
      <trkpt lat="45.65421" lon="4.66446">
        <ele>463</ele>
        <time>2017-02-18T10:25:05Z</time>
      </trkpt>
      <trkpt lat="45.65417" lon="4.66452">
        <ele>463</ele>
        <time>2017-02-18T10:25:08Z</time>
      </trkpt>
      <trkpt lat="45.65414" lon="4.66458">
        <ele>462</ele>
        <time>2017-02-18T10:25:11Z</time>
      </trkpt>
      <trkpt lat="45.65413" lon="4.66466">
        <ele>462</ele>
        <time>2017-02-18T10:25:15Z</time>
      </trkpt>
      <trkpt lat="45.6541" lon="4.66471">
        <ele>461</ele>
        <time>2017-02-18T10:25:18Z</time>
      </trkpt>
      <trkpt lat="45.65406" lon="4.66477">
        <ele>462</ele>
        <time>2017-02-18T10:25:21Z</time>
      </trkpt>
      <trkpt lat="45.65402" lon="4.66483">
        <ele>463</ele>
        <time>2017-02-18T10:25:24Z</time>
      </trkpt>
      <trkpt lat="45.654" lon="4.66489">
        <ele>464</ele>
        <time>2017-02-18T10:25:26Z</time>
      </trkpt>
      <trkpt lat="45.65396" lon="4.66496">
        <ele>464</ele>
        <time>2017-02-18T10:25:29Z</time>
      </trkpt>
      <trkpt lat="45.65391" lon="4.66501">
        <ele>464</ele>
        <time>2017-02-18T10:25:32Z</time>
      </trkpt>
      <trkpt lat="45.65387" lon="4.66505">
        <ele>463</ele>
        <time>2017-02-18T10:25:34Z</time>
      </trkpt>
      <trkpt lat="45.65382" lon="4.66509">
        <ele>463</ele>
        <time>2017-02-18T10:25:36Z</time>
      </trkpt>
      <trkpt lat="45.65379" lon="4.66515">
        <ele>462</ele>
        <time>2017-02-18T10:25:38Z</time>
      </trkpt>
      <trkpt lat="45.65376" lon="4.66521">
        <ele>463</ele>
        <time>2017-02-18T10:25:40Z</time>
      </trkpt>
      <trkpt lat="45.65373" lon="4.66527">
        <ele>462</ele>
        <time>2017-02-18T10:25:42Z</time>
      </trkpt>
      <trkpt lat="45.65369" lon="4.66532">
        <ele>462</ele>
        <time>2017-02-18T10:25:44Z</time>
      </trkpt>
      <trkpt lat="45.65366" lon="4.66538">
        <ele>461</ele>
        <time>2017-02-18T10:25:46Z</time>
      </trkpt>
      <trkpt lat="45.65362" lon="4.66543">
        <ele>461</ele>
        <time>2017-02-18T10:25:48Z</time>
      </trkpt>
      <trkpt lat="45.65359" lon="4.66549">
        <ele>461</ele>
        <time>2017-02-18T10:25:50Z</time>
      </trkpt>
      <trkpt lat="45.65356" lon="4.66555">
        <ele>461</ele>
        <time>2017-02-18T10:25:52Z</time>
      </trkpt>
      <trkpt lat="45.65353" lon="4.66561">
        <ele>462</ele>
        <time>2017-02-18T10:25:54Z</time>
      </trkpt>
      <trkpt lat="45.65349" lon="4.66567">
        <ele>463</ele>
        <time>2017-02-18T10:25:57Z</time>
      </trkpt>
      <trkpt lat="45.65346" lon="4.66575">
        <ele>463</ele>
        <time>2017-02-18T10:26:01Z</time>
      </trkpt>
      <trkpt lat="45.65341" lon="4.66579">
        <ele>463</ele>
        <time>2017-02-18T10:26:04Z</time>
      </trkpt>
      <trkpt lat="45.65336" lon="4.66583">
        <ele>463</ele>
        <time>2017-02-18T10:26:07Z</time>
      </trkpt>
      <trkpt lat="45.65331" lon="4.66589">
        <ele>463</ele>
        <time>2017-02-18T10:26:10Z</time>
      </trkpt>
      <trkpt lat="45.65328" lon="4.66595">
        <ele>462</ele>
        <time>2017-02-18T10:26:12Z</time>
      </trkpt>
      <trkpt lat="45.65324" lon="4.666">
        <ele>462</ele>
        <time>2017-02-18T10:26:14Z</time>
      </trkpt>
      <trkpt lat="45.6532" lon="4.66603">
        <ele>463</ele>
        <time>2017-02-18T10:26:16Z</time>
      </trkpt>
      <trkpt lat="45.65316" lon="4.66606">
        <ele>463</ele>
        <time>2017-02-18T10:26:18Z</time>
      </trkpt>
      <trkpt lat="45.65311" lon="4.6661">
        <ele>463</ele>
        <time>2017-02-18T10:26:20Z</time>
      </trkpt>
      <trkpt lat="45.65308" lon="4.66618">
        <ele>463</ele>
        <time>2017-02-18T10:26:22Z</time>
      </trkpt>
      <trkpt lat="45.65305" lon="4.66625">
        <ele>463</ele>
        <time>2017-02-18T10:26:24Z</time>
      </trkpt>
      <trkpt lat="45.65303" lon="4.66631">
        <ele>463</ele>
        <time>2017-02-18T10:26:26Z</time>
      </trkpt>
      <trkpt lat="45.653" lon="4.66637">
        <ele>462</ele>
        <time>2017-02-18T10:26:28Z</time>
      </trkpt>
      <trkpt lat="45.65297" lon="4.66643">
        <ele>462</ele>
        <time>2017-02-18T10:26:30Z</time>
      </trkpt>
      <trkpt lat="45.65294" lon="4.66649">
        <ele>462</ele>
        <time>2017-02-18T10:26:32Z</time>
      </trkpt>
      <trkpt lat="45.65291" lon="4.66655">
        <ele>462</ele>
        <time>2017-02-18T10:26:34Z</time>
      </trkpt>
      <trkpt lat="45.65286" lon="4.66661">
        <ele>462</ele>
        <time>2017-02-18T10:26:36Z</time>
      </trkpt>
      <trkpt lat="45.65281" lon="4.66669">
        <ele>462</ele>
        <time>2017-02-18T10:26:38Z</time>
      </trkpt>
      <trkpt lat="45.65276" lon="4.66674">
        <ele>462</ele>
        <time>2017-02-18T10:26:40Z</time>
      </trkpt>
      <trkpt lat="45.65271" lon="4.66679">
        <ele>463</ele>
        <time>2017-02-18T10:26:42Z</time>
      </trkpt>
      <trkpt lat="45.65266" lon="4.66683">
        <ele>463</ele>
        <time>2017-02-18T10:26:44Z</time>
      </trkpt>
      <trkpt lat="45.65261" lon="4.66685">
        <ele>462</ele>
        <time>2017-02-18T10:26:46Z</time>
      </trkpt>
      <trkpt lat="45.65256" lon="4.66687">
        <ele>461</ele>
        <time>2017-02-18T10:26:49Z</time>
      </trkpt>
      <trkpt lat="45.65251" lon="4.66687">
        <ele>460</ele>
        <time>2017-02-18T10:26:52Z</time>
      </trkpt>
      <trkpt lat="45.65245" lon="4.66689">
        <ele>459</ele>
        <time>2017-02-18T10:26:55Z</time>
      </trkpt>
      <trkpt lat="45.65241" lon="4.6669">
        <ele>458</ele>
        <time>2017-02-18T10:26:59Z</time>
      </trkpt>
      <trkpt lat="45.65235" lon="4.66694">
        <ele>458</ele>
        <time>2017-02-18T10:27:03Z</time>
      </trkpt>
      <trkpt lat="45.65231" lon="4.66695">
        <ele>457</ele>
        <time>2017-02-18T10:27:06Z</time>
      </trkpt>
      <trkpt lat="45.65226" lon="4.66698">
        <ele>456</ele>
        <time>2017-02-18T10:27:09Z</time>
      </trkpt>
      <trkpt lat="45.6522" lon="4.66701">
        <ele>454</ele>
        <time>2017-02-18T10:27:12Z</time>
      </trkpt>
      <trkpt lat="45.65213" lon="4.66702">
        <ele>453</ele>
        <time>2017-02-18T10:27:15Z</time>
      </trkpt>
      <trkpt lat="45.65207" lon="4.66702">
        <ele>451</ele>
        <time>2017-02-18T10:27:18Z</time>
      </trkpt>
      <trkpt lat="45.65202" lon="4.66702">
        <ele>449</ele>
        <time>2017-02-18T10:27:20Z</time>
      </trkpt>
      <trkpt lat="45.65194" lon="4.66701">
        <ele>448</ele>
        <time>2017-02-18T10:27:22Z</time>
      </trkpt>
      <trkpt lat="45.65185" lon="4.667">
        <ele>448</ele>
        <time>2017-02-18T10:27:24Z</time>
      </trkpt>
      <trkpt lat="45.65177" lon="4.66698">
        <ele>449</ele>
        <time>2017-02-18T10:27:26Z</time>
      </trkpt>
      <trkpt lat="45.6517" lon="4.66696">
        <ele>450</ele>
        <time>2017-02-18T10:27:28Z</time>
      </trkpt>
      <trkpt lat="45.65166" lon="4.667">
        <ele>451</ele>
        <time>2017-02-18T10:27:30Z</time>
      </trkpt>
      <trkpt lat="45.65163" lon="4.66708">
        <ele>452</ele>
        <time>2017-02-18T10:27:32Z</time>
      </trkpt>
      <trkpt lat="45.65162" lon="4.66715">
        <ele>452</ele>
        <time>2017-02-18T10:27:34Z</time>
      </trkpt>
      <trkpt lat="45.65162" lon="4.66724">
        <ele>452</ele>
        <time>2017-02-18T10:27:37Z</time>
      </trkpt>
      <trkpt lat="45.65165" lon="4.66731">
        <ele>451</ele>
        <time>2017-02-18T10:27:40Z</time>
      </trkpt>
      <trkpt lat="45.65166" lon="4.66739">
        <ele>451</ele>
        <time>2017-02-18T10:27:43Z</time>
      </trkpt>
      <trkpt lat="45.65168" lon="4.66746">
        <ele>451</ele>
        <time>2017-02-18T10:27:46Z</time>
      </trkpt>
      <trkpt lat="45.65171" lon="4.66753">
        <ele>452</ele>
        <time>2017-02-18T10:27:49Z</time>
      </trkpt>
      <trkpt lat="45.65173" lon="4.66759">
        <ele>454</ele>
        <time>2017-02-18T10:27:52Z</time>
      </trkpt>
      <trkpt lat="45.65176" lon="4.66765">
        <ele>456</ele>
        <time>2017-02-18T10:27:56Z</time>
      </trkpt>
      <trkpt lat="45.6518" lon="4.66771">
        <ele>458</ele>
        <time>2017-02-18T10:28:00Z</time>
      </trkpt>
      <trkpt lat="45.65183" lon="4.66777">
        <ele>460</ele>
        <time>2017-02-18T10:28:04Z</time>
      </trkpt>
      <trkpt lat="45.65186" lon="4.66782">
        <ele>461</ele>
        <time>2017-02-18T10:28:08Z</time>
      </trkpt>
      <trkpt lat="45.65189" lon="4.66787">
        <ele>462</ele>
        <time>2017-02-18T10:28:12Z</time>
      </trkpt>
      <trkpt lat="45.65184" lon="4.66788">
        <ele>464</ele>
        <time>2017-02-18T10:28:26Z</time>
      </trkpt>
      <trkpt lat="45.65187" lon="4.66791">
        <ele>464</ele>
        <time>2017-02-18T10:28:42Z</time>
      </trkpt>
      <trkpt lat="45.65188" lon="4.66792">
        <ele>464</ele>
        <time>2017-02-18T10:28:45Z</time>
      </trkpt>
      <trkpt lat="45.65191" lon="4.66797">
        <ele>463</ele>
        <time>2017-02-18T10:28:48Z</time>
      </trkpt>
      <trkpt lat="45.65196" lon="4.66802">
        <ele>462</ele>
        <time>2017-02-18T10:28:51Z</time>
      </trkpt>
      <trkpt lat="45.65199" lon="4.66807">
        <ele>462</ele>
        <time>2017-02-18T10:28:55Z</time>
      </trkpt>
      <trkpt lat="45.652" lon="4.66813">
        <ele>461</ele>
        <time>2017-02-18T10:29:08Z</time>
      </trkpt>
      <trkpt lat="45.65199" lon="4.66819">
        <ele>461</ele>
        <time>2017-02-18T10:29:12Z</time>
      </trkpt>
      <trkpt lat="45.652" lon="4.66826">
        <ele>462</ele>
        <time>2017-02-18T10:29:21Z</time>
      </trkpt>
      <trkpt lat="45.65201" lon="4.66833">
        <ele>462</ele>
        <time>2017-02-18T10:29:26Z</time>
      </trkpt>
      <trkpt lat="45.652" lon="4.66834">
        <ele>463</ele>
        <time>2017-02-18T10:29:42Z</time>
      </trkpt>
      <trkpt lat="45.652" lon="4.66834">
        <ele>464</ele>
        <time>2017-02-18T10:29:44Z</time>
      </trkpt>
      <trkpt lat="45.652" lon="4.66834">
        <ele>465</ele>
        <time>2017-02-18T10:30:12Z</time>
      </trkpt>
      <trkpt lat="45.652" lon="4.66834">
        <ele>465</ele>
        <time>2017-02-18T10:30:15Z</time>
      </trkpt>
      <trkpt lat="45.65203" lon="4.66842">
        <ele>465</ele>
        <time>2017-02-18T10:30:31Z</time>
      </trkpt>
      <trkpt lat="45.65205" lon="4.6685">
        <ele>466</ele>
        <time>2017-02-18T10:30:34Z</time>
      </trkpt>
      <trkpt lat="45.65206" lon="4.66856">
        <ele>467</ele>
        <time>2017-02-18T10:30:37Z</time>
      </trkpt>
      <trkpt lat="45.65205" lon="4.66863">
        <ele>468</ele>
        <time>2017-02-18T10:30:40Z</time>
      </trkpt>
      <trkpt lat="45.65202" lon="4.6687">
        <ele>469</ele>
        <time>2017-02-18T10:30:44Z</time>
      </trkpt>
      <trkpt lat="45.652" lon="4.66876">
        <ele>470</ele>
        <time>2017-02-18T10:30:49Z</time>
      </trkpt>
      <trkpt lat="45.65198" lon="4.66883">
        <ele>473</ele>
        <time>2017-02-18T10:31:07Z</time>
      </trkpt>
      <trkpt lat="45.65195" lon="4.66888">
        <ele>475</ele>
        <time>2017-02-18T10:31:10Z</time>
      </trkpt>
      <trkpt lat="45.65191" lon="4.66894">
        <ele>477</ele>
        <time>2017-02-18T10:31:14Z</time>
      </trkpt>
      <trkpt lat="45.65188" lon="4.669">
        <ele>479</ele>
        <time>2017-02-18T10:31:17Z</time>
      </trkpt>
      <trkpt lat="45.65186" lon="4.66905">
        <ele>480</ele>
        <time>2017-02-18T10:31:20Z</time>
      </trkpt>
      <trkpt lat="45.65183" lon="4.66911">
        <ele>479</ele>
        <time>2017-02-18T10:31:38Z</time>
      </trkpt>
      <trkpt lat="45.65181" lon="4.66919">
        <ele>479</ele>
        <time>2017-02-18T10:31:42Z</time>
      </trkpt>
      <trkpt lat="45.65177" lon="4.66924">
        <ele>479</ele>
        <time>2017-02-18T10:31:45Z</time>
      </trkpt>
      <trkpt lat="45.65175" lon="4.6693">
        <ele>479</ele>
        <time>2017-02-18T10:31:48Z</time>
      </trkpt>
      <trkpt lat="45.65172" lon="4.66935">
        <ele>479</ele>
        <time>2017-02-18T10:31:51Z</time>
      </trkpt>
      <trkpt lat="45.65169" lon="4.66942">
        <ele>478</ele>
        <time>2017-02-18T10:31:55Z</time>
      </trkpt>
      <trkpt lat="45.65168" lon="4.66944">
        <ele>478</ele>
        <time>2017-02-18T10:32:12Z</time>
      </trkpt>
      <trkpt lat="45.65168" lon="4.66944">
        <ele>478</ele>
        <time>2017-02-18T10:32:15Z</time>
      </trkpt>
      <trkpt lat="45.65168" lon="4.66944">
        <ele>477</ele>
        <time>2017-02-18T10:32:42Z</time>
      </trkpt>
      <trkpt lat="45.65168" lon="4.66944">
        <ele>477</ele>
        <time>2017-02-18T10:32:45Z</time>
      </trkpt>
      <trkpt lat="45.65164" lon="4.66948">
        <ele>477</ele>
        <time>2017-02-18T10:32:52Z</time>
      </trkpt>
      <trkpt lat="45.6516" lon="4.66952">
        <ele>476</ele>
        <time>2017-02-18T10:32:55Z</time>
      </trkpt>
      <trkpt lat="45.65157" lon="4.66957">
        <ele>476</ele>
        <time>2017-02-18T10:32:57Z</time>
      </trkpt>
      <trkpt lat="45.65153" lon="4.66962">
        <ele>475</ele>
        <time>2017-02-18T10:32:59Z</time>
      </trkpt>
      <trkpt lat="45.65149" lon="4.66966">
        <ele>474</ele>
        <time>2017-02-18T10:33:01Z</time>
      </trkpt>
      <trkpt lat="45.65145" lon="4.66971">
        <ele>474</ele>
        <time>2017-02-18T10:33:03Z</time>
      </trkpt>
      <trkpt lat="45.65142" lon="4.66976">
        <ele>473</ele>
        <time>2017-02-18T10:33:05Z</time>
      </trkpt>
      <trkpt lat="45.65138" lon="4.6698">
        <ele>473</ele>
        <time>2017-02-18T10:33:07Z</time>
      </trkpt>
      <trkpt lat="45.65134" lon="4.66985">
        <ele>472</ele>
        <time>2017-02-18T10:33:09Z</time>
      </trkpt>
      <trkpt lat="45.65131" lon="4.66989">
        <ele>472</ele>
        <time>2017-02-18T10:33:11Z</time>
      </trkpt>
      <trkpt lat="45.65126" lon="4.66993">
        <ele>472</ele>
        <time>2017-02-18T10:33:13Z</time>
      </trkpt>
      <trkpt lat="45.65122" lon="4.66995">
        <ele>473</ele>
        <time>2017-02-18T10:33:15Z</time>
      </trkpt>
      <trkpt lat="45.65115" lon="4.66997">
        <ele>473</ele>
        <time>2017-02-18T10:33:18Z</time>
      </trkpt>
      <trkpt lat="45.65109" lon="4.66998">
        <ele>473</ele>
        <time>2017-02-18T10:33:21Z</time>
      </trkpt>
      <trkpt lat="45.65104" lon="4.67">
        <ele>473</ele>
        <time>2017-02-18T10:33:23Z</time>
      </trkpt>
      <trkpt lat="45.65098" lon="4.67001">
        <ele>473</ele>
        <time>2017-02-18T10:33:25Z</time>
      </trkpt>
      <trkpt lat="45.65093" lon="4.67002">
        <ele>472</ele>
        <time>2017-02-18T10:33:27Z</time>
      </trkpt>
      <trkpt lat="45.65087" lon="4.67004">
        <ele>473</ele>
        <time>2017-02-18T10:33:29Z</time>
      </trkpt>
      <trkpt lat="45.65083" lon="4.67008">
        <ele>472</ele>
        <time>2017-02-18T10:33:31Z</time>
      </trkpt>
      <trkpt lat="45.65078" lon="4.67013">
        <ele>473</ele>
        <time>2017-02-18T10:33:33Z</time>
      </trkpt>
      <trkpt lat="45.65073" lon="4.67018">
        <ele>473</ele>
        <time>2017-02-18T10:33:35Z</time>
      </trkpt>
      <trkpt lat="45.65069" lon="4.67023">
        <ele>473</ele>
        <time>2017-02-18T10:33:37Z</time>
      </trkpt>
      <trkpt lat="45.65065" lon="4.67029">
        <ele>473</ele>
        <time>2017-02-18T10:33:39Z</time>
      </trkpt>
      <trkpt lat="45.6506" lon="4.67034">
        <ele>474</ele>
        <time>2017-02-18T10:33:41Z</time>
      </trkpt>
      <trkpt lat="45.65057" lon="4.6704">
        <ele>474</ele>
        <time>2017-02-18T10:33:43Z</time>
      </trkpt>
      <trkpt lat="45.65052" lon="4.67045">
        <ele>474</ele>
        <time>2017-02-18T10:33:45Z</time>
      </trkpt>
      <trkpt lat="45.65048" lon="4.67051">
        <ele>475</ele>
        <time>2017-02-18T10:33:47Z</time>
      </trkpt>
      <trkpt lat="45.65044" lon="4.67056">
        <ele>475</ele>
        <time>2017-02-18T10:33:49Z</time>
      </trkpt>
      <trkpt lat="45.65039" lon="4.67062">
        <ele>476</ele>
        <time>2017-02-18T10:33:52Z</time>
      </trkpt>
      <trkpt lat="45.65036" lon="4.67066">
        <ele>476</ele>
        <time>2017-02-18T10:33:54Z</time>
      </trkpt>
      <trkpt lat="45.65032" lon="4.6707">
        <ele>476</ele>
        <time>2017-02-18T10:33:56Z</time>
      </trkpt>
      <trkpt lat="45.65027" lon="4.67074">
        <ele>476</ele>
        <time>2017-02-18T10:33:58Z</time>
      </trkpt>
      <trkpt lat="45.65023" lon="4.67078">
        <ele>476</ele>
        <time>2017-02-18T10:34:00Z</time>
      </trkpt>
      <trkpt lat="45.65017" lon="4.67084">
        <ele>476</ele>
        <time>2017-02-18T10:34:02Z</time>
      </trkpt>
      <trkpt lat="45.65012" lon="4.67089">
        <ele>475</ele>
        <time>2017-02-18T10:34:04Z</time>
      </trkpt>
      <trkpt lat="45.65007" lon="4.67092">
        <ele>475</ele>
        <time>2017-02-18T10:34:05Z</time>
      </trkpt>
      <trkpt lat="45.65001" lon="4.67098">
        <ele>475</ele>
        <time>2017-02-18T10:34:07Z</time>
      </trkpt>
      <trkpt lat="45.64993" lon="4.67104">
        <ele>474</ele>
        <time>2017-02-18T10:34:09Z</time>
      </trkpt>
      <trkpt lat="45.64986" lon="4.67111">
        <ele>474</ele>
        <time>2017-02-18T10:34:11Z</time>
      </trkpt>
      <trkpt lat="45.64977" lon="4.67119">
        <ele>473</ele>
        <time>2017-02-18T10:34:13Z</time>
      </trkpt>
      <trkpt lat="45.64973" lon="4.67122">
        <ele>472</ele>
        <time>2017-02-18T10:34:14Z</time>
      </trkpt>
      <trkpt lat="45.64965" lon="4.67124">
        <ele>471</ele>
        <time>2017-02-18T10:34:16Z</time>
      </trkpt>
      <trkpt lat="45.64958" lon="4.67129">
        <ele>471</ele>
        <time>2017-02-18T10:34:18Z</time>
      </trkpt>
      <trkpt lat="45.64951" lon="4.67132">
        <ele>471</ele>
        <time>2017-02-18T10:34:20Z</time>
      </trkpt>
      <trkpt lat="45.64944" lon="4.67136">
        <ele>471</ele>
        <time>2017-02-18T10:34:22Z</time>
      </trkpt>
      <trkpt lat="45.64937" lon="4.6714">
        <ele>471</ele>
        <time>2017-02-18T10:34:24Z</time>
      </trkpt>
      <trkpt lat="45.6493" lon="4.67141">
        <ele>472</ele>
        <time>2017-02-18T10:34:26Z</time>
      </trkpt>
      <trkpt lat="45.64922" lon="4.67144">
        <ele>472</ele>
        <time>2017-02-18T10:34:28Z</time>
      </trkpt>
      <trkpt lat="45.64914" lon="4.67149">
        <ele>472</ele>
        <time>2017-02-18T10:34:30Z</time>
      </trkpt>
      <trkpt lat="45.64909" lon="4.67151">
        <ele>473</ele>
        <time>2017-02-18T10:34:32Z</time>
      </trkpt>
      <trkpt lat="45.64903" lon="4.67154">
        <ele>474</ele>
        <time>2017-02-18T10:34:34Z</time>
      </trkpt>
      <trkpt lat="45.64896" lon="4.67158">
        <ele>474</ele>
        <time>2017-02-18T10:34:36Z</time>
      </trkpt>
      <trkpt lat="45.6489" lon="4.67162">
        <ele>473</ele>
        <time>2017-02-18T10:34:38Z</time>
      </trkpt>
      <trkpt lat="45.64883" lon="4.67168">
        <ele>473</ele>
        <time>2017-02-18T10:34:40Z</time>
      </trkpt>
      <trkpt lat="45.64879" lon="4.67173">
        <ele>473</ele>
        <time>2017-02-18T10:34:42Z</time>
      </trkpt>
      <trkpt lat="45.64875" lon="4.67181">
        <ele>473</ele>
        <time>2017-02-18T10:34:44Z</time>
      </trkpt>
      <trkpt lat="45.64874" lon="4.67191">
        <ele>474</ele>
        <time>2017-02-18T10:34:46Z</time>
      </trkpt>
      <trkpt lat="45.64872" lon="4.672">
        <ele>474</ele>
        <time>2017-02-18T10:34:48Z</time>
      </trkpt>
      <trkpt lat="45.64871" lon="4.67208">
        <ele>475</ele>
        <time>2017-02-18T10:34:50Z</time>
      </trkpt>
      <trkpt lat="45.64868" lon="4.67217">
        <ele>475</ele>
        <time>2017-02-18T10:34:52Z</time>
      </trkpt>
      <trkpt lat="45.64864" lon="4.67223">
        <ele>476</ele>
        <time>2017-02-18T10:34:54Z</time>
      </trkpt>
      <trkpt lat="45.64861" lon="4.6723">
        <ele>476</ele>
        <time>2017-02-18T10:34:56Z</time>
      </trkpt>
      <trkpt lat="45.64859" lon="4.67236">
        <ele>476</ele>
        <time>2017-02-18T10:34:58Z</time>
      </trkpt>
      <trkpt lat="45.64857" lon="4.67243">
        <ele>476</ele>
        <time>2017-02-18T10:35:00Z</time>
      </trkpt>
      <trkpt lat="45.64856" lon="4.67249">
        <ele>477</ele>
        <time>2017-02-18T10:35:02Z</time>
      </trkpt>
      <trkpt lat="45.64854" lon="4.67256">
        <ele>477</ele>
        <time>2017-02-18T10:35:04Z</time>
      </trkpt>
      <trkpt lat="45.64852" lon="4.67261">
        <ele>477</ele>
        <time>2017-02-18T10:35:06Z</time>
      </trkpt>
      <trkpt lat="45.6485" lon="4.67268">
        <ele>477</ele>
        <time>2017-02-18T10:35:08Z</time>
      </trkpt>
      <trkpt lat="45.64847" lon="4.67276">
        <ele>477</ele>
        <time>2017-02-18T10:35:11Z</time>
      </trkpt>
      <trkpt lat="45.64844" lon="4.67282">
        <ele>478</ele>
        <time>2017-02-18T10:35:13Z</time>
      </trkpt>
      <trkpt lat="45.6484" lon="4.6729">
        <ele>478</ele>
        <time>2017-02-18T10:35:16Z</time>
      </trkpt>
      <trkpt lat="45.64837" lon="4.67297">
        <ele>478</ele>
        <time>2017-02-18T10:35:19Z</time>
      </trkpt>
      <trkpt lat="45.64834" lon="4.67303">
        <ele>478</ele>
        <time>2017-02-18T10:35:22Z</time>
      </trkpt>
      <trkpt lat="45.6483" lon="4.6731">
        <ele>478</ele>
        <time>2017-02-18T10:35:25Z</time>
      </trkpt>
      <trkpt lat="45.64828" lon="4.67315">
        <ele>478</ele>
        <time>2017-02-18T10:35:28Z</time>
      </trkpt>
      <trkpt lat="45.64824" lon="4.67318">
        <ele>479</ele>
        <time>2017-02-18T10:35:57Z</time>
      </trkpt>
      <trkpt lat="45.6482" lon="4.67314">
        <ele>479</ele>
        <time>2017-02-18T10:36:00Z</time>
      </trkpt>
      <trkpt lat="45.64817" lon="4.67305">
        <ele>480</ele>
        <time>2017-02-18T10:36:02Z</time>
      </trkpt>
      <trkpt lat="45.64817" lon="4.67298">
        <ele>480</ele>
        <time>2017-02-18T10:36:04Z</time>
      </trkpt>
      <trkpt lat="45.64816" lon="4.67292">
        <ele>481</ele>
        <time>2017-02-18T10:36:06Z</time>
      </trkpt>
      <trkpt lat="45.64815" lon="4.67285">
        <ele>481</ele>
        <time>2017-02-18T10:36:08Z</time>
      </trkpt>
      <trkpt lat="45.64814" lon="4.67279">
        <ele>482</ele>
        <time>2017-02-18T10:36:10Z</time>
      </trkpt>
      <trkpt lat="45.64813" lon="4.67272">
        <ele>482</ele>
        <time>2017-02-18T10:36:12Z</time>
      </trkpt>
      <trkpt lat="45.64813" lon="4.67266">
        <ele>482</ele>
        <time>2017-02-18T10:36:14Z</time>
      </trkpt>
      <trkpt lat="45.64812" lon="4.67259">
        <ele>482</ele>
        <time>2017-02-18T10:36:16Z</time>
      </trkpt>
      <trkpt lat="45.6481" lon="4.67253">
        <ele>483</ele>
        <time>2017-02-18T10:36:18Z</time>
      </trkpt>
      <trkpt lat="45.64809" lon="4.67246">
        <ele>483</ele>
        <time>2017-02-18T10:36:20Z</time>
      </trkpt>
      <trkpt lat="45.64808" lon="4.67238">
        <ele>483</ele>
        <time>2017-02-18T10:36:23Z</time>
      </trkpt>
      <trkpt lat="45.64807" lon="4.6723">
        <ele>484</ele>
        <time>2017-02-18T10:36:26Z</time>
      </trkpt>
      <trkpt lat="45.64806" lon="4.67221">
        <ele>484</ele>
        <time>2017-02-18T10:36:29Z</time>
      </trkpt>
      <trkpt lat="45.64805" lon="4.67214">
        <ele>484</ele>
        <time>2017-02-18T10:36:32Z</time>
      </trkpt>
      <trkpt lat="45.64803" lon="4.67207">
        <ele>484</ele>
        <time>2017-02-18T10:36:35Z</time>
      </trkpt>
      <trkpt lat="45.64802" lon="4.672">
        <ele>484</ele>
        <time>2017-02-18T10:36:38Z</time>
      </trkpt>
      <trkpt lat="45.648" lon="4.67193">
        <ele>485</ele>
        <time>2017-02-18T10:36:41Z</time>
      </trkpt>
      <trkpt lat="45.64799" lon="4.67186">
        <ele>485</ele>
        <time>2017-02-18T10:36:44Z</time>
      </trkpt>
      <trkpt lat="45.64797" lon="4.67179">
        <ele>485</ele>
        <time>2017-02-18T10:36:47Z</time>
      </trkpt>
      <trkpt lat="45.64795" lon="4.67172">
        <ele>486</ele>
        <time>2017-02-18T10:36:50Z</time>
      </trkpt>
      <trkpt lat="45.64793" lon="4.67165">
        <ele>486</ele>
        <time>2017-02-18T10:36:53Z</time>
      </trkpt>
      <trkpt lat="45.6479" lon="4.67158">
        <ele>486</ele>
        <time>2017-02-18T10:36:56Z</time>
      </trkpt>
      <trkpt lat="45.64788" lon="4.67151">
        <ele>486</ele>
        <time>2017-02-18T10:36:59Z</time>
      </trkpt>
      <trkpt lat="45.64784" lon="4.67144">
        <ele>487</ele>
        <time>2017-02-18T10:37:02Z</time>
      </trkpt>
      <trkpt lat="45.6478" lon="4.67136">
        <ele>487</ele>
        <time>2017-02-18T10:37:05Z</time>
      </trkpt>
      <trkpt lat="45.64777" lon="4.67131">
        <ele>487</ele>
        <time>2017-02-18T10:37:07Z</time>
      </trkpt>
      <trkpt lat="45.64772" lon="4.67123">
        <ele>487</ele>
        <time>2017-02-18T10:37:10Z</time>
      </trkpt>
      <trkpt lat="45.64768" lon="4.67118">
        <ele>488</ele>
        <time>2017-02-18T10:37:13Z</time>
      </trkpt>
      <trkpt lat="45.64763" lon="4.67112">
        <ele>488</ele>
        <time>2017-02-18T10:37:16Z</time>
      </trkpt>
      <trkpt lat="45.64757" lon="4.67107">
        <ele>488</ele>
        <time>2017-02-18T10:37:19Z</time>
      </trkpt>
      <trkpt lat="45.64754" lon="4.67103">
        <ele>489</ele>
        <time>2017-02-18T10:37:21Z</time>
      </trkpt>
      <trkpt lat="45.6475" lon="4.67099">
        <ele>489</ele>
        <time>2017-02-18T10:37:23Z</time>
      </trkpt>
      <trkpt lat="45.64744" lon="4.67094">
        <ele>490</ele>
        <time>2017-02-18T10:37:26Z</time>
      </trkpt>
      <trkpt lat="45.64741" lon="4.67089">
        <ele>490</ele>
        <time>2017-02-18T10:37:28Z</time>
      </trkpt>
      <trkpt lat="45.64735" lon="4.67084">
        <ele>490</ele>
        <time>2017-02-18T10:37:31Z</time>
      </trkpt>
      <trkpt lat="45.6473" lon="4.67078">
        <ele>490</ele>
        <time>2017-02-18T10:37:34Z</time>
      </trkpt>
      <trkpt lat="45.64725" lon="4.67072">
        <ele>491</ele>
        <time>2017-02-18T10:37:37Z</time>
      </trkpt>
      <trkpt lat="45.64721" lon="4.67067">
        <ele>491</ele>
        <time>2017-02-18T10:37:39Z</time>
      </trkpt>
      <trkpt lat="45.64718" lon="4.67062">
        <ele>491</ele>
        <time>2017-02-18T10:37:41Z</time>
      </trkpt>
      <trkpt lat="45.64715" lon="4.67057">
        <ele>491</ele>
        <time>2017-02-18T10:37:43Z</time>
      </trkpt>
      <trkpt lat="45.64711" lon="4.67052">
        <ele>491</ele>
        <time>2017-02-18T10:37:45Z</time>
      </trkpt>
      <trkpt lat="45.64709" lon="4.67047">
        <ele>491</ele>
        <time>2017-02-18T10:37:47Z</time>
      </trkpt>
      <trkpt lat="45.64705" lon="4.67038">
        <ele>492</ele>
        <time>2017-02-18T10:37:50Z</time>
      </trkpt>
      <trkpt lat="45.64704" lon="4.67032">
        <ele>492</ele>
        <time>2017-02-18T10:37:52Z</time>
      </trkpt>
      <trkpt lat="45.64702" lon="4.67026">
        <ele>492</ele>
        <time>2017-02-18T10:37:54Z</time>
      </trkpt>
      <trkpt lat="45.64698" lon="4.6702">
        <ele>491</ele>
        <time>2017-02-18T10:37:57Z</time>
      </trkpt>
      <trkpt lat="45.64693" lon="4.67015">
        <ele>491</ele>
        <time>2017-02-18T10:38:04Z</time>
      </trkpt>
      <trkpt lat="45.64688" lon="4.67009">
        <ele>491</ele>
        <time>2017-02-18T10:38:07Z</time>
      </trkpt>
      <trkpt lat="45.64684" lon="4.67001">
        <ele>491</ele>
        <time>2017-02-18T10:38:09Z</time>
      </trkpt>
      <trkpt lat="45.64679" lon="4.66992">
        <ele>490</ele>
        <time>2017-02-18T10:38:11Z</time>
      </trkpt>
      <trkpt lat="45.64676" lon="4.66987">
        <ele>490</ele>
        <time>2017-02-18T10:38:12Z</time>
      </trkpt>
      <trkpt lat="45.6467" lon="4.66982">
        <ele>489</ele>
        <time>2017-02-18T10:38:13Z</time>
      </trkpt>
      <trkpt lat="45.64666" lon="4.66976">
        <ele>489</ele>
        <time>2017-02-18T10:38:14Z</time>
      </trkpt>
      <trkpt lat="45.64663" lon="4.6697">
        <ele>489</ele>
        <time>2017-02-18T10:38:15Z</time>
      </trkpt>
      <trkpt lat="45.64659" lon="4.66965">
        <ele>488</ele>
        <time>2017-02-18T10:38:16Z</time>
      </trkpt>
      <trkpt lat="45.64655" lon="4.66959">
        <ele>488</ele>
        <time>2017-02-18T10:38:17Z</time>
      </trkpt>
      <trkpt lat="45.64652" lon="4.66954">
        <ele>488</ele>
        <time>2017-02-18T10:38:18Z</time>
      </trkpt>
      <trkpt lat="45.64649" lon="4.66948">
        <ele>488</ele>
        <time>2017-02-18T10:38:19Z</time>
      </trkpt>
      <trkpt lat="45.64646" lon="4.66942">
        <ele>487</ele>
        <time>2017-02-18T10:38:20Z</time>
      </trkpt>
      <trkpt lat="45.64642" lon="4.66936">
        <ele>487</ele>
        <time>2017-02-18T10:38:21Z</time>
      </trkpt>
      <trkpt lat="45.64641" lon="4.66927">
        <ele>487</ele>
        <time>2017-02-18T10:38:22Z</time>
      </trkpt>
      <trkpt lat="45.64639" lon="4.6692">
        <ele>486</ele>
        <time>2017-02-18T10:38:23Z</time>
      </trkpt>
      <trkpt lat="45.64635" lon="4.66912">
        <ele>486</ele>
        <time>2017-02-18T10:38:24Z</time>
      </trkpt>
      <trkpt lat="45.64632" lon="4.66904">
        <ele>486</ele>
        <time>2017-02-18T10:38:25Z</time>
      </trkpt>
      <trkpt lat="45.64629" lon="4.66897">
        <ele>485</ele>
        <time>2017-02-18T10:38:26Z</time>
      </trkpt>
      <trkpt lat="45.64627" lon="4.6689">
        <ele>485</ele>
        <time>2017-02-18T10:38:27Z</time>
      </trkpt>
      <trkpt lat="45.64622" lon="4.66878">
        <ele>484</ele>
        <time>2017-02-18T10:38:28Z</time>
      </trkpt>
      <trkpt lat="45.64618" lon="4.66868">
        <ele>483</ele>
        <time>2017-02-18T10:38:29Z</time>
      </trkpt>
      <trkpt lat="45.64615" lon="4.66858">
        <ele>483</ele>
        <time>2017-02-18T10:38:30Z</time>
      </trkpt>
      <trkpt lat="45.64611" lon="4.66849">
        <ele>483</ele>
        <time>2017-02-18T10:38:31Z</time>
      </trkpt>
      <trkpt lat="45.64608" lon="4.66838">
        <ele>482</ele>
        <time>2017-02-18T10:38:32Z</time>
      </trkpt>
      <trkpt lat="45.64605" lon="4.66827">
        <ele>482</ele>
        <time>2017-02-18T10:38:33Z</time>
      </trkpt>
      <trkpt lat="45.64604" lon="4.66816">
        <ele>481</ele>
        <time>2017-02-18T10:38:34Z</time>
      </trkpt>
      <trkpt lat="45.64601" lon="4.66806">
        <ele>481</ele>
        <time>2017-02-18T10:38:35Z</time>
      </trkpt>
      <trkpt lat="45.64597" lon="4.66795">
        <ele>481</ele>
        <time>2017-02-18T10:38:36Z</time>
      </trkpt>
      <trkpt lat="45.64593" lon="4.66786">
        <ele>480</ele>
        <time>2017-02-18T10:38:37Z</time>
      </trkpt>
      <trkpt lat="45.64588" lon="4.66776">
        <ele>480</ele>
        <time>2017-02-18T10:38:38Z</time>
      </trkpt>
      <trkpt lat="45.64582" lon="4.66768">
        <ele>480</ele>
        <time>2017-02-18T10:38:39Z</time>
      </trkpt>
      <trkpt lat="45.64579" lon="4.66759">
        <ele>480</ele>
        <time>2017-02-18T10:38:40Z</time>
      </trkpt>
      <trkpt lat="45.64574" lon="4.66749">
        <ele>480</ele>
        <time>2017-02-18T10:38:41Z</time>
      </trkpt>
      <trkpt lat="45.6457" lon="4.6674">
        <ele>479</ele>
        <time>2017-02-18T10:38:42Z</time>
      </trkpt>
      <trkpt lat="45.64566" lon="4.66731">
        <ele>479</ele>
        <time>2017-02-18T10:38:43Z</time>
      </trkpt>
      <trkpt lat="45.64563" lon="4.66722">
        <ele>479</ele>
        <time>2017-02-18T10:38:44Z</time>
      </trkpt>
      <trkpt lat="45.64558" lon="4.66719">
        <ele>479</ele>
        <time>2017-02-18T10:38:45Z</time>
      </trkpt>
      <trkpt lat="45.64554" lon="4.6671">
        <ele>478</ele>
        <time>2017-02-18T10:38:47Z</time>
      </trkpt>
      <trkpt lat="45.6455" lon="4.66703">
        <ele>477</ele>
        <time>2017-02-18T10:38:50Z</time>
      </trkpt>
      <trkpt lat="45.64545" lon="4.66706">
        <ele>476</ele>
        <time>2017-02-18T10:38:52Z</time>
      </trkpt>
      <trkpt lat="45.64541" lon="4.66714">
        <ele>475</ele>
        <time>2017-02-18T10:38:54Z</time>
      </trkpt>
      <trkpt lat="45.64536" lon="4.66724">
        <ele>474</ele>
        <time>2017-02-18T10:38:56Z</time>
      </trkpt>
      <trkpt lat="45.64533" lon="4.66731">
        <ele>473</ele>
        <time>2017-02-18T10:38:57Z</time>
      </trkpt>
      <trkpt lat="45.6453" lon="4.66737">
        <ele>472</ele>
        <time>2017-02-18T10:38:58Z</time>
      </trkpt>
      <trkpt lat="45.64527" lon="4.66743">
        <ele>472</ele>
        <time>2017-02-18T10:38:59Z</time>
      </trkpt>
      <trkpt lat="45.64522" lon="4.66751">
        <ele>472</ele>
        <time>2017-02-18T10:39:00Z</time>
      </trkpt>
      <trkpt lat="45.64518" lon="4.66758">
        <ele>471</ele>
        <time>2017-02-18T10:39:01Z</time>
      </trkpt>
      <trkpt lat="45.64514" lon="4.66765">
        <ele>471</ele>
        <time>2017-02-18T10:39:02Z</time>
      </trkpt>
      <trkpt lat="45.64511" lon="4.66771">
        <ele>471</ele>
        <time>2017-02-18T10:39:03Z</time>
      </trkpt>
      <trkpt lat="45.64505" lon="4.66779">
        <ele>471</ele>
        <time>2017-02-18T10:39:04Z</time>
      </trkpt>
      <trkpt lat="45.64501" lon="4.66786">
        <ele>470</ele>
        <time>2017-02-18T10:39:05Z</time>
      </trkpt>
      <trkpt lat="45.64497" lon="4.66792">
        <ele>470</ele>
        <time>2017-02-18T10:39:06Z</time>
      </trkpt>
      <trkpt lat="45.64492" lon="4.66799">
        <ele>469</ele>
        <time>2017-02-18T10:39:07Z</time>
      </trkpt>
      <trkpt lat="45.64488" lon="4.66805">
        <ele>469</ele>
        <time>2017-02-18T10:39:08Z</time>
      </trkpt>
      <trkpt lat="45.64483" lon="4.66813">
        <ele>469</ele>
        <time>2017-02-18T10:39:09Z</time>
      </trkpt>
      <trkpt lat="45.64478" lon="4.66818">
        <ele>469</ele>
        <time>2017-02-18T10:39:10Z</time>
      </trkpt>
      <trkpt lat="45.64474" lon="4.66824">
        <ele>469</ele>
        <time>2017-02-18T10:39:11Z</time>
      </trkpt>
      <trkpt lat="45.64469" lon="4.66831">
        <ele>469</ele>
        <time>2017-02-18T10:39:12Z</time>
      </trkpt>
      <trkpt lat="45.64465" lon="4.66838">
        <ele>469</ele>
        <time>2017-02-18T10:39:13Z</time>
      </trkpt>
      <trkpt lat="45.6446" lon="4.66846">
        <ele>469</ele>
        <time>2017-02-18T10:39:14Z</time>
      </trkpt>
      <trkpt lat="45.64456" lon="4.66853">
        <ele>469</ele>
        <time>2017-02-18T10:39:15Z</time>
      </trkpt>
      <trkpt lat="45.64451" lon="4.66859">
        <ele>469</ele>
        <time>2017-02-18T10:39:16Z</time>
      </trkpt>
      <trkpt lat="45.64447" lon="4.66864">
        <ele>469</ele>
        <time>2017-02-18T10:39:17Z</time>
      </trkpt>
      <trkpt lat="45.64443" lon="4.66872">
        <ele>470</ele>
        <time>2017-02-18T10:39:18Z</time>
      </trkpt>
      <trkpt lat="45.64439" lon="4.66878">
        <ele>470</ele>
        <time>2017-02-18T10:39:19Z</time>
      </trkpt>
      <trkpt lat="45.64435" lon="4.66884">
        <ele>470</ele>
        <time>2017-02-18T10:39:20Z</time>
      </trkpt>
      <trkpt lat="45.64432" lon="4.66891">
        <ele>470</ele>
        <time>2017-02-18T10:39:21Z</time>
      </trkpt>
      <trkpt lat="45.64428" lon="4.66896">
        <ele>471</ele>
        <time>2017-02-18T10:39:22Z</time>
      </trkpt>
      <trkpt lat="45.64425" lon="4.66903">
        <ele>471</ele>
        <time>2017-02-18T10:39:23Z</time>
      </trkpt>
      <trkpt lat="45.64422" lon="4.66909">
        <ele>471</ele>
        <time>2017-02-18T10:39:24Z</time>
      </trkpt>
      <trkpt lat="45.64419" lon="4.66916">
        <ele>471</ele>
        <time>2017-02-18T10:39:25Z</time>
      </trkpt>
      <trkpt lat="45.64417" lon="4.66922">
        <ele>471</ele>
        <time>2017-02-18T10:39:26Z</time>
      </trkpt>
      <trkpt lat="45.64414" lon="4.66928">
        <ele>470</ele>
        <time>2017-02-18T10:39:27Z</time>
      </trkpt>
      <trkpt lat="45.6441" lon="4.66933">
        <ele>470</ele>
        <time>2017-02-18T10:39:28Z</time>
      </trkpt>
      <trkpt lat="45.64407" lon="4.66941">
        <ele>470</ele>
        <time>2017-02-18T10:39:30Z</time>
      </trkpt>
      <trkpt lat="45.64402" lon="4.66949">
        <ele>469</ele>
        <time>2017-02-18T10:39:32Z</time>
      </trkpt>
      <trkpt lat="45.64399" lon="4.66957">
        <ele>469</ele>
        <time>2017-02-18T10:39:34Z</time>
      </trkpt>
      <trkpt lat="45.64394" lon="4.66966">
        <ele>469</ele>
        <time>2017-02-18T10:39:36Z</time>
      </trkpt>
      <trkpt lat="45.64391" lon="4.66974">
        <ele>469</ele>
        <time>2017-02-18T10:39:38Z</time>
      </trkpt>
      <trkpt lat="45.64387" lon="4.66981">
        <ele>469</ele>
        <time>2017-02-18T10:39:40Z</time>
      </trkpt>
      <trkpt lat="45.64381" lon="4.66985">
        <ele>468</ele>
        <time>2017-02-18T10:39:42Z</time>
      </trkpt>
      <trkpt lat="45.64368" lon="4.66984">
        <ele>468</ele>
        <time>2017-02-18T10:39:44Z</time>
      </trkpt>
      <trkpt lat="45.64363" lon="4.66986">
        <ele>467</ele>
        <time>2017-02-18T10:39:45Z</time>
      </trkpt>
      <trkpt lat="45.64357" lon="4.66988">
        <ele>466</ele>
        <time>2017-02-18T10:39:46Z</time>
      </trkpt>
      <trkpt lat="45.64352" lon="4.6699">
        <ele>465</ele>
        <time>2017-02-18T10:39:47Z</time>
      </trkpt>
      <trkpt lat="45.64345" lon="4.66992">
        <ele>465</ele>
        <time>2017-02-18T10:39:48Z</time>
      </trkpt>
      <trkpt lat="45.64339" lon="4.66995">
        <ele>464</ele>
        <time>2017-02-18T10:39:49Z</time>
      </trkpt>
      <trkpt lat="45.64335" lon="4.66997">
        <ele>463</ele>
        <time>2017-02-18T10:39:50Z</time>
      </trkpt>
      <trkpt lat="45.6433" lon="4.66995">
        <ele>462</ele>
        <time>2017-02-18T10:39:51Z</time>
      </trkpt>
      <trkpt lat="45.64325" lon="4.66989">
        <ele>461</ele>
        <time>2017-02-18T10:39:52Z</time>
      </trkpt>
      <trkpt lat="45.64321" lon="4.6698">
        <ele>460</ele>
        <time>2017-02-18T10:39:53Z</time>
      </trkpt>
      <trkpt lat="45.64317" lon="4.66971">
        <ele>459</ele>
        <time>2017-02-18T10:39:54Z</time>
      </trkpt>
      <trkpt lat="45.64311" lon="4.6696">
        <ele>458</ele>
        <time>2017-02-18T10:39:55Z</time>
      </trkpt>
      <trkpt lat="45.64306" lon="4.6695">
        <ele>457</ele>
        <time>2017-02-18T10:39:56Z</time>
      </trkpt>
      <trkpt lat="45.643" lon="4.66939">
        <ele>456</ele>
        <time>2017-02-18T10:39:57Z</time>
      </trkpt>
      <trkpt lat="45.64294" lon="4.66927">
        <ele>455</ele>
        <time>2017-02-18T10:39:58Z</time>
      </trkpt>
      <trkpt lat="45.6429" lon="4.66917">
        <ele>454</ele>
        <time>2017-02-18T10:39:59Z</time>
      </trkpt>
      <trkpt lat="45.64284" lon="4.66906">
        <ele>453</ele>
        <time>2017-02-18T10:40:00Z</time>
      </trkpt>
      <trkpt lat="45.64278" lon="4.66894">
        <ele>453</ele>
        <time>2017-02-18T10:40:01Z</time>
      </trkpt>
      <trkpt lat="45.64272" lon="4.66883">
        <ele>452</ele>
        <time>2017-02-18T10:40:02Z</time>
      </trkpt>
      <trkpt lat="45.64266" lon="4.66874">
        <ele>452</ele>
        <time>2017-02-18T10:40:03Z</time>
      </trkpt>
      <trkpt lat="45.64259" lon="4.66869">
        <ele>452</ele>
        <time>2017-02-18T10:40:04Z</time>
      </trkpt>
      <trkpt lat="45.64252" lon="4.66862">
        <ele>451</ele>
        <time>2017-02-18T10:40:05Z</time>
      </trkpt>
      <trkpt lat="45.64245" lon="4.66857">
        <ele>450</ele>
        <time>2017-02-18T10:40:06Z</time>
      </trkpt>
      <trkpt lat="45.64238" lon="4.66853">
        <ele>450</ele>
        <time>2017-02-18T10:40:07Z</time>
      </trkpt>
      <trkpt lat="45.64232" lon="4.66849">
        <ele>449</ele>
        <time>2017-02-18T10:40:08Z</time>
      </trkpt>
      <trkpt lat="45.64225" lon="4.66847">
        <ele>449</ele>
        <time>2017-02-18T10:40:09Z</time>
      </trkpt>
      <trkpt lat="45.64219" lon="4.66844">
        <ele>449</ele>
        <time>2017-02-18T10:40:10Z</time>
      </trkpt>
      <trkpt lat="45.64213" lon="4.66843">
        <ele>449</ele>
        <time>2017-02-18T10:40:11Z</time>
      </trkpt>
      <trkpt lat="45.64208" lon="4.66843">
        <ele>449</ele>
        <time>2017-02-18T10:40:12Z</time>
      </trkpt>
      <trkpt lat="45.64203" lon="4.66842">
        <ele>449</ele>
        <time>2017-02-18T10:40:13Z</time>
      </trkpt>
      <trkpt lat="45.64195" lon="4.66839">
        <ele>448</ele>
        <time>2017-02-18T10:40:15Z</time>
      </trkpt>
      <trkpt lat="45.64191" lon="4.6684">
        <ele>448</ele>
        <time>2017-02-18T10:40:16Z</time>
      </trkpt>
      <trkpt lat="45.64182" lon="4.66842">
        <ele>448</ele>
        <time>2017-02-18T10:40:18Z</time>
      </trkpt>
      <trkpt lat="45.64174" lon="4.66842">
        <ele>448</ele>
        <time>2017-02-18T10:40:20Z</time>
      </trkpt>
      <trkpt lat="45.64165" lon="4.66845">
        <ele>447</ele>
        <time>2017-02-18T10:40:22Z</time>
      </trkpt>
      <trkpt lat="45.64156" lon="4.66846">
        <ele>447</ele>
        <time>2017-02-18T10:40:24Z</time>
      </trkpt>
      <trkpt lat="45.64148" lon="4.66847">
        <ele>447</ele>
        <time>2017-02-18T10:40:26Z</time>
      </trkpt>
      <trkpt lat="45.64139" lon="4.66848">
        <ele>447</ele>
        <time>2017-02-18T10:40:28Z</time>
      </trkpt>
      <trkpt lat="45.6413" lon="4.6685">
        <ele>447</ele>
        <time>2017-02-18T10:40:30Z</time>
      </trkpt>
      <trkpt lat="45.64126" lon="4.6685">
        <ele>447</ele>
        <time>2017-02-18T10:40:31Z</time>
      </trkpt>
      <trkpt lat="45.64121" lon="4.66852">
        <ele>446</ele>
        <time>2017-02-18T10:40:32Z</time>
      </trkpt>
      <trkpt lat="45.64115" lon="4.66853">
        <ele>446</ele>
        <time>2017-02-18T10:40:33Z</time>
      </trkpt>
      <trkpt lat="45.6411" lon="4.66852">
        <ele>445</ele>
        <time>2017-02-18T10:40:34Z</time>
      </trkpt>
      <trkpt lat="45.64105" lon="4.66853">
        <ele>445</ele>
        <time>2017-02-18T10:40:35Z</time>
      </trkpt>
      <trkpt lat="45.641" lon="4.66854">
        <ele>444</ele>
        <time>2017-02-18T10:40:36Z</time>
      </trkpt>
      <trkpt lat="45.64094" lon="4.66854">
        <ele>444</ele>
        <time>2017-02-18T10:40:37Z</time>
      </trkpt>
      <trkpt lat="45.64088" lon="4.66856">
        <ele>443</ele>
        <time>2017-02-18T10:40:38Z</time>
      </trkpt>
      <trkpt lat="45.64081" lon="4.66857">
        <ele>443</ele>
        <time>2017-02-18T10:40:40Z</time>
      </trkpt>
      <trkpt lat="45.64075" lon="4.66855">
        <ele>443</ele>
        <time>2017-02-18T10:40:43Z</time>
      </trkpt>
      <trkpt lat="45.64071" lon="4.66852">
        <ele>442</ele>
        <time>2017-02-18T10:40:50Z</time>
      </trkpt>
      <trkpt lat="45.6407" lon="4.66851">
        <ele>441</ele>
        <time>2017-02-18T10:41:12Z</time>
      </trkpt>
      <trkpt lat="45.6407" lon="4.66851">
        <ele>441</ele>
        <time>2017-02-18T10:41:15Z</time>
      </trkpt>
    </trkseg>
  </trk>
</gpx>